<?xml version="1.0" encoding="UTF-8" standalone="no" ?>
<gpx xmlns="http://www.topografix.com/GPX/1/1" creator="MapSource 6.16.3" version="1.1" xmlns:xsi="http://www.w3.org/2001/XMLSchema-instance" xsi:schemaLocation="http://www.topografix.com/GPX/1/1 http://www.topografix.com/GPX/1/1/gpx.xsd">

  <metadata>
    <link href="http://www.garmin.com">
      <text>Garmin International</text>
    </link>
    <time>2017-05-05T19:12:19Z</time>
    <bounds maxlat="49.238717034459114" maxlon="8.938789023086429" minlat="49.127065977081656" minlon="8.829317009076476"/>
  </metadata>

  <wpt lat="49.175154464319348" lon="8.830488966777921">
    <time>2017-05-05T19:10:54Z</time>
    <name>Elsenzer See</name>
    <cmt>Elsenzer See</cmt>
    <desc>Elsenzer See</desc>
    <sym>Flag, Blue</sym>
    <extensions>
      <gpxx:WaypointExtension xmlns:gpxx="http://www.garmin.com/xmlschemas/GpxExtensions/v3">
        <gpxx:DisplayMode>SymbolAndName</gpxx:DisplayMode>
      </gpxx:WaypointExtension>
    </extensions>
  </wpt>

  <wpt lat="49.136924771592021" lon="8.908892618492246">
    <time>2017-05-05T19:09:38Z</time>
    <name>Verpflegung</name>
    <cmt>Eppingen</cmt>
    <desc>Eppingen</desc>
    <sym>Flag, Blue</sym>
    <extensions>
      <gpxx:WaypointExtension xmlns:gpxx="http://www.garmin.com/xmlschemas/GpxExtensions/v3">
        <gpxx:DisplayMode>SymbolAndName</gpxx:DisplayMode>
      </gpxx:WaypointExtension>
    </extensions>
  </wpt>

  <trk>
    <name>Tretro2017</name>
    <trkseg>
      <trkpt lat="49.238717034459114" lon="8.898175014182925">
        <ele>173.59999999999999</ele>
        <time>2017-05-05T12:15:42Z</time>
      </trkpt>
      <trkpt lat="49.238713011145592" lon="8.898179037496448">
        <ele>203.80000000000001</ele>
        <time>2017-05-05T12:15:43Z</time>
      </trkpt>
      <trkpt lat="49.238705970346928" lon="8.898194041103125">
        <ele>204</ele>
        <time>2017-05-05T12:15:44Z</time>
      </trkpt>
      <trkpt lat="49.238680992275476" lon="8.89824902638793">
        <ele>204</ele>
        <time>2017-05-05T12:15:46Z</time>
      </trkpt>
      <trkpt lat="49.238669006153941" lon="8.898291019722819">
        <ele>204.19999999999999</ele>
        <time>2017-05-05T12:15:47Z</time>
      </trkpt>
      <trkpt lat="49.238651990890503" lon="8.898332007229328">
        <ele>204.19999999999999</ele>
        <time>2017-05-05T12:15:48Z</time>
      </trkpt>
      <trkpt lat="49.238633969798684" lon="8.898369977250695">
        <ele>204.40000000000001</ele>
        <time>2017-05-05T12:15:49Z</time>
      </trkpt>
      <trkpt lat="49.238588036969304" lon="8.898427980020642">
        <ele>204.80000000000001</ele>
        <time>2017-05-05T12:15:51Z</time>
      </trkpt>
      <trkpt lat="49.238529028370976" lon="8.898439966142178">
        <ele>205</ele>
        <time>2017-05-05T12:15:53Z</time>
      </trkpt>
      <trkpt lat="49.23845199868083" lon="8.898399984464049">
        <ele>205.40000000000001</ele>
        <time>2017-05-05T12:15:55Z</time>
      </trkpt>
      <trkpt lat="49.238373041152954" lon="8.898370983079076">
        <ele>205.59999999999999</ele>
        <time>2017-05-05T12:15:57Z</time>
      </trkpt>
      <trkpt lat="49.238333981484175" lon="8.898374000564218">
        <ele>205.59999999999999</ele>
        <time>2017-05-05T12:15:58Z</time>
      </trkpt>
      <trkpt lat="49.238256029784679" lon="8.898410964757204">
        <ele>205.80000000000001</ele>
        <time>2017-05-05T12:16:00Z</time>
      </trkpt>
      <trkpt lat="49.238185035064816" lon="8.898482965305448">
        <ele>206</ele>
        <time>2017-05-05T12:16:03Z</time>
      </trkpt>
      <trkpt lat="49.23815100453794" lon="8.898524958640337">
        <ele>206.19999999999999</ele>
        <time>2017-05-05T12:16:04Z</time>
      </trkpt>
      <trkpt lat="49.238083027303219" lon="8.898619003593922">
        <ele>206.40000000000001</ele>
        <time>2017-05-05T12:16:06Z</time>
      </trkpt>
      <trkpt lat="49.23795604147017" lon="8.898811032995582">
        <ele>207.40000000000001</ele>
        <time>2017-05-05T12:16:10Z</time>
      </trkpt>
      <trkpt lat="49.237926034256816" lon="8.898863000795245">
        <ele>207.80000000000001</ele>
        <time>2017-05-05T12:16:11Z</time>
      </trkpt>
      <trkpt lat="49.237832995131612" lon="8.899012031033635">
        <ele>208.40000000000001</ele>
        <time>2017-05-05T12:16:14Z</time>
      </trkpt>
      <trkpt lat="49.237800976261497" lon="8.899058969691396">
        <ele>208.59999999999999</ele>
        <time>2017-05-05T12:16:15Z</time>
      </trkpt>
      <trkpt lat="49.237703997641802" lon="8.899201964959502">
        <ele>209.40000000000001</ele>
        <time>2017-05-05T12:16:18Z</time>
      </trkpt>
      <trkpt lat="49.237669967114925" lon="8.899248987436295">
        <ele>209.59999999999999</ele>
        <time>2017-05-05T12:16:19Z</time>
      </trkpt>
      <trkpt lat="49.237608024850488" lon="8.89934697188437">
        <ele>209.80000000000001</ele>
        <time>2017-05-05T12:16:21Z</time>
      </trkpt>
      <trkpt lat="49.237515991553664" lon="8.89949700795114">
        <ele>210.80000000000001</ele>
        <time>2017-05-05T12:16:24Z</time>
      </trkpt>
      <trkpt lat="49.237434016540647" lon="8.899657018482685">
        <ele>211.40000000000001</ele>
        <time>2017-05-05T12:16:27Z</time>
      </trkpt>
      <trkpt lat="49.237418007105589" lon="8.899717032909393">
        <ele>211.80000000000001</ele>
        <time>2017-05-05T12:16:28Z</time>
      </trkpt>
      <trkpt lat="49.237396968528628" lon="8.89977796934545">
        <ele>212</ele>
        <time>2017-05-05T12:16:29Z</time>
      </trkpt>
      <trkpt lat="49.237370984628797" lon="8.899834966287017">
        <ele>212.19999999999999</ele>
        <time>2017-05-05T12:16:30Z</time>
      </trkpt>
      <trkpt lat="49.237285992130637" lon="8.899980979040265">
        <ele>213</ele>
        <time>2017-05-05T12:16:33Z</time>
      </trkpt>
      <trkpt lat="49.237257996574044" lon="8.900029007345438">
        <ele>213.40000000000001</ele>
        <time>2017-05-05T12:16:34Z</time>
      </trkpt>
      <trkpt lat="49.237088011577725" lon="8.900327989831567">
        <ele>214.19999999999999</ele>
        <time>2017-05-05T12:16:40Z</time>
      </trkpt>
      <trkpt lat="49.237052975222468" lon="8.900380041450262">
        <ele>214.40000000000001</ele>
        <time>2017-05-05T12:16:41Z</time>
      </trkpt>
      <trkpt lat="49.236823981627822" lon="8.900749012827873">
        <ele>214</ele>
        <time>2017-05-05T12:16:47Z</time>
      </trkpt>
      <trkpt lat="49.236729014664888" lon="8.900909023359418">
        <ele>213.40000000000001</ele>
        <time>2017-05-05T12:16:49Z</time>
      </trkpt>
      <trkpt lat="49.236681992188096" lon="8.901004996150732">
        <ele>213</ele>
        <time>2017-05-05T12:16:50Z</time>
      </trkpt>
      <trkpt lat="49.236631030216813" lon="8.901100968942046">
        <ele>212.59999999999999</ele>
        <time>2017-05-05T12:16:51Z</time>
      </trkpt>
      <trkpt lat="49.236521981656551" lon="8.901295010000467">
        <ele>211.59999999999999</ele>
        <time>2017-05-05T12:16:53Z</time>
      </trkpt>
      <trkpt lat="49.23634403385222" lon="8.901582006365061">
        <ele>210.19999999999999</ele>
        <time>2017-05-05T12:16:56Z</time>
      </trkpt>
      <trkpt lat="49.236287036910653" lon="8.901682002469897">
        <ele>209.80000000000001</ele>
        <time>2017-05-05T12:16:57Z</time>
      </trkpt>
      <trkpt lat="49.236188968643546" lon="8.901890041306615">
        <ele>209</ele>
        <time>2017-05-05T12:16:59Z</time>
      </trkpt>
      <trkpt lat="49.236138006672263" lon="8.902111994102597">
        <ele>208.59999999999999</ele>
        <time>2017-05-05T12:17:01Z</time>
      </trkpt>
      <trkpt lat="49.236115962266922" lon="8.902433020994067">
        <ele>208.40000000000001</ele>
        <time>2017-05-05T12:17:04Z</time>
      </trkpt>
      <trkpt lat="49.236112022772431" lon="8.902516001835465">
        <ele>208.40000000000001</ele>
        <time>2017-05-05T12:17:05Z</time>
      </trkpt>
      <trkpt lat="49.236070029437542" lon="8.902650028467178">
        <ele>208.59999999999999</ele>
        <time>2017-05-05T12:17:07Z</time>
      </trkpt>
      <trkpt lat="49.236025018617511" lon="8.902672994881868">
        <ele>208.80000000000001</ele>
        <time>2017-05-05T12:17:08Z</time>
      </trkpt>
      <trkpt lat="49.235918987542391" lon="8.902657991275191">
        <ele>208.80000000000001</ele>
        <time>2017-05-05T12:17:10Z</time>
      </trkpt>
      <trkpt lat="49.235807005316019" lon="8.902636030688882">
        <ele>208.80000000000001</ele>
        <time>2017-05-05T12:17:12Z</time>
      </trkpt>
      <trkpt lat="49.235456977039576" lon="8.902577022090554">
        <ele>209.19999999999999</ele>
        <time>2017-05-05T12:17:18Z</time>
      </trkpt>
      <trkpt lat="49.23522898927331" lon="8.902562018483877">
        <ele>209.80000000000001</ele>
        <time>2017-05-05T12:17:22Z</time>
      </trkpt>
      <trkpt lat="49.235109966248274" lon="8.902567969635129">
        <ele>210.19999999999999</ele>
        <time>2017-05-05T12:17:24Z</time>
      </trkpt>
      <trkpt lat="49.234948027879" lon="8.902613986283541">
        <ele>210.59999999999999</ele>
        <time>2017-05-05T12:17:27Z</time>
      </trkpt>
      <trkpt lat="49.234894970431924" lon="8.902634019032121">
        <ele>211</ele>
        <time>2017-05-05T12:17:28Z</time>
      </trkpt>
      <trkpt lat="49.234795980155468" lon="8.902678024023771">
        <ele>211.59999999999999</ele>
        <time>2017-05-05T12:17:30Z</time>
      </trkpt>
      <trkpt lat="49.234695984050632" lon="8.902721023187041">
        <ele>212.19999999999999</ele>
        <time>2017-05-05T12:17:32Z</time>
      </trkpt>
      <trkpt lat="49.23464703373611" lon="8.902747007086873">
        <ele>212.59999999999999</ele>
        <time>2017-05-05T12:17:33Z</time>
      </trkpt>
      <trkpt lat="49.234557012096047" lon="8.902800986543298">
        <ele>213.19999999999999</ele>
        <time>2017-05-05T12:17:35Z</time>
      </trkpt>
      <trkpt lat="49.234481994062662" lon="8.902855971828103">
        <ele>214.40000000000001</ele>
        <time>2017-05-05T12:17:37Z</time>
      </trkpt>
      <trkpt lat="49.23437001183629" lon="8.902942975983024">
        <ele>215.59999999999999</ele>
        <time>2017-05-05T12:17:40Z</time>
      </trkpt>
      <trkpt lat="49.234301028773189" lon="8.903009025380015">
        <ele>216.80000000000001</ele>
        <time>2017-05-05T12:17:42Z</time>
      </trkpt>
      <trkpt lat="49.234271021559834" lon="8.90304297208786">
        <ele>217.40000000000001</ele>
        <time>2017-05-05T12:17:43Z</time>
      </trkpt>
      <trkpt lat="49.2342400085181" lon="8.903080020099878">
        <ele>218</ele>
        <time>2017-05-05T12:17:44Z</time>
      </trkpt>
      <trkpt lat="49.234151998534799" lon="8.903195019811392">
        <ele>219.40000000000001</ele>
        <time>2017-05-05T12:17:47Z</time>
      </trkpt>
      <trkpt lat="49.234073963016272" lon="8.903296021744609">
        <ele>220.80000000000001</ele>
        <time>2017-05-05T12:17:50Z</time>
      </trkpt>
      <trkpt lat="49.234019983559847" lon="8.903390988707542">
        <ele>221.80000000000001</ele>
        <time>2017-05-05T12:17:53Z</time>
      </trkpt>
      <trkpt lat="49.2339619807899" lon="8.903489978983998">
        <ele>222.59999999999999</ele>
        <time>2017-05-05T12:17:56Z</time>
      </trkpt>
      <trkpt lat="49.233943037688732" lon="8.90353498980403">
        <ele>222.80000000000001</ele>
        <time>2017-05-05T12:17:57Z</time>
      </trkpt>
      <trkpt lat="49.233926022425294" lon="8.903587041422725">
        <ele>223</ele>
        <time>2017-05-05T12:17:58Z</time>
      </trkpt>
      <trkpt lat="49.233870031312108" lon="8.903754008933902">
        <ele>223.19999999999999</ele>
        <time>2017-05-05T12:18:01Z</time>
      </trkpt>
      <trkpt lat="49.233802976086736" lon="8.903923993930221">
        <ele>223.19999999999999</ele>
        <time>2017-05-05T12:18:04Z</time>
      </trkpt>
      <trkpt lat="49.23372401855886" lon="8.904202021658421">
        <ele>223.40000000000001</ele>
        <time>2017-05-05T12:18:08Z</time>
      </trkpt>
      <trkpt lat="49.233609018847346" lon="8.904663026332855">
        <ele>222</ele>
        <time>2017-05-05T12:18:13Z</time>
      </trkpt>
      <trkpt lat="49.233580017462373" lon="8.904767967760563">
        <ele>221.59999999999999</ele>
        <time>2017-05-05T12:18:14Z</time>
      </trkpt>
      <trkpt lat="49.23355596140027" lon="8.904881039634347">
        <ele>221.40000000000001</ele>
        <time>2017-05-05T12:18:15Z</time>
      </trkpt>
      <trkpt lat="49.233537018299103" lon="8.905000984668732">
        <ele>220.59999999999999</ele>
        <time>2017-05-05T12:18:16Z</time>
      </trkpt>
      <trkpt lat="49.233499970287085" lon="8.905243976041675">
        <ele>219.40000000000001</ele>
        <time>2017-05-05T12:18:18Z</time>
      </trkpt>
      <trkpt lat="49.233486978337169" lon="8.905373979359865">
        <ele>219</ele>
        <time>2017-05-05T12:18:19Z</time>
      </trkpt>
      <trkpt lat="49.233459988608956" lon="8.905643960461021">
        <ele>217.19999999999999</ele>
        <time>2017-05-05T12:18:21Z</time>
      </trkpt>
      <trkpt lat="49.233440961688757" lon="8.905781004577875">
        <ele>216.19999999999999</ele>
        <time>2017-05-05T12:18:22Z</time>
      </trkpt>
      <trkpt lat="49.233426041901112" lon="8.905923999845982">
        <ele>215.40000000000001</ele>
        <time>2017-05-05T12:18:23Z</time>
      </trkpt>
      <trkpt lat="49.233411960303783" lon="8.906074035912752">
        <ele>214</ele>
        <time>2017-05-05T12:18:24Z</time>
      </trkpt>
      <trkpt lat="49.233397040516138" lon="8.906224993988872">
        <ele>212.80000000000001</ele>
        <time>2017-05-05T12:18:25Z</time>
      </trkpt>
      <trkpt lat="49.233386982232332" lon="8.906378969550133">
        <ele>211.80000000000001</ele>
        <time>2017-05-05T12:18:26Z</time>
      </trkpt>
      <trkpt lat="49.233378013595939" lon="8.906533028930426">
        <ele>210.59999999999999</ele>
        <time>2017-05-05T12:18:27Z</time>
      </trkpt>
      <trkpt lat="49.233370972797275" lon="8.906679963693023">
        <ele>209.40000000000001</ele>
        <time>2017-05-05T12:18:28Z</time>
      </trkpt>
      <trkpt lat="49.233367033302784" lon="8.906812984496355">
        <ele>208.19999999999999</ele>
        <time>2017-05-05T12:18:29Z</time>
      </trkpt>
      <trkpt lat="49.23335999250412" lon="8.90701700001955">
        <ele>206.80000000000001</ele>
        <time>2017-05-05T12:18:31Z</time>
      </trkpt>
      <trkpt lat="49.233357980847359" lon="8.907089000567794">
        <ele>206.19999999999999</ele>
        <time>2017-05-05T12:18:32Z</time>
      </trkpt>
      <trkpt lat="49.233339037746191" lon="8.907186985015869">
        <ele>205.59999999999999</ele>
        <time>2017-05-05T12:18:34Z</time>
      </trkpt>
      <trkpt lat="49.233312970027328" lon="8.907223027199507">
        <ele>205.40000000000001</ele>
        <time>2017-05-05T12:18:35Z</time>
      </trkpt>
      <trkpt lat="49.233152959495783" lon="8.907253034412861">
        <ele>205</ele>
        <time>2017-05-05T12:18:38Z</time>
      </trkpt>
      <trkpt lat="49.233087999746203" lon="8.907245993614197">
        <ele>205</ele>
        <time>2017-05-05T12:18:39Z</time>
      </trkpt>
      <trkpt lat="49.232962019741535" lon="8.907224033027887">
        <ele>204.80000000000001</ele>
        <time>2017-05-05T12:18:41Z</time>
      </trkpt>
      <trkpt lat="49.232835033908486" lon="8.907178016379476">
        <ele>205</ele>
        <time>2017-05-05T12:18:43Z</time>
      </trkpt>
      <trkpt lat="49.232770996168256" lon="8.907154966145754">
        <ele>205.19999999999999</ele>
        <time>2017-05-05T12:18:44Z</time>
      </trkpt>
      <trkpt lat="49.232635963708162" lon="8.907112972810864">
        <ele>205.40000000000001</ele>
        <time>2017-05-05T12:18:46Z</time>
      </trkpt>
      <trkpt lat="49.232567986473441" lon="8.907104004174471">
        <ele>205.40000000000001</ele>
        <time>2017-05-05T12:18:47Z</time>
      </trkpt>
      <trkpt lat="49.232433959841728" lon="8.90710299834609">
        <ele>205.59999999999999</ele>
        <time>2017-05-05T12:18:49Z</time>
      </trkpt>
      <trkpt lat="49.231942025944591" lon="8.907153960317373">
        <ele>206</ele>
        <time>2017-05-05T12:18:56Z</time>
      </trkpt>
      <trkpt lat="49.231461994349957" lon="8.907236019149423">
        <ele>205.80000000000001</ele>
        <time>2017-05-05T12:19:03Z</time>
      </trkpt>
      <trkpt lat="49.231324028223753" lon="8.90725496225059">
        <ele>206</ele>
        <time>2017-05-05T12:19:05Z</time>
      </trkpt>
      <trkpt lat="49.230918008834124" lon="8.907354958355427">
        <ele>205.80000000000001</ele>
        <time>2017-05-05T12:19:11Z</time>
      </trkpt>
      <trkpt lat="49.230791023001075" lon="8.907432993873954">
        <ele>205.80000000000001</ele>
        <time>2017-05-05T12:19:13Z</time>
      </trkpt>
      <trkpt lat="49.230677029117942" lon="8.90755302272737">
        <ele>206</ele>
        <time>2017-05-05T12:19:15Z</time>
      </trkpt>
      <trkpt lat="49.230321971699595" lon="8.908018972724676">
        <ele>206</ele>
        <time>2017-05-05T12:19:22Z</time>
      </trkpt>
      <trkpt lat="49.230219963937998" lon="8.908139001578093">
        <ele>206</ele>
        <time>2017-05-05T12:19:24Z</time>
      </trkpt>
      <trkpt lat="49.230088032782078" lon="8.908161967992783">
        <ele>206.19999999999999</ele>
        <time>2017-05-05T12:19:26Z</time>
      </trkpt>
      <trkpt lat="49.2299659922719" lon="8.908110000193119">
        <ele>206.59999999999999</ele>
        <time>2017-05-05T12:19:28Z</time>
      </trkpt>
      <trkpt lat="49.229908995330334" lon="8.90808803960681">
        <ele>206.59999999999999</ele>
        <time>2017-05-05T12:19:29Z</time>
      </trkpt>
      <trkpt lat="49.229850992560387" lon="8.908086027950048">
        <ele>206.80000000000001</ele>
        <time>2017-05-05T12:19:30Z</time>
      </trkpt>
      <trkpt lat="49.229791983962059" lon="8.908106982707977">
        <ele>207</ele>
        <time>2017-05-05T12:19:31Z</time>
      </trkpt>
      <trkpt lat="49.229691987857223" lon="8.908214019611478">
        <ele>207.19999999999999</ele>
        <time>2017-05-05T12:19:33Z</time>
      </trkpt>
      <trkpt lat="49.229648988693953" lon="8.90828300267458">
        <ele>207.40000000000001</ele>
        <time>2017-05-05T12:19:34Z</time>
      </trkpt>
      <trkpt lat="49.229526026174426" lon="8.908494981005788">
        <ele>207.40000000000001</ele>
        <time>2017-05-05T12:19:37Z</time>
      </trkpt>
      <trkpt lat="49.229498030617833" lon="8.908577961847186">
        <ele>207.40000000000001</ele>
        <time>2017-05-05T12:19:38Z</time>
      </trkpt>
      <trkpt lat="49.229509010910988" lon="8.908870993182063">
        <ele>207.19999999999999</ele>
        <time>2017-05-05T12:19:41Z</time>
      </trkpt>
      <trkpt lat="49.229529965668917" lon="8.908973000943661">
        <ele>207</ele>
        <time>2017-05-05T12:19:42Z</time>
      </trkpt>
      <trkpt lat="49.22955603338778" lon="8.909184979274869">
        <ele>206.80000000000001</ele>
        <time>2017-05-05T12:19:44Z</time>
      </trkpt>
      <trkpt lat="49.229546980932355" lon="8.909294027835131">
        <ele>206.80000000000001</ele>
        <time>2017-05-05T12:19:45Z</time>
      </trkpt>
      <trkpt lat="49.22942603006959" lon="8.909568032249808">
        <ele>206.80000000000001</ele>
        <time>2017-05-05T12:19:48Z</time>
      </trkpt>
      <trkpt lat="49.229376995936036" lon="8.909646989777684">
        <ele>206.59999999999999</ele>
        <time>2017-05-05T12:19:49Z</time>
      </trkpt>
      <trkpt lat="49.229050017893314" lon="8.910185024142265">
        <ele>207</ele>
        <time>2017-05-05T12:19:56Z</time>
      </trkpt>
      <trkpt lat="49.228973994031549" lon="8.910330031067133">
        <ele>207</ele>
        <time>2017-05-05T12:19:58Z</time>
      </trkpt>
      <trkpt lat="49.228942980989814" lon="8.910489035770297">
        <ele>206.59999999999999</ele>
        <time>2017-05-05T12:20:00Z</time>
      </trkpt>
      <trkpt lat="49.22899603843689" lon="8.910634964704514">
        <ele>206.40000000000001</ele>
        <time>2017-05-05T12:20:02Z</time>
      </trkpt>
      <trkpt lat="49.22903903760016" lon="8.910704031586647">
        <ele>206.40000000000001</ele>
        <time>2017-05-05T12:20:03Z</time>
      </trkpt>
      <trkpt lat="49.229183960705996" lon="8.910922966897488">
        <ele>206</ele>
        <time>2017-05-05T12:20:06Z</time>
      </trkpt>
      <trkpt lat="49.229284040629864" lon="8.911065040156245">
        <ele>205.80000000000001</ele>
        <time>2017-05-05T12:20:08Z</time>
      </trkpt>
      <trkpt lat="49.229604983702302" lon="8.911585975438356">
        <ele>205.80000000000001</ele>
        <time>2017-05-05T12:20:15Z</time>
      </trkpt>
      <trkpt lat="49.229630967602134" lon="8.911670967936516">
        <ele>205.59999999999999</ele>
        <time>2017-05-05T12:20:16Z</time>
      </trkpt>
      <trkpt lat="49.229616969823837" lon="8.911845982074738">
        <ele>205.59999999999999</ele>
        <time>2017-05-05T12:20:18Z</time>
      </trkpt>
      <trkpt lat="49.229583023115993" lon="8.911923011764884">
        <ele>205.59999999999999</ele>
        <time>2017-05-05T12:20:19Z</time>
      </trkpt>
      <trkpt lat="49.229551004245877" lon="8.912004986777902">
        <ele>205.59999999999999</ele>
        <time>2017-05-05T12:20:20Z</time>
      </trkpt>
      <trkpt lat="49.229501970112324" lon="8.912187963724136">
        <ele>205.80000000000001</ele>
        <time>2017-05-05T12:20:22Z</time>
      </trkpt>
      <trkpt lat="49.229481015354395" lon="8.912282008677721">
        <ele>205.80000000000001</ele>
        <time>2017-05-05T12:20:23Z</time>
      </trkpt>
      <trkpt lat="49.229425024241209" lon="8.912575962021947">
        <ele>205.59999999999999</ele>
        <time>2017-05-05T12:20:26Z</time>
      </trkpt>
      <trkpt lat="49.229369033128023" lon="8.912873016670346">
        <ele>205.40000000000001</ele>
        <time>2017-05-05T12:20:29Z</time>
      </trkpt>
      <trkpt lat="49.229341959580779" lon="8.912973012775183">
        <ele>205.19999999999999</ele>
        <time>2017-05-05T12:20:30Z</time>
      </trkpt>
      <trkpt lat="49.229241963475943" lon="8.91311701387167">
        <ele>204.80000000000001</ele>
        <time>2017-05-05T12:20:32Z</time>
      </trkpt>
      <trkpt lat="49.229113971814513" lon="8.913195971399546">
        <ele>204.59999999999999</ele>
        <time>2017-05-05T12:20:34Z</time>
      </trkpt>
      <trkpt lat="49.228993020951748" lon="8.91326998360455">
        <ele>205</ele>
        <time>2017-05-05T12:20:36Z</time>
      </trkpt>
      <trkpt lat="49.228833010420203" lon="8.913404010236263">
        <ele>205.40000000000001</ele>
        <time>2017-05-05T12:20:39Z</time>
      </trkpt>
      <trkpt lat="49.228727985173464" lon="8.913497971370816">
        <ele>205.40000000000001</ele>
        <time>2017-05-05T12:20:41Z</time>
      </trkpt>
      <trkpt lat="49.228626983240247" lon="8.913604002445936">
        <ele>205.59999999999999</ele>
        <time>2017-05-05T12:20:43Z</time>
      </trkpt>
      <trkpt lat="49.22850402072072" lon="8.913813969120383">
        <ele>205.80000000000001</ele>
        <time>2017-05-05T12:20:46Z</time>
      </trkpt>
      <trkpt lat="49.228485999628901" lon="8.914002981036902">
        <ele>206.19999999999999</ele>
        <time>2017-05-05T12:20:48Z</time>
      </trkpt>
      <trkpt lat="49.228492034599185" lon="8.914110017940402">
        <ele>206.19999999999999</ele>
        <time>2017-05-05T12:20:49Z</time>
      </trkpt>
      <trkpt lat="49.228510977700353" lon="8.914543027058244">
        <ele>206.40000000000001</ele>
        <time>2017-05-05T12:20:53Z</time>
      </trkpt>
      <trkpt lat="49.228519024327397" lon="8.914764979854226">
        <ele>206.19999999999999</ele>
        <time>2017-05-05T12:20:55Z</time>
      </trkpt>
      <trkpt lat="49.228517012670636" lon="8.915517004206777">
        <ele>205.80000000000001</ele>
        <time>2017-05-05T12:21:02Z</time>
      </trkpt>
      <trkpt lat="49.228494968265295" lon="8.915725965052843">
        <ele>205.80000000000001</ele>
        <time>2017-05-05T12:21:04Z</time>
      </trkpt>
      <trkpt lat="49.228441994637251" lon="8.91591195948422">
        <ele>205.80000000000001</ele>
        <time>2017-05-05T12:21:06Z</time>
      </trkpt>
      <trkpt lat="49.228308973833919" lon="8.916165009140968">
        <ele>205.59999999999999</ele>
        <time>2017-05-05T12:21:09Z</time>
      </trkpt>
      <trkpt lat="49.228260023519397" lon="8.916240027174354">
        <ele>205.59999999999999</ele>
        <time>2017-05-05T12:21:10Z</time>
      </trkpt>
      <trkpt lat="49.22811702825129" lon="8.916461979970336">
        <ele>205.59999999999999</ele>
        <time>2017-05-05T12:21:13Z</time>
      </trkpt>
      <trkpt lat="49.227940002456307" lon="8.916787030175328">
        <ele>205.59999999999999</ele>
        <time>2017-05-05T12:21:17Z</time>
      </trkpt>
      <trkpt lat="49.227891974151134" lon="8.916860036551952">
        <ele>205.59999999999999</ele>
        <time>2017-05-05T12:21:18Z</time>
      </trkpt>
      <trkpt lat="49.22762400470674" lon="8.917298996821046">
        <ele>206.40000000000001</ele>
        <time>2017-05-05T12:21:24Z</time>
      </trkpt>
      <trkpt lat="49.227511016651988" lon="8.917510975152254">
        <ele>207.19999999999999</ele>
        <time>2017-05-05T12:21:27Z</time>
      </trkpt>
      <trkpt lat="49.227470029145479" lon="8.917570989578962">
        <ele>207.40000000000001</ele>
        <time>2017-05-05T12:21:28Z</time>
      </trkpt>
      <trkpt lat="49.227434992790222" lon="8.917620023712516">
        <ele>207.40000000000001</ele>
        <time>2017-05-05T12:21:29Z</time>
      </trkpt>
      <trkpt lat="49.227390987798572" lon="8.917663022875786">
        <ele>207.59999999999999</ele>
        <time>2017-05-05T12:21:30Z</time>
      </trkpt>
      <trkpt lat="49.22728001140058" lon="8.917722031474114">
        <ele>207.80000000000001</ele>
        <time>2017-05-05T12:21:32Z</time>
      </trkpt>
      <trkpt lat="49.227210022509098" lon="8.917746003717184">
        <ele>207.80000000000001</ele>
        <time>2017-05-05T12:21:33Z</time>
      </trkpt>
      <trkpt lat="49.226822024211287" lon="8.917805012315512">
        <ele>207</ele>
        <time>2017-05-05T12:21:38Z</time>
      </trkpt>
      <trkpt lat="49.226373005658388" lon="8.917765030637384">
        <ele>206.80000000000001</ele>
        <time>2017-05-05T12:21:44Z</time>
      </trkpt>
      <trkpt lat="49.226243002340198" lon="8.917707027867436">
        <ele>207</ele>
        <time>2017-05-05T12:21:46Z</time>
      </trkpt>
      <trkpt lat="49.22612096183002" lon="8.91760996542871">
        <ele>207</ele>
        <time>2017-05-05T12:21:48Z</time>
      </trkpt>
      <trkpt lat="49.225847963243723" lon="8.917264966294169">
        <ele>206.80000000000001</ele>
        <time>2017-05-05T12:21:53Z</time>
      </trkpt>
      <trkpt lat="49.2257110029459" lon="8.91702800989151">
        <ele>207</ele>
        <time>2017-05-05T12:21:56Z</time>
      </trkpt>
      <trkpt lat="49.225627016276121" lon="8.916844027116895">
        <ele>206.80000000000001</ele>
        <time>2017-05-05T12:21:58Z</time>
      </trkpt>
      <trkpt lat="49.225599020719528" lon="8.916743025183678">
        <ele>206.80000000000001</ele>
        <time>2017-05-05T12:21:59Z</time>
      </trkpt>
      <trkpt lat="49.225551998242736" lon="8.916429039090872">
        <ele>206.80000000000001</ele>
        <time>2017-05-05T12:22:02Z</time>
      </trkpt>
      <trkpt lat="49.225503969937563" lon="8.915782039985061">
        <ele>207</ele>
        <time>2017-05-05T12:22:08Z</time>
      </trkpt>
      <trkpt lat="49.225510004907846" lon="8.91567500308156">
        <ele>207</ele>
        <time>2017-05-05T12:22:09Z</time>
      </trkpt>
      <trkpt lat="49.225545041263103" lon="8.915465036407113">
        <ele>207</ele>
        <time>2017-05-05T12:22:11Z</time>
      </trkpt>
      <trkpt lat="49.225569013506174" lon="8.915366968140006">
        <ele>207</ele>
        <time>2017-05-05T12:22:12Z</time>
      </trkpt>
      <trkpt lat="49.225597009062767" lon="8.915278036147356">
        <ele>207.19999999999999</ele>
        <time>2017-05-05T12:22:13Z</time>
      </trkpt>
      <trkpt lat="49.225671021267772" lon="8.915032027289271">
        <ele>207.59999999999999</ele>
        <time>2017-05-05T12:22:16Z</time>
      </trkpt>
      <trkpt lat="49.225628022104502" lon="8.914849972352386">
        <ele>208.40000000000001</ele>
        <time>2017-05-05T12:22:19Z</time>
      </trkpt>
      <trkpt lat="49.225591979920864" lon="8.914798004552722">
        <ele>208.80000000000001</ele>
        <time>2017-05-05T12:22:20Z</time>
      </trkpt>
      <trkpt lat="49.225506987422705" lon="8.914697002619505">
        <ele>209.59999999999999</ele>
        <time>2017-05-05T12:22:22Z</time>
      </trkpt>
      <trkpt lat="49.225458037108183" lon="8.914647968485951">
        <ele>210</ele>
        <time>2017-05-05T12:22:23Z</time>
      </trkpt>
      <trkpt lat="49.22519501298666" lon="8.914415035396814">
        <ele>210.59999999999999</ele>
        <time>2017-05-05T12:22:28Z</time>
      </trkpt>
      <trkpt lat="49.224871974438429" lon="8.914158968254924">
        <ele>210.59999999999999</ele>
        <time>2017-05-05T12:22:34Z</time>
      </trkpt>
      <trkpt lat="49.224763009697199" lon="8.914085039868951">
        <ele>211</ele>
        <time>2017-05-05T12:22:36Z</time>
      </trkpt>
      <trkpt lat="49.224704001098871" lon="8.914051009342074">
        <ele>211.19999999999999</ele>
        <time>2017-05-05T12:22:37Z</time>
      </trkpt>
      <trkpt lat="49.224581960588694" lon="8.913992000743747">
        <ele>211</ele>
        <time>2017-05-05T12:22:39Z</time>
      </trkpt>
      <trkpt lat="49.224519012495875" lon="8.913972973823547">
        <ele>210.80000000000001</ele>
        <time>2017-05-05T12:22:40Z</time>
      </trkpt>
      <trkpt lat="49.224308039993048" lon="8.913946989923716">
        <ele>210.40000000000001</ele>
        <time>2017-05-05T12:22:43Z</time>
      </trkpt>
      <trkpt lat="49.224167978391051" lon="8.913936009630561">
        <ele>210.19999999999999</ele>
        <time>2017-05-05T12:22:45Z</time>
      </trkpt>
      <trkpt lat="49.223962035030127" lon="8.913918994367123">
        <ele>209.80000000000001</ele>
        <time>2017-05-05T12:22:48Z</time>
      </trkpt>
      <trkpt lat="49.223528020083904" lon="8.913846993818879">
        <ele>209.40000000000001</ele>
        <time>2017-05-05T12:22:54Z</time>
      </trkpt>
      <trkpt lat="49.223235994577408" lon="8.913818998262286">
        <ele>209.19999999999999</ele>
        <time>2017-05-05T12:22:58Z</time>
      </trkpt>
      <trkpt lat="49.223161982372403" lon="8.91380600631237">
        <ele>209.19999999999999</ele>
        <time>2017-05-05T12:22:59Z</time>
      </trkpt>
      <trkpt lat="49.222657978534698" lon="8.913736017420888">
        <ele>209.40000000000001</ele>
        <time>2017-05-05T12:23:06Z</time>
      </trkpt>
      <trkpt lat="49.222585977986455" lon="8.913729982450604">
        <ele>209.40000000000001</ele>
        <time>2017-05-05T12:23:07Z</time>
      </trkpt>
      <trkpt lat="49.222169984132051" lon="8.913786979392171">
        <ele>209.40000000000001</ele>
        <time>2017-05-05T12:23:13Z</time>
      </trkpt>
      <trkpt lat="49.22210200689733" lon="8.91382503323257">
        <ele>209.40000000000001</ele>
        <time>2017-05-05T12:23:14Z</time>
      </trkpt>
      <trkpt lat="49.221916012465954" lon="8.913987977430224">
        <ele>209.19999999999999</ele>
        <time>2017-05-05T12:23:17Z</time>
      </trkpt>
      <trkpt lat="49.221688024699688" lon="8.91423499211669">
        <ele>209</ele>
        <time>2017-05-05T12:23:21Z</time>
      </trkpt>
      <trkpt lat="49.221569001674652" lon="8.914350997656584">
        <ele>209</ele>
        <time>2017-05-05T12:23:23Z</time>
      </trkpt>
      <trkpt lat="49.221256021410227" lon="8.914594994857907">
        <ele>208.80000000000001</ele>
        <time>2017-05-05T12:23:28Z</time>
      </trkpt>
      <trkpt lat="49.220852013677359" lon="8.914777971804142">
        <ele>208.59999999999999</ele>
        <time>2017-05-05T12:23:34Z</time>
      </trkpt>
      <trkpt lat="49.220372987911105" lon="8.914891965687275">
        <ele>209.19999999999999</ele>
        <time>2017-05-05T12:23:41Z</time>
      </trkpt>
      <trkpt lat="49.219915000721812" lon="8.915015012025833">
        <ele>209.40000000000001</ele>
        <time>2017-05-05T12:23:48Z</time>
      </trkpt>
      <trkpt lat="49.219671003520489" lon="8.915110984817147">
        <ele>209.80000000000001</ele>
        <time>2017-05-05T12:23:52Z</time>
      </trkpt>
      <trkpt lat="49.219442009925842" lon="8.915220033377409">
        <ele>210</ele>
        <time>2017-05-05T12:23:56Z</time>
      </trkpt>
      <trkpt lat="49.219359029084444" lon="8.915304020047188">
        <ele>209.80000000000001</ele>
        <time>2017-05-05T12:23:58Z</time>
      </trkpt>
      <trkpt lat="49.219349976629019" lon="8.915367973968387">
        <ele>210</ele>
        <time>2017-05-05T12:23:59Z</time>
      </trkpt>
      <trkpt lat="49.219404039904475" lon="8.915655976161361">
        <ele>210.19999999999999</ele>
        <time>2017-05-05T12:24:03Z</time>
      </trkpt>
      <trkpt lat="49.219493977725506" lon="8.916114969179034">
        <ele>209.59999999999999</ele>
        <time>2017-05-05T12:24:08Z</time>
      </trkpt>
      <trkpt lat="49.219618029892445" lon="8.916606986895204">
        <ele>209</ele>
        <time>2017-05-05T12:24:13Z</time>
      </trkpt>
      <trkpt lat="49.219682989642024" lon="8.916883002966642">
        <ele>209</ele>
        <time>2017-05-05T12:24:16Z</time>
      </trkpt>
      <trkpt lat="49.219712996855378" lon="8.917037984356284">
        <ele>209</ele>
        <time>2017-05-05T12:24:18Z</time>
      </trkpt>
      <trkpt lat="49.219698999077082" lon="8.917105961591005">
        <ele>209</ele>
        <time>2017-05-05T12:24:19Z</time>
      </trkpt>
      <trkpt lat="49.219615012407303" lon="8.917199000716209">
        <ele>208.80000000000001</ele>
        <time>2017-05-05T12:24:21Z</time>
      </trkpt>
      <trkpt lat="49.219562038779259" lon="8.917231019586325">
        <ele>208.80000000000001</ele>
        <time>2017-05-05T12:24:22Z</time>
      </trkpt>
      <trkpt lat="49.219160964712501" lon="8.9174809679389">
        <ele>208.59999999999999</ele>
        <time>2017-05-05T12:24:29Z</time>
      </trkpt>
      <trkpt lat="49.219100028276443" lon="8.917510975152254">
        <ele>208.80000000000001</ele>
        <time>2017-05-05T12:24:30Z</time>
      </trkpt>
      <trkpt lat="49.218795010820031" lon="8.917697975412011">
        <ele>208.80000000000001</ele>
        <time>2017-05-05T12:24:35Z</time>
      </trkpt>
      <trkpt lat="49.218732984736562" lon="8.917735023424029">
        <ele>208.80000000000001</ele>
        <time>2017-05-05T12:24:36Z</time>
      </trkpt>
      <trkpt lat="49.218418998643756" lon="8.917918000370264">
        <ele>209.19999999999999</ele>
        <time>2017-05-05T12:24:41Z</time>
      </trkpt>
      <trkpt lat="49.218359990045428" lon="8.917956976220012">
        <ele>209.40000000000001</ele>
        <time>2017-05-05T12:24:42Z</time>
      </trkpt>
      <trkpt lat="49.21791197732091" lon="8.918307004496455">
        <ele>210</ele>
        <time>2017-05-05T12:24:50Z</time>
      </trkpt>
      <trkpt lat="49.217763030901551" lon="8.918483024463058">
        <ele>210</ele>
        <time>2017-05-05T12:24:53Z</time>
      </trkpt>
      <trkpt lat="49.217625986784697" lon="8.918663989752531">
        <ele>210.19999999999999</ele>
        <time>2017-05-05T12:24:56Z</time>
      </trkpt>
      <trkpt lat="49.217530013993382" lon="8.918761974200606">
        <ele>210.19999999999999</ele>
        <time>2017-05-05T12:24:58Z</time>
      </trkpt>
      <trkpt lat="49.21733102761209" lon="8.918928019702435">
        <ele>210.19999999999999</ele>
        <time>2017-05-05T12:25:02Z</time>
      </trkpt>
      <trkpt lat="49.217240000143647" lon="8.918987028300762">
        <ele>210.19999999999999</ele>
        <time>2017-05-05T12:25:04Z</time>
      </trkpt>
      <trkpt lat="49.217126006260514" lon="8.919016029685736">
        <ele>210.19999999999999</ele>
        <time>2017-05-05T12:25:07Z</time>
      </trkpt>
      <trkpt lat="49.217061968520284" lon="8.918981999158859">
        <ele>210.59999999999999</ele>
        <time>2017-05-05T12:25:09Z</time>
      </trkpt>
      <trkpt lat="49.217033972963691" lon="8.918931037187576">
        <ele>210.59999999999999</ele>
        <time>2017-05-05T12:25:10Z</time>
      </trkpt>
      <trkpt lat="49.216941017657518" lon="8.918632976710796">
        <ele>210.59999999999999</ele>
        <time>2017-05-05T12:25:14Z</time>
      </trkpt>
      <trkpt lat="49.216918973252177" lon="8.918557036668062">
        <ele>210.59999999999999</ele>
        <time>2017-05-05T12:25:15Z</time>
      </trkpt>
      <trkpt lat="49.216761980205774" lon="8.917988995090127">
        <ele>210.19999999999999</ele>
        <time>2017-05-05T12:25:22Z</time>
      </trkpt>
      <trkpt lat="49.216726021841168" lon="8.917853040620685">
        <ele>209.80000000000001</ele>
        <time>2017-05-05T12:25:24Z</time>
      </trkpt>
      <trkpt lat="49.216700037941337" lon="8.917761007323861">
        <ele>209.80000000000001</ele>
        <time>2017-05-05T12:25:26Z</time>
      </trkpt>
      <trkpt lat="49.216675981879234" lon="8.917728988453746">
        <ele>209.80000000000001</ele>
        <time>2017-05-05T12:25:27Z</time>
      </trkpt>
      <trkpt lat="49.21659903600812" lon="8.917729994282126">
        <ele>209.80000000000001</ele>
        <time>2017-05-05T12:25:29Z</time>
      </trkpt>
      <trkpt lat="49.216402983292937" lon="8.917839964851737">
        <ele>209.80000000000001</ele>
        <time>2017-05-05T12:25:33Z</time>
      </trkpt>
      <trkpt lat="49.216296030208468" lon="8.917905008420348">
        <ele>209.80000000000001</ele>
        <time>2017-05-05T12:25:35Z</time>
      </trkpt>
      <trkpt lat="49.216027976945043" lon="8.918113969266415">
        <ele>209.80000000000001</ele>
        <time>2017-05-05T12:25:40Z</time>
      </trkpt>
      <trkpt lat="49.215647019445896" lon="8.918438013643026">
        <ele>210.19999999999999</ele>
        <time>2017-05-05T12:25:47Z</time>
      </trkpt>
      <trkpt lat="49.215595973655581" lon="8.918485958129168">
        <ele>210.19999999999999</ele>
        <time>2017-05-05T12:25:48Z</time>
      </trkpt>
      <trkpt lat="49.215346025303006" lon="8.91876800917089">
        <ele>210.40000000000001</ele>
        <time>2017-05-05T12:25:53Z</time>
      </trkpt>
      <trkpt lat="49.215158019214869" lon="8.919033966958523">
        <ele>210.40000000000001</ele>
        <time>2017-05-05T12:25:57Z</time>
      </trkpt>
      <trkpt lat="49.215128012001514" lon="8.919120971113443">
        <ele>210.59999999999999</ele>
        <time>2017-05-05T12:25:58Z</time>
      </trkpt>
      <trkpt lat="49.214963978156447" lon="8.919420959427953">
        <ele>210.80000000000001</ele>
        <time>2017-05-05T12:26:02Z</time>
      </trkpt>
      <trkpt lat="49.214906981214881" lon="8.919478040188551">
        <ele>210.59999999999999</ele>
        <time>2017-05-05T12:26:03Z</time>
      </trkpt>
      <trkpt lat="49.214681005105376" lon="8.919727988541126">
        <ele>210.19999999999999</ele>
        <time>2017-05-05T12:26:07Z</time>
      </trkpt>
      <trkpt lat="49.21458100900054" lon="8.919870983809233">
        <ele>210.19999999999999</ele>
        <time>2017-05-05T12:26:09Z</time>
      </trkpt>
      <trkpt lat="49.214336005970836" lon="8.920227969065309">
        <ele>210.19999999999999</ele>
        <time>2017-05-05T12:26:14Z</time>
      </trkpt>
      <trkpt lat="49.214242966845632" lon="8.92038001678884">
        <ele>210.40000000000001</ele>
        <time>2017-05-05T12:26:16Z</time>
      </trkpt>
      <trkpt lat="49.214193010702729" lon="8.920455034822226">
        <ele>210.40000000000001</ele>
        <time>2017-05-05T12:26:17Z</time>
      </trkpt>
      <trkpt lat="49.213994024321437" lon="8.920756028965116">
        <ele>210.80000000000001</ele>
        <time>2017-05-05T12:26:21Z</time>
      </trkpt>
      <trkpt lat="49.213575012981892" lon="8.921317029744387">
        <ele>211</ele>
        <time>2017-05-05T12:26:29Z</time>
      </trkpt>
      <trkpt lat="49.213415002450347" lon="8.921506963670254">
        <ele>211</ele>
        <time>2017-05-05T12:26:32Z</time>
      </trkpt>
      <trkpt lat="49.213266978040338" lon="8.921665968373418">
        <ele>211.19999999999999</ele>
        <time>2017-05-05T12:26:35Z</time>
      </trkpt>
      <trkpt lat="49.213139992207289" lon="8.92179898917675">
        <ele>211.80000000000001</ele>
        <time>2017-05-05T12:26:38Z</time>
      </trkpt>
      <trkpt lat="49.213097998872399" lon="8.921810975298286">
        <ele>212</ele>
        <time>2017-05-05T12:26:39Z</time>
      </trkpt>
      <trkpt lat="49.213030021637678" lon="8.921785997226834">
        <ele>212</ele>
        <time>2017-05-05T12:26:41Z</time>
      </trkpt>
      <trkpt lat="49.213001020252705" lon="8.921788008883596">
        <ele>212.19999999999999</ele>
        <time>2017-05-05T12:26:42Z</time>
      </trkpt>
      <trkpt lat="49.212918039411306" lon="8.921900996938348">
        <ele>212.19999999999999</ele>
        <time>2017-05-05T12:26:45Z</time>
      </trkpt>
      <trkpt lat="49.212883003056049" lon="8.921943996101618">
        <ele>212.40000000000001</ele>
        <time>2017-05-05T12:26:46Z</time>
      </trkpt>
      <trkpt lat="49.212764985859394" lon="8.922089003026485">
        <ele>212.40000000000001</ele>
        <time>2017-05-05T12:26:49Z</time>
      </trkpt>
      <trkpt lat="49.212627019733191" lon="8.922229986637831">
        <ele>212.80000000000001</ele>
        <time>2017-05-05T12:26:52Z</time>
      </trkpt>
      <trkpt lat="49.212526017799973" lon="8.9223110396415">
        <ele>213</ele>
        <time>2017-05-05T12:26:54Z</time>
      </trkpt>
      <trkpt lat="49.212469020858407" lon="8.922350015491247">
        <ele>213.19999999999999</ele>
        <time>2017-05-05T12:26:55Z</time>
      </trkpt>
      <trkpt lat="49.212226029485464" lon="8.922492004930973">
        <ele>213.40000000000001</ele>
        <time>2017-05-05T12:26:59Z</time>
      </trkpt>
      <trkpt lat="49.212164003401995" lon="8.92252997495234">
        <ele>213.40000000000001</ele>
        <time>2017-05-05T12:27:00Z</time>
      </trkpt>
      <trkpt lat="49.211968034505844" lon="8.92263600602746">
        <ele>213.19999999999999</ele>
        <time>2017-05-05T12:27:03Z</time>
      </trkpt>
      <trkpt lat="49.211583975702524" lon="8.922861982136965">
        <ele>212.80000000000001</ele>
        <time>2017-05-05T12:27:09Z</time>
      </trkpt>
      <trkpt lat="49.211260015144944" lon="8.923034984618425">
        <ele>213</ele>
        <time>2017-05-05T12:27:14Z</time>
      </trkpt>
      <trkpt lat="49.211145015433431" lon="8.923117965459824">
        <ele>212.80000000000001</ele>
        <time>2017-05-05T12:27:16Z</time>
      </trkpt>
      <trkpt lat="49.210983999073505" lon="8.923247968778014">
        <ele>212.80000000000001</ele>
        <time>2017-05-05T12:27:19Z</time>
      </trkpt>
      <trkpt lat="49.210877967998385" lon="8.923361962661147">
        <ele>212.59999999999999</ele>
        <time>2017-05-05T12:27:21Z</time>
      </trkpt>
      <trkpt lat="49.210635982453823" lon="8.923703022301197">
        <ele>212.40000000000001</ele>
        <time>2017-05-05T12:27:26Z</time>
      </trkpt>
      <trkpt lat="49.210473960265517" lon="8.923955988138914">
        <ele>212.80000000000001</ele>
        <time>2017-05-05T12:27:30Z</time>
      </trkpt>
      <trkpt lat="49.210196016356349" lon="8.924429984763265">
        <ele>212.59999999999999</ele>
        <time>2017-05-05T12:27:36Z</time>
      </trkpt>
      <trkpt lat="49.210045980289578" lon="8.924689991399646">
        <ele>212.19999999999999</ele>
        <time>2017-05-05T12:27:39Z</time>
      </trkpt>
      <trkpt lat="49.209889993071556" lon="8.924887971952558">
        <ele>212.40000000000001</ele>
        <time>2017-05-05T12:27:42Z</time>
      </trkpt>
      <trkpt lat="49.209611965343356" lon="8.925220984965563">
        <ele>212.19999999999999</ele>
        <time>2017-05-05T12:27:47Z</time>
      </trkpt>
      <trkpt lat="49.209342990070581" lon="8.925613006576896">
        <ele>211.80000000000001</ele>
        <time>2017-05-05T12:27:52Z</time>
      </trkpt>
      <trkpt lat="49.209286998957396" lon="8.925688024610281">
        <ele>211.80000000000001</ele>
        <time>2017-05-05T12:27:53Z</time>
      </trkpt>
      <trkpt lat="49.208947028964758" lon="8.926092032343149">
        <ele>212.19999999999999</ele>
        <time>2017-05-05T12:27:59Z</time>
      </trkpt>
      <trkpt lat="49.208657015115023" lon="8.926411969587207">
        <ele>211.80000000000001</ele>
        <time>2017-05-05T12:28:04Z</time>
      </trkpt>
      <trkpt lat="49.208368007093668" lon="8.926726039499044">
        <ele>212.19999999999999</ele>
        <time>2017-05-05T12:28:09Z</time>
      </trkpt>
      <trkpt lat="49.208305981010199" lon="8.926780018955469">
        <ele>212.40000000000001</ele>
        <time>2017-05-05T12:28:10Z</time>
      </trkpt>
      <trkpt lat="49.207953019067645" lon="8.927118983119726">
        <ele>212.59999999999999</ele>
        <time>2017-05-05T12:28:16Z</time>
      </trkpt>
      <trkpt lat="49.207546999678016" lon="8.927531959488988">
        <ele>212.40000000000001</ele>
        <time>2017-05-05T12:28:23Z</time>
      </trkpt>
      <trkpt lat="49.207181967794895" lon="8.9278560038656">
        <ele>212.40000000000001</ele>
        <time>2017-05-05T12:28:29Z</time>
      </trkpt>
      <trkpt lat="49.206881979480386" lon="8.928146017715335">
        <ele>212.40000000000001</ele>
        <time>2017-05-05T12:28:34Z</time>
      </trkpt>
      <trkpt lat="49.206605041399598" lon="8.928494034335017">
        <ele>212.40000000000001</ele>
        <time>2017-05-05T12:28:39Z</time>
      </trkpt>
      <trkpt lat="49.206326007843018" lon="8.928825035691261">
        <ele>212.80000000000001</ele>
        <time>2017-05-05T12:28:44Z</time>
      </trkpt>
      <trkpt lat="49.206193992868066" lon="8.928904999047518">
        <ele>212.59999999999999</ele>
        <time>2017-05-05T12:28:46Z</time>
      </trkpt>
      <trkpt lat="49.205696024000645" lon="8.929105997085571">
        <ele>212.80000000000001</ele>
        <time>2017-05-05T12:28:53Z</time>
      </trkpt>
      <trkpt lat="49.205256979912519" lon="8.9291459787637">
        <ele>213</ele>
        <time>2017-05-05T12:28:59Z</time>
      </trkpt>
      <trkpt lat="49.204680975526571" lon="8.92918998375535">
        <ele>213</ele>
        <time>2017-05-05T12:29:07Z</time>
      </trkpt>
      <trkpt lat="49.204197004437447" lon="8.929226025938988">
        <ele>213</ele>
        <time>2017-05-05T12:29:14Z</time>
      </trkpt>
      <trkpt lat="49.204072030261159" lon="8.929383018985391">
        <ele>213</ele>
        <time>2017-05-05T12:29:17Z</time>
      </trkpt>
      <trkpt lat="49.204111006110907" lon="8.929675966501236">
        <ele>213.19999999999999</ele>
        <time>2017-05-05T12:29:20Z</time>
      </trkpt>
      <trkpt lat="49.204261964187026" lon="8.930508960038424">
        <ele>213.19999999999999</ele>
        <time>2017-05-05T12:29:28Z</time>
      </trkpt>
      <trkpt lat="49.204195998609066" lon="8.930780030786991">
        <ele>213.40000000000001</ele>
        <time>2017-05-05T12:29:31Z</time>
      </trkpt>
      <trkpt lat="49.204087033867836" lon="8.93088698387146">
        <ele>213.40000000000001</ele>
        <time>2017-05-05T12:29:33Z</time>
      </trkpt>
      <trkpt lat="49.203918976709247" lon="8.931040037423372">
        <ele>213.59999999999999</ele>
        <time>2017-05-05T12:29:36Z</time>
      </trkpt>
      <trkpt lat="49.203572971746325" lon="8.93135704100132">
        <ele>214.59999999999999</ele>
        <time>2017-05-05T12:29:42Z</time>
      </trkpt>
      <trkpt lat="49.20351698063314" lon="8.931413032114506">
        <ele>214.59999999999999</ele>
        <time>2017-05-05T12:29:43Z</time>
      </trkpt>
      <trkpt lat="49.203169969841838" lon="8.931747972965241">
        <ele>214.80000000000001</ele>
        <time>2017-05-05T12:29:49Z</time>
      </trkpt>
      <trkpt lat="49.202884985134006" lon="8.932030024006963">
        <ele>214.80000000000001</ele>
        <time>2017-05-05T12:29:54Z</time>
      </trkpt>
      <trkpt lat="49.20261399820447" lon="8.932339986786246">
        <ele>215.19999999999999</ele>
        <time>2017-05-05T12:29:59Z</time>
      </trkpt>
      <trkpt lat="49.202232034876943" lon="8.932838961482048">
        <ele>215.59999999999999</ele>
        <time>2017-05-05T12:30:06Z</time>
      </trkpt>
      <trkpt lat="49.202071018517017" lon="8.933053035289049">
        <ele>215.80000000000001</ele>
        <time>2017-05-05T12:30:09Z</time>
      </trkpt>
      <trkpt lat="49.201812017709017" lon="8.933425024151802">
        <ele>215.59999999999999</ele>
        <time>2017-05-05T12:30:14Z</time>
      </trkpt>
      <trkpt lat="49.201418990269303" lon="8.933896003291011">
        <ele>215.40000000000001</ele>
        <time>2017-05-05T12:30:21Z</time>
      </trkpt>
      <trkpt lat="49.201271971687675" lon="8.933983007445931">
        <ele>215.19999999999999</ele>
        <time>2017-05-05T12:30:23Z</time>
      </trkpt>
      <trkpt lat="49.201189996674657" lon="8.934007985517383">
        <ele>215.19999999999999</ele>
        <time>2017-05-05T12:30:24Z</time>
      </trkpt>
      <trkpt lat="49.20080903917551" lon="8.934049978852272">
        <ele>215.19999999999999</ele>
        <time>2017-05-05T12:30:29Z</time>
      </trkpt>
      <trkpt lat="49.200476026162505" lon="8.934147041290999">
        <ele>215.59999999999999</ele>
        <time>2017-05-05T12:30:34Z</time>
      </trkpt>
      <trkpt lat="49.200159022584558" lon="8.934175036847591">
        <ele>216</ele>
        <time>2017-05-05T12:30:39Z</time>
      </trkpt>
      <trkpt lat="49.199963975697756" lon="8.934161961078644">
        <ele>216</ele>
        <time>2017-05-05T12:30:42Z</time>
      </trkpt>
      <trkpt lat="49.199634985998273" lon="8.934110999107361">
        <ele>215.80000000000001</ele>
        <time>2017-05-05T12:30:47Z</time>
      </trkpt>
      <trkpt lat="49.199564997106791" lon="8.934094989672303">
        <ele>215.80000000000001</ele>
        <time>2017-05-05T12:30:48Z</time>
      </trkpt>
      <trkpt lat="49.199193008244038" lon="8.934075962752104">
        <ele>216</ele>
        <time>2017-05-05T12:30:53Z</time>
      </trkpt>
      <trkpt lat="49.198678024113178" lon="8.934029024094343">
        <ele>216</ele>
        <time>2017-05-05T12:31:00Z</time>
      </trkpt>
      <trkpt lat="49.198180977255106" lon="8.933946965262294">
        <ele>216.19999999999999</ele>
        <time>2017-05-05T12:31:07Z</time>
      </trkpt>
      <trkpt lat="49.197824997827411" lon="8.933856021612883">
        <ele>216.40000000000001</ele>
        <time>2017-05-05T12:31:12Z</time>
      </trkpt>
      <trkpt lat="49.197256034240127" lon="8.933693999424577">
        <ele>217</ele>
        <time>2017-05-05T12:31:20Z</time>
      </trkpt>
      <trkpt lat="49.196924027055502" lon="8.933473974466324">
        <ele>217</ele>
        <time>2017-05-05T12:31:25Z</time>
      </trkpt>
      <trkpt lat="49.196614986285567" lon="8.933204999193549">
        <ele>217.19999999999999</ele>
        <time>2017-05-05T12:31:30Z</time>
      </trkpt>
      <trkpt lat="49.196481965482235" lon="8.933130986988545">
        <ele>217.40000000000001</ele>
        <time>2017-05-05T12:31:32Z</time>
      </trkpt>
      <trkpt lat="49.196069994941354" lon="8.933040965348482">
        <ele>217.40000000000001</ele>
        <time>2017-05-05T12:31:38Z</time>
      </trkpt>
      <trkpt lat="49.195648971945047" lon="8.933124030008912">
        <ele>218</ele>
        <time>2017-05-05T12:31:44Z</time>
      </trkpt>
      <trkpt lat="49.195371028035879" lon="8.933152025565505">
        <ele>218.40000000000001</ele>
        <time>2017-05-05T12:31:48Z</time>
      </trkpt>
      <trkpt lat="49.195302966982126" lon="8.933153031393886">
        <ele>218.59999999999999</ele>
        <time>2017-05-05T12:31:49Z</time>
      </trkpt>
      <trkpt lat="49.19487901031971" lon="8.93316300585866">
        <ele>218.40000000000001</ele>
        <time>2017-05-05T12:31:55Z</time>
      </trkpt>
      <trkpt lat="49.194593019783497" lon="8.933209022507072">
        <ele>218.40000000000001</ele>
        <time>2017-05-05T12:31:59Z</time>
      </trkpt>
      <trkpt lat="49.194523030892015" lon="8.933252021670342">
        <ele>218.40000000000001</ele>
        <time>2017-05-05T12:32:00Z</time>
      </trkpt>
      <trkpt lat="49.19432396069169" lon="8.933456037193537">
        <ele>218</ele>
        <time>2017-05-05T12:32:03Z</time>
      </trkpt>
      <trkpt lat="49.19425698928535" lon="8.93353097140789">
        <ele>217.80000000000001</ele>
        <time>2017-05-05T12:32:04Z</time>
      </trkpt>
      <trkpt lat="49.194120028987527" lon="8.933664998039603">
        <ele>217.59999999999999</ele>
        <time>2017-05-05T12:32:06Z</time>
      </trkpt>
      <trkpt lat="49.193972004577518" lon="8.93374596722424">
        <ele>217.40000000000001</ele>
        <time>2017-05-05T12:32:08Z</time>
      </trkpt>
      <trkpt lat="49.193730019032955" lon="8.933790978044272">
        <ele>217.19999999999999</ele>
        <time>2017-05-05T12:32:11Z</time>
      </trkpt>
      <trkpt lat="49.193648966029286" lon="8.933791983872652">
        <ele>217.19999999999999</ele>
        <time>2017-05-05T12:32:12Z</time>
      </trkpt>
      <trkpt lat="49.19357000850141" lon="8.9337860327214">
        <ele>217.19999999999999</ele>
        <time>2017-05-05T12:32:13Z</time>
      </trkpt>
      <trkpt lat="49.193140016868711" lon="8.933773040771484">
        <ele>217.19999999999999</ele>
        <time>2017-05-05T12:32:19Z</time>
      </trkpt>
      <trkpt lat="49.193077990785241" lon="8.933782009407878">
        <ele>217.19999999999999</ele>
        <time>2017-05-05T12:32:20Z</time>
      </trkpt>
      <trkpt lat="49.1929039824754" lon="8.933775974437594">
        <ele>217.59999999999999</ele>
        <time>2017-05-05T12:32:23Z</time>
      </trkpt>
      <trkpt lat="49.192848997190595" lon="8.933757031336427">
        <ele>217.80000000000001</ele>
        <time>2017-05-05T12:32:24Z</time>
      </trkpt>
      <trkpt lat="49.192790994420648" lon="8.933747978881002">
        <ele>218</ele>
        <time>2017-05-05T12:32:25Z</time>
      </trkpt>
      <trkpt lat="49.192614974454045" lon="8.933731969445944">
        <ele>218.40000000000001</ele>
        <time>2017-05-05T12:32:28Z</time>
      </trkpt>
      <trkpt lat="49.192441971972585" lon="8.933698022738099">
        <ele>219</ele>
        <time>2017-05-05T12:32:31Z</time>
      </trkpt>
      <trkpt lat="49.192311968654394" lon="8.933647982776165">
        <ele>219.40000000000001</ele>
        <time>2017-05-05T12:32:33Z</time>
      </trkpt>
      <trkpt lat="49.192171990871429" lon="8.933598026633263">
        <ele>219.40000000000001</ele>
        <time>2017-05-05T12:32:35Z</time>
      </trkpt>
      <trkpt lat="49.192052967846394" lon="8.93353097140789">
        <ele>219.40000000000001</ele>
        <time>2017-05-05T12:32:37Z</time>
      </trkpt>
      <trkpt lat="49.191878037527204" lon="8.933388981968164">
        <ele>219.59999999999999</ele>
        <time>2017-05-05T12:32:40Z</time>
      </trkpt>
      <trkpt lat="49.191816011443734" lon="8.933362998068333">
        <ele>219.80000000000001</ele>
        <time>2017-05-05T12:32:41Z</time>
      </trkpt>
      <trkpt lat="49.191629011183977" lon="8.93335503526032">
        <ele>219.80000000000001</ele>
        <time>2017-05-05T12:32:44Z</time>
      </trkpt>
      <trkpt lat="49.191564973443747" lon="8.933351011946797">
        <ele>219.80000000000001</ele>
        <time>2017-05-05T12:32:45Z</time>
      </trkpt>
      <trkpt lat="49.191439999267459" lon="8.933341959491372">
        <ele>219.59999999999999</ele>
        <time>2017-05-05T12:32:47Z</time>
      </trkpt>
      <trkpt lat="49.191232966259122" lon="8.933390993624926">
        <ele>219.40000000000001</ele>
        <time>2017-05-05T12:32:50Z</time>
      </trkpt>
      <trkpt lat="49.190857959911227" lon="8.933436004444957">
        <ele>218.80000000000001</ele>
        <time>2017-05-05T12:32:55Z</time>
      </trkpt>
      <trkpt lat="49.190700966864824" lon="8.933395016938448">
        <ele>218.59999999999999</ele>
        <time>2017-05-05T12:32:57Z</time>
      </trkpt>
      <trkpt lat="49.190480019897223" lon="8.933284040540457">
        <ele>218.59999999999999</ele>
        <time>2017-05-05T12:33:00Z</time>
      </trkpt>
      <trkpt lat="49.190064026042819" lon="8.933026967570186">
        <ele>219</ele>
        <time>2017-05-05T12:33:06Z</time>
      </trkpt>
      <trkpt lat="49.189870990812778" lon="8.932867962867022">
        <ele>219.19999999999999</ele>
        <time>2017-05-05T12:33:09Z</time>
      </trkpt>
      <trkpt lat="49.18976403772831" lon="8.932754974812269">
        <ele>219.40000000000001</ele>
        <time>2017-05-05T12:33:11Z</time>
      </trkpt>
      <trkpt lat="49.189609978348017" lon="8.932559005916119">
        <ele>219.59999999999999</ele>
        <time>2017-05-05T12:33:14Z</time>
      </trkpt>
      <trkpt lat="49.189491039142013" lon="8.932444006204605">
        <ele>219.59999999999999</ele>
        <time>2017-05-05T12:33:16Z</time>
      </trkpt>
      <trkpt lat="49.189176969230175" lon="8.932254994288087">
        <ele>219.59999999999999</ele>
        <time>2017-05-05T12:33:21Z</time>
      </trkpt>
      <trkpt lat="49.188824007287621" lon="8.932245019823313">
        <ele>219.19999999999999</ele>
        <time>2017-05-05T12:33:26Z</time>
      </trkpt>
      <trkpt lat="49.188609011471272" lon="8.932262035086751">
        <ele>219.40000000000001</ele>
        <time>2017-05-05T12:33:30Z</time>
      </trkpt>
      <trkpt lat="49.188559977337718" lon="8.932291958481073">
        <ele>219.59999999999999</ele>
        <time>2017-05-05T12:33:32Z</time>
      </trkpt>
      <trkpt lat="49.18854396790266" lon="8.932341998443008">
        <ele>219.59999999999999</ele>
        <time>2017-05-05T12:33:33Z</time>
      </trkpt>
      <trkpt lat="49.18849996291101" lon="8.932666964828968">
        <ele>219.80000000000001</ele>
        <time>2017-05-05T12:33:37Z</time>
      </trkpt>
      <trkpt lat="49.188475990667939" lon="8.932850025594235">
        <ele>219.80000000000001</ele>
        <time>2017-05-05T12:33:39Z</time>
      </trkpt>
      <trkpt lat="49.188446989282966" lon="8.933115983381867">
        <ele>219.80000000000001</ele>
        <time>2017-05-05T12:33:42Z</time>
      </trkpt>
      <trkpt lat="49.188399966806173" lon="8.933557039126754">
        <ele>220.40000000000001</ele>
        <time>2017-05-05T12:33:47Z</time>
      </trkpt>
      <trkpt lat="49.188385969027877" lon="8.933654017746449">
        <ele>220.40000000000001</ele>
        <time>2017-05-05T12:33:48Z</time>
      </trkpt>
      <trkpt lat="49.188238028436899" lon="8.934291964396834">
        <ele>219.80000000000001</ele>
        <time>2017-05-05T12:33:55Z</time>
      </trkpt>
      <trkpt lat="49.188216989859939" lon="8.93436698243022">
        <ele>220</ele>
        <time>2017-05-05T12:33:56Z</time>
      </trkpt>
      <trkpt lat="49.188151024281979" lon="8.934570997953415">
        <ele>220.19999999999999</ele>
        <time>2017-05-05T12:33:59Z</time>
      </trkpt>
      <trkpt lat="49.188117999583483" lon="8.934621959924698">
        <ele>220.19999999999999</ele>
        <time>2017-05-05T12:34:00Z</time>
      </trkpt>
      <trkpt lat="49.187989002093673" lon="8.934684991836548">
        <ele>220.40000000000001</ele>
        <time>2017-05-05T12:34:03Z</time>
      </trkpt>
      <trkpt lat="49.187939967960119" lon="8.934692032635212">
        <ele>220.59999999999999</ele>
        <time>2017-05-05T12:34:04Z</time>
      </trkpt>
      <trkpt lat="49.187776017934084" lon="8.934719022363424">
        <ele>220.80000000000001</ele>
        <time>2017-05-05T12:34:07Z</time>
      </trkpt>
      <trkpt lat="49.187655989080667" lon="8.934736037626863">
        <ele>220.80000000000001</ele>
        <time>2017-05-05T12:34:09Z</time>
      </trkpt>
      <trkpt lat="49.1873399913311" lon="8.934756992384791">
        <ele>220.80000000000001</ele>
        <time>2017-05-05T12:34:14Z</time>
      </trkpt>
      <trkpt lat="49.187278971076012" lon="8.934771995991468">
        <ele>221</ele>
        <time>2017-05-05T12:34:15Z</time>
      </trkpt>
      <trkpt lat="49.186853002756834" lon="8.934914991259575">
        <ele>221.59999999999999</ele>
        <time>2017-05-05T12:34:22Z</time>
      </trkpt>
      <trkpt lat="49.186794999986887" lon="8.934934018179774">
        <ele>221.59999999999999</ele>
        <time>2017-05-05T12:34:23Z</time>
      </trkpt>
      <trkpt lat="49.186657033860683" lon="8.93507500179112">
        <ele>222</ele>
        <time>2017-05-05T12:34:26Z</time>
      </trkpt>
      <trkpt lat="49.186615962535143" lon="8.935125963762403">
        <ele>222</ele>
        <time>2017-05-05T12:34:27Z</time>
      </trkpt>
      <trkpt lat="49.18656500056386" lon="8.935148008167744">
        <ele>222</ele>
        <time>2017-05-05T12:34:28Z</time>
      </trkpt>
      <trkpt lat="49.186514038592577" lon="8.935129987075925">
        <ele>222</ele>
        <time>2017-05-05T12:34:29Z</time>
      </trkpt>
      <trkpt lat="49.186409013345838" lon="8.935066033154726">
        <ele>222.19999999999999</ele>
        <time>2017-05-05T12:34:31Z</time>
      </trkpt>
      <trkpt lat="49.186352016404271" lon="8.935069972649217">
        <ele>222.19999999999999</ele>
        <time>2017-05-05T12:34:32Z</time>
      </trkpt>
      <trkpt lat="49.186231987550855" lon="8.935115989297628">
        <ele>222.19999999999999</ele>
        <time>2017-05-05T12:34:34Z</time>
      </trkpt>
      <trkpt lat="49.186037024483085" lon="8.935178015381098">
        <ele>222</ele>
        <time>2017-05-05T12:34:37Z</time>
      </trkpt>
      <trkpt lat="49.185602003708482" lon="8.935307012870908">
        <ele>221.19999999999999</ele>
        <time>2017-05-05T12:34:43Z</time>
      </trkpt>
      <trkpt lat="49.185442999005318" lon="8.935324028134346">
        <ele>221</ele>
        <time>2017-05-05T12:34:45Z</time>
      </trkpt>
      <trkpt lat="49.185201013460755" lon="8.935392005369067">
        <ele>220.19999999999999</ele>
        <time>2017-05-05T12:34:48Z</time>
      </trkpt>
      <trkpt lat="49.185119960457087" lon="8.93542000092566">
        <ele>219.80000000000001</ele>
        <time>2017-05-05T12:34:49Z</time>
      </trkpt>
      <trkpt lat="49.184570023790002" lon="8.935618987306953">
        <ele>219.40000000000001</ele>
        <time>2017-05-05T12:34:56Z</time>
      </trkpt>
      <trkpt lat="49.18418001383543" lon="8.935758965089917">
        <ele>219.80000000000001</ele>
        <time>2017-05-05T12:35:01Z</time>
      </trkpt>
      <trkpt lat="49.183945991098881" lon="8.935844041407108">
        <ele>219.59999999999999</ele>
        <time>2017-05-05T12:35:04Z</time>
      </trkpt>
      <trkpt lat="49.183418015018106" lon="8.936043027788401">
        <ele>219.40000000000001</ele>
        <time>2017-05-05T12:35:11Z</time>
      </trkpt>
      <trkpt lat="49.183123977854848" lon="8.936172025278211">
        <ele>219.80000000000001</ele>
        <time>2017-05-05T12:35:15Z</time>
      </trkpt>
      <trkpt lat="49.182761963456869" lon="8.936337986961007">
        <ele>219.80000000000001</ele>
        <time>2017-05-05T12:35:20Z</time>
      </trkpt>
      <trkpt lat="49.182257037609816" lon="8.936533033847809">
        <ele>219</ele>
        <time>2017-05-05T12:35:27Z</time>
      </trkpt>
      <trkpt lat="49.182197023183107" lon="8.936578966677189">
        <ele>219</ele>
        <time>2017-05-05T12:35:28Z</time>
      </trkpt>
      <trkpt lat="49.18211898766458" lon="8.936739983037114">
        <ele>219</ele>
        <time>2017-05-05T12:35:30Z</time>
      </trkpt>
      <trkpt lat="49.181869039312005" lon="8.937523020431399">
        <ele>219.19999999999999</ele>
        <time>2017-05-05T12:35:38Z</time>
      </trkpt>
      <trkpt lat="49.18183802627027" lon="8.937619999051094">
        <ele>219.40000000000001</ele>
        <time>2017-05-05T12:35:39Z</time>
      </trkpt>
      <trkpt lat="49.181635016575456" lon="8.938264986500144">
        <ele>219.19999999999999</ele>
        <time>2017-05-05T12:35:46Z</time>
      </trkpt>
      <trkpt lat="49.181597968563437" lon="8.938334975391626">
        <ele>219.40000000000001</ele>
        <time>2017-05-05T12:35:47Z</time>
      </trkpt>
      <trkpt lat="49.181487997993827" lon="8.938388032838702">
        <ele>219.40000000000001</ele>
        <time>2017-05-05T12:35:49Z</time>
      </trkpt>
      <trkpt lat="49.181371992453933" lon="8.938357019796968">
        <ele>219.40000000000001</ele>
        <time>2017-05-05T12:35:51Z</time>
      </trkpt>
      <trkpt lat="49.181190021336079" lon="8.938302034512162">
        <ele>219.59999999999999</ele>
        <time>2017-05-05T12:35:54Z</time>
      </trkpt>
      <trkpt lat="49.180825995281339" lon="8.938236990943551">
        <ele>220</ele>
        <time>2017-05-05T12:36:00Z</time>
      </trkpt>
      <trkpt lat="49.180775033310056" lon="8.938273033127189">
        <ele>220</ele>
        <time>2017-05-05T12:36:01Z</time>
      </trkpt>
      <trkpt lat="49.180638995021582" lon="8.938444023951888">
        <ele>220.19999999999999</ele>
        <time>2017-05-05T12:36:04Z</time>
      </trkpt>
      <trkpt lat="49.180579986423254" lon="8.938474031165242">
        <ele>220.19999999999999</ele>
        <time>2017-05-05T12:36:05Z</time>
      </trkpt>
      <trkpt lat="49.180384017527103" lon="8.938487023115158">
        <ele>220</ele>
        <time>2017-05-05T12:36:08Z</time>
      </trkpt>
      <trkpt lat="49.180249990895391" lon="8.938476964831352">
        <ele>220</ele>
        <time>2017-05-05T12:36:10Z</time>
      </trkpt>
      <trkpt lat="49.179910020902753" lon="8.938447963446379">
        <ele>220.19999999999999</ele>
        <time>2017-05-05T12:36:15Z</time>
      </trkpt>
      <trkpt lat="49.179841959849" lon="8.938435977324843">
        <ele>220.40000000000001</ele>
        <time>2017-05-05T12:36:16Z</time>
      </trkpt>
      <trkpt lat="49.179438035935163" lon="8.938287030905485">
        <ele>220.80000000000001</ele>
        <time>2017-05-05T12:36:22Z</time>
      </trkpt>
      <trkpt lat="49.179049031808972" lon="8.938193991780281">
        <ele>221</ele>
        <time>2017-05-05T12:36:28Z</time>
      </trkpt>
      <trkpt lat="49.178644018247724" lon="8.938221987336874">
        <ele>221.19999999999999</ele>
        <time>2017-05-05T12:36:34Z</time>
      </trkpt>
      <trkpt lat="49.178578974679112" lon="8.938247971236706">
        <ele>221.19999999999999</ele>
        <time>2017-05-05T12:36:35Z</time>
      </trkpt>
      <trkpt lat="49.178403038531542" lon="8.938333969563246">
        <ele>221.59999999999999</ele>
        <time>2017-05-05T12:36:38Z</time>
      </trkpt>
      <trkpt lat="49.178348975256085" lon="8.93834101036191">
        <ele>222</ele>
        <time>2017-05-05T12:36:39Z</time>
      </trkpt>
      <trkpt lat="49.178296001628041" lon="8.938319971784949">
        <ele>222.59999999999999</ele>
        <time>2017-05-05T12:36:40Z</time>
      </trkpt>
      <trkpt lat="49.17824998497963" lon="8.938275966793299">
        <ele>223.19999999999999</ele>
        <time>2017-05-05T12:36:41Z</time>
      </trkpt>
      <trkpt lat="49.178109001368284" lon="8.938113022595644">
        <ele>223.80000000000001</ele>
        <time>2017-05-05T12:36:44Z</time>
      </trkpt>
      <trkpt lat="49.177780011668801" lon="8.937725024297833">
        <ele>223.40000000000001</ele>
        <time>2017-05-05T12:36:50Z</time>
      </trkpt>
      <trkpt lat="49.177310960367322" lon="8.937191013246775">
        <ele>222.80000000000001</ele>
        <time>2017-05-05T12:36:58Z</time>
      </trkpt>
      <trkpt lat="49.177194032818079" lon="8.937060004100204">
        <ele>222.80000000000001</ele>
        <time>2017-05-05T12:37:00Z</time>
      </trkpt>
      <trkpt lat="49.176730010658503" lon="8.936523981392384">
        <ele>222.80000000000001</ele>
        <time>2017-05-05T12:37:08Z</time>
      </trkpt>
      <trkpt lat="49.176615010946989" lon="8.936384003609419">
        <ele>222.40000000000001</ele>
        <time>2017-05-05T12:37:10Z</time>
      </trkpt>
      <trkpt lat="49.176386017352343" lon="8.936105975881219">
        <ele>222.19999999999999</ele>
        <time>2017-05-05T12:37:14Z</time>
      </trkpt>
      <trkpt lat="49.176219971850514" lon="8.935899026691914">
        <ele>222.19999999999999</ele>
        <time>2017-05-05T12:37:17Z</time>
      </trkpt>
      <trkpt lat="49.175886958837509" lon="8.935480015352368">
        <ele>222.59999999999999</ele>
        <time>2017-05-05T12:37:23Z</time>
      </trkpt>
      <trkpt lat="49.175717979669571" lon="8.935277005657554">
        <ele>222.59999999999999</ele>
        <time>2017-05-05T12:37:26Z</time>
      </trkpt>
      <trkpt lat="49.17554397135973" lon="8.935110960155726">
        <ele>222.80000000000001</ele>
        <time>2017-05-05T12:37:29Z</time>
      </trkpt>
      <trkpt lat="49.175046002492309" lon="8.934771995991468">
        <ele>223</ele>
        <time>2017-05-05T12:37:37Z</time>
      </trkpt>
      <trkpt lat="49.174787001684308" lon="8.934718016535044">
        <ele>223.40000000000001</ele>
        <time>2017-05-05T12:37:41Z</time>
      </trkpt>
      <trkpt lat="49.174721958115697" lon="8.934717010706663">
        <ele>223.40000000000001</ele>
        <time>2017-05-05T12:37:42Z</time>
      </trkpt>
      <trkpt lat="49.174314010888338" lon="8.934812983497977">
        <ele>223.40000000000001</ele>
        <time>2017-05-05T12:37:48Z</time>
      </trkpt>
      <trkpt lat="49.173887958750129" lon="8.93503300845623">
        <ele>223</ele>
        <time>2017-05-05T12:37:54Z</time>
      </trkpt>
      <trkpt lat="49.173544971272349" lon="8.93526803702116">
        <ele>222.59999999999999</ele>
        <time>2017-05-05T12:37:59Z</time>
      </trkpt>
      <trkpt lat="49.173414967954159" lon="8.935372978448868">
        <ele>222.40000000000001</ele>
        <time>2017-05-05T12:38:01Z</time>
      </trkpt>
      <trkpt lat="49.173040967434645" lon="8.935702973976731">
        <ele>222.59999999999999</ele>
        <time>2017-05-05T12:38:07Z</time>
      </trkpt>
      <trkpt lat="49.172585997730494" lon="8.936168001964688">
        <ele>223</ele>
        <time>2017-05-05T12:38:15Z</time>
      </trkpt>
      <trkpt lat="49.172251978889108" lon="8.936576033011079">
        <ele>223.40000000000001</ele>
        <time>2017-05-05T12:38:21Z</time>
      </trkpt>
      <trkpt lat="49.171965988352895" lon="8.936897981911898">
        <ele>223.59999999999999</ele>
        <time>2017-05-05T12:38:26Z</time>
      </trkpt>
      <trkpt lat="49.171903962269425" lon="8.936957996338606">
        <ele>223.59999999999999</ele>
        <time>2017-05-05T12:38:27Z</time>
      </trkpt>
      <trkpt lat="49.171518981456757" lon="8.937259996309876">
        <ele>223</ele>
        <time>2017-05-05T12:38:33Z</time>
      </trkpt>
      <trkpt lat="49.171066023409367" lon="8.937556967139244">
        <ele>222.80000000000001</ele>
        <time>2017-05-05T12:38:40Z</time>
      </trkpt>
      <trkpt lat="49.17094599455595" lon="8.937639025971293">
        <ele>222.59999999999999</ele>
        <time>2017-05-05T12:38:42Z</time>
      </trkpt>
      <trkpt lat="49.17079302482307" lon="8.937751008197665">
        <ele>222.80000000000001</ele>
        <time>2017-05-05T12:38:45Z</time>
      </trkpt>
      <trkpt lat="49.170744996517897" lon="8.937771040946245">
        <ele>222.80000000000001</ele>
        <time>2017-05-05T12:38:46Z</time>
      </trkpt>
      <trkpt lat="49.170597977936268" lon="8.93769602291286">
        <ele>222.80000000000001</ele>
        <time>2017-05-05T12:38:49Z</time>
      </trkpt>
      <trkpt lat="49.170554978772998" lon="8.937647994607687">
        <ele>222.80000000000001</ele>
        <time>2017-05-05T12:38:50Z</time>
      </trkpt>
      <trkpt lat="49.170373007655144" lon="8.937475997954607">
        <ele>222.59999999999999</ele>
        <time>2017-05-05T12:38:54Z</time>
      </trkpt>
      <trkpt lat="49.170325985178351" lon="8.937452025711536">
        <ele>222.40000000000001</ele>
        <time>2017-05-05T12:38:55Z</time>
      </trkpt>
      <trkpt lat="49.17019497603178" lon="8.937407014891505">
        <ele>222.19999999999999</ele>
        <time>2017-05-05T12:38:58Z</time>
      </trkpt>
      <trkpt lat="49.170115012675524" lon="8.937406009063125">
        <ele>222.19999999999999</ele>
        <time>2017-05-05T12:39:00Z</time>
      </trkpt>
      <trkpt lat="49.169832039624453" lon="8.937478009611368">
        <ele>222.40000000000001</ele>
        <time>2017-05-05T12:39:07Z</time>
      </trkpt>
      <trkpt lat="49.169797003269196" lon="8.937504999339581">
        <ele>222.40000000000001</ele>
        <time>2017-05-05T12:39:08Z</time>
      </trkpt>
      <trkpt lat="49.169593993574381" lon="8.937685964629054">
        <ele>222.59999999999999</ele>
        <time>2017-05-05T12:39:14Z</time>
      </trkpt>
      <trkpt lat="49.169444963335991" lon="8.937818985432386">
        <ele>223</ele>
        <time>2017-05-05T12:39:20Z</time>
      </trkpt>
      <trkpt lat="49.169435994699597" lon="8.937828959897161">
        <ele>222.80000000000001</ele>
        <time>2017-05-05T12:39:22Z</time>
      </trkpt>
      <trkpt lat="49.169417973607779" lon="8.937838012352586">
        <ele>223.19999999999999</ele>
        <time>2017-05-05T12:39:27Z</time>
      </trkpt>
      <trkpt lat="49.169399030506611" lon="8.937841029837728">
        <ele>223.19999999999999</ele>
        <time>2017-05-05T12:39:28Z</time>
      </trkpt>
      <trkpt lat="49.169328035786748" lon="8.937774980440736">
        <ele>223.40000000000001</ele>
        <time>2017-05-05T12:39:32Z</time>
      </trkpt>
      <trkpt lat="49.169296016916633" lon="8.937719995155931">
        <ele>223.40000000000001</ele>
        <time>2017-05-05T12:39:34Z</time>
      </trkpt>
      <trkpt lat="49.169232985004783" lon="8.937575994059444">
        <ele>223.59999999999999</ele>
        <time>2017-05-05T12:39:37Z</time>
      </trkpt>
      <trkpt lat="49.169213036075234" lon="8.937515979632735">
        <ele>223.59999999999999</ele>
        <time>2017-05-05T12:39:38Z</time>
      </trkpt>
      <trkpt lat="49.169151009991765" lon="8.937310958281159">
        <ele>223.59999999999999</ele>
        <time>2017-05-05T12:39:41Z</time>
      </trkpt>
      <trkpt lat="49.169046990573406" lon="8.937076013535261">
        <ele>223.80000000000001</ele>
        <time>2017-05-05T12:39:44Z</time>
      </trkpt>
      <trkpt lat="49.1690110322088" lon="8.937000995501876">
        <ele>223.80000000000001</ele>
        <time>2017-05-05T12:39:45Z</time>
      </trkpt>
      <trkpt lat="49.168975995853543" lon="8.936927989125252">
        <ele>224</ele>
        <time>2017-05-05T12:39:46Z</time>
      </trkpt>
      <trkpt lat="49.168808022513986" lon="8.936548037454486">
        <ele>224.40000000000001</ele>
        <time>2017-05-05T12:39:52Z</time>
      </trkpt>
      <trkpt lat="49.168719006702304" lon="8.936377968639135">
        <ele>223.80000000000001</ele>
        <time>2017-05-05T12:39:57Z</time>
      </trkpt>
      <trkpt lat="49.16870903223753" lon="8.936361959204078">
        <ele>223.80000000000001</ele>
        <time>2017-05-05T12:39:59Z</time>
      </trkpt>
      <trkpt lat="49.168698973953724" lon="8.936319965869188">
        <ele>223.80000000000001</ele>
        <time>2017-05-05T12:40:13Z</time>
      </trkpt>
      <trkpt lat="49.168695034459233" lon="8.936306973919272">
        <ele>223.80000000000001</ele>
        <time>2017-05-05T12:40:14Z</time>
      </trkpt>
      <trkpt lat="49.168642982840538" lon="8.936190968379378">
        <ele>223.80000000000001</ele>
        <time>2017-05-05T12:40:18Z</time>
      </trkpt>
      <trkpt lat="49.16853804141283" lon="8.936092983931303">
        <ele>223.80000000000001</ele>
        <time>2017-05-05T12:40:21Z</time>
      </trkpt>
      <trkpt lat="49.168498981744051" lon="8.936062976717949">
        <ele>223.80000000000001</ele>
        <time>2017-05-05T12:40:22Z</time>
      </trkpt>
      <trkpt lat="49.168423963710666" lon="8.935992987826467">
        <ele>223.80000000000001</ele>
        <time>2017-05-05T12:40:24Z</time>
      </trkpt>
      <trkpt lat="49.1683220397681" lon="8.935850998386741">
        <ele>223.59999999999999</ele>
        <time>2017-05-05T12:40:27Z</time>
      </trkpt>
      <trkpt lat="49.168284991756082" lon="8.935800958424807">
        <ele>223.59999999999999</ele>
        <time>2017-05-05T12:40:28Z</time>
      </trkpt>
      <trkpt lat="49.168241992592812" lon="8.935756031423807">
        <ele>223.40000000000001</ele>
        <time>2017-05-05T12:40:29Z</time>
      </trkpt>
      <trkpt lat="49.168132022023201" lon="8.935732981190085">
        <ele>223.40000000000001</ele>
        <time>2017-05-05T12:40:31Z</time>
      </trkpt>
      <trkpt lat="49.167957007884979" lon="8.935642037540674">
        <ele>223.40000000000001</ele>
        <time>2017-05-05T12:40:34Z</time>
      </trkpt>
      <trkpt lat="49.167850976809859" lon="8.935566013678908">
        <ele>223.59999999999999</ele>
        <time>2017-05-05T12:40:36Z</time>
      </trkpt>
      <trkpt lat="49.167795991525054" lon="8.93557196483016">
        <ele>223.80000000000001</ele>
        <time>2017-05-05T12:40:37Z</time>
      </trkpt>
      <trkpt lat="49.16765701957047" lon="8.935729963704944">
        <ele>224.40000000000001</ele>
        <time>2017-05-05T12:40:40Z</time>
      </trkpt>
      <trkpt lat="49.167613014578819" lon="8.935800036415458">
        <ele>224.59999999999999</ele>
        <time>2017-05-05T12:40:41Z</time>
      </trkpt>
      <trkpt lat="49.16742199100554" lon="8.936099018901587">
        <ele>224.80000000000001</ele>
        <time>2017-05-05T12:40:45Z</time>
      </trkpt>
      <trkpt lat="49.167323000729084" lon="8.93625601194799">
        <ele>224.59999999999999</ele>
        <time>2017-05-05T12:40:47Z</time>
      </trkpt>
      <trkpt lat="49.167019994929433" lon="8.936733026057482">
        <ele>224.40000000000001</ele>
        <time>2017-05-05T12:40:53Z</time>
      </trkpt>
      <trkpt lat="49.166909018531442" lon="8.936871998012066">
        <ele>224.59999999999999</ele>
        <time>2017-05-05T12:40:55Z</time>
      </trkpt>
      <trkpt lat="49.166657980531454" lon="8.937082970514894">
        <ele>225</ele>
        <time>2017-05-05T12:40:59Z</time>
      </trkpt>
      <trkpt lat="49.166593020781875" lon="8.937123036012054">
        <ele>225</ele>
        <time>2017-05-05T12:41:00Z</time>
      </trkpt>
      <trkpt lat="49.166193958371878" lon="8.937299977988005">
        <ele>225.59999999999999</ele>
        <time>2017-05-05T12:41:06Z</time>
      </trkpt>
      <trkpt lat="49.166063033044338" lon="8.937351023778319">
        <ele>225.80000000000001</ele>
        <time>2017-05-05T12:41:08Z</time>
      </trkpt>
      <trkpt lat="49.165997989475727" lon="8.937376001849771">
        <ele>226</ele>
        <time>2017-05-05T12:41:09Z</time>
      </trkpt>
      <trkpt lat="49.16559599339962" lon="8.93752695992589">
        <ele>226.59999999999999</ele>
        <time>2017-05-05T12:41:15Z</time>
      </trkpt>
      <trkpt lat="49.165528016164899" lon="8.937557972967625">
        <ele>226.59999999999999</ele>
        <time>2017-05-05T12:41:16Z</time>
      </trkpt>
      <trkpt lat="49.165034992620349" lon="8.937757965177298">
        <ele>226.19999999999999</ele>
        <time>2017-05-05T12:41:23Z</time>
      </trkpt>
      <trkpt lat="49.164508022367954" lon="8.937863996252418">
        <ele>225.59999999999999</ele>
        <time>2017-05-05T12:41:30Z</time>
      </trkpt>
      <trkpt lat="49.164429986849427" lon="8.93784798681736">
        <ele>225.59999999999999</ele>
        <time>2017-05-05T12:41:31Z</time>
      </trkpt>
      <trkpt lat="49.1641999874264" lon="8.937755031511188">
        <ele>225.40000000000001</ele>
        <time>2017-05-05T12:41:34Z</time>
      </trkpt>
      <trkpt lat="49.16398499161005" lon="8.937684036791325">
        <ele>225.19999999999999</ele>
        <time>2017-05-05T12:41:37Z</time>
      </trkpt>
      <trkpt lat="49.163840990513563" lon="8.937713038176298">
        <ele>225</ele>
        <time>2017-05-05T12:41:39Z</time>
      </trkpt>
      <trkpt lat="49.163573021069169" lon="8.937857039272785">
        <ele>225</ele>
        <time>2017-05-05T12:41:43Z</time>
      </trkpt>
      <trkpt lat="49.163375962525606" lon="8.937970027327538">
        <ele>225</ele>
        <time>2017-05-05T12:41:46Z</time>
      </trkpt>
      <trkpt lat="49.163173958659172" lon="8.938067005947232">
        <ele>225</ele>
        <time>2017-05-05T12:41:49Z</time>
      </trkpt>
      <trkpt lat="49.162968015298247" lon="8.938116040080786">
        <ele>225.19999999999999</ele>
        <time>2017-05-05T12:41:52Z</time>
      </trkpt>
      <trkpt lat="49.162552021443844" lon="8.938106987625361">
        <ele>225.40000000000001</ele>
        <time>2017-05-05T12:41:58Z</time>
      </trkpt>
      <trkpt lat="49.162199981510639" lon="8.93797698430717">
        <ele>225.40000000000001</ele>
        <time>2017-05-05T12:42:03Z</time>
      </trkpt>
      <trkpt lat="49.161732019856572" lon="8.937722006812692">
        <ele>225</ele>
        <time>2017-05-05T12:42:10Z</time>
      </trkpt>
      <trkpt lat="49.161388026550412" lon="8.937547998502851">
        <ele>224.59999999999999</ele>
        <time>2017-05-05T12:42:15Z</time>
      </trkpt>
      <trkpt lat="49.161139000207186" lon="8.937358986586332">
        <ele>224.59999999999999</ele>
        <time>2017-05-05T12:42:19Z</time>
      </trkpt>
      <trkpt lat="49.160917969420552" lon="8.937138961628079">
        <ele>225.19999999999999</ele>
        <time>2017-05-05T12:42:23Z</time>
      </trkpt>
      <trkpt lat="49.160614963620901" lon="8.936792034655809">
        <ele>225.80000000000001</ele>
        <time>2017-05-05T12:42:29Z</time>
      </trkpt>
      <trkpt lat="49.160361997783184" lon="8.936491040512919">
        <ele>225.80000000000001</ele>
        <time>2017-05-05T12:42:34Z</time>
      </trkpt>
      <trkpt lat="49.160083970054984" lon="8.936183005571365">
        <ele>225.40000000000001</ele>
        <time>2017-05-05T12:42:39Z</time>
      </trkpt>
      <trkpt lat="49.159952038899064" lon="8.936083009466529">
        <ele>225.19999999999999</ele>
        <time>2017-05-05T12:42:41Z</time>
      </trkpt>
      <trkpt lat="49.159805020317435" lon="8.936019977554679">
        <ele>225</ele>
        <time>2017-05-05T12:42:43Z</time>
      </trkpt>
      <trkpt lat="49.159642998129129" lon="8.935994999483228">
        <ele>224.80000000000001</ele>
        <time>2017-05-05T12:42:45Z</time>
      </trkpt>
      <trkpt lat="49.159564962610602" lon="8.935987958684564">
        <ele>224.80000000000001</ele>
        <time>2017-05-05T12:42:46Z</time>
      </trkpt>
      <trkpt lat="49.159114016219974" lon="8.936002040281892">
        <ele>225.19999999999999</ele>
        <time>2017-05-05T12:42:52Z</time>
      </trkpt>
      <trkpt lat="49.158615963533521" lon="8.936040010303259">
        <ele>226</ele>
        <time>2017-05-05T12:42:59Z</time>
      </trkpt>
      <trkpt lat="49.158405996859074" lon="8.936077980324626">
        <ele>226.19999999999999</ele>
        <time>2017-05-05T12:43:02Z</time>
      </trkpt>
      <trkpt lat="49.158264007419348" lon="8.93612802028656">
        <ele>226.40000000000001</ele>
        <time>2017-05-05T12:43:04Z</time>
      </trkpt>
      <trkpt lat="49.157921019941568" lon="8.936315020546317">
        <ele>226.59999999999999</ele>
        <time>2017-05-05T12:43:09Z</time>
      </trkpt>
      <trkpt lat="49.157856982201338" lon="8.936361959204078">
        <ele>226.59999999999999</ele>
        <time>2017-05-05T12:43:10Z</time>
      </trkpt>
      <trkpt lat="49.157478036358953" lon="8.936738977208734">
        <ele>225.80000000000001</ele>
        <time>2017-05-05T12:43:16Z</time>
      </trkpt>
      <trkpt lat="49.157291036099195" lon="8.936942992731929">
        <ele>225.40000000000001</ele>
        <time>2017-05-05T12:43:19Z</time>
      </trkpt>
      <trkpt lat="49.15710898116231" lon="8.937148014083505">
        <ele>225</ele>
        <time>2017-05-05T12:43:22Z</time>
      </trkpt>
      <trkpt lat="49.156932039186358" lon="8.937355969101191">
        <ele>225</ele>
        <time>2017-05-05T12:43:25Z</time>
      </trkpt>
      <trkpt lat="49.156846040859818" lon="8.937545986846089">
        <ele>225</ele>
        <time>2017-05-05T12:43:27Z</time>
      </trkpt>
      <trkpt lat="49.156604977324605" lon="8.938250988721848">
        <ele>225.19999999999999</ele>
        <time>2017-05-05T12:43:34Z</time>
      </trkpt>
      <trkpt lat="49.156395010650158" lon="8.938546031713486">
        <ele>224.80000000000001</ele>
        <time>2017-05-05T12:43:38Z</time>
      </trkpt>
      <trkpt lat="49.156198035925627" lon="8.938648039475083">
        <ele>224.80000000000001</ele>
        <time>2017-05-05T12:43:41Z</time>
      </trkpt>
      <trkpt lat="49.156130980700254" lon="8.938667988404632">
        <ele>225</ele>
        <time>2017-05-05T12:43:42Z</time>
      </trkpt>
      <trkpt lat="49.155623037368059" lon="8.938789023086429">
        <ele>225.59999999999999</ele>
        <time>2017-05-05T12:43:49Z</time>
      </trkpt>
      <trkpt lat="49.155263034626842" lon="8.938776031136513">
        <ele>225.40000000000001</ele>
        <time>2017-05-05T12:43:54Z</time>
      </trkpt>
      <trkpt lat="49.15483295917511" lon="8.938716016709805">
        <ele>226</ele>
        <time>2017-05-05T12:44:00Z</time>
      </trkpt>
      <trkpt lat="49.154760036617517" lon="8.938709981739521">
        <ele>226</ele>
        <time>2017-05-05T12:44:01Z</time>
      </trkpt>
      <trkpt lat="49.154393998906016" lon="8.938694978132844">
        <ele>225.80000000000001</ele>
        <time>2017-05-05T12:44:06Z</time>
      </trkpt>
      <trkpt lat="49.154321998357773" lon="8.938671005889773">
        <ele>225.59999999999999</ele>
        <time>2017-05-05T12:44:07Z</time>
      </trkpt>
      <trkpt lat="49.153829980641603" lon="8.938421979546547">
        <ele>225</ele>
        <time>2017-05-05T12:44:14Z</time>
      </trkpt>
      <trkpt lat="49.153422033414245" lon="8.938198015093803">
        <ele>225</ele>
        <time>2017-05-05T12:44:20Z</time>
      </trkpt>
      <trkpt lat="49.153045015409589" lon="8.937919987365603">
        <ele>225</ele>
        <time>2017-05-05T12:44:26Z</time>
      </trkpt>
      <trkpt lat="49.152723988518119" lon="8.937660986557603">
        <ele>224.80000000000001</ele>
        <time>2017-05-05T12:44:31Z</time>
      </trkpt>
      <trkpt lat="49.15266296826303" lon="8.937598038464785">
        <ele>224.80000000000001</ele>
        <time>2017-05-05T12:44:32Z</time>
      </trkpt>
      <trkpt lat="49.152531959116459" lon="8.937345994636416">
        <ele>225</ele>
        <time>2017-05-05T12:44:35Z</time>
      </trkpt>
      <trkpt lat="49.152486026287079" lon="8.937154971063137">
        <ele>225</ele>
        <time>2017-05-05T12:44:37Z</time>
      </trkpt>
      <trkpt lat="49.152420982718468" lon="8.936864035204053">
        <ele>225.19999999999999</ele>
        <time>2017-05-05T12:44:40Z</time>
      </trkpt>
      <trkpt lat="49.152387036010623" lon="8.936777031049132">
        <ele>225.40000000000001</ele>
        <time>2017-05-05T12:44:41Z</time>
      </trkpt>
      <trkpt lat="49.152260972186923" lon="8.93653797917068">
        <ele>225.80000000000001</ele>
        <time>2017-05-05T12:44:44Z</time>
      </trkpt>
      <trkpt lat="49.151986967772245" lon="8.936055013909936">
        <ele>226.59999999999999</ele>
        <time>2017-05-05T12:44:50Z</time>
      </trkpt>
      <trkpt lat="49.151893006637692" lon="8.935887962579727">
        <ele>226.59999999999999</ele>
        <time>2017-05-05T12:44:52Z</time>
      </trkpt>
      <trkpt lat="49.151655966416001" lon="8.935492001473904">
        <ele>226.80000000000001</ele>
        <time>2017-05-05T12:44:57Z</time>
      </trkpt>
      <trkpt lat="49.151596035808325" lon="8.935438022017479">
        <ele>226.80000000000001</ele>
        <time>2017-05-05T12:44:58Z</time>
      </trkpt>
      <trkpt lat="49.151251036673784" lon="8.935295026749373">
        <ele>226.40000000000001</ele>
        <time>2017-05-05T12:45:03Z</time>
      </trkpt>
      <trkpt lat="49.150701016187668" lon="8.935108026489615">
        <ele>226.59999999999999</ele>
        <time>2017-05-05T12:45:11Z</time>
      </trkpt>
      <trkpt lat="49.150562966242433" lon="8.935059998184443">
        <ele>226.59999999999999</ele>
        <time>2017-05-05T12:45:13Z</time>
      </trkpt>
      <trkpt lat="49.15006197988987" lon="8.934852965176106">
        <ele>226.59999999999999</ele>
        <time>2017-05-05T12:45:20Z</time>
      </trkpt>
      <trkpt lat="49.14973801933229" lon="8.934545014053583">
        <ele>226</ele>
        <time>2017-05-05T12:45:25Z</time>
      </trkpt>
      <trkpt lat="49.149425039067864" lon="8.934219963848591">
        <ele>225.59999999999999</ele>
        <time>2017-05-05T12:45:30Z</time>
      </trkpt>
      <trkpt lat="49.149256981909275" lon="8.93398099578917">
        <ele>225.59999999999999</ele>
        <time>2017-05-05T12:45:33Z</time>
      </trkpt>
      <trkpt lat="49.148946013301611" lon="8.933472968637943">
        <ele>225.40000000000001</ele>
        <time>2017-05-05T12:45:39Z</time>
      </trkpt>
      <trkpt lat="49.148841993883252" lon="8.933304995298386">
        <ele>225.59999999999999</ele>
        <time>2017-05-05T12:45:41Z</time>
      </trkpt>
      <trkpt lat="49.148433962836862" lon="8.932657996192575">
        <ele>225.59999999999999</ele>
        <time>2017-05-05T12:45:49Z</time>
      </trkpt>
      <trkpt lat="49.14838501252234" lon="8.932578032836318">
        <ele>225.59999999999999</ele>
        <time>2017-05-05T12:45:50Z</time>
      </trkpt>
      <trkpt lat="49.14804202504456" lon="8.932018037885428">
        <ele>226.40000000000001</ele>
        <time>2017-05-05T12:45:57Z</time>
      </trkpt>
      <trkpt lat="49.147896012291312" lon="8.931786026805639">
        <ele>226.40000000000001</ele>
        <time>2017-05-05T12:46:00Z</time>
      </trkpt>
      <trkpt lat="49.147495022043586" lon="8.931135004386306">
        <ele>226</ele>
        <time>2017-05-05T12:46:08Z</time>
      </trkpt>
      <trkpt lat="49.147443976253271" lon="8.931051017716527">
        <ele>226</ele>
        <time>2017-05-05T12:46:09Z</time>
      </trkpt>
      <trkpt lat="49.147020019590855" lon="8.930380968376994">
        <ele>226.19999999999999</ele>
        <time>2017-05-05T12:46:17Z</time>
      </trkpt>
      <trkpt lat="49.146855985745788" lon="8.930126996710897">
        <ele>226.19999999999999</ele>
        <time>2017-05-05T12:46:20Z</time>
      </trkpt>
      <trkpt lat="49.146646019071341" lon="8.929786020889878">
        <ele>226.19999999999999</ele>
        <time>2017-05-05T12:46:24Z</time>
      </trkpt>
      <trkpt lat="49.146429011598229" lon="8.929474968463182">
        <ele>226.40000000000001</ele>
        <time>2017-05-05T12:46:28Z</time>
      </trkpt>
      <trkpt lat="49.146101027727127" lon="8.929204987362027">
        <ele>226.40000000000001</ele>
        <time>2017-05-05T12:46:33Z</time>
      </trkpt>
      <trkpt lat="49.145569028332829" lon="8.928792010992765">
        <ele>226.59999999999999</ele>
        <time>2017-05-05T12:46:41Z</time>
      </trkpt>
      <trkpt lat="49.145302986726165" lon="8.928589001297951">
        <ele>226.80000000000001</ele>
        <time>2017-05-05T12:46:45Z</time>
      </trkpt>
      <trkpt lat="49.144796971231699" lon="8.928192034363747">
        <ele>227</ele>
        <time>2017-05-05T12:46:53Z</time>
      </trkpt>
      <trkpt lat="49.144729999825358" lon="8.928140988573432">
        <ele>227</ele>
        <time>2017-05-05T12:46:54Z</time>
      </trkpt>
      <trkpt lat="49.144205041229725" lon="8.927719965577126">
        <ele>226.19999999999999</ele>
        <time>2017-05-05T12:47:02Z</time>
      </trkpt>
      <trkpt lat="49.144141003489494" lon="8.927667997777462">
        <ele>226.40000000000001</ele>
        <time>2017-05-05T12:47:03Z</time>
      </trkpt>
      <trkpt lat="49.143697014078498" lon="8.927300032228231">
        <ele>227.19999999999999</ele>
        <time>2017-05-05T12:47:10Z</time>
      </trkpt>
      <trkpt lat="49.143510013818741" lon="8.927139015868306">
        <ele>227.19999999999999</ele>
        <time>2017-05-05T12:47:13Z</time>
      </trkpt>
      <trkpt lat="49.143387973308563" lon="8.92701898701489">
        <ele>227.19999999999999</ele>
        <time>2017-05-05T12:47:15Z</time>
      </trkpt>
      <trkpt lat="49.143031993880868" lon="8.926645992323756">
        <ele>227.19999999999999</ele>
        <time>2017-05-05T12:47:21Z</time>
      </trkpt>
      <trkpt lat="49.142674002796412" lon="8.926278026774526">
        <ele>227.40000000000001</ele>
        <time>2017-05-05T12:47:27Z</time>
      </trkpt>
      <trkpt lat="49.142223978415132" lon="8.92575298435986">
        <ele>227.19999999999999</ele>
        <time>2017-05-05T12:47:35Z</time>
      </trkpt>
      <trkpt lat="49.142167987301946" lon="8.925684001296759">
        <ele>227.19999999999999</ele>
        <time>2017-05-05T12:47:36Z</time>
      </trkpt>
      <trkpt lat="49.141733972355723" lon="8.925099028274417">
        <ele>226.59999999999999</ele>
        <time>2017-05-05T12:47:44Z</time>
      </trkpt>
      <trkpt lat="49.141631964594126" lon="8.924946980550885">
        <ele>226.40000000000001</ele>
        <time>2017-05-05T12:47:46Z</time>
      </trkpt>
      <trkpt lat="49.141406994313002" lon="8.924561999738216">
        <ele>226.80000000000001</ele>
        <time>2017-05-05T12:47:51Z</time>
      </trkpt>
      <trkpt lat="49.141331976279616" lon="8.924411041662097">
        <ele>227</ele>
        <time>2017-05-05T12:47:53Z</time>
      </trkpt>
      <trkpt lat="49.141268022358418" lon="8.924270980060101">
        <ele>227</ele>
        <time>2017-05-05T12:47:55Z</time>
      </trkpt>
      <trkpt lat="49.141164002940059" lon="8.924102000892162">
        <ele>227</ele>
        <time>2017-05-05T12:47:58Z</time>
      </trkpt>
      <trkpt lat="49.141061995178461" lon="8.923913994804025">
        <ele>227.19999999999999</ele>
        <time>2017-05-05T12:48:02Z</time>
      </trkpt>
      <trkpt lat="49.141027964651585" lon="8.923634039238095">
        <ele>227</ele>
        <time>2017-05-05T12:48:06Z</time>
      </trkpt>
      <trkpt lat="49.141014972701669" lon="8.923557009547949">
        <ele>227</ele>
        <time>2017-05-05T12:48:07Z</time>
      </trkpt>
      <trkpt lat="49.140953030437231" lon="8.923127017915249">
        <ele>227</ele>
        <time>2017-05-05T12:48:12Z</time>
      </trkpt>
      <trkpt lat="49.140938026830554" lon="8.923033978790045">
        <ele>227</ele>
        <time>2017-05-05T12:48:13Z</time>
      </trkpt>
      <trkpt lat="49.140787990763783" lon="8.922152034938335">
        <ele>226.80000000000001</ele>
        <time>2017-05-05T12:48:22Z</time>
      </trkpt>
      <trkpt lat="49.1407370287925" lon="8.921848023310304">
        <ele>226.59999999999999</ele>
        <time>2017-05-05T12:48:25Z</time>
      </trkpt>
      <trkpt lat="49.140648012980819" lon="8.921329015865922">
        <ele>226.80000000000001</ele>
        <time>2017-05-05T12:48:30Z</time>
      </trkpt>
      <trkpt lat="49.140532007440925" lon="8.920474983751774">
        <ele>227.40000000000001</ele>
        <time>2017-05-05T12:48:38Z</time>
      </trkpt>
      <trkpt lat="49.140517003834248" lon="8.920369036495686">
        <ele>227.40000000000001</ele>
        <time>2017-05-05T12:48:39Z</time>
      </trkpt>
      <trkpt lat="49.140453971922398" lon="8.919958993792534">
        <ele>227.80000000000001</ele>
        <time>2017-05-05T12:48:43Z</time>
      </trkpt>
      <trkpt lat="49.140405021607876" lon="8.919539982452989">
        <ele>228</ele>
        <time>2017-05-05T12:48:47Z</time>
      </trkpt>
      <trkpt lat="49.140339978039265" lon="8.918627025559545">
        <ele>228</ele>
        <time>2017-05-05T12:48:56Z</time>
      </trkpt>
      <trkpt lat="49.140296978875995" lon="8.917935015633702">
        <ele>228</ele>
        <time>2017-05-05T12:49:03Z</time>
      </trkpt>
      <trkpt lat="49.140226989984512" lon="8.917129011824727">
        <ele>228.19999999999999</ele>
        <time>2017-05-05T12:49:11Z</time>
      </trkpt>
      <trkpt lat="49.140092963352799" lon="8.916304986923933">
        <ele>227.40000000000001</ele>
        <time>2017-05-05T12:49:19Z</time>
      </trkpt>
      <trkpt lat="49.140077037736773" lon="8.916199961677194">
        <ele>227.40000000000001</ele>
        <time>2017-05-05T12:49:20Z</time>
      </trkpt>
      <trkpt lat="49.139961032196879" lon="8.915351964533329">
        <ele>227.40000000000001</ele>
        <time>2017-05-05T12:49:28Z</time>
      </trkpt>
      <trkpt lat="49.139937981963158" lon="8.915139986202121">
        <ele>227.40000000000001</ele>
        <time>2017-05-05T12:49:30Z</time>
      </trkpt>
      <trkpt lat="49.139889031648636" lon="8.914294000715017">
        <ele>227.40000000000001</ele>
        <time>2017-05-05T12:49:38Z</time>
      </trkpt>
      <trkpt lat="49.139858018606901" lon="8.913554968312383">
        <ele>227.80000000000001</ele>
        <time>2017-05-05T12:49:45Z</time>
      </trkpt>
      <trkpt lat="49.139850977808237" lon="8.913240982219577">
        <ele>228</ele>
        <time>2017-05-05T12:49:48Z</time>
      </trkpt>
      <trkpt lat="49.139816025272012" lon="8.912332970649004">
        <ele>228.80000000000001</ele>
        <time>2017-05-05T12:49:57Z</time>
      </trkpt>
      <trkpt lat="49.139814013615251" lon="8.91223699785769">
        <ele>228.80000000000001</ele>
        <time>2017-05-05T12:49:58Z</time>
      </trkpt>
      <trkpt lat="49.139794986695051" lon="8.911623023450375">
        <ele>228.59999999999999</ele>
        <time>2017-05-05T12:50:05Z</time>
      </trkpt>
      <trkpt lat="49.139804039150476" lon="8.911539036780596">
        <ele>228.59999999999999</ele>
        <time>2017-05-05T12:50:06Z</time>
      </trkpt>
      <trkpt lat="49.139841003343463" lon="8.911300990730524">
        <ele>228.59999999999999</ele>
        <time>2017-05-05T12:50:09Z</time>
      </trkpt>
      <trkpt lat="49.139774031937122" lon="8.911194037646055">
        <ele>228.40000000000001</ele>
        <time>2017-05-05T12:50:11Z</time>
      </trkpt>
      <trkpt lat="49.139607986435294" lon="8.911247011274099">
        <ele>228.40000000000001</ele>
        <time>2017-05-05T12:50:14Z</time>
      </trkpt>
      <trkpt lat="49.139430960640311" lon="8.911192025989294">
        <ele>228.40000000000001</ele>
        <time>2017-05-05T12:50:17Z</time>
      </trkpt>
      <trkpt lat="49.139350997284055" lon="8.911045007407665">
        <ele>228.40000000000001</ele>
        <time>2017-05-05T12:50:19Z</time>
      </trkpt>
      <trkpt lat="49.139269022271037" lon="8.910905029624701">
        <ele>228.40000000000001</ele>
        <time>2017-05-05T12:50:21Z</time>
      </trkpt>
      <trkpt lat="49.138976996764541" lon="8.910397002473474">
        <ele>228.80000000000001</ele>
        <time>2017-05-05T12:50:28Z</time>
      </trkpt>
      <trkpt lat="49.138805000111461" lon="8.910091985017061">
        <ele>228.80000000000001</ele>
        <time>2017-05-05T12:50:32Z</time>
      </trkpt>
      <trkpt lat="49.138719001784921" lon="8.909943960607052">
        <ele>229</ele>
        <time>2017-05-05T12:50:34Z</time>
      </trkpt>
      <trkpt lat="49.138538036495447" lon="8.909674985334277">
        <ele>229.19999999999999</ele>
        <time>2017-05-05T12:50:38Z</time>
      </trkpt>
      <trkpt lat="49.138447009027004" lon="8.909561997279525">
        <ele>229.80000000000001</ele>
        <time>2017-05-05T12:50:40Z</time>
      </trkpt>
      <trkpt lat="49.13835103623569" lon="8.909475998952985">
        <ele>230.59999999999999</ele>
        <time>2017-05-05T12:50:42Z</time>
      </trkpt>
      <trkpt lat="49.138303007930517" lon="8.909436017274857">
        <ele>231</ele>
        <time>2017-05-05T12:50:43Z</time>
      </trkpt>
      <trkpt lat="49.138211980462074" lon="8.909368962049484">
        <ele>231.19999999999999</ele>
        <time>2017-05-05T12:50:45Z</time>
      </trkpt>
      <trkpt lat="49.138131011277437" lon="8.909302996471524">
        <ele>232</ele>
        <time>2017-05-05T12:50:47Z</time>
      </trkpt>
      <trkpt lat="49.138091029599309" lon="8.909281035885215">
        <ele>232.40000000000001</ele>
        <time>2017-05-05T12:50:48Z</time>
      </trkpt>
      <trkpt lat="49.138004025444388" lon="8.90925002284348">
        <ele>233.19999999999999</ele>
        <time>2017-05-05T12:50:50Z</time>
      </trkpt>
      <trkpt lat="49.137909980490804" lon="8.909236025065184">
        <ele>234</ele>
        <time>2017-05-05T12:50:52Z</time>
      </trkpt>
      <trkpt lat="49.137813001871109" lon="8.9092299900949">
        <ele>234.40000000000001</ele>
        <time>2017-05-05T12:50:54Z</time>
      </trkpt>
      <trkpt lat="49.137713005766273" lon="8.909230995923281">
        <ele>235</ele>
        <time>2017-05-05T12:50:56Z</time>
      </trkpt>
      <trkpt lat="49.137508990243077" lon="8.90925002284348">
        <ele>235.40000000000001</ele>
        <time>2017-05-05T12:51:00Z</time>
      </trkpt>
      <trkpt lat="49.137411005795002" lon="8.909253040328622">
        <ele>235.59999999999999</ele>
        <time>2017-05-05T12:51:02Z</time>
      </trkpt>
      <trkpt lat="49.137362977489829" lon="8.909232001751661">
        <ele>235.59999999999999</ele>
        <time>2017-05-05T12:51:03Z</time>
      </trkpt>
      <trkpt lat="49.137224005535245" lon="8.90908095985651">
        <ele>236</ele>
        <time>2017-05-05T12:51:06Z</time>
      </trkpt>
      <trkpt lat="49.137184023857117" lon="8.90901499427855">
        <ele>236</ele>
        <time>2017-05-05T12:51:07Z</time>
      </trkpt>
      <trkpt lat="49.137095008045435" lon="8.908812990412116">
        <ele>236.59999999999999</ele>
        <time>2017-05-05T12:51:10Z</time>
      </trkpt>
      <trkpt lat="49.13706298917532" lon="8.908738978207111">
        <ele>236.59999999999999</ele>
        <time>2017-05-05T12:51:11Z</time>
      </trkpt>
      <trkpt lat="49.137028036639094" lon="8.908664966002107">
        <ele>236.80000000000001</ele>
        <time>2017-05-05T12:51:12Z</time>
      </trkpt>
      <trkpt lat="49.136968022212386" lon="8.908515013754368">
        <ele>237</ele>
        <time>2017-05-05T12:51:14Z</time>
      </trkpt>
      <trkpt lat="49.136923011392355" lon="8.908281996846199">
        <ele>237.19999999999999</ele>
        <time>2017-05-05T12:51:17Z</time>
      </trkpt>
      <trkpt lat="49.13678303360939" lon="8.907819986343384">
        <ele>237.59999999999999</ele>
        <time>2017-05-05T12:51:23Z</time>
      </trkpt>
      <trkpt lat="49.13661296479404" lon="8.907429976388812">
        <ele>237.59999999999999</ele>
        <time>2017-05-05T12:51:28Z</time>
      </trkpt>
      <trkpt lat="49.136545993387699" lon="8.907259991392493">
        <ele>237.59999999999999</ele>
        <time>2017-05-05T12:51:30Z</time>
      </trkpt>
      <trkpt lat="49.136408027261496" lon="8.906894037500024">
        <ele>237.80000000000001</ele>
        <time>2017-05-05T12:51:34Z</time>
      </trkpt>
      <trkpt lat="49.136362010613084" lon="8.9068020042032">
        <ele>237.59999999999999</ele>
        <time>2017-05-05T12:51:35Z</time>
      </trkpt>
      <trkpt lat="49.136174004524946" lon="8.906406965106726">
        <ele>237</ele>
        <time>2017-05-05T12:51:39Z</time>
      </trkpt>
      <trkpt lat="49.136108960956335" lon="8.906335970386863">
        <ele>237</ele>
        <time>2017-05-05T12:51:40Z</time>
      </trkpt>
      <trkpt lat="49.135878039523959" lon="8.906279979273677">
        <ele>236</ele>
        <time>2017-05-05T12:51:43Z</time>
      </trkpt>
      <trkpt lat="49.135810984298587" lon="8.906302023679018">
        <ele>235.40000000000001</ele>
        <time>2017-05-05T12:51:44Z</time>
      </trkpt>
      <trkpt lat="49.135742001235485" lon="8.90632800757885">
        <ele>234.80000000000001</ele>
        <time>2017-05-05T12:51:45Z</time>
      </trkpt>
      <trkpt lat="49.135672012344003" lon="8.906344017013907">
        <ele>234.19999999999999</ele>
        <time>2017-05-05T12:51:46Z</time>
      </trkpt>
      <trkpt lat="49.135616021230817" lon="8.906333958730102">
        <ele>233.80000000000001</ele>
        <time>2017-05-05T12:51:47Z</time>
      </trkpt>
      <trkpt lat="49.135607974603772" lon="8.906215019524097">
        <ele>233.40000000000001</ele>
        <time>2017-05-05T12:51:49Z</time>
      </trkpt>
      <trkpt lat="49.135596994310617" lon="8.906129021197557">
        <ele>233</ele>
        <time>2017-05-05T12:51:52Z</time>
      </trkpt>
      <trkpt lat="49.135579979047179" lon="8.906022990122438">
        <ele>232.80000000000001</ele>
        <time>2017-05-05T12:51:54Z</time>
      </trkpt>
      <trkpt lat="49.135548966005445" lon="8.905888041481376">
        <ele>232.59999999999999</ele>
        <time>2017-05-05T12:51:56Z</time>
      </trkpt>
      <trkpt lat="49.135504039004445" lon="8.905739011242986">
        <ele>232.59999999999999</ele>
        <time>2017-05-05T12:51:58Z</time>
      </trkpt>
      <trkpt lat="49.135422986000776" lon="8.905615964904428">
        <ele>232.59999999999999</ele>
        <time>2017-05-05T12:52:00Z</time>
      </trkpt>
      <trkpt lat="49.135233974084258" lon="8.905584029853344">
        <ele>232.19999999999999</ele>
        <time>2017-05-05T12:52:03Z</time>
      </trkpt>
      <trkpt lat="49.135164991021156" lon="8.905591992661357">
        <ele>232</ele>
        <time>2017-05-05T12:52:04Z</time>
      </trkpt>
      <trkpt lat="49.135035993531346" lon="8.905608002096415">
        <ele>231.40000000000001</ele>
        <time>2017-05-05T12:52:06Z</time>
      </trkpt>
      <trkpt lat="49.134932979941368" lon="8.905624011531472">
        <ele>230.59999999999999</ele>
        <time>2017-05-05T12:52:08Z</time>
      </trkpt>
      <trkpt lat="49.134842036291957" lon="8.90564102679491">
        <ele>229.40000000000001</ele>
        <time>2017-05-05T12:52:11Z</time>
      </trkpt>
      <trkpt lat="49.134824015200138" lon="8.905657036229968">
        <ele>229.19999999999999</ele>
        <time>2017-05-05T12:52:12Z</time>
      </trkpt>
      <trkpt lat="49.134810017421842" lon="8.905677990987897">
        <ele>229.19999999999999</ele>
        <time>2017-05-05T12:52:13Z</time>
      </trkpt>
      <trkpt lat="49.134712032973766" lon="8.905754014849663">
        <ele>229.19999999999999</ele>
        <time>2017-05-05T12:52:16Z</time>
      </trkpt>
      <trkpt lat="49.134640032425523" lon="8.905745968222618">
        <ele>229.19999999999999</ele>
        <time>2017-05-05T12:52:17Z</time>
      </trkpt>
      <trkpt lat="49.134453032165766" lon="8.905798019841313">
        <ele>229.19999999999999</ele>
        <time>2017-05-05T12:52:20Z</time>
      </trkpt>
      <trkpt lat="49.134394023567438" lon="8.905825009569526">
        <ele>229.19999999999999</ele>
        <time>2017-05-05T12:52:21Z</time>
      </trkpt>
      <trkpt lat="49.134132005274296" lon="8.905876977369189">
        <ele>229.40000000000001</ele>
        <time>2017-05-05T12:52:25Z</time>
      </trkpt>
      <trkpt lat="49.133747024461627" lon="8.905821992084384">
        <ele>229.40000000000001</ele>
        <time>2017-05-05T12:52:31Z</time>
      </trkpt>
      <trkpt lat="49.133366988971829" lon="8.905757032334805">
        <ele>230</ele>
        <time>2017-05-05T12:52:37Z</time>
      </trkpt>
      <trkpt lat="49.133308986201882" lon="8.905732976272702">
        <ele>230.19999999999999</ele>
        <time>2017-05-05T12:52:38Z</time>
      </trkpt>
      <trkpt lat="49.133207984268665" lon="8.905629962682724">
        <ele>230.40000000000001</ele>
        <time>2017-05-05T12:52:40Z</time>
      </trkpt>
      <trkpt lat="49.13313003256917" lon="8.905486967414618">
        <ele>230.40000000000001</ele>
        <time>2017-05-05T12:52:42Z</time>
      </trkpt>
      <trkpt lat="49.132995000109076" lon="8.90525596216321">
        <ele>230.59999999999999</ele>
        <time>2017-05-05T12:52:45Z</time>
      </trkpt>
      <trkpt lat="49.132754020392895" lon="8.904702002182603">
        <ele>230.19999999999999</ele>
        <time>2017-05-05T12:52:51Z</time>
      </trkpt>
      <trkpt lat="49.132576994597912" lon="8.904125997796655">
        <ele>230</ele>
        <time>2017-05-05T12:52:57Z</time>
      </trkpt>
      <trkpt lat="49.132329979911447" lon="8.90338302589953">
        <ele>230.40000000000001</ele>
        <time>2017-05-05T12:53:05Z</time>
      </trkpt>
      <trkpt lat="49.132266025990248" lon="8.903195019811392">
        <ele>230.40000000000001</ele>
        <time>2017-05-05T12:53:07Z</time>
      </trkpt>
      <trkpt lat="49.132153037935495" lon="8.902810038998723">
        <ele>230.40000000000001</ele>
        <time>2017-05-05T12:53:11Z</time>
      </trkpt>
      <trkpt lat="49.132087994366884" lon="8.902506027370691">
        <ele>230.80000000000001</ele>
        <time>2017-05-05T12:53:14Z</time>
      </trkpt>
      <trkpt lat="49.132067961618304" lon="8.902401002123952">
        <ele>230.80000000000001</ele>
        <time>2017-05-05T12:53:15Z</time>
      </trkpt>
      <trkpt lat="49.13192898966372" lon="8.901647971943021">
        <ele>230.59999999999999</ele>
        <time>2017-05-05T12:53:22Z</time>
      </trkpt>
      <trkpt lat="49.13175598718226" lon="8.901024023070931">
        <ele>230.59999999999999</ele>
        <time>2017-05-05T12:53:28Z</time>
      </trkpt>
      <trkpt lat="49.131638975813985" lon="8.900723028928042">
        <ele>230.80000000000001</ele>
        <time>2017-05-05T12:53:31Z</time>
      </trkpt>
      <trkpt lat="49.131446024402976" lon="8.900235034525394">
        <ele>231.19999999999999</ele>
        <time>2017-05-05T12:53:36Z</time>
      </trkpt>
      <trkpt lat="49.131166990846395" lon="8.899708986282349">
        <ele>230.40000000000001</ele>
        <time>2017-05-05T12:53:42Z</time>
      </trkpt>
      <trkpt lat="49.130840012803674" lon="8.899331968277693">
        <ele>230.59999999999999</ele>
        <time>2017-05-05T12:53:48Z</time>
      </trkpt>
      <trkpt lat="49.130785027518868" lon="8.899293998256326">
        <ele>230.80000000000001</ele>
        <time>2017-05-05T12:53:49Z</time>
      </trkpt>
      <trkpt lat="49.130666004493833" lon="8.899272037670016">
        <ele>230.80000000000001</ele>
        <time>2017-05-05T12:53:51Z</time>
      </trkpt>
      <trkpt lat="49.130542958155274" lon="8.89923800714314">
        <ele>231</ele>
        <time>2017-05-05T12:53:53Z</time>
      </trkpt>
      <trkpt lat="49.130483027547598" lon="8.899199031293392">
        <ele>231.19999999999999</ele>
        <time>2017-05-05T12:53:54Z</time>
      </trkpt>
      <trkpt lat="49.130216985940933" lon="8.898883033543825">
        <ele>231.59999999999999</ele>
        <time>2017-05-05T12:53:59Z</time>
      </trkpt>
      <trkpt lat="49.12992998957634" lon="8.898399984464049">
        <ele>232.19999999999999</ele>
        <time>2017-05-05T12:54:05Z</time>
      </trkpt>
      <trkpt lat="49.129783976823092" lon="8.898183982819319">
        <ele>232.80000000000001</ele>
        <time>2017-05-05T12:54:08Z</time>
      </trkpt>
      <trkpt lat="49.12969496101141" lon="8.898045010864735">
        <ele>233.59999999999999</ele>
        <time>2017-05-05T12:54:10Z</time>
      </trkpt>
      <trkpt lat="49.129567975178361" lon="8.897832026705146">
        <ele>235</ele>
        <time>2017-05-05T12:54:13Z</time>
      </trkpt>
      <trkpt lat="49.129449035972357" lon="8.897628011181951">
        <ele>236</ele>
        <time>2017-05-05T12:54:16Z</time>
      </trkpt>
      <trkpt lat="49.129410982131958" lon="8.897560033947229">
        <ele>236.19999999999999</ele>
        <time>2017-05-05T12:54:17Z</time>
      </trkpt>
      <trkpt lat="49.129333030432463" lon="8.897420978173614">
        <ele>236.40000000000001</ele>
        <time>2017-05-05T12:54:19Z</time>
      </trkpt>
      <trkpt lat="49.129145024344325" lon="8.897056030109525">
        <ele>237.19999999999999</ele>
        <time>2017-05-05T12:54:24Z</time>
      </trkpt>
      <trkpt lat="49.129108982160687" lon="8.896977994590998">
        <ele>237.40000000000001</ele>
        <time>2017-05-05T12:54:25Z</time>
      </trkpt>
      <trkpt lat="49.128844030201435" lon="8.896500980481505">
        <ele>236.80000000000001</ele>
        <time>2017-05-05T12:54:31Z</time>
      </trkpt>
      <trkpt lat="49.128804970532656" lon="8.896404001861811">
        <ele>236.80000000000001</ele>
        <time>2017-05-05T12:54:32Z</time>
      </trkpt>
      <trkpt lat="49.128783009946346" lon="8.896171990782023">
        <ele>236.40000000000001</ele>
        <time>2017-05-05T12:54:34Z</time>
      </trkpt>
      <trkpt lat="49.128804970532656" lon="8.895922964438796">
        <ele>236.19999999999999</ele>
        <time>2017-05-05T12:54:36Z</time>
      </trkpt>
      <trkpt lat="49.12883598357439" lon="8.895527003332973">
        <ele>235.40000000000001</ele>
        <time>2017-05-05T12:54:39Z</time>
      </trkpt>
      <trkpt lat="49.128846041858196" lon="8.895389959216118">
        <ele>235</ele>
        <time>2017-05-05T12:54:40Z</time>
      </trkpt>
      <trkpt lat="49.128869008272886" lon="8.894970025867224">
        <ele>234</ele>
        <time>2017-05-05T12:54:43Z</time>
      </trkpt>
      <trkpt lat="49.128860039636493" lon="8.894689986482263">
        <ele>232.80000000000001</ele>
        <time>2017-05-05T12:54:45Z</time>
      </trkpt>
      <trkpt lat="49.128735987469554" lon="8.893913989886642">
        <ele>232.59999999999999</ele>
        <time>2017-05-05T12:54:51Z</time>
      </trkpt>
      <trkpt lat="49.128593998029828" lon="8.89307496137917">
        <ele>233</ele>
        <time>2017-05-05T12:54:58Z</time>
      </trkpt>
      <trkpt lat="49.12842895835638" lon="8.892311034724116">
        <ele>233.40000000000001</ele>
        <time>2017-05-05T12:55:05Z</time>
      </trkpt>
      <trkpt lat="49.128391994163394" lon="8.892221013084054">
        <ele>233.40000000000001</ele>
        <time>2017-05-05T12:55:06Z</time>
      </trkpt>
      <trkpt lat="49.128299038857222" lon="8.892073994502425">
        <ele>233.80000000000001</ele>
        <time>2017-05-05T12:55:08Z</time>
      </trkpt>
      <trkpt lat="49.128186972811818" lon="8.891942985355854">
        <ele>234</ele>
        <time>2017-05-05T12:55:10Z</time>
      </trkpt>
      <trkpt lat="49.128128970041871" lon="8.891881965100765">
        <ele>234.19999999999999</ele>
        <time>2017-05-05T12:55:11Z</time>
      </trkpt>
      <trkpt lat="49.128011036664248" lon="8.891756990924478">
        <ele>234.40000000000001</ele>
        <time>2017-05-05T12:55:13Z</time>
      </trkpt>
      <trkpt lat="49.127712976187468" lon="8.891412997618318">
        <ele>234.59999999999999</ele>
        <time>2017-05-05T12:55:18Z</time>
      </trkpt>
      <trkpt lat="49.127426985651255" lon="8.891036985442042">
        <ele>234.80000000000001</ele>
        <time>2017-05-05T12:55:23Z</time>
      </trkpt>
      <trkpt lat="49.127323972061276" lon="8.890855014324188">
        <ele>234.80000000000001</ele>
        <time>2017-05-05T12:55:25Z</time>
      </trkpt>
      <trkpt lat="49.127129008993506" lon="8.890475984662771">
        <ele>234.59999999999999</ele>
        <time>2017-05-05T12:55:29Z</time>
      </trkpt>
      <trkpt lat="49.127092966809869" lon="8.890371965244412">
        <ele>234.40000000000001</ele>
        <time>2017-05-05T12:55:30Z</time>
      </trkpt>
      <trkpt lat="49.127065977081656" lon="8.890035012736917">
        <ele>234.19999999999999</ele>
        <time>2017-05-05T12:55:33Z</time>
      </trkpt>
      <trkpt lat="49.127164967358112" lon="8.889712980017066">
        <ele>234.19999999999999</ele>
        <time>2017-05-05T12:55:36Z</time>
      </trkpt>
      <trkpt lat="49.127206960693002" lon="8.889619018882513">
        <ele>234.19999999999999</ele>
        <time>2017-05-05T12:55:37Z</time>
      </trkpt>
      <trkpt lat="49.127488005906343" lon="8.888959027826786">
        <ele>234.40000000000001</ele>
        <time>2017-05-05T12:55:44Z</time>
      </trkpt>
      <trkpt lat="49.127747006714344" lon="8.888540016487241">
        <ele>234.40000000000001</ele>
        <time>2017-05-05T12:55:49Z</time>
      </trkpt>
      <trkpt lat="49.128122013062239" lon="8.887983961030841">
        <ele>234.59999999999999</ele>
        <time>2017-05-05T12:55:56Z</time>
      </trkpt>
      <trkpt lat="49.128391994163394" lon="8.887299997732043">
        <ele>234.80000000000001</ele>
        <time>2017-05-05T12:56:03Z</time>
      </trkpt>
      <trkpt lat="49.128453014418483" lon="8.886847039684653">
        <ele>234.59999999999999</ele>
        <time>2017-05-05T12:56:07Z</time>
      </trkpt>
      <trkpt lat="49.128523003309965" lon="8.886036006733775">
        <ele>234.40000000000001</ele>
        <time>2017-05-05T12:56:14Z</time>
      </trkpt>
      <trkpt lat="49.128507999703288" lon="8.885333016514778">
        <ele>234.19999999999999</ele>
        <time>2017-05-05T12:56:20Z</time>
      </trkpt>
      <trkpt lat="49.12842501886189" lon="8.884519971907139">
        <ele>234.40000000000001</ele>
        <time>2017-05-05T12:56:27Z</time>
      </trkpt>
      <trkpt lat="49.128413032740355" lon="8.884404972195625">
        <ele>234.40000000000001</ele>
        <time>2017-05-05T12:56:28Z</time>
      </trkpt>
      <trkpt lat="49.128343965858221" lon="8.883582036942244">
        <ele>234.59999999999999</ele>
        <time>2017-05-05T12:56:35Z</time>
      </trkpt>
      <trkpt lat="49.128327034413815" lon="8.882863959297538">
        <ele>234.59999999999999</ele>
        <time>2017-05-05T12:56:41Z</time>
      </trkpt>
      <trkpt lat="49.12829602137208" lon="8.882025014609098">
        <ele>234.80000000000001</ele>
        <time>2017-05-05T12:56:48Z</time>
      </trkpt>
      <trkpt lat="49.128284035250545" lon="8.881905991584063">
        <ele>234.80000000000001</ele>
        <time>2017-05-05T12:56:49Z</time>
      </trkpt>
      <trkpt lat="49.128174986690283" lon="8.881228985264897">
        <ele>234.59999999999999</ele>
        <time>2017-05-05T12:56:55Z</time>
      </trkpt>
      <trkpt lat="49.127993015572429" lon="8.880850039422512">
        <ele>234.40000000000001</ele>
        <time>2017-05-05T12:56:59Z</time>
      </trkpt>
      <trkpt lat="49.127815989777446" lon="8.880620039999485">
        <ele>234.40000000000001</ele>
        <time>2017-05-05T12:57:02Z</time>
      </trkpt>
      <trkpt lat="49.127692021429539" lon="8.880478972569108">
        <ele>234.40000000000001</ele>
        <time>2017-05-05T12:57:04Z</time>
      </trkpt>
      <trkpt lat="49.127523964270949" lon="8.880261965095997">
        <ele>234.40000000000001</ele>
        <time>2017-05-05T12:57:07Z</time>
      </trkpt>
      <trkpt lat="49.127494962885976" lon="8.880173033103347">
        <ele>234.40000000000001</ele>
        <time>2017-05-05T12:57:08Z</time>
      </trkpt>
      <trkpt lat="49.127513989806175" lon="8.879981003701687">
        <ele>234.40000000000001</ele>
        <time>2017-05-05T12:57:10Z</time>
      </trkpt>
      <trkpt lat="49.127537962049246" lon="8.879888970404863">
        <ele>234.40000000000001</ele>
        <time>2017-05-05T12:57:11Z</time>
      </trkpt>
      <trkpt lat="49.127709958702326" lon="8.879226967692375">
        <ele>235.40000000000001</ele>
        <time>2017-05-05T12:57:18Z</time>
      </trkpt>
      <trkpt lat="49.127784976735711" lon="8.878936031833291">
        <ele>236</ele>
        <time>2017-05-05T12:57:21Z</time>
      </trkpt>
      <trkpt lat="49.127919003367424" lon="8.878449965268374">
        <ele>236.80000000000001</ele>
        <time>2017-05-05T12:57:26Z</time>
      </trkpt>
      <trkpt lat="49.127972982823849" lon="8.878258019685745">
        <ele>237.19999999999999</ele>
        <time>2017-05-05T12:57:28Z</time>
      </trkpt>
      <trkpt lat="49.128075996413827" lon="8.877874966710806">
        <ele>237.80000000000001</ele>
        <time>2017-05-05T12:57:32Z</time>
      </trkpt>
      <trkpt lat="49.12812796421349" lon="8.877683021128178">
        <ele>238</ele>
        <time>2017-05-05T12:57:34Z</time>
      </trkpt>
      <trkpt lat="49.128179010003805" lon="8.877487974241376">
        <ele>238.19999999999999</ele>
        <time>2017-05-05T12:57:36Z</time>
      </trkpt>
      <trkpt lat="49.128355029970407" lon="8.876818008720875">
        <ele>238.59999999999999</ele>
        <time>2017-05-05T12:57:43Z</time>
      </trkpt>
      <trkpt lat="49.128406997770071" lon="8.876631008461118">
        <ele>238.80000000000001</ele>
        <time>2017-05-05T12:57:45Z</time>
      </trkpt>
      <trkpt lat="49.12857798859477" lon="8.875962970778346">
        <ele>239.19999999999999</ele>
        <time>2017-05-05T12:57:52Z</time>
      </trkpt>
      <trkpt lat="49.12859802134335" lon="8.87586297467351">
        <ele>239.40000000000001</ele>
        <time>2017-05-05T12:57:53Z</time>
      </trkpt>
      <trkpt lat="49.128610007464886" lon="8.875759961083531">
        <ele>239.40000000000001</ele>
        <time>2017-05-05T12:57:54Z</time>
      </trkpt>
      <trkpt lat="49.128655018284917" lon="8.87534698471427">
        <ele>239.40000000000001</ele>
        <time>2017-05-05T12:57:58Z</time>
      </trkpt>
      <trkpt lat="49.128675973042846" lon="8.87524195946753">
        <ele>239.40000000000001</ele>
        <time>2017-05-05T12:57:59Z</time>
      </trkpt>
      <trkpt lat="49.128796001896262" lon="8.874962003901601">
        <ele>239.19999999999999</ele>
        <time>2017-05-05T12:58:02Z</time>
      </trkpt>
      <trkpt lat="49.128844030201435" lon="8.874881034716964">
        <ele>239</ele>
        <time>2017-05-05T12:58:03Z</time>
      </trkpt>
      <trkpt lat="49.129154998809099" lon="8.87433897703886">
        <ele>239.19999999999999</ele>
        <time>2017-05-05T12:58:10Z</time>
      </trkpt>
      <trkpt lat="49.129451969638467" lon="8.873717039823532">
        <ele>239.40000000000001</ele>
        <time>2017-05-05T12:58:18Z</time>
      </trkpt>
      <trkpt lat="49.129638969898224" lon="8.873292999342084">
        <ele>238.40000000000001</ele>
        <time>2017-05-05T12:58:23Z</time>
      </trkpt>
      <trkpt lat="49.12973603233695" lon="8.873021006584168">
        <ele>238.40000000000001</ele>
        <time>2017-05-05T12:58:26Z</time>
      </trkpt>
      <trkpt lat="49.129848014563322" lon="8.872641976922751">
        <ele>238.19999999999999</ele>
        <time>2017-05-05T12:58:30Z</time>
      </trkpt>
      <trkpt lat="49.129962008446455" lon="8.872261019423604">
        <ele>237.59999999999999</ele>
        <time>2017-05-05T12:58:34Z</time>
      </trkpt>
      <trkpt lat="49.129991009831429" lon="8.8721679802984">
        <ele>237.40000000000001</ele>
        <time>2017-05-05T12:58:35Z</time>
      </trkpt>
      <trkpt lat="49.13003996014595" lon="8.871976034715772">
        <ele>237.19999999999999</ele>
        <time>2017-05-05T12:58:37Z</time>
      </trkpt>
      <trkpt lat="49.130078013986349" lon="8.871807977557182">
        <ele>237.19999999999999</ele>
        <time>2017-05-05T12:58:39Z</time>
      </trkpt>
      <trkpt lat="49.130096035078168" lon="8.871747963130474">
        <ele>237.19999999999999</ele>
        <time>2017-05-05T12:58:40Z</time>
      </trkpt>
      <trkpt lat="49.130117995664477" lon="8.871716028079391">
        <ele>237.19999999999999</ele>
        <time>2017-05-05T12:58:41Z</time>
      </trkpt>
      <trkpt lat="49.130136016756296" lon="8.871698006987572">
        <ele>237</ele>
        <time>2017-05-05T12:58:43Z</time>
      </trkpt>
      <trkpt lat="49.130155965685844" lon="8.871688032522798">
        <ele>237.40000000000001</ele>
        <time>2017-05-05T12:58:54Z</time>
      </trkpt>
      <trkpt lat="49.130191002041101" lon="8.871654001995921">
        <ele>237.59999999999999</ele>
        <time>2017-05-05T12:58:56Z</time>
      </trkpt>
      <trkpt lat="49.13023098371923" lon="8.871576972305775">
        <ele>238</ele>
        <time>2017-05-05T12:58:59Z</time>
      </trkpt>
      <trkpt lat="49.130225032567978" lon="8.871540008112788">
        <ele>238</ele>
        <time>2017-05-05T12:59:00Z</time>
      </trkpt>
      <trkpt lat="49.130140962079167" lon="8.871296010911465">
        <ele>238</ele>
        <time>2017-05-05T12:59:05Z</time>
      </trkpt>
      <trkpt lat="49.130115984007716" lon="8.871229039505124">
        <ele>238</ele>
        <time>2017-05-05T12:59:06Z</time>
      </trkpt>
      <trkpt lat="49.130027974024415" lon="8.871022006496787">
        <ele>238.40000000000001</ele>
        <time>2017-05-05T12:59:09Z</time>
      </trkpt>
      <trkpt lat="49.130001990124583" lon="8.870949000120163">
        <ele>238.40000000000001</ele>
        <time>2017-05-05T12:59:10Z</time>
      </trkpt>
      <trkpt lat="49.129980029538274" lon="8.870787983760238">
        <ele>238.40000000000001</ele>
        <time>2017-05-05T12:59:12Z</time>
      </trkpt>
      <trkpt lat="49.130067033693194" lon="8.870562007650733">
        <ele>238.59999999999999</ele>
        <time>2017-05-05T12:59:15Z</time>
      </trkpt>
      <trkpt lat="49.130114978179336" lon="8.870495958253741">
        <ele>238.59999999999999</ele>
        <time>2017-05-05T12:59:16Z</time>
      </trkpt>
      <trkpt lat="49.130269037559628" lon="8.870283979922533">
        <ele>238.19999999999999</ele>
        <time>2017-05-05T12:59:19Z</time>
      </trkpt>
      <trkpt lat="49.130417983978987" lon="8.870053980499506">
        <ele>238</ele>
        <time>2017-05-05T12:59:22Z</time>
      </trkpt>
      <trkpt lat="49.130678996443748" lon="8.869665982201695">
        <ele>238.19999999999999</ele>
        <time>2017-05-05T12:59:27Z</time>
      </trkpt>
      <trkpt lat="49.130844036117196" lon="8.869419973343611">
        <ele>237.40000000000001</ele>
        <time>2017-05-05T12:59:30Z</time>
      </trkpt>
      <trkpt lat="49.130900027230382" lon="8.869336992502213">
        <ele>237.40000000000001</ele>
        <time>2017-05-05T12:59:31Z</time>
      </trkpt>
      <trkpt lat="49.13128299638629" lon="8.868747996166349">
        <ele>236.59999999999999</ele>
        <time>2017-05-05T12:59:38Z</time>
      </trkpt>
      <trkpt lat="49.131559012457728" lon="8.868327978998423">
        <ele>236.40000000000001</ele>
        <time>2017-05-05T12:59:44Z</time>
      </trkpt>
      <trkpt lat="49.131646016612649" lon="8.868237035349011">
        <ele>236.40000000000001</ele>
        <time>2017-05-05T12:59:46Z</time>
      </trkpt>
      <trkpt lat="49.131735032424331" lon="8.868253966793418">
        <ele>236.40000000000001</ele>
        <time>2017-05-05T12:59:48Z</time>
      </trkpt>
      <trkpt lat="49.131784988567233" lon="8.868381958454847">
        <ele>236.40000000000001</ele>
        <time>2017-05-05T12:59:50Z</time>
      </trkpt>
      <trkpt lat="49.131809966638684" lon="8.868459993973374">
        <ele>236.40000000000001</ele>
        <time>2017-05-05T12:59:51Z</time>
      </trkpt>
      <trkpt lat="49.131941981613636" lon="8.8688800111413">
        <ele>236</ele>
        <time>2017-05-05T12:59:56Z</time>
      </trkpt>
      <trkpt lat="49.132024962455034" lon="8.869175976142287">
        <ele>236</ele>
        <time>2017-05-05T13:00:00Z</time>
      </trkpt>
      <trkpt lat="49.132049018517137" lon="8.869240013882518">
        <ele>236</ele>
        <time>2017-05-05T13:00:01Z</time>
      </trkpt>
      <trkpt lat="49.13212101906538" lon="8.869339004158974">
        <ele>236</ele>
        <time>2017-05-05T13:00:03Z</time>
      </trkpt>
      <trkpt lat="49.132268037647009" lon="8.869290975853801">
        <ele>235.80000000000001</ele>
        <time>2017-05-05T13:00:06Z</time>
      </trkpt>
      <trkpt lat="49.132374990731478" lon="8.86920003220439">
        <ele>235.59999999999999</ele>
        <time>2017-05-05T13:00:08Z</time>
      </trkpt>
      <trkpt lat="49.132430981844664" lon="8.869147980585694">
        <ele>235.59999999999999</ele>
        <time>2017-05-05T13:00:09Z</time>
      </trkpt>
      <trkpt lat="49.132482027634978" lon="8.869091989472508">
        <ele>235.59999999999999</ele>
        <time>2017-05-05T13:00:10Z</time>
      </trkpt>
      <trkpt lat="49.132698029279709" lon="8.868870958685875">
        <ele>236.19999999999999</ele>
        <time>2017-05-05T13:00:14Z</time>
      </trkpt>
      <trkpt lat="49.132803976535797" lon="8.868753025308251">
        <ele>236.19999999999999</ele>
        <time>2017-05-05T13:00:16Z</time>
      </trkpt>
      <trkpt lat="49.133150987327099" lon="8.86830098927021">
        <ele>236</ele>
        <time>2017-05-05T13:00:23Z</time>
      </trkpt>
      <trkpt lat="49.133548960089684" lon="8.867792962118983">
        <ele>236.59999999999999</ele>
        <time>2017-05-05T13:00:31Z</time>
      </trkpt>
      <trkpt lat="49.133916003629565" lon="8.86737797409296">
        <ele>236.59999999999999</ele>
        <time>2017-05-05T13:00:38Z</time>
      </trkpt>
      <trkpt lat="49.134161006659269" lon="8.867061976343393">
        <ele>237</ele>
        <time>2017-05-05T13:00:43Z</time>
      </trkpt>
      <trkpt lat="49.134526960551739" lon="8.8666230160743">
        <ele>237</ele>
        <time>2017-05-05T13:00:50Z</time>
      </trkpt>
      <trkpt lat="49.13487003184855" lon="8.866138961166143">
        <ele>237</ele>
        <time>2017-05-05T13:00:57Z</time>
      </trkpt>
      <trkpt lat="49.13519499823451" lon="8.865616014227271">
        <ele>237</ele>
        <time>2017-05-05T13:01:04Z</time>
      </trkpt>
      <trkpt lat="49.135527005419135" lon="8.865114022046328">
        <ele>237.59999999999999</ele>
        <time>2017-05-05T13:01:11Z</time>
      </trkpt>
      <trkpt lat="49.135806038975716" lon="8.864673972129822">
        <ele>237.59999999999999</ele>
        <time>2017-05-05T13:01:17Z</time>
      </trkpt>
      <trkpt lat="49.136065039783716" lon="8.864339031279087">
        <ele>237.59999999999999</ele>
        <time>2017-05-05T13:01:22Z</time>
      </trkpt>
      <trkpt lat="49.136353963986039" lon="8.864059997722507">
        <ele>237.80000000000001</ele>
        <time>2017-05-05T13:01:27Z</time>
      </trkpt>
      <trkpt lat="49.136473992839456" lon="8.863971987739205">
        <ele>238</ele>
        <time>2017-05-05T13:01:29Z</time>
      </trkpt>
      <trkpt lat="49.136595027521253" lon="8.863880038261414">
        <ele>238</ele>
        <time>2017-05-05T13:01:31Z</time>
      </trkpt>
      <trkpt lat="49.136903984472156" lon="8.863650038838387">
        <ele>238.40000000000001</ele>
        <time>2017-05-05T13:01:36Z</time>
      </trkpt>
      <trkpt lat="49.137388039380312" lon="8.86329397559166">
        <ele>238</ele>
        <time>2017-05-05T13:01:44Z</time>
      </trkpt>
      <trkpt lat="49.137447969987988" lon="8.863252988085151">
        <ele>238</ele>
        <time>2017-05-05T13:01:45Z</time>
      </trkpt>
      <trkpt lat="49.137936970219016" lon="8.862951993942261">
        <ele>238.40000000000001</ele>
        <time>2017-05-05T13:01:53Z</time>
      </trkpt>
      <trkpt lat="49.13817803375423" lon="8.862988958135247">
        <ele>239</ele>
        <time>2017-05-05T13:01:57Z</time>
      </trkpt>
      <trkpt lat="49.138227989897132" lon="8.863040003925562">
        <ele>239.19999999999999</ele>
        <time>2017-05-05T13:01:58Z</time>
      </trkpt>
      <trkpt lat="49.138334020972252" lon="8.863247036933899">
        <ele>239.80000000000001</ele>
        <time>2017-05-05T13:02:01Z</time>
      </trkpt>
      <trkpt lat="49.138366039842367" lon="8.863383997231722">
        <ele>240.40000000000001</ele>
        <time>2017-05-05T13:02:03Z</time>
      </trkpt>
      <trkpt lat="49.138385988771915" lon="8.863480975851417">
        <ele>241</ele>
        <time>2017-05-05T13:02:05Z</time>
      </trkpt>
      <trkpt lat="49.138398980721831" lon="8.863522969186306">
        <ele>241.19999999999999</ele>
        <time>2017-05-05T13:02:07Z</time>
      </trkpt>
      <trkpt lat="49.13841599598527" lon="8.863559011369944">
        <ele>241</ele>
        <time>2017-05-05T13:02:20Z</time>
      </trkpt>
      <trkpt lat="49.13845899514854" lon="8.863596981391311">
        <ele>241</ele>
        <time>2017-05-05T13:02:22Z</time>
      </trkpt>
      <trkpt lat="49.13850300014019" lon="8.863601004704833">
        <ele>241</ele>
        <time>2017-05-05T13:02:23Z</time>
      </trkpt>
      <trkpt lat="49.138762000948191" lon="8.863570997491479">
        <ele>240.59999999999999</ele>
        <time>2017-05-05T13:02:27Z</time>
      </trkpt>
      <trkpt lat="49.138998035341501" lon="8.86357200331986">
        <ele>240</ele>
        <time>2017-05-05T13:02:30Z</time>
      </trkpt>
      <trkpt lat="49.139071963727474" lon="8.863610979169607">
        <ele>240</ele>
        <time>2017-05-05T13:02:31Z</time>
      </trkpt>
      <trkpt lat="49.139428026974201" lon="8.863869979977608">
        <ele>239.59999999999999</ele>
        <time>2017-05-05T13:02:36Z</time>
      </trkpt>
      <trkpt lat="49.1394919808954" lon="8.863909961655736">
        <ele>239.40000000000001</ele>
        <time>2017-05-05T13:02:37Z</time>
      </trkpt>
      <trkpt lat="49.139547972008586" lon="8.863933011889458">
        <ele>239.59999999999999</ele>
        <time>2017-05-05T13:02:38Z</time>
      </trkpt>
      <trkpt lat="49.139591977000237" lon="8.863940974697471">
        <ele>239.59999999999999</ele>
        <time>2017-05-05T13:02:39Z</time>
      </trkpt>
      <trkpt lat="49.139723991975188" lon="8.863921025767922">
        <ele>239.59999999999999</ele>
        <time>2017-05-05T13:02:42Z</time>
      </trkpt>
      <trkpt lat="49.139769002795219" lon="8.863924965262413">
        <ele>239.59999999999999</ele>
        <time>2017-05-05T13:02:43Z</time>
      </trkpt>
      <trkpt lat="49.139906968921423" lon="8.864009035751224">
        <ele>239.40000000000001</ele>
        <time>2017-05-05T13:02:46Z</time>
      </trkpt>
      <trkpt lat="49.139954997226596" lon="8.864043988287449">
        <ele>239.19999999999999</ele>
        <time>2017-05-05T13:02:47Z</time>
      </trkpt>
      <trkpt lat="49.140227995812893" lon="8.864270970225334">
        <ele>239</ele>
        <time>2017-05-05T13:02:52Z</time>
      </trkpt>
      <trkpt lat="49.140347018837929" lon="8.86436996050179">
        <ele>238.80000000000001</ele>
        <time>2017-05-05T13:02:54Z</time>
      </trkpt>
      <trkpt lat="49.140517003834248" lon="8.864525025710464">
        <ele>238.59999999999999</ele>
        <time>2017-05-05T13:02:57Z</time>
      </trkpt>
      <trkpt lat="49.140941966325045" lon="8.864872036501765">
        <ele>239</ele>
        <time>2017-05-05T13:03:04Z</time>
      </trkpt>
      <trkpt lat="49.141328036785126" lon="8.865107987076044">
        <ele>239.19999999999999</ele>
        <time>2017-05-05T13:03:10Z</time>
      </trkpt>
      <trkpt lat="49.141773032024503" lon="8.865375034511089">
        <ele>239.19999999999999</ele>
        <time>2017-05-05T13:03:17Z</time>
      </trkpt>
      <trkpt lat="49.141832962632179" lon="8.865413004532456">
        <ele>239.19999999999999</ele>
        <time>2017-05-05T13:03:18Z</time>
      </trkpt>
      <trkpt lat="49.142252979800105" lon="8.865673011168838">
        <ele>239.19999999999999</ele>
        <time>2017-05-05T13:03:25Z</time>
      </trkpt>
      <trkpt lat="49.142711972817779" lon="8.865947015583515">
        <ele>239.59999999999999</ele>
        <time>2017-05-05T13:03:33Z</time>
      </trkpt>
      <trkpt lat="49.143184963613749" lon="8.866225965321064">
        <ele>239.59999999999999</ele>
        <time>2017-05-05T13:03:41Z</time>
      </trkpt>
      <trkpt lat="49.143668012693524" lon="8.866445990279317">
        <ele>239.80000000000001</ele>
        <time>2017-05-05T13:03:49Z</time>
      </trkpt>
      <trkpt lat="49.14404796436429" lon="8.866488989442587">
        <ele>240</ele>
        <time>2017-05-05T13:03:55Z</time>
      </trkpt>
      <trkpt lat="49.144421964883804" lon="8.866450013592839">
        <ele>240.40000000000001</ele>
        <time>2017-05-05T13:04:01Z</time>
      </trkpt>
      <trkpt lat="49.144780961796641" lon="8.866352029144764">
        <ele>240.19999999999999</ele>
        <time>2017-05-05T13:04:07Z</time>
      </trkpt>
      <trkpt lat="49.14496704004705" lon="8.866296960040927">
        <ele>240.40000000000001</ele>
        <time>2017-05-05T13:04:10Z</time>
      </trkpt>
      <trkpt lat="49.145087990909815" lon="8.86625899001956">
        <ele>240.59999999999999</ele>
        <time>2017-05-05T13:04:12Z</time>
      </trkpt>
      <trkpt lat="49.14552996866405" lon="8.866135021671653">
        <ele>241.19999999999999</ele>
        <time>2017-05-05T13:04:19Z</time>
      </trkpt>
      <trkpt lat="49.145841021090746" lon="8.86604399420321">
        <ele>241.19999999999999</ele>
        <time>2017-05-05T13:04:24Z</time>
      </trkpt>
      <trkpt lat="49.146261960268021" lon="8.865931006148458">
        <ele>241.19999999999999</ele>
        <time>2017-05-05T13:04:31Z</time>
      </trkpt>
      <trkpt lat="49.146476034075022" lon="8.865869985893369">
        <ele>241.40000000000001</ele>
        <time>2017-05-05T13:04:35Z</time>
      </trkpt>
      <trkpt lat="49.146525990217924" lon="8.865857999771833">
        <ele>241.59999999999999</ele>
        <time>2017-05-05T13:04:36Z</time>
      </trkpt>
      <trkpt lat="49.146569995209575" lon="8.86585196480155">
        <ele>241.80000000000001</ele>
        <time>2017-05-05T13:04:37Z</time>
      </trkpt>
      <trkpt lat="49.146644007414579" lon="8.865884989500046">
        <ele>242.19999999999999</ele>
        <time>2017-05-05T13:04:39Z</time>
      </trkpt>
      <trkpt lat="49.146659011021256" lon="8.865936035290361">
        <ele>242.19999999999999</ele>
        <time>2017-05-05T13:04:40Z</time>
      </trkpt>
      <trkpt lat="49.146673008799553" lon="8.866121023893356">
        <ele>242.40000000000001</ele>
        <time>2017-05-05T13:04:43Z</time>
      </trkpt>
      <trkpt lat="49.146715002134442" lon="8.866220014169812">
        <ele>242.59999999999999</ele>
        <time>2017-05-05T13:04:45Z</time>
      </trkpt>
      <trkpt lat="49.146787002682686" lon="8.866248009726405">
        <ele>242.80000000000001</ele>
        <time>2017-05-05T13:04:47Z</time>
      </trkpt>
      <trkpt lat="49.146830001845956" lon="8.866257984191179">
        <ele>243</ele>
        <time>2017-05-05T13:04:48Z</time>
      </trkpt>
      <trkpt lat="49.146873001009226" lon="8.866268964484334">
        <ele>243</ele>
        <time>2017-05-05T13:04:49Z</time>
      </trkpt>
      <trkpt lat="49.147137030959129" lon="8.866336019709706">
        <ele>243.59999999999999</ele>
        <time>2017-05-05T13:04:54Z</time>
      </trkpt>
      <trkpt lat="49.147494016215205" lon="8.866384970024228">
        <ele>243.59999999999999</ele>
        <time>2017-05-05T13:05:00Z</time>
      </trkpt>
      <trkpt lat="49.147554030641913" lon="8.866369966417551">
        <ele>243.80000000000001</ele>
        <time>2017-05-05T13:05:01Z</time>
      </trkpt>
      <trkpt lat="49.147798027843237" lon="8.866276005282998">
        <ele>244.40000000000001</ele>
        <time>2017-05-05T13:05:05Z</time>
      </trkpt>
      <trkpt lat="49.148298008367419" lon="8.866069978103042">
        <ele>244</ele>
        <time>2017-05-05T13:05:13Z</time>
      </trkpt>
      <trkpt lat="49.148688018321991" lon="8.865905022248626">
        <ele>243.80000000000001</ele>
        <time>2017-05-05T13:05:19Z</time>
      </trkpt>
      <trkpt lat="49.149277014657855" lon="8.865663036704063">
        <ele>243.80000000000001</ele>
        <time>2017-05-05T13:05:28Z</time>
      </trkpt>
      <trkpt lat="49.149340968579054" lon="8.865637974813581">
        <ele>243.80000000000001</ele>
        <time>2017-05-05T13:05:29Z</time>
      </trkpt>
      <trkpt lat="49.149808008223772" lon="8.865411998704076">
        <ele>244</ele>
        <time>2017-05-05T13:05:36Z</time>
      </trkpt>
      <trkpt lat="49.150246968492866" lon="8.865113016217947">
        <ele>244.19999999999999</ele>
        <time>2017-05-05T13:05:43Z</time>
      </trkpt>
      <trkpt lat="49.15042701177299" lon="8.864998016506434">
        <ele>244.80000000000001</ele>
        <time>2017-05-05T13:05:46Z</time>
      </trkpt>
      <trkpt lat="49.150542011484504" lon="8.864906989037991">
        <ele>245.19999999999999</ele>
        <time>2017-05-05T13:05:48Z</time>
      </trkpt>
      <trkpt lat="49.150646030902863" lon="8.864778997376561">
        <ele>245.59999999999999</ele>
        <time>2017-05-05T13:05:50Z</time>
      </trkpt>
      <trkpt lat="49.151045009493828" lon="8.864233000203967">
        <ele>245.40000000000001</ele>
        <time>2017-05-05T13:05:58Z</time>
      </trkpt>
      <trkpt lat="49.151231003925204" lon="8.863977016881108">
        <ele>246</ele>
        <time>2017-05-05T13:06:02Z</time>
      </trkpt>
      <trkpt lat="49.151456980034709" lon="8.863674011081457">
        <ele>246</ele>
        <time>2017-05-05T13:06:07Z</time>
      </trkpt>
      <trkpt lat="49.151491010561585" lon="8.863605028018355">
        <ele>245.80000000000001</ele>
        <time>2017-05-05T13:06:08Z</time>
      </trkpt>
      <trkpt lat="49.15150199085474" lon="8.86342003941536">
        <ele>245.59999999999999</ele>
        <time>2017-05-05T13:06:10Z</time>
      </trkpt>
      <trkpt lat="49.15147902444005" lon="8.863218035548925">
        <ele>244.80000000000001</ele>
        <time>2017-05-05T13:06:12Z</time>
      </trkpt>
      <trkpt lat="49.151467960327864" lon="8.862997004762292">
        <ele>244.19999999999999</ele>
        <time>2017-05-05T13:06:14Z</time>
      </trkpt>
      <trkpt lat="49.151475001126528" lon="8.86288502253592">
        <ele>244</ele>
        <time>2017-05-05T13:06:15Z</time>
      </trkpt>
      <trkpt lat="49.151562005281448" lon="8.862468022853136">
        <ele>244</ele>
        <time>2017-05-05T13:06:19Z</time>
      </trkpt>
      <trkpt lat="49.151664013043046" lon="8.862039037048817">
        <ele>244.19999999999999</ele>
        <time>2017-05-05T13:06:24Z</time>
      </trkpt>
      <trkpt lat="49.15167398750782" lon="8.862010035663843">
        <ele>244.19999999999999</ele>
        <time>2017-05-05T13:06:26Z</time>
      </trkpt>
      <trkpt lat="49.151677004992962" lon="8.862045994028449">
        <ele>244</ele>
        <time>2017-05-05T13:06:29Z</time>
      </trkpt>
      <trkpt lat="49.151664013043046" lon="8.862108020111918">
        <ele>244</ele>
        <time>2017-05-05T13:06:34Z</time>
      </trkpt>
      <trkpt lat="49.151665018871427" lon="8.862144984304905">
        <ele>244.19999999999999</ele>
        <time>2017-05-05T13:06:36Z</time>
      </trkpt>
      <trkpt lat="49.151675999164581" lon="8.862167028710246">
        <ele>244.19999999999999</ele>
        <time>2017-05-05T13:06:37Z</time>
      </trkpt>
      <trkpt lat="49.151723021641374" lon="8.862206004559994">
        <ele>244</ele>
        <time>2017-05-05T13:06:39Z</time>
      </trkpt>
      <trkpt lat="49.151829974725842" lon="8.862269036471844">
        <ele>244</ele>
        <time>2017-05-05T13:06:42Z</time>
      </trkpt>
      <trkpt lat="49.151916978880763" lon="8.862318992614746">
        <ele>244</ele>
        <time>2017-05-05T13:06:44Z</time>
      </trkpt>
      <trkpt lat="49.152067014947534" lon="8.862399961799383">
        <ele>244.19999999999999</ele>
        <time>2017-05-05T13:06:47Z</time>
      </trkpt>
      <trkpt lat="49.152171034365892" lon="8.862467017024756">
        <ele>244.40000000000001</ele>
        <time>2017-05-05T13:06:49Z</time>
      </trkpt>
      <trkpt lat="49.152224007993937" lon="8.8625009637326">
        <ele>244.40000000000001</ele>
        <time>2017-05-05T13:06:50Z</time>
      </trkpt>
      <trkpt lat="49.152607982978225" lon="8.862731968984008">
        <ele>245.19999999999999</ele>
        <time>2017-05-05T13:06:57Z</time>
      </trkpt>
      <trkpt lat="49.152718959376216" lon="8.862798018381">
        <ele>245.40000000000001</ele>
        <time>2017-05-05T13:06:59Z</time>
      </trkpt>
      <trkpt lat="49.152943007647991" lon="8.862923998385668">
        <ele>245.59999999999999</ele>
        <time>2017-05-05T13:07:03Z</time>
      </trkpt>
      <trkpt lat="49.153275014832616" lon="8.863115021958947">
        <ele>246</ele>
        <time>2017-05-05T13:07:09Z</time>
      </trkpt>
      <trkpt lat="49.153331005945802" lon="8.863146035000682">
        <ele>246.19999999999999</ele>
        <time>2017-05-05T13:07:10Z</time>
      </trkpt>
      <trkpt lat="49.153792010620236" lon="8.863403024151921">
        <ele>246.80000000000001</ele>
        <time>2017-05-05T13:07:18Z</time>
      </trkpt>
      <trkpt lat="49.154246980324388" lon="8.863693960011005">
        <ele>247</ele>
        <time>2017-05-05T13:07:26Z</time>
      </trkpt>
      <trkpt lat="49.154717959463596" lon="8.863996965810657">
        <ele>247.19999999999999</ele>
        <time>2017-05-05T13:07:34Z</time>
      </trkpt>
      <trkpt lat="49.155009984970093" lon="8.864169968292117">
        <ele>247.40000000000001</ele>
        <time>2017-05-05T13:07:39Z</time>
      </trkpt>
      <trkpt lat="49.15506899356842" lon="8.864180026575923">
        <ele>247.40000000000001</ele>
        <time>2017-05-05T13:07:40Z</time>
      </trkpt>
      <trkpt lat="49.155124984681606" lon="8.864164017140865">
        <ele>247.40000000000001</ele>
        <time>2017-05-05T13:07:41Z</time>
      </trkpt>
      <trkpt lat="49.155226992443204" lon="8.864085981622338">
        <ele>248</ele>
        <time>2017-05-05T13:07:43Z</time>
      </trkpt>
      <trkpt lat="49.155330006033182" lon="8.864004006609321">
        <ele>248.40000000000001</ele>
        <time>2017-05-05T13:07:45Z</time>
      </trkpt>
      <trkpt lat="49.155434025451541" lon="8.8639170024544">
        <ele>248.80000000000001</ele>
        <time>2017-05-05T13:07:47Z</time>
      </trkpt>
      <trkpt lat="49.155853036791086" lon="8.863578960299492">
        <ele>249.59999999999999</ele>
        <time>2017-05-05T13:07:55Z</time>
      </trkpt>
      <trkpt lat="49.156063003465533" lon="8.863417021930218">
        <ele>250.19999999999999</ele>
        <time>2017-05-05T13:07:59Z</time>
      </trkpt>
      <trkpt lat="49.156385958194733" lon="8.86316497810185">
        <ele>250.80000000000001</ele>
        <time>2017-05-05T13:08:05Z</time>
      </trkpt>
      <trkpt lat="49.156606988981366" lon="8.862991975620389">
        <ele>251.40000000000001</ele>
        <time>2017-05-05T13:08:09Z</time>
      </trkpt>
      <trkpt lat="49.15710998699069" lon="8.862618980929256">
        <ele>251.80000000000001</ele>
        <time>2017-05-05T13:08:18Z</time>
      </trkpt>
      <trkpt lat="49.157165978103876" lon="8.862580005079508">
        <ele>251.80000000000001</ele>
        <time>2017-05-05T13:08:19Z</time>
      </trkpt>
      <trkpt lat="49.157221969217062" lon="8.862537005916238">
        <ele>252</ele>
        <time>2017-05-05T13:08:20Z</time>
      </trkpt>
      <trkpt lat="49.157563028857112" lon="8.862275993451476">
        <ele>252.19999999999999</ele>
        <time>2017-05-05T13:08:26Z</time>
      </trkpt>
      <trkpt lat="49.158077007159591" lon="8.861847007647157">
        <ele>252.59999999999999</ele>
        <time>2017-05-05T13:08:35Z</time>
      </trkpt>
      <trkpt lat="49.158600037917495" lon="8.861413998529315">
        <ele>252.40000000000001</ele>
        <time>2017-05-05T13:08:44Z</time>
      </trkpt>
      <trkpt lat="49.158713025972247" lon="8.861322971060872">
        <ele>252.40000000000001</ele>
        <time>2017-05-05T13:08:46Z</time>
      </trkpt>
      <trkpt lat="49.159192973747849" lon="8.860955005511642">
        <ele>252.40000000000001</ele>
        <time>2017-05-05T13:08:55Z</time>
      </trkpt>
      <trkpt lat="49.159275032579899" lon="8.861008984968066">
        <ele>252.40000000000001</ele>
        <time>2017-05-05T13:08:57Z</time>
      </trkpt>
      <trkpt lat="49.15934300981462" lon="8.861092971637845">
        <ele>252.40000000000001</ele>
        <time>2017-05-05T13:08:59Z</time>
      </trkpt>
      <trkpt lat="49.159430013969541" lon="8.861082997173071">
        <ele>252.19999999999999</ele>
        <time>2017-05-05T13:09:01Z</time>
      </trkpt>
      <trkpt lat="49.159529004245996" lon="8.860999010503292">
        <ele>251.80000000000001</ele>
        <time>2017-05-05T13:09:03Z</time>
      </trkpt>
      <trkpt lat="49.159633023664355" lon="8.860890967771411">
        <ele>251.40000000000001</ele>
        <time>2017-05-05T13:09:05Z</time>
      </trkpt>
      <trkpt lat="49.159688008949161" lon="8.860833970829845">
        <ele>251.19999999999999</ele>
        <time>2017-05-05T13:09:06Z</time>
      </trkpt>
      <trkpt lat="49.160135015845299" lon="8.860380006954074">
        <ele>250.80000000000001</ele>
        <time>2017-05-05T13:09:14Z</time>
      </trkpt>
      <trkpt lat="49.160588979721069" lon="8.859906010329723">
        <ele>251.19999999999999</ele>
        <time>2017-05-05T13:09:22Z</time>
      </trkpt>
      <trkpt lat="49.161044033244252" lon="8.859438970685005">
        <ele>251.59999999999999</ele>
        <time>2017-05-05T13:09:30Z</time>
      </trkpt>
      <trkpt lat="49.16121200658381" lon="8.859264040365815">
        <ele>252</ele>
        <time>2017-05-05T13:09:33Z</time>
      </trkpt>
      <trkpt lat="49.161704024299979" lon="8.858734974637628">
        <ele>252.19999999999999</ele>
        <time>2017-05-05T13:09:42Z</time>
      </trkpt>
      <trkpt lat="49.161756997928023" lon="8.858676971867681">
        <ele>252.40000000000001</ele>
        <time>2017-05-05T13:09:43Z</time>
      </trkpt>
      <trkpt lat="49.161863029003143" lon="8.858559960499406">
        <ele>252.80000000000001</ele>
        <time>2017-05-05T13:09:45Z</time>
      </trkpt>
      <trkpt lat="49.16218196041882" lon="8.858226025477052">
        <ele>253</ele>
        <time>2017-05-05T13:09:51Z</time>
      </trkpt>
      <trkpt lat="49.162644976750016" lon="8.857723027467728">
        <ele>253.40000000000001</ele>
        <time>2017-05-05T13:10:00Z</time>
      </trkpt>
      <trkpt lat="49.162841029465199" lon="8.857499985024333">
        <ele>254</ele>
        <time>2017-05-05T13:10:04Z</time>
      </trkpt>
      <trkpt lat="49.16318703442812" lon="8.857108969241381">
        <ele>254</ele>
        <time>2017-05-05T13:10:11Z</time>
      </trkpt>
      <trkpt lat="49.163570003584027" lon="8.8566779717803">
        <ele>254.80000000000001</ele>
        <time>2017-05-05T13:10:19Z</time>
      </trkpt>
      <trkpt lat="49.163615014404058" lon="8.856623992323875">
        <ele>255</ele>
        <time>2017-05-05T13:10:20Z</time>
      </trkpt>
      <trkpt lat="49.163978034630418" lon="8.856256026774645">
        <ele>255</ele>
        <time>2017-05-05T13:10:27Z</time>
      </trkpt>
      <trkpt lat="49.164296966046095" lon="8.855970036238432">
        <ele>255.19999999999999</ele>
        <time>2017-05-05T13:10:32Z</time>
      </trkpt>
      <trkpt lat="49.164680019021034" lon="8.855586983263493">
        <ele>255.40000000000001</ele>
        <time>2017-05-05T13:10:39Z</time>
      </trkpt>
      <trkpt lat="49.164766017347574" lon="8.855482041835785">
        <ele>255.40000000000001</ele>
        <time>2017-05-05T13:10:41Z</time>
      </trkpt>
      <trkpt lat="49.164850004017353" lon="8.855395959690213">
        <ele>255.40000000000001</ele>
        <time>2017-05-05T13:10:43Z</time>
      </trkpt>
      <trkpt lat="49.164889985695481" lon="8.855355978012085">
        <ele>255.40000000000001</ele>
        <time>2017-05-05T13:10:44Z</time>
      </trkpt>
      <trkpt lat="49.16501596570015" lon="8.855239972472191">
        <ele>255.40000000000001</ele>
        <time>2017-05-05T13:10:47Z</time>
      </trkpt>
      <trkpt lat="49.165111016482115" lon="8.855147017166019">
        <ele>255.40000000000001</ele>
        <time>2017-05-05T13:10:49Z</time>
      </trkpt>
      <trkpt lat="49.165524998679757" lon="8.854735968634486">
        <ele>255.40000000000001</ele>
        <time>2017-05-05T13:10:57Z</time>
      </trkpt>
      <trkpt lat="49.165732031688094" lon="8.854526001960039">
        <ele>255.19999999999999</ele>
        <time>2017-05-05T13:11:01Z</time>
      </trkpt>
      <trkpt lat="49.165989020839334" lon="8.854254009202123">
        <ele>255.19999999999999</ele>
        <time>2017-05-05T13:11:06Z</time>
      </trkpt>
      <trkpt lat="49.166350029408932" lon="8.853896018117666">
        <ele>256</ele>
        <time>2017-05-05T13:11:13Z</time>
      </trkpt>
      <trkpt lat="49.16653904132545" lon="8.853680016472936">
        <ele>256.39999999999998</ele>
        <time>2017-05-05T13:11:17Z</time>
      </trkpt>
      <trkpt lat="49.166623027995229" lon="8.853552024811506">
        <ele>256.39999999999998</ele>
        <time>2017-05-05T13:11:19Z</time>
      </trkpt>
      <trkpt lat="49.166720006614923" lon="8.853311967104673">
        <ele>256.60000000000002</ele>
        <time>2017-05-05T13:11:22Z</time>
      </trkpt>
      <trkpt lat="49.16694900020957" lon="8.852625992149115">
        <ele>257.19999999999999</ele>
        <time>2017-05-05T13:11:30Z</time>
      </trkpt>
      <trkpt lat="49.167036004364491" lon="8.852365985512734">
        <ele>257.60000000000002</ele>
        <time>2017-05-05T13:11:33Z</time>
      </trkpt>
      <trkpt lat="49.167174976319075" lon="8.851932976394892">
        <ele>258</ele>
        <time>2017-05-05T13:11:38Z</time>
      </trkpt>
      <trkpt lat="49.167426014319062" lon="8.851169971749187">
        <ele>258.60000000000002</ele>
        <time>2017-05-05T13:11:47Z</time>
      </trkpt>
      <trkpt lat="49.16770001873374" lon="8.850363967940211">
        <ele>258.39999999999998</ele>
        <time>2017-05-05T13:11:56Z</time>
      </trkpt>
      <trkpt lat="49.167934963479638" lon="8.849647985771298">
        <ele>258.80000000000001</ele>
        <time>2017-05-05T13:12:04Z</time>
      </trkpt>
      <trkpt lat="49.167963964864612" lon="8.849557964131236">
        <ele>258.80000000000001</ele>
        <time>2017-05-05T13:12:05Z</time>
      </trkpt>
      <trkpt lat="49.168140990659595" lon="8.849036023020744">
        <ele>259.39999999999998</ele>
        <time>2017-05-05T13:12:11Z</time>
      </trkpt>
      <trkpt lat="49.168233023956418" lon="8.84879001416266">
        <ele>260</ele>
        <time>2017-05-05T13:12:14Z</time>
      </trkpt>
      <trkpt lat="49.16838901117444" lon="8.848395980894566">
        <ele>260.19999999999999</ele>
        <time>2017-05-05T13:12:19Z</time>
      </trkpt>
      <trkpt lat="49.168663015589118" lon="8.847732972353697">
        <ele>260.80000000000001</ele>
        <time>2017-05-05T13:12:27Z</time>
      </trkpt>
      <trkpt lat="49.168697968125343" lon="8.847645968198776">
        <ele>261</ele>
        <time>2017-05-05T13:12:28Z</time>
      </trkpt>
      <trkpt lat="49.168977001681924" lon="8.846951024606824">
        <ele>261</ele>
        <time>2017-05-05T13:12:36Z</time>
      </trkpt>
      <trkpt lat="49.169252011924982" lon="8.846273012459278">
        <ele>261.39999999999998</ele>
        <time>2017-05-05T13:12:44Z</time>
      </trkpt>
      <trkpt lat="49.169282019138336" lon="8.846002025529742">
        <ele>261.60000000000002</ele>
        <time>2017-05-05T13:12:47Z</time>
      </trkpt>
      <trkpt lat="49.169276989996433" lon="8.845914015546441">
        <ele>261.80000000000001</ele>
        <time>2017-05-05T13:12:48Z</time>
      </trkpt>
      <trkpt lat="49.169258968904614" lon="8.845556024461985">
        <ele>262.19999999999999</ele>
        <time>2017-05-05T13:12:52Z</time>
      </trkpt>
      <trkpt lat="49.169259974732995" lon="8.845382016152144">
        <ele>262.60000000000002</ele>
        <time>2017-05-05T13:12:54Z</time>
      </trkpt>
      <trkpt lat="49.16926902718842" lon="8.845296017825604">
        <ele>262.80000000000001</ele>
        <time>2017-05-05T13:12:55Z</time>
      </trkpt>
      <trkpt lat="49.169301968067884" lon="8.845129972323775">
        <ele>263.39999999999998</ele>
        <time>2017-05-05T13:12:57Z</time>
      </trkpt>
      <trkpt lat="49.169322000816464" lon="8.845049003139138">
        <ele>263.39999999999998</ele>
        <time>2017-05-05T13:12:58Z</time>
      </trkpt>
      <trkpt lat="49.169380003586411" lon="8.844801988452673">
        <ele>263.60000000000002</ele>
        <time>2017-05-05T13:13:01Z</time>
      </trkpt>
      <trkpt lat="49.169418979436159" lon="8.844635020941496">
        <ele>263.60000000000002</ele>
        <time>2017-05-05T13:13:03Z</time>
      </trkpt>
      <trkpt lat="49.169475976377726" lon="8.844479033723474">
        <ele>263.80000000000001</ele>
        <time>2017-05-05T13:13:05Z</time>
      </trkpt>
      <trkpt lat="49.169512018561363" lon="8.84440896101296">
        <ele>264</ele>
        <time>2017-05-05T13:13:06Z</time>
      </trkpt>
      <trkpt lat="49.169633975252509" lon="8.84421500377357">
        <ele>264.39999999999998</ele>
        <time>2017-05-05T13:13:09Z</time>
      </trkpt>
      <trkpt lat="49.169697007164359" lon="8.84406303986907">
        <ele>264.60000000000002</ele>
        <time>2017-05-05T13:13:11Z</time>
      </trkpt>
      <trkpt lat="49.169731037691236" lon="8.843985004350543">
        <ele>264.60000000000002</ele>
        <time>2017-05-05T13:13:12Z</time>
      </trkpt>
      <trkpt lat="49.169867997989058" lon="8.843775959685445">
        <ele>265.19999999999999</ele>
        <time>2017-05-05T13:13:15Z</time>
      </trkpt>
      <trkpt lat="49.169961037114263" lon="8.843646962195635">
        <ele>265.39999999999998</ele>
        <time>2017-05-05T13:13:17Z</time>
      </trkpt>
      <trkpt lat="49.170412989333272" lon="8.843002980574966">
        <ele>266.60000000000002</ele>
        <time>2017-05-05T13:13:26Z</time>
      </trkpt>
      <trkpt lat="49.170412989333272" lon="8.843002980574966">
        <ele>266.60000000000002</ele>
        <time>2017-05-05T13:13:27Z</time>
      </trkpt>
      <trkpt lat="49.17079403065145" lon="8.842308958992362">
        <ele>266.39999999999998</ele>
        <time>2017-05-05T13:13:36Z</time>
      </trkpt>
      <trkpt lat="49.171007014811039" lon="8.841777965426445">
        <ele>265.80000000000001</ele>
        <time>2017-05-05T13:13:42Z</time>
      </trkpt>
      <trkpt lat="49.171071974560618" lon="8.841589037328959">
        <ele>265.60000000000002</ele>
        <time>2017-05-05T13:13:44Z</time>
      </trkpt>
      <trkpt lat="49.171227039769292" lon="8.841022001579404">
        <ele>265.80000000000001</ele>
        <time>2017-05-05T13:13:50Z</time>
      </trkpt>
      <trkpt lat="49.171295017004013" lon="8.840760989114642">
        <ele>266</ele>
        <time>2017-05-05T13:13:53Z</time>
      </trkpt>
      <trkpt lat="49.171287976205349" lon="8.84058496914804">
        <ele>266.19999999999999</ele>
        <time>2017-05-05T13:13:55Z</time>
      </trkpt>
      <trkpt lat="49.171210024505854" lon="8.840358993038535">
        <ele>266.39999999999998</ele>
        <time>2017-05-05T13:13:58Z</time>
      </trkpt>
      <trkpt lat="49.171154033392668" lon="8.840207029134035">
        <ele>266.80000000000001</ele>
        <time>2017-05-05T13:14:00Z</time>
      </trkpt>
      <trkpt lat="49.171035010367632" lon="8.839906034991145">
        <ele>267.80000000000001</ele>
        <time>2017-05-05T13:14:04Z</time>
      </trkpt>
      <trkpt lat="49.170949012041092" lon="8.839683998376131">
        <ele>268.19999999999999</ele>
        <time>2017-05-05T13:14:07Z</time>
      </trkpt>
      <trkpt lat="49.170829989016056" lon="8.839381998404861">
        <ele>268.80000000000001</ele>
        <time>2017-05-05T13:14:11Z</time>
      </trkpt>
      <trkpt lat="49.17070996016264" lon="8.839073041453958">
        <ele>269.19999999999999</ele>
        <time>2017-05-05T13:14:15Z</time>
      </trkpt>
      <trkpt lat="49.170620022341609" lon="8.838825020939112">
        <ele>269.80000000000001</ele>
        <time>2017-05-05T13:14:18Z</time>
      </trkpt>
      <trkpt lat="49.170437967404723" lon="8.838354963809252">
        <ele>271</ele>
        <time>2017-05-05T13:14:24Z</time>
      </trkpt>
      <trkpt lat="49.17040896601975" lon="8.838278017938137">
        <ele>271.19999999999999</ele>
        <time>2017-05-05T13:14:25Z</time>
      </trkpt>
      <trkpt lat="49.170284997671843" lon="8.837889013811946">
        <ele>271.80000000000001</ele>
        <time>2017-05-05T13:14:30Z</time>
      </trkpt>
      <trkpt lat="49.170292038470507" lon="8.837805027142167">
        <ele>272</ele>
        <time>2017-05-05T13:14:31Z</time>
      </trkpt>
      <trkpt lat="49.170318022370338" lon="8.837730009108782">
        <ele>272.19999999999999</ele>
        <time>2017-05-05T13:14:32Z</time>
      </trkpt>
      <trkpt lat="49.170393962413073" lon="8.837601011618972">
        <ele>272.60000000000002</ele>
        <time>2017-05-05T13:14:34Z</time>
      </trkpt>
      <trkpt lat="49.170547015964985" lon="8.837350979447365">
        <ele>273.39999999999998</ele>
        <time>2017-05-05T13:14:38Z</time>
      </trkpt>
      <trkpt lat="49.170695962384343" lon="8.83710203692317">
        <ele>274.60000000000002</ele>
        <time>2017-05-05T13:14:42Z</time>
      </trkpt>
      <trkpt lat="49.1707309987396" lon="8.837042022496462">
        <ele>274.80000000000001</ele>
        <time>2017-05-05T13:14:43Z</time>
      </trkpt>
      <trkpt lat="49.17083602398634" lon="8.836870025843382">
        <ele>275.60000000000002</ele>
        <time>2017-05-05T13:14:46Z</time>
      </trkpt>
      <trkpt lat="49.171044984832406" lon="8.836508011445403">
        <ele>276.80000000000001</ele>
        <time>2017-05-05T13:14:52Z</time>
      </trkpt>
      <trkpt lat="49.171251012012362" lon="8.836102997884154">
        <ele>277.19999999999999</ele>
        <time>2017-05-05T13:14:58Z</time>
      </trkpt>
      <trkpt lat="49.171355031430721" lon="8.835892025381327">
        <ele>277.39999999999998</ele>
        <time>2017-05-05T13:15:01Z</time>
      </trkpt>
      <trkpt lat="49.171621995046735" lon="8.835444012656808">
        <ele>277.39999999999998</ele>
        <time>2017-05-05T13:15:08Z</time>
      </trkpt>
      <trkpt lat="49.171677986159921" lon="8.835400007665157">
        <ele>277.39999999999998</ele>
        <time>2017-05-05T13:15:09Z</time>
      </trkpt>
      <trkpt lat="49.171913014724851" lon="8.835290959104896">
        <ele>277.19999999999999</ele>
        <time>2017-05-05T13:15:13Z</time>
      </trkpt>
      <trkpt lat="49.172005970031023" lon="8.835249971598387">
        <ele>276.80000000000001</ele>
        <time>2017-05-05T13:15:15Z</time>
      </trkpt>
      <trkpt lat="49.172050980851054" lon="8.835222981870174">
        <ele>276.39999999999998</ele>
        <time>2017-05-05T13:15:16Z</time>
      </trkpt>
      <trkpt lat="49.172090040519834" lon="8.835196997970343">
        <ele>276</ele>
        <time>2017-05-05T13:15:17Z</time>
      </trkpt>
      <trkpt lat="49.172123987227678" lon="8.835177971050143">
        <ele>275.60000000000002</ele>
        <time>2017-05-05T13:15:18Z</time>
      </trkpt>
      <trkpt lat="49.172197999432683" lon="8.835157016292214">
        <ele>274.60000000000002</ele>
        <time>2017-05-05T13:15:21Z</time>
      </trkpt>
      <trkpt lat="49.172247033566236" lon="8.835194986313582">
        <ele>274.19999999999999</ele>
        <time>2017-05-05T13:15:23Z</time>
      </trkpt>
      <trkpt lat="49.172283997759223" lon="8.835284002125263">
        <ele>273.80000000000001</ele>
        <time>2017-05-05T13:15:25Z</time>
      </trkpt>
      <trkpt lat="49.172305036336184" lon="8.835334964096546">
        <ele>273.80000000000001</ele>
        <time>2017-05-05T13:15:26Z</time>
      </trkpt>
      <trkpt lat="49.172422969713807" lon="8.835573010146618">
        <ele>273.60000000000002</ele>
        <time>2017-05-05T13:15:30Z</time>
      </trkpt>
      <trkpt lat="49.172519026324153" lon="8.835753975436091">
        <ele>273.60000000000002</ele>
        <time>2017-05-05T13:15:33Z</time>
      </trkpt>
      <trkpt lat="49.172637965530157" lon="8.835874004289508">
        <ele>273.19999999999999</ele>
        <time>2017-05-05T13:15:36Z</time>
      </trkpt>
      <trkpt lat="49.172827983275056" lon="8.835874004289508">
        <ele>273</ele>
        <time>2017-05-05T13:15:40Z</time>
      </trkpt>
      <trkpt lat="49.173024035990238" lon="8.835699995979667">
        <ele>272.60000000000002</ele>
        <time>2017-05-05T13:15:44Z</time>
      </trkpt>
      <trkpt lat="49.173076003789902" lon="8.835645010694861">
        <ele>272.60000000000002</ele>
        <time>2017-05-05T13:15:45Z</time>
      </trkpt>
      <trkpt lat="49.173229979351163" lon="8.835479971021414">
        <ele>272</ele>
        <time>2017-05-05T13:15:48Z</time>
      </trkpt>
      <trkpt lat="49.173380015417933" lon="8.835335969924927">
        <ele>271.39999999999998</ele>
        <time>2017-05-05T13:15:51Z</time>
      </trkpt>
      <trkpt lat="49.173474982380867" lon="8.835247037932277">
        <ele>271.39999999999998</ele>
        <time>2017-05-05T13:15:53Z</time>
      </trkpt>
      <trkpt lat="49.173610014840961" lon="8.835121979936957">
        <ele>271.39999999999998</ele>
        <time>2017-05-05T13:15:56Z</time>
      </trkpt>
      <trkpt lat="49.173638010397553" lon="8.835085015743971">
        <ele>271.39999999999998</ele>
        <time>2017-05-05T13:15:57Z</time>
      </trkpt>
      <trkpt lat="49.173699030652642" lon="8.834958029910922">
        <ele>271.39999999999998</ele>
        <time>2017-05-05T13:16:00Z</time>
      </trkpt>
      <trkpt lat="49.173663994297385" lon="8.834793996065855">
        <ele>271.39999999999998</ele>
        <time>2017-05-05T13:16:03Z</time>
      </trkpt>
      <trkpt lat="49.173643961548805" lon="8.834738004952669">
        <ele>271.60000000000002</ele>
        <time>2017-05-05T13:16:04Z</time>
      </trkpt>
      <trkpt lat="49.173547988757491" lon="8.834529966115952">
        <ele>271.80000000000001</ele>
        <time>2017-05-05T13:16:08Z</time>
      </trkpt>
      <trkpt lat="49.173452015966177" lon="8.834298960864544">
        <ele>272.19999999999999</ele>
        <time>2017-05-05T13:16:13Z</time>
      </trkpt>
      <trkpt lat="49.173412034288049" lon="8.834214974194765">
        <ele>272.39999999999998</ele>
        <time>2017-05-05T13:16:15Z</time>
      </trkpt>
      <trkpt lat="49.173399964347482" lon="8.834169963374734">
        <ele>272.60000000000002</ele>
        <time>2017-05-05T13:16:16Z</time>
      </trkpt>
      <trkpt lat="49.173361994326115" lon="8.834036020562053">
        <ele>273.19999999999999</ele>
        <time>2017-05-05T13:16:19Z</time>
      </trkpt>
      <trkpt lat="49.173329975455999" lon="8.833943987265229">
        <ele>273.60000000000002</ele>
        <time>2017-05-05T13:16:21Z</time>
      </trkpt>
      <trkpt lat="49.173312960192561" lon="8.833896964788437">
        <ele>274</ele>
        <time>2017-05-05T13:16:22Z</time>
      </trkpt>
      <trkpt lat="49.173256969079375" lon="8.833749024197459">
        <ele>274.60000000000002</ele>
        <time>2017-05-05T13:16:25Z</time>
      </trkpt>
      <trkpt lat="49.173238025978208" lon="8.833693033084273">
        <ele>274.80000000000001</ele>
        <time>2017-05-05T13:16:26Z</time>
      </trkpt>
      <trkpt lat="49.173217993229628" lon="8.833639975637198">
        <ele>275.19999999999999</ele>
        <time>2017-05-05T13:16:27Z</time>
      </trkpt>
      <trkpt lat="49.173178011551499" lon="8.833541991189122">
        <ele>275.80000000000001</ele>
        <time>2017-05-05T13:16:29Z</time>
      </trkpt>
      <trkpt lat="49.173122020438313" lon="8.833375023677945">
        <ele>276.80000000000001</ele>
        <time>2017-05-05T13:16:32Z</time>
      </trkpt>
      <trkpt lat="49.173105005174875" lon="8.833316015079618">
        <ele>277.19999999999999</ele>
        <time>2017-05-05T13:16:33Z</time>
      </trkpt>
      <trkpt lat="49.173082960769534" lon="8.833192968741059">
        <ele>278</ele>
        <time>2017-05-05T13:16:35Z</time>
      </trkpt>
      <trkpt lat="49.173096036538482" lon="8.833132032305002">
        <ele>278.39999999999998</ele>
        <time>2017-05-05T13:16:36Z</time>
      </trkpt>
      <trkpt lat="49.173122020438313" lon="8.833076963201165">
        <ele>278.60000000000002</ele>
        <time>2017-05-05T13:16:37Z</time>
      </trkpt>
      <trkpt lat="49.173250012099743" lon="8.832926005125046">
        <ele>279.19999999999999</ele>
        <time>2017-05-05T13:16:40Z</time>
      </trkpt>
      <trkpt lat="49.173288987949491" lon="8.832872025668621">
        <ele>279.39999999999998</ele>
        <time>2017-05-05T13:16:41Z</time>
      </trkpt>
      <trkpt lat="49.173410022631288" lon="8.832703968510032">
        <ele>280.19999999999999</ele>
        <time>2017-05-05T13:16:44Z</time>
      </trkpt>
      <trkpt lat="49.173487974330783" lon="8.832603972405195">
        <ele>280.39999999999998</ele>
        <time>2017-05-05T13:16:46Z</time>
      </trkpt>
      <trkpt lat="49.173563998192549" lon="8.832504982128739">
        <ele>280.80000000000001</ele>
        <time>2017-05-05T13:16:48Z</time>
      </trkpt>
      <trkpt lat="49.173768013715744" lon="8.832348994910717">
        <ele>280.80000000000001</ele>
        <time>2017-05-05T13:16:52Z</time>
      </trkpt>
      <trkpt lat="49.174021985381842" lon="8.832128969952464">
        <ele>279.39999999999998</ele>
        <time>2017-05-05T13:16:56Z</time>
      </trkpt>
      <trkpt lat="49.174091974273324" lon="8.832063004374504">
        <ele>278.80000000000001</ele>
        <time>2017-05-05T13:16:57Z</time>
      </trkpt>
      <trkpt lat="49.174160035327077" lon="8.831993015483022">
        <ele>277.80000000000001</ele>
        <time>2017-05-05T13:16:58Z</time>
      </trkpt>
      <trkpt lat="49.174289032816887" lon="8.831859994679689">
        <ele>276.39999999999998</ele>
        <time>2017-05-05T13:17:00Z</time>
      </trkpt>
      <trkpt lat="49.174399003386497" lon="8.83173200301826">
        <ele>275.80000000000001</ele>
        <time>2017-05-05T13:17:02Z</time>
      </trkpt>
      <trkpt lat="49.174442002549767" lon="8.8316660374403">
        <ele>275.39999999999998</ele>
        <time>2017-05-05T13:17:03Z</time>
      </trkpt>
      <trkpt lat="49.174496987834573" lon="8.831533016636968">
        <ele>274.80000000000001</ele>
        <time>2017-05-05T13:17:05Z</time>
      </trkpt>
      <trkpt lat="49.174517020583153" lon="8.831473002210259">
        <ele>274.39999999999998</ele>
        <time>2017-05-05T13:17:06Z</time>
      </trkpt>
      <trkpt lat="49.17453202418983" lon="8.831418016925454">
        <ele>274.39999999999998</ele>
        <time>2017-05-05T13:17:07Z</time>
      </trkpt>
      <trkpt lat="49.17455499060452" lon="8.831329001113772">
        <ele>274</ele>
        <time>2017-05-05T13:17:09Z</time>
      </trkpt>
      <trkpt lat="49.174563959240913" lon="8.831294970586896">
        <ele>274</ele>
        <time>2017-05-05T13:17:10Z</time>
      </trkpt>
      <trkpt lat="49.174581980332732" lon="8.831249037757516">
        <ele>274</ele>
        <time>2017-05-05T13:17:13Z</time>
      </trkpt>
      <trkpt lat="49.174582986161113" lon="8.831249037757516">
        <ele>274</ele>
        <time>2017-05-05T13:17:14Z</time>
      </trkpt>
      <trkpt lat="49.174558008089662" lon="8.831230010837317">
        <ele>274.80000000000001</ele>
        <time>2017-05-05T13:20:43Z</time>
      </trkpt>
      <trkpt lat="49.174550967290998" lon="8.831226993352175">
        <ele>274.80000000000001</ele>
        <time>2017-05-05T13:20:44Z</time>
      </trkpt>
      <trkpt lat="49.174525989219546" lon="8.831220036372542">
        <ele>275</ele>
        <time>2017-05-05T13:20:48Z</time>
      </trkpt>
      <trkpt lat="49.174548033624887" lon="8.831211989745498">
        <ele>275.80000000000001</ele>
        <time>2017-05-05T13:39:31Z</time>
      </trkpt>
      <trkpt lat="49.17455499060452" lon="8.831203021109104">
        <ele>275.80000000000001</ele>
        <time>2017-05-05T13:39:32Z</time>
      </trkpt>
      <trkpt lat="49.174562031403184" lon="8.83119497448206">
        <ele>275.80000000000001</ele>
        <time>2017-05-05T13:39:33Z</time>
      </trkpt>
      <trkpt lat="49.174580974504352" lon="8.831161027774215">
        <ele>275.80000000000001</ele>
        <time>2017-05-05T13:39:35Z</time>
      </trkpt>
      <trkpt lat="49.17459899559617" lon="8.831101013347507">
        <ele>275.80000000000001</ele>
        <time>2017-05-05T13:39:37Z</time>
      </trkpt>
      <trkpt lat="49.174627996981144" lon="8.830997999757528">
        <ele>275.80000000000001</ele>
        <time>2017-05-05T13:39:40Z</time>
      </trkpt>
      <trkpt lat="49.174669990316033" lon="8.830847041681409">
        <ele>275.80000000000001</ele>
        <time>2017-05-05T13:39:44Z</time>
      </trkpt>
      <trkpt lat="49.174706032499671" lon="8.830701028928161">
        <ele>276</ele>
        <time>2017-05-05T13:39:47Z</time>
      </trkpt>
      <trkpt lat="49.174746014177799" lon="8.830541018396616">
        <ele>276.60000000000002</ele>
        <time>2017-05-05T13:39:50Z</time>
      </trkpt>
      <trkpt lat="49.174761017784476" lon="8.83048796094954">
        <ele>276.80000000000001</ele>
        <time>2017-05-05T13:39:51Z</time>
      </trkpt>
      <trkpt lat="49.174775015562773" lon="8.830434987321496">
        <ele>277</ele>
        <time>2017-05-05T13:39:52Z</time>
      </trkpt>
      <trkpt lat="49.17481399141252" lon="8.830276988446713">
        <ele>277.39999999999998</ele>
        <time>2017-05-05T13:39:55Z</time>
      </trkpt>
      <trkpt lat="49.174860008060932" lon="8.830115972086787">
        <ele>277.80000000000001</ele>
        <time>2017-05-05T13:39:58Z</time>
      </trkpt>
      <trkpt lat="49.174924967810512" lon="8.829844985157251">
        <ele>278.19999999999999</ele>
        <time>2017-05-05T13:40:03Z</time>
      </trkpt>
      <trkpt lat="49.174986993893981" lon="8.829567963257432">
        <ele>278.39999999999998</ele>
        <time>2017-05-05T13:40:08Z</time>
      </trkpt>
      <trkpt lat="49.175019012764096" lon="8.82945598103106">
        <ele>278.39999999999998</ele>
        <time>2017-05-05T13:40:10Z</time>
      </trkpt>
      <trkpt lat="49.175068968906999" lon="8.829317009076476">
        <ele>278.19999999999999</ele>
        <time>2017-05-05T13:40:13Z</time>
      </trkpt>
      <trkpt lat="49.17517801746726" lon="8.829355984926224">
        <ele>278.19999999999999</ele>
        <time>2017-05-05T13:40:16Z</time>
      </trkpt>
      <trkpt lat="49.175280025228858" lon="8.829427985474467">
        <ele>278</ele>
        <time>2017-05-05T13:40:18Z</time>
      </trkpt>
      <trkpt lat="49.175391001626849" lon="8.829528987407684">
        <ele>277.19999999999999</ele>
        <time>2017-05-05T13:40:20Z</time>
      </trkpt>
      <trkpt lat="49.175455961376429" lon="8.82971397601068">
        <ele>277.19999999999999</ele>
        <time>2017-05-05T13:40:23Z</time>
      </trkpt>
      <trkpt lat="49.175450010225177" lon="8.829843979328871">
        <ele>277.39999999999998</ele>
        <time>2017-05-05T13:40:25Z</time>
      </trkpt>
      <trkpt lat="49.175418997183442" lon="8.830058975145221">
        <ele>276.80000000000001</ele>
        <time>2017-05-05T13:40:28Z</time>
      </trkpt>
      <trkpt lat="49.175387984141707" lon="8.830286040902138">
        <ele>276</ele>
        <time>2017-05-05T13:40:31Z</time>
      </trkpt>
      <trkpt lat="49.175355965271592" lon="8.830516040325165">
        <ele>275.80000000000001</ele>
        <time>2017-05-05T13:40:34Z</time>
      </trkpt>
      <trkpt lat="49.175345990806818" lon="8.830589968711138">
        <ele>276</ele>
        <time>2017-05-05T13:40:35Z</time>
      </trkpt>
      <trkpt lat="49.175262004137039" lon="8.831317014992237">
        <ele>275.39999999999998</ele>
        <time>2017-05-05T13:40:45Z</time>
      </trkpt>
      <trkpt lat="49.175224034115672" lon="8.831618009135127">
        <ele>275.19999999999999</ele>
        <time>2017-05-05T13:40:50Z</time>
      </trkpt>
      <trkpt lat="49.175188997760415" lon="8.831718005239964">
        <ele>275.19999999999999</ele>
        <time>2017-05-05T13:40:52Z</time>
      </trkpt>
      <trkpt lat="49.175162008032203" lon="8.831758992746472">
        <ele>275.19999999999999</ele>
        <time>2017-05-05T13:40:53Z</time>
      </trkpt>
      <trkpt lat="49.175081038847566" lon="8.831798974424601">
        <ele>275.39999999999998</ele>
        <time>2017-05-05T13:40:55Z</time>
      </trkpt>
      <trkpt lat="49.174943994730711" lon="8.831788999959827">
        <ele>275.39999999999998</ele>
        <time>2017-05-05T13:40:58Z</time>
      </trkpt>
      <trkpt lat="49.174765041097999" lon="8.83175496943295">
        <ele>276</ele>
        <time>2017-05-05T13:41:02Z</time>
      </trkpt>
      <trkpt lat="49.174721958115697" lon="8.831739965826273">
        <ele>275.80000000000001</ele>
        <time>2017-05-05T13:41:03Z</time>
      </trkpt>
      <trkpt lat="49.174568988382816" lon="8.831656984984875">
        <ele>275.80000000000001</ele>
        <time>2017-05-05T13:41:07Z</time>
      </trkpt>
      <trkpt lat="49.174545016139746" lon="8.831628989428282">
        <ele>276</ele>
        <time>2017-05-05T13:41:08Z</time>
      </trkpt>
      <trkpt lat="49.174443008378148" lon="8.831442994996905">
        <ele>275.80000000000001</ele>
        <time>2017-05-05T13:41:14Z</time>
      </trkpt>
      <trkpt lat="49.174400009214878" lon="8.831365965306759">
        <ele>275.80000000000001</ele>
        <time>2017-05-05T13:41:19Z</time>
      </trkpt>
      <trkpt lat="49.174400009214878" lon="8.831365965306759">
        <ele>276</ele>
        <time>2017-05-05T13:41:20Z</time>
      </trkpt>
      <trkpt lat="49.174421969801188" lon="8.831394966691732">
        <ele>276</ele>
        <time>2017-05-05T13:41:59Z</time>
      </trkpt>
      <trkpt lat="49.174433033913374" lon="8.831411981955171">
        <ele>276</ele>
        <time>2017-05-05T13:42:00Z</time>
      </trkpt>
      <trkpt lat="49.174444014206529" lon="8.831434026360512">
        <ele>276</ele>
        <time>2017-05-05T13:42:01Z</time>
      </trkpt>
      <trkpt lat="49.174501011148095" lon="8.831585990265012">
        <ele>276</ele>
        <time>2017-05-05T13:42:06Z</time>
      </trkpt>
      <trkpt lat="49.174519032239914" lon="8.831596970558167">
        <ele>276</ele>
        <time>2017-05-05T13:42:07Z</time>
      </trkpt>
      <trkpt lat="49.174603018909693" lon="8.831618009135127">
        <ele>275.80000000000001</ele>
        <time>2017-05-05T13:42:11Z</time>
      </trkpt>
      <trkpt lat="49.174644006416202" lon="8.831613985821605">
        <ele>275.60000000000002</ele>
        <time>2017-05-05T13:42:15Z</time>
      </trkpt>
      <trkpt lat="49.174667978659272" lon="8.831632006913424">
        <ele>275.39999999999998</ele>
        <time>2017-05-05T13:42:35Z</time>
      </trkpt>
      <trkpt lat="49.174678958952427" lon="8.831644998863339">
        <ele>275.39999999999998</ele>
        <time>2017-05-05T13:42:36Z</time>
      </trkpt>
      <trkpt lat="49.174701003357768" lon="8.831667965278029">
        <ele>275.39999999999998</ele>
        <time>2017-05-05T13:42:38Z</time>
      </trkpt>
      <trkpt lat="49.174725981429219" lon="8.831696966663003">
        <ele>275.39999999999998</ele>
        <time>2017-05-05T13:42:40Z</time>
      </trkpt>
      <trkpt lat="49.17479395866394" lon="8.831737032160163">
        <ele>275.19999999999999</ele>
        <time>2017-05-05T13:42:44Z</time>
      </trkpt>
      <trkpt lat="49.174845004454255" lon="8.831736026331782">
        <ele>275</ele>
        <time>2017-05-05T13:42:50Z</time>
      </trkpt>
      <trkpt lat="49.174882974475622" lon="8.831746000796557">
        <ele>275.19999999999999</ele>
        <time>2017-05-05T13:42:54Z</time>
      </trkpt>
      <trkpt lat="49.174882974475622" lon="8.831747006624937">
        <ele>275.19999999999999</ele>
        <time>2017-05-05T13:42:55Z</time>
      </trkpt>
      <trkpt lat="49.174913987517357" lon="8.831756981089711">
        <ele>275</ele>
        <time>2017-05-05T13:43:16Z</time>
      </trkpt>
      <trkpt lat="49.174946006387472" lon="8.831765027716756">
        <ele>274.80000000000001</ele>
        <time>2017-05-05T13:43:19Z</time>
      </trkpt>
      <trkpt lat="49.174949023872614" lon="8.831762010231614">
        <ele>274.80000000000001</ele>
        <time>2017-05-05T13:43:20Z</time>
      </trkpt>
      <trkpt lat="49.174909964203835" lon="8.831759998574853">
        <ele>275.19999999999999</ele>
        <time>2017-05-05T13:45:25Z</time>
      </trkpt>
      <trkpt lat="49.174895966425538" lon="8.831758992746472">
        <ele>275.19999999999999</ele>
        <time>2017-05-05T13:45:26Z</time>
      </trkpt>
      <trkpt lat="49.174859002232552" lon="8.831753963604569">
        <ele>275.19999999999999</ele>
        <time>2017-05-05T13:45:28Z</time>
      </trkpt>
      <trkpt lat="49.174817008897662" lon="8.831741977483034">
        <ele>275.19999999999999</ele>
        <time>2017-05-05T13:45:30Z</time>
      </trkpt>
      <trkpt lat="49.174796976149082" lon="8.831737032160163">
        <ele>275.19999999999999</ele>
        <time>2017-05-05T13:45:31Z</time>
      </trkpt>
      <trkpt lat="49.174755988642573" lon="8.831723034381867">
        <ele>275.19999999999999</ele>
        <time>2017-05-05T13:45:33Z</time>
      </trkpt>
      <trkpt lat="49.174648029729724" lon="8.831666959449649">
        <ele>275.80000000000001</ele>
        <time>2017-05-05T13:45:38Z</time>
      </trkpt>
      <trkpt lat="49.174525989219546" lon="8.831662014126778">
        <ele>276</ele>
        <time>2017-05-05T13:45:42Z</time>
      </trkpt>
      <trkpt lat="49.174497993662953" lon="8.831676011905074">
        <ele>276</ele>
        <time>2017-05-05T13:45:43Z</time>
      </trkpt>
      <trkpt lat="49.174437979236245" lon="8.831728985533118">
        <ele>276.19999999999999</ele>
        <time>2017-05-05T13:45:45Z</time>
      </trkpt>
      <trkpt lat="49.174376958981156" lon="8.831790005788207">
        <ele>276.19999999999999</ele>
        <time>2017-05-05T13:45:47Z</time>
      </trkpt>
      <trkpt lat="49.174343012273312" lon="8.831823030486703">
        <ele>276.39999999999998</ele>
        <time>2017-05-05T13:45:48Z</time>
      </trkpt>
      <trkpt lat="49.174267994239926" lon="8.831896958872676">
        <ele>276.80000000000001</ele>
        <time>2017-05-05T13:45:50Z</time>
      </trkpt>
      <trkpt lat="49.17419197037816" lon="8.831970971077681">
        <ele>277.19999999999999</ele>
        <time>2017-05-05T13:45:52Z</time>
      </trkpt>
      <trkpt lat="49.174154000356793" lon="8.832007013261318">
        <ele>277.39999999999998</ele>
        <time>2017-05-05T13:45:53Z</time>
      </trkpt>
      <trkpt lat="49.174076970666647" lon="8.832082031294704">
        <ele>278</ele>
        <time>2017-05-05T13:45:55Z</time>
      </trkpt>
      <trkpt lat="49.174000024795532" lon="8.832153026014566">
        <ele>278.60000000000002</ele>
        <time>2017-05-05T13:45:57Z</time>
      </trkpt>
      <trkpt lat="49.173917965963483" lon="8.832214968279004">
        <ele>279.19999999999999</ele>
        <time>2017-05-05T13:45:59Z</time>
      </trkpt>
      <trkpt lat="49.173838002607226" lon="8.832280011847615">
        <ele>279.60000000000002</ele>
        <time>2017-05-05T13:46:01Z</time>
      </trkpt>
      <trkpt lat="49.173763990402222" lon="8.832331979647279">
        <ele>280.39999999999998</ele>
        <time>2017-05-05T13:46:03Z</time>
      </trkpt>
      <trkpt lat="49.173727026209235" lon="8.832357041537762">
        <ele>280.80000000000001</ele>
        <time>2017-05-05T13:46:04Z</time>
      </trkpt>
      <trkpt lat="49.173617977648973" lon="8.832432981580496">
        <ele>281.60000000000002</ele>
        <time>2017-05-05T13:46:07Z</time>
      </trkpt>
      <trkpt lat="49.173585036769509" lon="8.832461982965469">
        <ele>282</ele>
        <time>2017-05-05T13:46:08Z</time>
      </trkpt>
      <trkpt lat="49.173556035384536" lon="8.832497019320726">
        <ele>282.39999999999998</ele>
        <time>2017-05-05T13:46:09Z</time>
      </trkpt>
      <trkpt lat="49.173423014581203" lon="8.832673961296678">
        <ele>283</ele>
        <time>2017-05-05T13:46:13Z</time>
      </trkpt>
      <trkpt lat="49.173384960740805" lon="8.832725007086992">
        <ele>283</ele>
        <time>2017-05-05T13:46:14Z</time>
      </trkpt>
      <trkpt lat="49.173223022371531" lon="8.832966992631555">
        <ele>282</ele>
        <time>2017-05-05T13:46:19Z</time>
      </trkpt>
      <trkpt lat="49.173200977966189" lon="8.833004962652922">
        <ele>281.80000000000001</ele>
        <time>2017-05-05T13:46:20Z</time>
      </trkpt>
      <trkpt lat="49.173169964924455" lon="8.833053996786475">
        <ele>281.19999999999999</ele>
        <time>2017-05-05T13:46:23Z</time>
      </trkpt>
      <trkpt lat="49.1731589846313" lon="8.833075035363436">
        <ele>281.19999999999999</ele>
        <time>2017-05-05T13:46:24Z</time>
      </trkpt>
      <trkpt lat="49.173151021823287" lon="8.833154998719692">
        <ele>281</ele>
        <time>2017-05-05T13:46:26Z</time>
      </trkpt>
      <trkpt lat="49.173159990459681" lon="8.833213001489639">
        <ele>280.80000000000001</ele>
        <time>2017-05-05T13:46:27Z</time>
      </trkpt>
      <trkpt lat="49.173197960481048" lon="8.83334300480783">
        <ele>280.39999999999998</ele>
        <time>2017-05-05T13:46:29Z</time>
      </trkpt>
      <trkpt lat="49.173217993229628" lon="8.833419028669596">
        <ele>280.19999999999999</ele>
        <time>2017-05-05T13:46:30Z</time>
      </trkpt>
      <trkpt lat="49.173263004049659" lon="8.833573004230857">
        <ele>279.60000000000002</ele>
        <time>2017-05-05T13:46:32Z</time>
      </trkpt>
      <trkpt lat="49.173337016254663" lon="8.833827981725335">
        <ele>278.60000000000002</ele>
        <time>2017-05-05T13:46:35Z</time>
      </trkpt>
      <trkpt lat="49.173370962962508" lon="8.833912974223495">
        <ele>278</ele>
        <time>2017-05-05T13:46:36Z</time>
      </trkpt>
      <trkpt lat="49.173442041501403" lon="8.834093017503619">
        <ele>277</ele>
        <time>2017-05-05T13:46:38Z</time>
      </trkpt>
      <trkpt lat="49.173471964895725" lon="8.834197036921978">
        <ele>276.39999999999998</ele>
        <time>2017-05-05T13:46:39Z</time>
      </trkpt>
      <trkpt lat="49.173537008464336" lon="8.834404991939664">
        <ele>275.80000000000001</ele>
        <time>2017-05-05T13:46:41Z</time>
      </trkpt>
      <trkpt lat="49.173602974042296" lon="8.834584029391408">
        <ele>274.80000000000001</ele>
        <time>2017-05-05T13:46:43Z</time>
      </trkpt>
      <trkpt lat="49.173635998740792" lon="8.83465301245451">
        <ele>274.39999999999998</ele>
        <time>2017-05-05T13:46:44Z</time>
      </trkpt>
      <trkpt lat="49.173690984025598" lon="8.834754014387727">
        <ele>273.80000000000001</ele>
        <time>2017-05-05T13:46:46Z</time>
      </trkpt>
      <trkpt lat="49.17371797375381" lon="8.83480497635901">
        <ele>273.60000000000002</ele>
        <time>2017-05-05T13:46:47Z</time>
      </trkpt>
      <trkpt lat="49.173737000674009" lon="8.834860967472196">
        <ele>273.39999999999998</ele>
        <time>2017-05-05T13:46:48Z</time>
      </trkpt>
      <trkpt lat="49.173750998452306" lon="8.834921987727284">
        <ele>273.39999999999998</ele>
        <time>2017-05-05T13:46:49Z</time>
      </trkpt>
      <trkpt lat="49.173746975138783" lon="8.835101025179029">
        <ele>273.39999999999998</ele>
        <time>2017-05-05T13:46:52Z</time>
      </trkpt>
      <trkpt lat="49.173684027045965" lon="8.835203032940626">
        <ele>273</ele>
        <time>2017-05-05T13:46:54Z</time>
      </trkpt>
      <trkpt lat="49.173630969598889" lon="8.835243014618754">
        <ele>273</ele>
        <time>2017-05-05T13:46:55Z</time>
      </trkpt>
      <trkpt lat="49.173568021506071" lon="8.835285007953644">
        <ele>273</ele>
        <time>2017-05-05T13:46:56Z</time>
      </trkpt>
      <trkpt lat="49.173389989882708" lon="8.835412999615073">
        <ele>273.39999999999998</ele>
        <time>2017-05-05T13:46:59Z</time>
      </trkpt>
      <trkpt lat="49.173332992941141" lon="8.835455998778343">
        <ele>273.39999999999998</ele>
        <time>2017-05-05T13:47:00Z</time>
      </trkpt>
      <trkpt lat="49.173255963250995" lon="8.835489023476839">
        <ele>273.60000000000002</ele>
        <time>2017-05-05T13:47:01Z</time>
      </trkpt>
      <trkpt lat="49.173096958547831" lon="8.835616009309888">
        <ele>273.60000000000002</ele>
        <time>2017-05-05T13:47:04Z</time>
      </trkpt>
      <trkpt lat="49.172824965789914" lon="8.835799992084503">
        <ele>274.19999999999999</ele>
        <time>2017-05-05T13:47:09Z</time>
      </trkpt>
      <trkpt lat="49.17270896025002" lon="8.835845002904534">
        <ele>274.39999999999998</ele>
        <time>2017-05-05T13:47:11Z</time>
      </trkpt>
      <trkpt lat="49.172544004395604" lon="8.835783982649446">
        <ele>274.60000000000002</ele>
        <time>2017-05-05T13:47:14Z</time>
      </trkpt>
      <trkpt lat="49.172430010512471" lon="8.835601005703211">
        <ele>274.60000000000002</ele>
        <time>2017-05-05T13:47:17Z</time>
      </trkpt>
      <trkpt lat="49.172301013022661" lon="8.835343010723591">
        <ele>274.80000000000001</ele>
        <time>2017-05-05T13:47:21Z</time>
      </trkpt>
      <trkpt lat="49.172237981110811" lon="8.835227005183697">
        <ele>275</ele>
        <time>2017-05-05T13:47:23Z</time>
      </trkpt>
      <trkpt lat="49.172177966684103" lon="8.835152992978692">
        <ele>275.60000000000002</ele>
        <time>2017-05-05T13:47:25Z</time>
      </trkpt>
      <trkpt lat="49.172134967520833" lon="8.835156010463834">
        <ele>275.80000000000001</ele>
        <time>2017-05-05T13:47:26Z</time>
      </trkpt>
      <trkpt lat="49.171930029988289" lon="8.835304034873843">
        <ele>276.80000000000001</ele>
        <time>2017-05-05T13:47:31Z</time>
      </trkpt>
      <trkpt lat="49.171806983649731" lon="8.835365977138281">
        <ele>277.60000000000002</ele>
        <time>2017-05-05T13:47:34Z</time>
      </trkpt>
      <trkpt lat="49.171768007799983" lon="8.8353839982301">
        <ele>278</ele>
        <time>2017-05-05T13:47:35Z</time>
      </trkpt>
      <trkpt lat="49.171691983938217" lon="8.835425991564989">
        <ele>279</ele>
        <time>2017-05-05T13:47:37Z</time>
      </trkpt>
      <trkpt lat="49.171655019745231" lon="8.835452981293201">
        <ele>279.19999999999999</ele>
        <time>2017-05-05T13:47:38Z</time>
      </trkpt>
      <trkpt lat="49.171582013368607" lon="8.835519030690193">
        <ele>279.60000000000002</ele>
        <time>2017-05-05T13:47:40Z</time>
      </trkpt>
      <trkpt lat="49.171485034748912" lon="8.835673006251454">
        <ele>279.80000000000001</ele>
        <time>2017-05-05T13:47:43Z</time>
      </trkpt>
      <trkpt lat="49.171449998393655" lon="8.835738971829414">
        <ele>279.80000000000001</ele>
        <time>2017-05-05T13:47:44Z</time>
      </trkpt>
      <trkpt lat="49.171302979812026" lon="8.836037032306194">
        <ele>279.60000000000002</ele>
        <time>2017-05-05T13:47:48Z</time>
      </trkpt>
      <trkpt lat="49.171088989824057" lon="8.836470963433385">
        <ele>279.19999999999999</ele>
        <time>2017-05-05T13:47:55Z</time>
      </trkpt>
      <trkpt lat="49.171044984832406" lon="8.836562996730208">
        <ele>279</ele>
        <time>2017-05-05T13:47:58Z</time>
      </trkpt>
      <trkpt lat="49.171023024246097" lon="8.83660800755024">
        <ele>278.80000000000001</ele>
        <time>2017-05-05T13:48:00Z</time>
      </trkpt>
      <trkpt lat="49.170999974012375" lon="8.836654024198651">
        <ele>278.80000000000001</ele>
        <time>2017-05-05T13:48:02Z</time>
      </trkpt>
      <trkpt lat="49.170973990112543" lon="8.836701968684793">
        <ele>278.80000000000001</ele>
        <time>2017-05-05T13:48:04Z</time>
      </trkpt>
      <trkpt lat="49.170924033969641" lon="8.836786039173603">
        <ele>278.80000000000001</ele>
        <time>2017-05-05T13:48:07Z</time>
      </trkpt>
      <trkpt lat="49.17090299539268" lon="8.836820991709828">
        <ele>278.80000000000001</ele>
        <time>2017-05-05T13:48:08Z</time>
      </trkpt>
      <trkpt lat="49.170854967087507" lon="8.836898021399975">
        <ele>278.60000000000002</ele>
        <time>2017-05-05T13:48:10Z</time>
      </trkpt>
      <trkpt lat="49.170800987631083" lon="8.836987959221005">
        <ele>278.39999999999998</ele>
        <time>2017-05-05T13:48:12Z</time>
      </trkpt>
      <trkpt lat="49.170738039538264" lon="8.837088039144874">
        <ele>278</ele>
        <time>2017-05-05T13:48:14Z</time>
      </trkpt>
      <trkpt lat="49.170703003183007" lon="8.83714503608644">
        <ele>278</ele>
        <time>2017-05-05T13:48:15Z</time>
      </trkpt>
      <trkpt lat="49.170569982379675" lon="8.837365983054042">
        <ele>277.19999999999999</ele>
        <time>2017-05-05T13:48:18Z</time>
      </trkpt>
      <trkpt lat="49.170520026236773" lon="8.837447036057711">
        <ele>277</ele>
        <time>2017-05-05T13:48:19Z</time>
      </trkpt>
      <trkpt lat="49.170330008491874" lon="8.837763033807278">
        <ele>276</ele>
        <time>2017-05-05T13:48:23Z</time>
      </trkpt>
      <trkpt lat="49.170292960479856" lon="8.837936036288738">
        <ele>275.60000000000002</ele>
        <time>2017-05-05T13:48:25Z</time>
      </trkpt>
      <trkpt lat="49.170374013483524" lon="8.838215991854668">
        <ele>274.80000000000001</ele>
        <time>2017-05-05T13:48:28Z</time>
      </trkpt>
      <trkpt lat="49.170412989333272" lon="8.838311964645982">
        <ele>274.60000000000002</ele>
        <time>2017-05-05T13:48:29Z</time>
      </trkpt>
      <trkpt lat="49.170489013195038" lon="8.838512962684035">
        <ele>274.39999999999998</ele>
        <time>2017-05-05T13:48:31Z</time>
      </trkpt>
      <trkpt lat="49.170567970722914" lon="8.838716978207231">
        <ele>273.80000000000001</ele>
        <time>2017-05-05T13:48:33Z</time>
      </trkpt>
      <trkpt lat="49.170684982091188" lon="8.839018978178501">
        <ele>273.39999999999998</ele>
        <time>2017-05-05T13:48:36Z</time>
      </trkpt>
      <trkpt lat="49.17079696431756" lon="8.839316032826901">
        <ele>272.80000000000001</ele>
        <time>2017-05-05T13:48:39Z</time>
      </trkpt>
      <trkpt lat="49.170985976234078" lon="8.839807966724038">
        <ele>271.80000000000001</ele>
        <time>2017-05-05T13:48:44Z</time>
      </trkpt>
      <trkpt lat="49.171218993142247" lon="8.840409033000469">
        <ele>270.80000000000001</ele>
        <time>2017-05-05T13:48:50Z</time>
      </trkpt>
      <trkpt lat="49.171317983418703" lon="8.840712960809469">
        <ele>269.60000000000002</ele>
        <time>2017-05-05T13:48:53Z</time>
      </trkpt>
      <trkpt lat="49.171284036710858" lon="8.841029964387417">
        <ele>268.80000000000001</ele>
        <time>2017-05-05T13:48:56Z</time>
      </trkpt>
      <trkpt lat="49.171250006183982" lon="8.841143036261201">
        <ele>268.60000000000002</ele>
        <time>2017-05-05T13:48:57Z</time>
      </trkpt>
      <trkpt lat="49.171215975657105" lon="8.841257030144334">
        <ele>268.60000000000002</ele>
        <time>2017-05-05T13:48:58Z</time>
      </trkpt>
      <trkpt lat="49.171184962615371" lon="8.841369012370706">
        <ele>268.60000000000002</ele>
        <time>2017-05-05T13:48:59Z</time>
      </trkpt>
      <trkpt lat="49.171084966510534" lon="8.84170101955533">
        <ele>268</ele>
        <time>2017-05-05T13:49:02Z</time>
      </trkpt>
      <trkpt lat="49.171050013974309" lon="8.84180897846818">
        <ele>268</ele>
        <time>2017-05-05T13:49:03Z</time>
      </trkpt>
      <trkpt lat="49.17092596180737" lon="8.842107960954309">
        <ele>267.80000000000001</ele>
        <time>2017-05-05T13:49:06Z</time>
      </trkpt>
      <trkpt lat="49.170802999287844" lon="8.842394035309553">
        <ele>268.19999999999999</ele>
        <time>2017-05-05T13:49:09Z</time>
      </trkpt>
      <trkpt lat="49.170758994296193" lon="8.842486990615726">
        <ele>268.39999999999998</ele>
        <time>2017-05-05T13:49:10Z</time>
      </trkpt>
      <trkpt lat="49.170617004856467" lon="8.842742973938584">
        <ele>268.60000000000002</ele>
        <time>2017-05-05T13:49:13Z</time>
      </trkpt>
      <trkpt lat="49.170465040951967" lon="8.842985965311527">
        <ele>268.60000000000002</ele>
        <time>2017-05-05T13:49:16Z</time>
      </trkpt>
      <trkpt lat="49.170156000182033" lon="8.843431966379285">
        <ele>268.80000000000001</ele>
        <time>2017-05-05T13:49:22Z</time>
      </trkpt>
      <trkpt lat="49.170103026553988" lon="8.843502039089799">
        <ele>268.80000000000001</ele>
        <time>2017-05-05T13:49:23Z</time>
      </trkpt>
      <trkpt lat="49.169744029641151" lon="8.844011994078755">
        <ele>268.19999999999999</ele>
        <time>2017-05-05T13:49:30Z</time>
      </trkpt>
      <trkpt lat="49.169701030477881" lon="8.844096986576915">
        <ele>268</ele>
        <time>2017-05-05T13:49:31Z</time>
      </trkpt>
      <trkpt lat="49.16956901550293" lon="8.844352969899774">
        <ele>267.60000000000002</ele>
        <time>2017-05-05T13:49:34Z</time>
      </trkpt>
      <trkpt lat="49.16946298442781" lon="8.844529995694757">
        <ele>267.39999999999998</ele>
        <time>2017-05-05T13:49:36Z</time>
      </trkpt>
      <trkpt lat="49.169386960566044" lon="8.844745997339487">
        <ele>266.80000000000001</ele>
        <time>2017-05-05T13:49:38Z</time>
      </trkpt>
      <trkpt lat="49.169358965009451" lon="8.844860997051001">
        <ele>266.60000000000002</ele>
        <time>2017-05-05T13:49:39Z</time>
      </trkpt>
      <trkpt lat="49.169333986938" lon="8.844975996762514">
        <ele>266.39999999999998</ele>
        <time>2017-05-05T13:49:40Z</time>
      </trkpt>
      <trkpt lat="49.169250000268221" lon="8.845426021143794">
        <ele>266</ele>
        <time>2017-05-05T13:49:44Z</time>
      </trkpt>
      <trkpt lat="49.169246982783079" lon="8.845658032223582">
        <ele>265.60000000000002</ele>
        <time>2017-05-05T13:49:46Z</time>
      </trkpt>
      <trkpt lat="49.169265003874898" lon="8.846151977777481">
        <ele>264.80000000000001</ele>
        <time>2017-05-05T13:49:50Z</time>
      </trkpt>
      <trkpt lat="49.169254023581743" lon="8.846278041601181">
        <ele>264.60000000000002</ele>
        <time>2017-05-05T13:49:51Z</time>
      </trkpt>
      <trkpt lat="49.16914002969861" lon="8.846617005765438">
        <ele>263.80000000000001</ele>
        <time>2017-05-05T13:49:54Z</time>
      </trkpt>
      <trkpt lat="49.169094013050199" lon="8.846723036840558">
        <ele>263.60000000000002</ele>
        <time>2017-05-05T13:49:55Z</time>
      </trkpt>
      <trkpt lat="49.168782960623503" lon="8.847448993474245">
        <ele>262.80000000000001</ele>
        <time>2017-05-05T13:50:02Z</time>
      </trkpt>
      <trkpt lat="49.168485989794135" lon="8.848157012835145">
        <ele>262.60000000000002</ele>
        <time>2017-05-05T13:50:09Z</time>
      </trkpt>
      <trkpt lat="49.168446008116007" lon="8.848256003111601">
        <ele>262.60000000000002</ele>
        <time>2017-05-05T13:50:10Z</time>
      </trkpt>
      <trkpt lat="49.168206034228206" lon="8.848837958648801">
        <ele>262.60000000000002</ele>
        <time>2017-05-05T13:50:16Z</time>
      </trkpt>
      <trkpt lat="49.168129004538059" lon="8.849044991657138">
        <ele>262.39999999999998</ele>
        <time>2017-05-05T13:50:18Z</time>
      </trkpt>
      <trkpt lat="49.167948961257935" lon="8.849573973566294">
        <ele>261.60000000000002</ele>
        <time>2017-05-05T13:50:23Z</time>
      </trkpt>
      <trkpt lat="49.167807977646589" lon="8.8499949965626">
        <ele>261</ele>
        <time>2017-05-05T13:50:27Z</time>
      </trkpt>
      <trkpt lat="49.167632963508368" lon="8.850528001785278">
        <ele>260.80000000000001</ele>
        <time>2017-05-05T13:50:32Z</time>
      </trkpt>
      <trkpt lat="49.167388966307044" lon="8.851268962025642">
        <ele>260.80000000000001</ele>
        <time>2017-05-05T13:50:39Z</time>
      </trkpt>
      <trkpt lat="49.167285030707717" lon="8.851579008623958">
        <ele>261</ele>
        <time>2017-05-05T13:50:42Z</time>
      </trkpt>
      <trkpt lat="49.167042961344123" lon="8.852318041026592">
        <ele>260.60000000000002</ele>
        <time>2017-05-05T13:50:49Z</time>
      </trkpt>
      <trkpt lat="49.167008008807898" lon="8.852424994111061">
        <ele>260.39999999999998</ele>
        <time>2017-05-05T13:50:50Z</time>
      </trkpt>
      <trkpt lat="49.166769040748477" lon="8.853157991543412">
        <ele>260</ele>
        <time>2017-05-05T13:50:57Z</time>
      </trkpt>
      <trkpt lat="49.166698968037963" lon="8.85336996987462">
        <ele>259.80000000000001</ele>
        <time>2017-05-05T13:50:59Z</time>
      </trkpt>
      <trkpt lat="49.166508028283715" lon="8.853756040334702">
        <ele>259.39999999999998</ele>
        <time>2017-05-05T13:51:03Z</time>
      </trkpt>
      <trkpt lat="49.166444996371865" lon="8.8538390211761">
        <ele>259.39999999999998</ele>
        <time>2017-05-05T13:51:04Z</time>
      </trkpt>
      <trkpt lat="49.166239975020289" lon="8.85405401699245">
        <ele>259</ele>
        <time>2017-05-05T13:51:07Z</time>
      </trkpt>
      <trkpt lat="49.166022967547178" lon="8.854256020858884">
        <ele>258.39999999999998</ele>
        <time>2017-05-05T13:51:10Z</time>
      </trkpt>
      <trkpt lat="49.165811995044351" lon="8.854460958391428">
        <ele>258.19999999999999</ele>
        <time>2017-05-05T13:51:13Z</time>
      </trkpt>
      <trkpt lat="49.165411004796624" lon="8.854862032458186">
        <ele>257.60000000000002</ele>
        <time>2017-05-05T13:51:19Z</time>
      </trkpt>
      <trkpt lat="49.165011020377278" lon="8.855253970250487">
        <ele>258.39999999999998</ele>
        <time>2017-05-05T13:51:25Z</time>
      </trkpt>
      <trkpt lat="49.16454004123807" lon="8.85570801794529">
        <ele>257.80000000000001</ele>
        <time>2017-05-05T13:51:32Z</time>
      </trkpt>
      <trkpt lat="49.16407098993659" lon="8.856170028448105">
        <ele>257.60000000000002</ele>
        <time>2017-05-05T13:51:39Z</time>
      </trkpt>
      <trkpt lat="49.163616020232439" lon="8.856623992323875">
        <ele>257.80000000000001</ele>
        <time>2017-05-05T13:51:46Z</time>
      </trkpt>
      <trkpt lat="49.163161972537637" lon="8.857117015868425">
        <ele>257.80000000000001</ele>
        <time>2017-05-05T13:51:53Z</time>
      </trkpt>
      <trkpt lat="49.163026018068194" lon="8.857264034450054">
        <ele>257.60000000000002</ele>
        <time>2017-05-05T13:51:55Z</time>
      </trkpt>
      <trkpt lat="49.162681018933654" lon="8.857640968635678">
        <ele>256.60000000000002</ele>
        <time>2017-05-05T13:52:00Z</time>
      </trkpt>
      <trkpt lat="49.162551015615463" lon="8.857789998874068">
        <ele>256.39999999999998</ele>
        <time>2017-05-05T13:52:02Z</time>
      </trkpt>
      <trkpt lat="49.162484966218472" lon="8.857860993593931">
        <ele>256.19999999999999</ele>
        <time>2017-05-05T13:52:03Z</time>
      </trkpt>
      <trkpt lat="49.16235001757741" lon="8.858009018003941">
        <ele>256</ele>
        <time>2017-05-05T13:52:05Z</time>
      </trkpt>
      <trkpt lat="49.161940980702639" lon="8.858457030728459">
        <ele>255.80000000000001</ele>
        <time>2017-05-05T13:52:11Z</time>
      </trkpt>
      <trkpt lat="49.16160000488162" lon="8.858841005712748">
        <ele>255.40000000000001</ele>
        <time>2017-05-05T13:52:16Z</time>
      </trkpt>
      <trkpt lat="49.161529010161757" lon="8.858919041231275">
        <ele>255.19999999999999</ele>
        <time>2017-05-05T13:52:17Z</time>
      </trkpt>
      <trkpt lat="49.161049984395504" lon="8.859443999826908">
        <ele>254.80000000000001</ele>
        <time>2017-05-05T13:52:24Z</time>
      </trkpt>
      <trkpt lat="49.160548998042941" lon="8.859948003664613">
        <ele>254.59999999999999</ele>
        <time>2017-05-05T13:52:31Z</time>
      </trkpt>
      <trkpt lat="49.160404996946454" lon="8.860094016417861">
        <ele>254.19999999999999</ele>
        <time>2017-05-05T13:52:33Z</time>
      </trkpt>
      <trkpt lat="49.160063015297055" lon="8.860449995845556">
        <ele>253.80000000000001</ele>
        <time>2017-05-05T13:52:38Z</time>
      </trkpt>
      <trkpt lat="49.159595975652337" lon="8.860918041318655">
        <ele>253.59999999999999</ele>
        <time>2017-05-05T13:52:45Z</time>
      </trkpt>
      <trkpt lat="49.159531015902758" lon="8.860979983583093">
        <ele>253.59999999999999</ele>
        <time>2017-05-05T13:52:46Z</time>
      </trkpt>
      <trkpt lat="49.159359019249678" lon="8.861133959144354">
        <ele>254</ele>
        <time>2017-05-05T13:52:49Z</time>
      </trkpt>
      <trkpt lat="49.159308979287744" lon="8.86114401742816">
        <ele>254.19999999999999</ele>
        <time>2017-05-05T13:52:50Z</time>
      </trkpt>
      <trkpt lat="49.159195991232991" lon="8.861026000231504">
        <ele>254.80000000000001</ele>
        <time>2017-05-05T13:52:53Z</time>
      </trkpt>
      <trkpt lat="49.159109992906451" lon="8.861018037423492">
        <ele>255</ele>
        <time>2017-05-05T13:52:55Z</time>
      </trkpt>
      <trkpt lat="49.159016031771898" lon="8.861082997173071">
        <ele>255.19999999999999</ele>
        <time>2017-05-05T13:52:57Z</time>
      </trkpt>
      <trkpt lat="49.158910000696778" lon="8.861163966357708">
        <ele>255.19999999999999</ele>
        <time>2017-05-05T13:52:59Z</time>
      </trkpt>
      <trkpt lat="49.158476991578937" lon="8.8614890165627">
        <ele>255.19999999999999</ele>
        <time>2017-05-05T13:53:06Z</time>
      </trkpt>
      <trkpt lat="49.158414965495467" lon="8.861536961048842">
        <ele>255.19999999999999</ele>
        <time>2017-05-05T13:53:07Z</time>
      </trkpt>
      <trkpt lat="49.157965024933219" lon="8.861884977668524">
        <ele>255.19999999999999</ele>
        <time>2017-05-05T13:53:14Z</time>
      </trkpt>
      <trkpt lat="49.157767966389656" lon="8.862039959058166">
        <ele>255</ele>
        <time>2017-05-05T13:53:17Z</time>
      </trkpt>
      <trkpt lat="49.157303022220731" lon="8.862415971234441">
        <ele>254.80000000000001</ele>
        <time>2017-05-05T13:53:24Z</time>
      </trkpt>
      <trkpt lat="49.156897002831101" lon="8.862721994519234">
        <ele>254.59999999999999</ele>
        <time>2017-05-05T13:53:30Z</time>
      </trkpt>
      <trkpt lat="49.156477991491556" lon="8.86303698644042">
        <ele>254.19999999999999</ele>
        <time>2017-05-05T13:53:36Z</time>
      </trkpt>
      <trkpt lat="49.156333990395069" lon="8.86314201168716">
        <ele>254</ele>
        <time>2017-05-05T13:53:38Z</time>
      </trkpt>
      <trkpt lat="49.155897963792086" lon="8.863468989729881">
        <ele>253.40000000000001</ele>
        <time>2017-05-05T13:53:44Z</time>
      </trkpt>
      <trkpt lat="49.155685985460877" lon="8.8636389747262">
        <ele>252.80000000000001</ele>
        <time>2017-05-05T13:53:47Z</time>
      </trkpt>
      <trkpt lat="49.155392032116652" lon="8.863877020776272">
        <ele>252.19999999999999</ele>
        <time>2017-05-05T13:53:51Z</time>
      </trkpt>
      <trkpt lat="49.155183993279934" lon="8.864055974408984">
        <ele>251.80000000000001</ele>
        <time>2017-05-05T13:53:54Z</time>
      </trkpt>
      <trkpt lat="49.155047032982111" lon="8.864153036847711">
        <ele>251.40000000000001</ele>
        <time>2017-05-05T13:53:56Z</time>
      </trkpt>
      <trkpt lat="49.154976038262248" lon="8.86415496468544">
        <ele>251.19999999999999</ele>
        <time>2017-05-05T13:53:57Z</time>
      </trkpt>
      <trkpt lat="49.154830025509" lon="8.864083969965577">
        <ele>250.40000000000001</ele>
        <time>2017-05-05T13:53:59Z</time>
      </trkpt>
      <trkpt lat="49.154759030789137" lon="8.864038037136197">
        <ele>250.19999999999999</ele>
        <time>2017-05-05T13:54:00Z</time>
      </trkpt>
      <trkpt lat="49.154318980872631" lon="8.8637650385499">
        <ele>250.19999999999999</ele>
        <time>2017-05-05T13:54:06Z</time>
      </trkpt>
      <trkpt lat="49.153873985633254" lon="8.863478964194655">
        <ele>250</ele>
        <time>2017-05-05T13:54:12Z</time>
      </trkpt>
      <trkpt lat="49.153637029230595" lon="8.863347033038735">
        <ele>249.80000000000001</ele>
        <time>2017-05-05T13:54:15Z</time>
      </trkpt>
      <trkpt lat="49.153072005137801" lon="8.863033968955278">
        <ele>249.59999999999999</ele>
        <time>2017-05-05T13:54:22Z</time>
      </trkpt>
      <trkpt lat="49.152905959635973" lon="8.862945958971977">
        <ele>249.40000000000001</ele>
        <time>2017-05-05T13:54:24Z</time>
      </trkpt>
      <trkpt lat="49.152823984622955" lon="8.862902037799358">
        <ele>249.40000000000001</ele>
        <time>2017-05-05T13:54:25Z</time>
      </trkpt>
      <trkpt lat="49.152247980237007" lon="8.862575981765986">
        <ele>248.59999999999999</ele>
        <time>2017-05-05T13:54:32Z</time>
      </trkpt>
      <trkpt lat="49.152168016880751" lon="8.862527031451464">
        <ele>248.40000000000001</ele>
        <time>2017-05-05T13:54:33Z</time>
      </trkpt>
      <trkpt lat="49.151936005800962" lon="8.862395016476512">
        <ele>247.80000000000001</ele>
        <time>2017-05-05T13:54:36Z</time>
      </trkpt>
      <trkpt lat="49.151793010532856" lon="8.862314969301224">
        <ele>247.59999999999999</ele>
        <time>2017-05-05T13:54:38Z</time>
      </trkpt>
      <trkpt lat="49.151728972792625" lon="8.862280016764998">
        <ele>247.40000000000001</ele>
        <time>2017-05-05T13:54:39Z</time>
      </trkpt>
      <trkpt lat="49.151674993336201" lon="8.862252021208406">
        <ele>247.40000000000001</ele>
        <time>2017-05-05T13:54:40Z</time>
      </trkpt>
      <trkpt lat="49.151597041636705" lon="8.862243974581361">
        <ele>247.19999999999999</ele>
        <time>2017-05-05T13:54:42Z</time>
      </trkpt>
      <trkpt lat="49.151537027209997" lon="8.862402979284525">
        <ele>247</ele>
        <time>2017-05-05T13:54:45Z</time>
      </trkpt>
      <trkpt lat="49.15147902444005" lon="8.862654017284513">
        <ele>246.80000000000001</ele>
        <time>2017-05-05T13:54:48Z</time>
      </trkpt>
      <trkpt lat="49.15145798586309" lon="8.862753007560968">
        <ele>246.80000000000001</ele>
        <time>2017-05-05T13:54:49Z</time>
      </trkpt>
      <trkpt lat="49.151424961164594" lon="8.862946964800358">
        <ele>246.80000000000001</ele>
        <time>2017-05-05T13:54:51Z</time>
      </trkpt>
      <trkpt lat="49.151439964771271" lon="8.863147040829063">
        <ele>246.80000000000001</ele>
        <time>2017-05-05T13:54:53Z</time>
      </trkpt>
      <trkpt lat="49.151485981419683" lon="8.86353000998497">
        <ele>246.80000000000001</ele>
        <time>2017-05-05T13:54:57Z</time>
      </trkpt>
      <trkpt lat="49.15147801861167" lon="8.863612990826368">
        <ele>247</ele>
        <time>2017-05-05T13:54:58Z</time>
      </trkpt>
      <trkpt lat="49.151364024728537" lon="8.863800996914506">
        <ele>248</ele>
        <time>2017-05-05T13:55:01Z</time>
      </trkpt>
      <trkpt lat="49.151268973946571" lon="8.863929994404316">
        <ele>248.40000000000001</ele>
        <time>2017-05-05T13:55:03Z</time>
      </trkpt>
      <trkpt lat="49.151119021698833" lon="8.864129986613989">
        <ele>248.80000000000001</ele>
        <time>2017-05-05T13:55:06Z</time>
      </trkpt>
      <trkpt lat="49.15096303448081" lon="8.864342970773578">
        <ele>248.80000000000001</ele>
        <time>2017-05-05T13:55:09Z</time>
      </trkpt>
      <trkpt lat="49.15051200427115" lon="8.864944959059358">
        <ele>248.40000000000001</ele>
        <time>2017-05-05T13:55:17Z</time>
      </trkpt>
      <trkpt lat="49.150171028450131" lon="8.865180993452668">
        <ele>248.40000000000001</ele>
        <time>2017-05-05T13:55:22Z</time>
      </trkpt>
      <trkpt lat="49.149727039039135" lon="8.865473018959165">
        <ele>247.40000000000001</ele>
        <time>2017-05-05T13:55:28Z</time>
      </trkpt>
      <trkpt lat="49.149650009348989" lon="8.865513000637293">
        <ele>247.40000000000001</ele>
        <time>2017-05-05T13:55:29Z</time>
      </trkpt>
      <trkpt lat="49.149106023833156" lon="8.865744005888701">
        <ele>247.19999999999999</ele>
        <time>2017-05-05T13:55:36Z</time>
      </trkpt>
      <trkpt lat="49.148562038317323" lon="8.865971993654966">
        <ele>247.19999999999999</ele>
        <time>2017-05-05T13:55:43Z</time>
      </trkpt>
      <trkpt lat="49.148484002798796" lon="8.866005018353462">
        <ele>247.19999999999999</ele>
        <time>2017-05-05T13:55:44Z</time>
      </trkpt>
      <trkpt lat="49.147898023948073" lon="8.866241974756122">
        <ele>247.40000000000001</ele>
        <time>2017-05-05T13:55:52Z</time>
      </trkpt>
      <trkpt lat="49.147452022880316" lon="8.866391004994512">
        <ele>247.59999999999999</ele>
        <time>2017-05-05T13:55:58Z</time>
      </trkpt>
      <trkpt lat="49.147149017080665" lon="8.866307018324733">
        <ele>247.59999999999999</ele>
        <time>2017-05-05T13:56:02Z</time>
      </trkpt>
      <trkpt lat="49.147008033469319" lon="8.866263013333082">
        <ele>247.40000000000001</ele>
        <time>2017-05-05T13:56:04Z</time>
      </trkpt>
      <trkpt lat="49.146879035979509" lon="8.866226971149445">
        <ele>247.59999999999999</ele>
        <time>2017-05-05T13:56:06Z</time>
      </trkpt>
      <trkpt lat="49.146727994084358" lon="8.866130998358131">
        <ele>247.59999999999999</ele>
        <time>2017-05-05T13:56:09Z</time>
      </trkpt>
      <trkpt lat="49.146703016012907" lon="8.866058997809887">
        <ele>247.59999999999999</ele>
        <time>2017-05-05T13:56:10Z</time>
      </trkpt>
      <trkpt lat="49.146696981042624" lon="8.86589496396482">
        <ele>247.19999999999999</ele>
        <time>2017-05-05T13:56:12Z</time>
      </trkpt>
      <trkpt lat="49.146692035719752" lon="8.865826986730099">
        <ele>246.80000000000001</ele>
        <time>2017-05-05T13:56:13Z</time>
      </trkpt>
      <trkpt lat="49.146675020456314" lon="8.865776024758816">
        <ele>246.59999999999999</ele>
        <time>2017-05-05T13:56:14Z</time>
      </trkpt>
      <trkpt lat="49.146595979109406" lon="8.865759009495378">
        <ele>246.19999999999999</ele>
        <time>2017-05-05T13:56:16Z</time>
      </trkpt>
      <trkpt lat="49.146490031853318" lon="8.865794967859983">
        <ele>246</ele>
        <time>2017-05-05T13:56:18Z</time>
      </trkpt>
      <trkpt lat="49.146299008280039" lon="8.865846013650298">
        <ele>245.80000000000001</ele>
        <time>2017-05-05T13:56:21Z</time>
      </trkpt>
      <trkpt lat="49.145955014973879" lon="8.865951038897038">
        <ele>245.40000000000001</ele>
        <time>2017-05-05T13:56:26Z</time>
      </trkpt>
      <trkpt lat="49.145813025534153" lon="8.865993032231927">
        <ele>245</ele>
        <time>2017-05-05T13:56:28Z</time>
      </trkpt>
      <trkpt lat="49.145452016964555" lon="8.866099985316396">
        <ele>244.40000000000001</ele>
        <time>2017-05-05T13:56:33Z</time>
      </trkpt>
      <trkpt lat="49.144943989813328" lon="8.866243986412883">
        <ele>244.59999999999999</ele>
        <time>2017-05-05T13:56:40Z</time>
      </trkpt>
      <trkpt lat="49.144352981820703" lon="8.866406008601189">
        <ele>244.19999999999999</ele>
        <time>2017-05-05T13:56:48Z</time>
      </trkpt>
      <trkpt lat="49.14428198710084" lon="8.866419000551105">
        <ele>244</ele>
        <time>2017-05-05T13:56:49Z</time>
      </trkpt>
      <trkpt lat="49.143845960497856" lon="8.866420006379485">
        <ele>243.80000000000001</ele>
        <time>2017-05-05T13:56:55Z</time>
      </trkpt>
      <trkpt lat="49.143356960266829" lon="8.866267958655953">
        <ele>243.59999999999999</ele>
        <time>2017-05-05T13:57:02Z</time>
      </trkpt>
      <trkpt lat="49.143010033294559" lon="8.866084981709719">
        <ele>243.40000000000001</ele>
        <time>2017-05-05T13:57:07Z</time>
      </trkpt>
      <trkpt lat="49.142795037478209" lon="8.865965036675334">
        <ele>243</ele>
        <time>2017-05-05T13:57:10Z</time>
      </trkpt>
      <trkpt lat="49.14265195839107" lon="8.865885995328426">
        <ele>243</ele>
        <time>2017-05-05T13:57:12Z</time>
      </trkpt>
      <trkpt lat="49.142207968980074" lon="8.865643003955483">
        <ele>243.19999999999999</ele>
        <time>2017-05-05T13:57:18Z</time>
      </trkpt>
      <trkpt lat="49.141694996505976" lon="8.865346033126116">
        <ele>242.59999999999999</ele>
        <time>2017-05-05T13:57:25Z</time>
      </trkpt>
      <trkpt lat="49.141622995957732" lon="8.865304039791226">
        <ele>242.59999999999999</ele>
        <time>2017-05-05T13:57:26Z</time>
      </trkpt>
      <trkpt lat="49.141331976279616" lon="8.865135982632637">
        <ele>242.40000000000001</ele>
        <time>2017-05-05T13:57:30Z</time>
      </trkpt>
      <trkpt lat="49.141112035140395" lon="8.865022994577885">
        <ele>242.59999999999999</ele>
        <time>2017-05-05T13:57:33Z</time>
      </trkpt>
      <trkpt lat="49.140769969671965" lon="8.864778997376561">
        <ele>242.40000000000001</ele>
        <time>2017-05-05T13:57:38Z</time>
      </trkpt>
      <trkpt lat="49.140704004094005" lon="8.864722000434995">
        <ele>242.40000000000001</ele>
        <time>2017-05-05T13:57:39Z</time>
      </trkpt>
      <trkpt lat="49.14017703384161" lon="8.864287985488772">
        <ele>242.40000000000001</ele>
        <time>2017-05-05T13:57:47Z</time>
      </trkpt>
      <trkpt lat="49.140112996101379" lon="8.864228976890445">
        <ele>242.40000000000001</ele>
        <time>2017-05-05T13:57:48Z</time>
      </trkpt>
      <trkpt lat="49.139817031100392" lon="8.863985985517502">
        <ele>242.40000000000001</ele>
        <time>2017-05-05T13:57:53Z</time>
      </trkpt>
      <trkpt lat="49.139703959226608" lon="8.863904010504484">
        <ele>242.80000000000001</ele>
        <time>2017-05-05T13:57:56Z</time>
      </trkpt>
      <trkpt lat="49.139685016125441" lon="8.863908033818007">
        <ele>242.80000000000001</ele>
        <time>2017-05-05T13:57:57Z</time>
      </trkpt>
      <trkpt lat="49.139612009748816" lon="8.863955978304148">
        <ele>243</ele>
        <time>2017-05-05T13:58:00Z</time>
      </trkpt>
      <trkpt lat="49.139444036409259" lon="8.86393896304071">
        <ele>243.19999999999999</ele>
        <time>2017-05-05T13:58:04Z</time>
      </trkpt>
      <trkpt lat="49.139355020597577" lon="8.863871991634369">
        <ele>243</ele>
        <time>2017-05-05T13:58:06Z</time>
      </trkpt>
      <trkpt lat="49.139305986464024" lon="8.863838966935873">
        <ele>243</ele>
        <time>2017-05-05T13:58:07Z</time>
      </trkpt>
      <trkpt lat="49.139200039207935" lon="8.863778030499816">
        <ele>243</ele>
        <time>2017-05-05T13:58:09Z</time>
      </trkpt>
      <trkpt lat="49.139053020626307" lon="8.863621959462762">
        <ele>242.59999999999999</ele>
        <time>2017-05-05T13:58:13Z</time>
      </trkpt>
      <trkpt lat="49.139013038948178" lon="8.863578038290143">
        <ele>242.59999999999999</ele>
        <time>2017-05-05T13:58:14Z</time>
      </trkpt>
      <trkpt lat="49.138913964852691" lon="8.863527998328209">
        <ele>242.59999999999999</ele>
        <time>2017-05-05T13:58:16Z</time>
      </trkpt>
      <trkpt lat="49.138741968199611" lon="8.863531015813351">
        <ele>243</ele>
        <time>2017-05-05T13:58:19Z</time>
      </trkpt>
      <trkpt lat="49.138620011508465" lon="8.863536966964603">
        <ele>243.40000000000001</ele>
        <time>2017-05-05T13:58:21Z</time>
      </trkpt>
      <trkpt lat="49.138452038168907" lon="8.863538978621364">
        <ele>243.80000000000001</ele>
        <time>2017-05-05T13:58:24Z</time>
      </trkpt>
      <trkpt lat="49.138364028185606" lon="8.863463960587978">
        <ele>244</ele>
        <time>2017-05-05T13:58:26Z</time>
      </trkpt>
      <trkpt lat="49.138285992667079" lon="8.863233961164951">
        <ele>244.19999999999999</ele>
        <time>2017-05-05T13:58:29Z</time>
      </trkpt>
      <trkpt lat="49.13815900683403" lon="8.863023994490504">
        <ele>244</ele>
        <time>2017-05-05T13:58:32Z</time>
      </trkpt>
      <trkpt lat="49.138035038486123" lon="8.862959034740925">
        <ele>243.40000000000001</ele>
        <time>2017-05-05T13:58:34Z</time>
      </trkpt>
      <trkpt lat="49.13796597160399" lon="8.862955011427403">
        <ele>243.19999999999999</ele>
        <time>2017-05-05T13:58:35Z</time>
      </trkpt>
      <trkpt lat="49.137888019904494" lon="8.862976972013712">
        <ele>242.80000000000001</ele>
        <time>2017-05-05T13:58:36Z</time>
      </trkpt>
      <trkpt lat="49.137741001322865" lon="8.863060036674142">
        <ele>242.40000000000001</ele>
        <time>2017-05-05T13:58:38Z</time>
      </trkpt>
      <trkpt lat="49.137222999706864" lon="8.863425990566611">
        <ele>241.80000000000001</ele>
        <time>2017-05-05T13:58:45Z</time>
      </trkpt>
      <trkpt lat="49.13714999333024" lon="8.863479970023036">
        <ele>241.80000000000001</ele>
        <time>2017-05-05T13:58:46Z</time>
      </trkpt>
      <trkpt lat="49.136726958677173" lon="8.863771995529532">
        <ele>241.80000000000001</ele>
        <time>2017-05-05T13:58:52Z</time>
      </trkpt>
      <trkpt lat="49.136450020596385" lon="8.863955978304148">
        <ele>241.40000000000001</ele>
        <time>2017-05-05T13:58:56Z</time>
      </trkpt>
      <trkpt lat="49.136383971199393" lon="8.864006018266082">
        <ele>241.40000000000001</ele>
        <time>2017-05-05T13:58:57Z</time>
      </trkpt>
      <trkpt lat="49.136184984818101" lon="8.864163011312485">
        <ele>241.19999999999999</ele>
        <time>2017-05-05T13:59:00Z</time>
      </trkpt>
      <trkpt lat="49.136056993156672" lon="8.864285973832011">
        <ele>241.40000000000001</ele>
        <time>2017-05-05T13:59:02Z</time>
      </trkpt>
      <trkpt lat="49.135993961244822" lon="8.864351017400622">
        <ele>241.40000000000001</ele>
        <time>2017-05-05T13:59:03Z</time>
      </trkpt>
      <trkpt lat="49.135874016210437" lon="8.864499963819981">
        <ele>241.40000000000001</ele>
        <time>2017-05-05T13:59:05Z</time>
      </trkpt>
      <trkpt lat="49.135702019557357" lon="8.864747984334827">
        <ele>241.40000000000001</ele>
        <time>2017-05-05T13:59:08Z</time>
      </trkpt>
      <trkpt lat="49.135371018201113" lon="8.865269003435969">
        <ele>241.40000000000001</ele>
        <time>2017-05-05T13:59:14Z</time>
      </trkpt>
      <trkpt lat="49.13499902933836" lon="8.865882977843285">
        <ele>241</ele>
        <time>2017-05-05T13:59:21Z</time>
      </trkpt>
      <trkpt lat="49.134608013555408" lon="8.866453031077981">
        <ele>241</ele>
        <time>2017-05-05T13:59:28Z</time>
      </trkpt>
      <trkpt lat="49.13454900495708" lon="8.866531988605857">
        <ele>241</ele>
        <time>2017-05-05T13:59:29Z</time>
      </trkpt>
      <trkpt lat="49.134146003052592" lon="8.867056025192142">
        <ele>241</ele>
        <time>2017-05-05T13:59:36Z</time>
      </trkpt>
      <trkpt lat="49.133908040821552" lon="8.867363976314664">
        <ele>240.80000000000001</ele>
        <time>2017-05-05T13:59:40Z</time>
      </trkpt>
      <trkpt lat="49.133790023624897" lon="8.867508983239532">
        <ele>240.40000000000001</ele>
        <time>2017-05-05T13:59:42Z</time>
      </trkpt>
      <trkpt lat="49.133362965658307" lon="8.867997983470559">
        <ele>240.40000000000001</ele>
        <time>2017-05-05T13:59:49Z</time>
      </trkpt>
      <trkpt lat="49.133026013150811" lon="8.86849301867187">
        <ele>240.19999999999999</ele>
        <time>2017-05-05T13:59:55Z</time>
      </trkpt>
      <trkpt lat="49.132677996531129" lon="8.86890297755599">
        <ele>240.19999999999999</ele>
        <time>2017-05-05T14:00:01Z</time>
      </trkpt>
      <trkpt lat="49.132375996559858" lon="8.869175976142287">
        <ele>240.19999999999999</ele>
        <time>2017-05-05T14:00:06Z</time>
      </trkpt>
      <trkpt lat="49.13231497630477" lon="8.869216041639447">
        <ele>240</ele>
        <time>2017-05-05T14:00:07Z</time>
      </trkpt>
      <trkpt lat="49.132251022383571" lon="8.869240013882518">
        <ele>240</ele>
        <time>2017-05-05T14:00:08Z</time>
      </trkpt>
      <trkpt lat="49.132133005186915" lon="8.86926700361073">
        <ele>240</ele>
        <time>2017-05-05T14:00:10Z</time>
      </trkpt>
      <trkpt lat="49.132032003253698" lon="8.869249988347292">
        <ele>240</ele>
        <time>2017-05-05T14:00:12Z</time>
      </trkpt>
      <trkpt lat="49.131963020190597" lon="8.869118979200721">
        <ele>240</ele>
        <time>2017-05-05T14:00:14Z</time>
      </trkpt>
      <trkpt lat="49.131938964128494" lon="8.869037004187703">
        <ele>239.80000000000001</ele>
        <time>2017-05-05T14:00:15Z</time>
      </trkpt>
      <trkpt lat="49.131911974400282" lon="8.868951005861163">
        <ele>239.80000000000001</ele>
        <time>2017-05-05T14:00:16Z</time>
      </trkpt>
      <trkpt lat="49.131868975237012" lon="8.868781020864844">
        <ele>239.59999999999999</ele>
        <time>2017-05-05T14:00:18Z</time>
      </trkpt>
      <trkpt lat="49.131804015487432" lon="8.868541968986392">
        <ele>239.80000000000001</ele>
        <time>2017-05-05T14:00:21Z</time>
      </trkpt>
      <trkpt lat="49.131783982738853" lon="8.868465023115277">
        <ele>239.80000000000001</ele>
        <time>2017-05-05T14:00:22Z</time>
      </trkpt>
      <trkpt lat="49.131746012717485" lon="8.868328984826803">
        <ele>240</ele>
        <time>2017-05-05T14:00:24Z</time>
      </trkpt>
      <trkpt lat="49.131714999675751" lon="8.868279028683901">
        <ele>240</ele>
        <time>2017-05-05T14:00:25Z</time>
      </trkpt>
      <trkpt lat="49.131624978035688" lon="8.868282968178392">
        <ele>240.19999999999999</ele>
        <time>2017-05-05T14:00:27Z</time>
      </trkpt>
      <trkpt lat="49.131482988595963" lon="8.868473991751671">
        <ele>240.40000000000001</ele>
        <time>2017-05-05T14:00:30Z</time>
      </trkpt>
      <trkpt lat="49.131375029683113" lon="8.868655040860176">
        <ele>240.40000000000001</ele>
        <time>2017-05-05T14:00:32Z</time>
      </trkpt>
      <trkpt lat="49.131262041628361" lon="8.868835000321269">
        <ele>240.40000000000001</ele>
        <time>2017-05-05T14:00:34Z</time>
      </trkpt>
      <trkpt lat="49.131204038858414" lon="8.868924016132951">
        <ele>240.40000000000001</ele>
        <time>2017-05-05T14:00:35Z</time>
      </trkpt>
      <trkpt lat="49.130977978929877" lon="8.869263986125588">
        <ele>240.59999999999999</ele>
        <time>2017-05-05T14:00:39Z</time>
      </trkpt>
      <trkpt lat="49.130923999473453" lon="8.869343027472496">
        <ele>240.80000000000001</ele>
        <time>2017-05-05T14:00:40Z</time>
      </trkpt>
      <trkpt lat="49.130872031673789" lon="8.869420979171991">
        <ele>240.80000000000001</ele>
        <time>2017-05-05T14:00:41Z</time>
      </trkpt>
      <trkpt lat="49.130518985912204" lon="8.869940992444754">
        <ele>241.59999999999999</ele>
        <time>2017-05-05T14:00:48Z</time>
      </trkpt>
      <trkpt lat="49.130425024777651" lon="8.870081976056099">
        <ele>241.59999999999999</ele>
        <time>2017-05-05T14:00:50Z</time>
      </trkpt>
      <trkpt lat="49.130232995375991" lon="8.870380036532879">
        <ele>241.80000000000001</ele>
        <time>2017-05-05T14:00:54Z</time>
      </trkpt>
      <trkpt lat="49.130131993442774" lon="8.870521020144224">
        <ele>242</ele>
        <time>2017-05-05T14:00:56Z</time>
      </trkpt>
      <trkpt lat="49.130006013438106" lon="8.870723024010658">
        <ele>242.40000000000001</ele>
        <time>2017-05-05T14:00:59Z</time>
      </trkpt>
      <trkpt lat="49.12999402731657" lon="8.870800975710154">
        <ele>242.40000000000001</ele>
        <time>2017-05-05T14:01:00Z</time>
      </trkpt>
      <trkpt lat="49.130055969581008" lon="8.871047990396619">
        <ele>242.59999999999999</ele>
        <time>2017-05-05T14:01:03Z</time>
      </trkpt>
      <trkpt lat="49.130088994279504" lon="8.871129965409637">
        <ele>242.59999999999999</ele>
        <time>2017-05-05T14:01:04Z</time>
      </trkpt>
      <trkpt lat="49.130220003426075" lon="8.871441017836332">
        <ele>242</ele>
        <time>2017-05-05T14:01:08Z</time>
      </trkpt>
      <trkpt lat="49.130241964012384" lon="8.871501032263041">
        <ele>242</ele>
        <time>2017-05-05T14:01:09Z</time>
      </trkpt>
      <trkpt lat="49.130270965397358" lon="8.871590970084071">
        <ele>241.80000000000001</ele>
        <time>2017-05-05T14:01:11Z</time>
      </trkpt>
      <trkpt lat="49.130275994539261" lon="8.871621983125806">
        <ele>241.80000000000001</ele>
        <time>2017-05-05T14:01:12Z</time>
      </trkpt>
      <trkpt lat="49.130275994539261" lon="8.871640004217625">
        <ele>241.80000000000001</ele>
        <time>2017-05-05T14:01:13Z</time>
      </trkpt>
      <trkpt lat="49.130277000367641" lon="8.871646039187908">
        <ele>242</ele>
        <time>2017-05-05T14:01:14Z</time>
      </trkpt>
      <trkpt lat="49.130271971225739" lon="8.871648972854018">
        <ele>242</ele>
        <time>2017-05-05T14:01:20Z</time>
      </trkpt>
      <trkpt lat="49.130253028124571" lon="8.871658025309444">
        <ele>242</ele>
        <time>2017-05-05T14:01:21Z</time>
      </trkpt>
      <trkpt lat="49.130235007032752" lon="8.871667999774218">
        <ele>241.80000000000001</ele>
        <time>2017-05-05T14:01:22Z</time>
      </trkpt>
      <trkpt lat="49.130179015919566" lon="8.871706975623965">
        <ele>241.80000000000001</ele>
        <time>2017-05-05T14:01:24Z</time>
      </trkpt>
      <trkpt lat="49.130121013149619" lon="8.871806971728802">
        <ele>241.59999999999999</ele>
        <time>2017-05-05T14:01:26Z</time>
      </trkpt>
      <trkpt lat="49.130084970965981" lon="8.871951978653669">
        <ele>241.19999999999999</ele>
        <time>2017-05-05T14:01:28Z</time>
      </trkpt>
      <trkpt lat="49.13003996014595" lon="8.872120035812259">
        <ele>240.80000000000001</ele>
        <time>2017-05-05T14:01:30Z</time>
      </trkpt>
      <trkpt lat="49.130013976246119" lon="8.872216008603573">
        <ele>240.80000000000001</ele>
        <time>2017-05-05T14:01:31Z</time>
      </trkpt>
      <trkpt lat="49.129928983747959" lon="8.872508034110069">
        <ele>240.80000000000001</ele>
        <time>2017-05-05T14:01:34Z</time>
      </trkpt>
      <trkpt lat="49.129808032885194" lon="8.872872982174158">
        <ele>241.80000000000001</ele>
        <time>2017-05-05T14:01:38Z</time>
      </trkpt>
      <trkpt lat="49.129719017073512" lon="8.873147992417216">
        <ele>242</ele>
        <time>2017-05-05T14:01:41Z</time>
      </trkpt>
      <trkpt lat="49.12965003401041" lon="8.87332602404058">
        <ele>242</ele>
        <time>2017-05-05T14:01:43Z</time>
      </trkpt>
      <trkpt lat="49.129536040127277" lon="8.873575972393155">
        <ele>242</ele>
        <time>2017-05-05T14:01:46Z</time>
      </trkpt>
      <trkpt lat="49.129424979910254" lon="8.87382198125124">
        <ele>242.80000000000001</ele>
        <time>2017-05-05T14:01:49Z</time>
      </trkpt>
      <trkpt lat="49.129388015717268" lon="8.873901022598147">
        <ele>242.80000000000001</ele>
        <time>2017-05-05T14:01:50Z</time>
      </trkpt>
      <trkpt lat="49.129154998809099" lon="8.874379964545369">
        <ele>243.19999999999999</ele>
        <time>2017-05-05T14:01:56Z</time>
      </trkpt>
      <trkpt lat="49.129022983834147" lon="8.874626979231834">
        <ele>243</ele>
        <time>2017-05-05T14:01:59Z</time>
      </trkpt>
      <trkpt lat="49.128831038251519" lon="8.87496099807322">
        <ele>243</ele>
        <time>2017-05-05T14:02:03Z</time>
      </trkpt>
      <trkpt lat="49.128700029104948" lon="8.875226033851504">
        <ele>242.80000000000001</ele>
        <time>2017-05-05T14:02:06Z</time>
      </trkpt>
      <trkpt lat="49.128671027719975" lon="8.875327035784721">
        <ele>242.80000000000001</ele>
        <time>2017-05-05T14:02:07Z</time>
      </trkpt>
      <trkpt lat="49.128634985536337" lon="8.875634986907244">
        <ele>242.40000000000001</ele>
        <time>2017-05-05T14:02:10Z</time>
      </trkpt>
      <trkpt lat="49.128626016899943" lon="8.87573498301208">
        <ele>242.40000000000001</ele>
        <time>2017-05-05T14:02:11Z</time>
      </trkpt>
      <trkpt lat="49.128521997481585" lon="8.876337977126241">
        <ele>243.19999999999999</ele>
        <time>2017-05-05T14:02:17Z</time>
      </trkpt>
      <trkpt lat="49.128301972523332" lon="8.877136018127203">
        <ele>243.19999999999999</ele>
        <time>2017-05-05T14:02:25Z</time>
      </trkpt>
      <trkpt lat="49.128083037212491" lon="8.877988960593939">
        <ele>242</ele>
        <time>2017-05-05T14:02:33Z</time>
      </trkpt>
      <trkpt lat="49.128055041655898" lon="8.878095997497439">
        <ele>241.80000000000001</ele>
        <time>2017-05-05T14:02:34Z</time>
      </trkpt>
      <trkpt lat="49.127913974225521" lon="8.878632020205259">
        <ele>241.59999999999999</ele>
        <time>2017-05-05T14:02:39Z</time>
      </trkpt>
      <trkpt lat="49.127768967300653" lon="8.879173994064331">
        <ele>240.59999999999999</ele>
        <time>2017-05-05T14:02:44Z</time>
      </trkpt>
      <trkpt lat="49.127742983400822" lon="8.879282036796212">
        <ele>240.40000000000001</ele>
        <time>2017-05-05T14:02:45Z</time>
      </trkpt>
      <trkpt lat="49.127617003396153" lon="8.879828033968806">
        <ele>239.40000000000001</ele>
        <time>2017-05-05T14:02:50Z</time>
      </trkpt>
      <trkpt lat="49.12756503559649" lon="8.88002903200686">
        <ele>239.19999999999999</ele>
        <time>2017-05-05T14:02:52Z</time>
      </trkpt>
      <trkpt lat="49.12754500284791" lon="8.880125004798174">
        <ele>239</ele>
        <time>2017-05-05T14:02:53Z</time>
      </trkpt>
      <trkpt lat="49.127537040039897" lon="8.880215026438236">
        <ele>239</ele>
        <time>2017-05-05T14:02:54Z</time>
      </trkpt>
      <trkpt lat="49.127551959827542" lon="8.88029096648097">
        <ele>239</ele>
        <time>2017-05-05T14:02:55Z</time>
      </trkpt>
      <trkpt lat="49.127680035308003" lon="8.880458017811179">
        <ele>238.80000000000001</ele>
        <time>2017-05-05T14:02:58Z</time>
      </trkpt>
      <trkpt lat="49.127843985334039" lon="8.880639988929033">
        <ele>238.40000000000001</ele>
        <time>2017-05-05T14:03:01Z</time>
      </trkpt>
      <trkpt lat="49.127897964790463" lon="8.880706960335374">
        <ele>238.40000000000001</ele>
        <time>2017-05-05T14:03:02Z</time>
      </trkpt>
      <trkpt lat="49.128002990037203" lon="8.880850039422512">
        <ele>238.19999999999999</ele>
        <time>2017-05-05T14:03:04Z</time>
      </trkpt>
      <trkpt lat="49.128053029999137" lon="8.880927991122007">
        <ele>238.19999999999999</ele>
        <time>2017-05-05T14:03:05Z</time>
      </trkpt>
      <trkpt lat="49.128182027488947" lon="8.881195960566402">
        <ele>238.40000000000001</ele>
        <time>2017-05-05T14:03:08Z</time>
      </trkpt>
      <trkpt lat="49.128216980025172" lon="8.881294028833509">
        <ele>238.40000000000001</ele>
        <time>2017-05-05T14:03:09Z</time>
      </trkpt>
      <trkpt lat="49.128291998058558" lon="8.881607009097934">
        <ele>238.80000000000001</ele>
        <time>2017-05-05T14:03:12Z</time>
      </trkpt>
      <trkpt lat="49.128308007493615" lon="8.881715973839164">
        <ele>239</ele>
        <time>2017-05-05T14:03:13Z</time>
      </trkpt>
      <trkpt lat="49.128370033577085" lon="8.882509991526604">
        <ele>238.80000000000001</ele>
        <time>2017-05-05T14:03:20Z</time>
      </trkpt>
      <trkpt lat="49.128383025527" lon="8.883394030854106">
        <ele>238.59999999999999</ele>
        <time>2017-05-05T14:03:28Z</time>
      </trkpt>
      <trkpt lat="49.128386965021491" lon="8.883504001423717">
        <ele>238.80000000000001</ele>
        <time>2017-05-05T14:03:29Z</time>
      </trkpt>
      <trkpt lat="49.128429964184761" lon="8.884046981111169">
        <ele>239</ele>
        <time>2017-05-05T14:03:34Z</time>
      </trkpt>
      <trkpt lat="49.12844899110496" lon="8.884260971099138">
        <ele>238.80000000000001</ele>
        <time>2017-05-05T14:03:36Z</time>
      </trkpt>
      <trkpt lat="49.128517974168062" lon="8.884932026267052">
        <ele>238.40000000000001</ele>
        <time>2017-05-05T14:03:42Z</time>
      </trkpt>
      <trkpt lat="49.128584023565054" lon="8.885708022862673">
        <ele>238.59999999999999</ele>
        <time>2017-05-05T14:03:49Z</time>
      </trkpt>
      <trkpt lat="49.128575976938009" lon="8.886171961203218">
        <ele>238.80000000000001</ele>
        <time>2017-05-05T14:03:53Z</time>
      </trkpt>
      <trkpt lat="49.128556028008461" lon="8.886399026960135">
        <ele>238.59999999999999</ele>
        <time>2017-05-05T14:03:55Z</time>
      </trkpt>
      <trkpt lat="49.128518979996443" lon="8.886738996952772">
        <ele>238.40000000000001</ele>
        <time>2017-05-05T14:03:58Z</time>
      </trkpt>
      <trkpt lat="49.128415966406465" lon="8.88739999383688">
        <ele>238.40000000000001</ele>
        <time>2017-05-05T14:04:04Z</time>
      </trkpt>
      <trkpt lat="49.128260985016823" lon="8.88778698630631">
        <ele>238.59999999999999</ele>
        <time>2017-05-05T14:04:08Z</time>
      </trkpt>
      <trkpt lat="49.127984968945384" lon="8.888328038156033">
        <ele>238.80000000000001</ele>
        <time>2017-05-05T14:04:14Z</time>
      </trkpt>
      <trkpt lat="49.127554977312684" lon="8.888941006734967">
        <ele>238.80000000000001</ele>
        <time>2017-05-05T14:04:22Z</time>
      </trkpt>
      <trkpt lat="49.127393960952759" lon="8.889306038618088">
        <ele>238.80000000000001</ele>
        <time>2017-05-05T14:04:26Z</time>
      </trkpt>
      <trkpt lat="49.127354985103011" lon="8.889392958953977">
        <ele>238.80000000000001</ele>
        <time>2017-05-05T14:04:27Z</time>
      </trkpt>
      <trkpt lat="49.127216013148427" lon="8.889736030250788">
        <ele>238.59999999999999</ele>
        <time>2017-05-05T14:04:31Z</time>
      </trkpt>
      <trkpt lat="49.127150969579816" lon="8.88989101164043">
        <ele>238.59999999999999</ele>
        <time>2017-05-05T14:04:33Z</time>
      </trkpt>
      <trkpt lat="49.127099001780152" lon="8.890049010515213">
        <ele>238.59999999999999</ele>
        <time>2017-05-05T14:04:35Z</time>
      </trkpt>
      <trkpt lat="49.127088021486998" lon="8.890229975804687">
        <ele>239</ele>
        <time>2017-05-05T14:04:37Z</time>
      </trkpt>
      <trkpt lat="49.127169996500015" lon="8.890576986595988">
        <ele>239</ele>
        <time>2017-05-05T14:04:41Z</time>
      </trkpt>
      <trkpt lat="49.12728700786829" lon="8.89081796631217">
        <ele>239</ele>
        <time>2017-05-05T14:04:44Z</time>
      </trkpt>
      <trkpt lat="49.127375017851591" lon="8.890977976843715">
        <ele>239</ele>
        <time>2017-05-05T14:04:46Z</time>
      </trkpt>
      <trkpt lat="49.127640975639224" lon="8.891352983191609">
        <ele>239.19999999999999</ele>
        <time>2017-05-05T14:04:51Z</time>
      </trkpt>
      <trkpt lat="49.127921015024185" lon="8.891684990376234">
        <ele>239</ele>
        <time>2017-05-05T14:04:56Z</time>
      </trkpt>
      <trkpt lat="49.128011958673596" lon="8.891813987866044">
        <ele>239</ele>
        <time>2017-05-05T14:04:58Z</time>
      </trkpt>
      <trkpt lat="49.128217985853553" lon="8.892051028087735">
        <ele>239.19999999999999</ele>
        <time>2017-05-05T14:05:02Z</time>
      </trkpt>
      <trkpt lat="49.128270037472248" lon="8.892112970352173">
        <ele>239</ele>
        <time>2017-05-05T14:05:03Z</time>
      </trkpt>
      <trkpt lat="49.128314964473248" lon="8.892178013920784">
        <ele>238.80000000000001</ele>
        <time>2017-05-05T14:05:04Z</time>
      </trkpt>
      <trkpt lat="49.128401968628168" lon="8.892337018623948">
        <ele>238.80000000000001</ele>
        <time>2017-05-05T14:05:06Z</time>
      </trkpt>
      <trkpt lat="49.128476986661553" lon="8.892539022490382">
        <ele>238.59999999999999</ele>
        <time>2017-05-05T14:05:08Z</time>
      </trkpt>
      <trkpt lat="49.128535995259881" lon="8.892755024135113">
        <ele>238.19999999999999</ele>
        <time>2017-05-05T14:05:10Z</time>
      </trkpt>
      <trkpt lat="49.128615036606789" lon="8.893079990521073">
        <ele>237.59999999999999</ele>
        <time>2017-05-05T14:05:13Z</time>
      </trkpt>
      <trkpt lat="49.128681002184749" lon="8.893405040726066">
        <ele>237.40000000000001</ele>
        <time>2017-05-05T14:05:16Z</time>
      </trkpt>
      <trkpt lat="49.128819974139333" lon="8.89416603371501">
        <ele>236.80000000000001</ele>
        <time>2017-05-05T14:05:23Z</time>
      </trkpt>
      <trkpt lat="49.128944026306272" lon="8.894926020875573">
        <ele>236.80000000000001</ele>
        <time>2017-05-05T14:05:30Z</time>
      </trkpt>
      <trkpt lat="49.128923993557692" lon="8.895472018048167">
        <ele>237.19999999999999</ele>
        <time>2017-05-05T14:05:35Z</time>
      </trkpt>
      <trkpt lat="49.128891974687576" lon="8.895882982760668">
        <ele>238.19999999999999</ele>
        <time>2017-05-05T14:05:39Z</time>
      </trkpt>
      <trkpt lat="49.12887797690928" lon="8.89607802964747">
        <ele>238.80000000000001</ele>
        <time>2017-05-05T14:05:41Z</time>
      </trkpt>
      <trkpt lat="49.128873031586409" lon="8.896174002438784">
        <ele>238.80000000000001</ele>
        <time>2017-05-05T14:05:42Z</time>
      </trkpt>
      <trkpt lat="49.128870014101267" lon="8.896367037668824">
        <ele>239.40000000000001</ele>
        <time>2017-05-05T14:05:44Z</time>
      </trkpt>
      <trkpt lat="49.128916030749679" lon="8.896537022665143">
        <ele>240</ele>
        <time>2017-05-05T14:05:46Z</time>
      </trkpt>
      <trkpt lat="49.129000017419457" lon="8.896684041246772">
        <ele>240.59999999999999</ele>
        <time>2017-05-05T14:05:48Z</time>
      </trkpt>
      <trkpt lat="49.129122979938984" lon="8.896911023184657">
        <ele>241</ele>
        <time>2017-05-05T14:05:51Z</time>
      </trkpt>
      <trkpt lat="49.129386004060507" lon="8.897458026185632">
        <ele>242</ele>
        <time>2017-05-05T14:05:58Z</time>
      </trkpt>
      <trkpt lat="49.129635030403733" lon="8.89790796674788">
        <ele>241.40000000000001</ele>
        <time>2017-05-05T14:06:03Z</time>
      </trkpt>
      <trkpt lat="49.129689009860158" lon="8.897998994216323">
        <ele>241</ele>
        <time>2017-05-05T14:06:04Z</time>
      </trkpt>
      <trkpt lat="49.129861006513238" lon="8.898266963660717">
        <ele>240</ele>
        <time>2017-05-05T14:06:07Z</time>
      </trkpt>
      <trkpt lat="49.129982041195035" lon="8.8984439894557">
        <ele>239</ele>
        <time>2017-05-05T14:06:09Z</time>
      </trkpt>
      <trkpt lat="49.130042977631092" lon="8.898536022752523">
        <ele>238.40000000000001</ele>
        <time>2017-05-05T14:06:10Z</time>
      </trkpt>
      <trkpt lat="49.130214974284172" lon="8.898822013288736">
        <ele>237.40000000000001</ele>
        <time>2017-05-05T14:06:13Z</time>
      </trkpt>
      <trkpt lat="49.130327040329576" lon="8.899000966921449">
        <ele>236.80000000000001</ele>
        <time>2017-05-05T14:06:15Z</time>
      </trkpt>
      <trkpt lat="49.130494007840753" lon="8.899215962737799">
        <ele>236.80000000000001</ele>
        <time>2017-05-05T14:06:18Z</time>
      </trkpt>
      <trkpt lat="49.130604984238744" lon="8.899319982156158">
        <ele>236.80000000000001</ele>
        <time>2017-05-05T14:06:20Z</time>
      </trkpt>
      <trkpt lat="49.130658963695168" lon="8.899355018511415">
        <ele>236.80000000000001</ele>
        <time>2017-05-05T14:06:21Z</time>
      </trkpt>
      <trkpt lat="49.130772035568953" lon="8.89936801046133">
        <ele>236.80000000000001</ele>
        <time>2017-05-05T14:06:23Z</time>
      </trkpt>
      <trkpt lat="49.130887035280466" lon="8.899374967440963">
        <ele>236.40000000000001</ele>
        <time>2017-05-05T14:06:25Z</time>
      </trkpt>
      <trkpt lat="49.130998011678457" lon="8.899450991302729">
        <ele>236</ele>
        <time>2017-05-05T14:06:27Z</time>
      </trkpt>
      <trkpt lat="49.131184006109834" lon="8.899693982675672">
        <ele>235.80000000000001</ele>
        <time>2017-05-05T14:06:31Z</time>
      </trkpt>
      <trkpt lat="49.131225999444723" lon="8.899765983223915">
        <ele>235.80000000000001</ele>
        <time>2017-05-05T14:06:32Z</time>
      </trkpt>
      <trkpt lat="49.131382992491126" lon="8.900069994851947">
        <ele>235.59999999999999</ele>
        <time>2017-05-05T14:06:36Z</time>
      </trkpt>
      <trkpt lat="49.131460022181273" lon="8.900223970413208">
        <ele>235.59999999999999</ele>
        <time>2017-05-05T14:06:38Z</time>
      </trkpt>
      <trkpt lat="49.131495980545878" lon="8.900301000103355">
        <ele>235.59999999999999</ele>
        <time>2017-05-05T14:06:39Z</time>
      </trkpt>
      <trkpt lat="49.131593964993954" lon="8.900523958727717">
        <ele>235.80000000000001</ele>
        <time>2017-05-05T14:06:42Z</time>
      </trkpt>
      <trkpt lat="49.131682980805635" lon="8.900727974250913">
        <ele>235.80000000000001</ele>
        <time>2017-05-05T14:06:45Z</time>
      </trkpt>
      <trkpt lat="49.131709970533848" lon="8.900798968970776">
        <ele>235.80000000000001</ele>
        <time>2017-05-05T14:06:46Z</time>
      </trkpt>
      <trkpt lat="49.131831005215645" lon="8.901137011125684">
        <ele>235.40000000000001</ele>
        <time>2017-05-05T14:06:51Z</time>
      </trkpt>
      <trkpt lat="49.131846008822322" lon="8.901188978925347">
        <ele>235.40000000000001</ele>
        <time>2017-05-05T14:06:52Z</time>
      </trkpt>
      <trkpt lat="49.131883978843689" lon="8.901281012222171">
        <ele>235.40000000000001</ele>
        <time>2017-05-05T14:06:54Z</time>
      </trkpt>
      <trkpt lat="49.131912980228662" lon="8.901375979185104">
        <ele>235.19999999999999</ele>
        <time>2017-05-05T14:06:56Z</time>
      </trkpt>
      <trkpt lat="49.131975006312132" lon="8.901655012741685">
        <ele>234.80000000000001</ele>
        <time>2017-05-05T14:07:00Z</time>
      </trkpt>
      <trkpt lat="49.131990009918809" lon="8.901744028553367">
        <ele>235</ele>
        <time>2017-05-05T14:07:01Z</time>
      </trkpt>
      <trkpt lat="49.132019011303782" lon="8.901941003277898">
        <ele>235</ele>
        <time>2017-05-05T14:07:03Z</time>
      </trkpt>
      <trkpt lat="49.132049018517137" lon="8.902140995487571">
        <ele>235.19999999999999</ele>
        <time>2017-05-05T14:07:05Z</time>
      </trkpt>
      <trkpt lat="49.132066033780575" lon="8.902241997420788">
        <ele>235.19999999999999</ele>
        <time>2017-05-05T14:07:06Z</time>
      </trkpt>
      <trkpt lat="49.132109032943845" lon="8.902442995458841">
        <ele>235.59999999999999</ele>
        <time>2017-05-05T14:07:08Z</time>
      </trkpt>
      <trkpt lat="49.132182961329818" lon="8.90273803845048">
        <ele>235.59999999999999</ele>
        <time>2017-05-05T14:07:11Z</time>
      </trkpt>
      <trkpt lat="49.132243981584907" lon="8.902936019003391">
        <ele>235.59999999999999</ele>
        <time>2017-05-05T14:07:13Z</time>
      </trkpt>
      <trkpt lat="49.132389994338155" lon="8.903315970674157">
        <ele>235.59999999999999</ele>
        <time>2017-05-05T14:07:17Z</time>
      </trkpt>
      <trkpt lat="49.132489990442991" lon="8.903604978695512">
        <ele>235.59999999999999</ele>
        <time>2017-05-05T14:07:20Z</time>
      </trkpt>
      <trkpt lat="49.132684031501412" lon="8.904190035536885">
        <ele>235.40000000000001</ele>
        <time>2017-05-05T14:07:26Z</time>
      </trkpt>
      <trkpt lat="49.132718984037638" lon="8.904286008328199">
        <ele>235.19999999999999</ele>
        <time>2017-05-05T14:07:27Z</time>
      </trkpt>
      <trkpt lat="49.132961975410581" lon="8.904940970242024">
        <ele>235</ele>
        <time>2017-05-05T14:07:34Z</time>
      </trkpt>
      <trkpt lat="49.133030036464334" lon="8.905114978551865">
        <ele>235</ele>
        <time>2017-05-05T14:07:36Z</time>
      </trkpt>
      <trkpt lat="49.133202033117414" lon="8.905446985736489">
        <ele>235</ele>
        <time>2017-05-05T14:07:41Z</time>
      </trkpt>
      <trkpt lat="49.133289037272334" lon="8.905657036229968">
        <ele>235</ele>
        <time>2017-05-05T14:07:45Z</time>
      </trkpt>
      <trkpt lat="49.133407976478338" lon="8.905759966000915">
        <ele>235.19999999999999</ele>
        <time>2017-05-05T14:07:48Z</time>
      </trkpt>
      <trkpt lat="49.133502021431923" lon="8.905773041769862">
        <ele>235.19999999999999</ele>
        <time>2017-05-05T14:07:50Z</time>
      </trkpt>
      <trkpt lat="49.133686004206538" lon="8.905814029276371">
        <ele>235</ele>
        <time>2017-05-05T14:07:54Z</time>
      </trkpt>
      <trkpt lat="49.133825981989503" lon="8.905842024832964">
        <ele>234.40000000000001</ele>
        <time>2017-05-05T14:07:57Z</time>
      </trkpt>
      <trkpt lat="49.133912986144423" lon="8.905846970155835">
        <ele>234.40000000000001</ele>
        <time>2017-05-05T14:07:59Z</time>
      </trkpt>
      <trkpt lat="49.133952967822552" lon="8.905849987640977">
        <ele>234</ele>
        <time>2017-05-05T14:08:00Z</time>
      </trkpt>
      <trkpt lat="49.134094035252929" lon="8.90585501678288">
        <ele>234</ele>
        <time>2017-05-05T14:08:03Z</time>
      </trkpt>
      <trkpt lat="49.134168969467282" lon="8.905849987640977">
        <ele>234</ele>
        <time>2017-05-05T14:08:05Z</time>
      </trkpt>
      <trkpt lat="49.134204005822539" lon="8.905847975984216">
        <ele>234</ele>
        <time>2017-05-05T14:08:07Z</time>
      </trkpt>
      <trkpt lat="49.134211968630552" lon="8.905847975984216">
        <ele>234</ele>
        <time>2017-05-05T14:08:08Z</time>
      </trkpt>
      <trkpt lat="49.134209034964442" lon="8.905850993469358">
        <ele>234</ele>
        <time>2017-05-05T14:08:09Z</time>
      </trkpt>
      <trkpt lat="49.134229989722371" lon="8.90585602261126">
        <ele>234.40000000000001</ele>
        <time>2017-05-05T14:08:13Z</time>
      </trkpt>
      <trkpt lat="49.134273994714022" lon="8.905832972377539">
        <ele>234.40000000000001</ele>
        <time>2017-05-05T14:08:15Z</time>
      </trkpt>
      <trkpt lat="49.134357981383801" lon="8.905797014012933">
        <ele>234.40000000000001</ele>
        <time>2017-05-05T14:08:17Z</time>
      </trkpt>
      <trkpt lat="49.134477004408836" lon="8.905753009021282">
        <ele>234.59999999999999</ele>
        <time>2017-05-05T14:08:19Z</time>
      </trkpt>
      <trkpt lat="49.134625028818846" lon="8.905702969059348">
        <ele>234.40000000000001</ele>
        <time>2017-05-05T14:08:21Z</time>
      </trkpt>
      <trkpt lat="49.134783027693629" lon="8.905639015138149">
        <ele>234.59999999999999</ele>
        <time>2017-05-05T14:08:23Z</time>
      </trkpt>
      <trkpt lat="49.134961981326342" lon="8.90559802763164">
        <ele>234.59999999999999</ele>
        <time>2017-05-05T14:08:25Z</time>
      </trkpt>
      <trkpt lat="49.135114029049873" lon="8.905570032075048">
        <ele>234.59999999999999</ele>
        <time>2017-05-05T14:08:27Z</time>
      </trkpt>
      <trkpt lat="49.135250989347696" lon="8.905539019033313">
        <ele>235</ele>
        <time>2017-05-05T14:08:29Z</time>
      </trkpt>
      <trkpt lat="49.135360959917307" lon="8.905548993498087">
        <ele>235.80000000000001</ele>
        <time>2017-05-05T14:08:31Z</time>
      </trkpt>
      <trkpt lat="49.135450981557369" lon="8.905569026246667">
        <ele>236.40000000000001</ele>
        <time>2017-05-05T14:08:33Z</time>
      </trkpt>
      <trkpt lat="49.135489035397768" lon="8.905610013753176">
        <ele>236.59999999999999</ele>
        <time>2017-05-05T14:08:34Z</time>
      </trkpt>
      <trkpt lat="49.135543014854193" lon="8.905740017071366">
        <ele>237.19999999999999</ele>
        <time>2017-05-05T14:08:36Z</time>
      </trkpt>
      <trkpt lat="49.135562963783741" lon="8.905814029276371">
        <ele>237.59999999999999</ele>
        <time>2017-05-05T14:08:37Z</time>
      </trkpt>
      <trkpt lat="49.13560101762414" lon="8.905946966260672">
        <ele>237.80000000000001</ele>
        <time>2017-05-05T14:08:39Z</time>
      </trkpt>
      <trkpt lat="49.135633036494255" lon="8.906077975407243">
        <ele>238.19999999999999</ele>
        <time>2017-05-05T14:08:41Z</time>
      </trkpt>
      <trkpt lat="49.135732026770711" lon="8.906373018398881">
        <ele>238.19999999999999</ele>
        <time>2017-05-05T14:08:46Z</time>
      </trkpt>
      <trkpt lat="49.135751975700259" lon="8.906447030603886">
        <ele>238.40000000000001</ele>
        <time>2017-05-05T14:08:47Z</time>
      </trkpt>
      <trkpt lat="49.13579698652029" lon="8.906602011993527">
        <ele>238.80000000000001</ele>
        <time>2017-05-05T14:08:49Z</time>
      </trkpt>
      <trkpt lat="49.135818025097251" lon="8.906683987006545">
        <ele>238.80000000000001</ele>
        <time>2017-05-05T14:08:50Z</time>
      </trkpt>
      <trkpt lat="49.13583897985518" lon="8.906760010868311">
        <ele>238.80000000000001</ele>
        <time>2017-05-05T14:08:51Z</time>
      </trkpt>
      <trkpt lat="49.135923972353339" lon="8.907078020274639">
        <ele>239</ele>
        <time>2017-05-05T14:08:55Z</time>
      </trkpt>
      <trkpt lat="49.135982980951667" lon="8.907235013321042">
        <ele>239.19999999999999</ele>
        <time>2017-05-05T14:08:57Z</time>
      </trkpt>
      <trkpt lat="49.136065961793065" lon="8.907455038279295">
        <ele>239.40000000000001</ele>
        <time>2017-05-05T14:09:00Z</time>
      </trkpt>
      <trkpt lat="49.136151038110256" lon="8.907673973590136">
        <ele>239.80000000000001</ele>
        <time>2017-05-05T14:09:03Z</time>
      </trkpt>
      <trkpt lat="49.136300990357995" lon="8.90802601352334">
        <ele>239.59999999999999</ele>
        <time>2017-05-05T14:09:08Z</time>
      </trkpt>
      <trkpt lat="49.136326974257827" lon="8.908102959394455">
        <ele>239.59999999999999</ele>
        <time>2017-05-05T14:09:09Z</time>
      </trkpt>
      <trkpt lat="49.136452032253146" lon="8.908396996557713">
        <ele>239.19999999999999</ele>
        <time>2017-05-05T14:09:13Z</time>
      </trkpt>
      <trkpt lat="49.136515986174345" lon="8.908516019582748">
        <ele>239.19999999999999</ele>
        <time>2017-05-05T14:09:15Z</time>
      </trkpt>
      <trkpt lat="49.136587986722589" lon="8.908663038164377">
        <ele>239.19999999999999</ele>
        <time>2017-05-05T14:09:18Z</time>
      </trkpt>
      <trkpt lat="49.136607013642788" lon="8.90873403288424">
        <ele>239.19999999999999</ele>
        <time>2017-05-05T14:09:20Z</time>
      </trkpt>
      <trkpt lat="49.136618999764323" lon="8.908773008733988">
        <ele>239.19999999999999</ele>
        <time>2017-05-05T14:09:22Z</time>
      </trkpt>
      <trkpt lat="49.136636015027761" lon="8.908813996240497">
        <ele>239.19999999999999</ele>
        <time>2017-05-05T14:09:24Z</time>
      </trkpt>
      <trkpt lat="49.136667028069496" lon="8.908879039809108">
        <ele>239</ele>
        <time>2017-05-05T14:09:26Z</time>
      </trkpt>
      <trkpt lat="49.136770963668823" lon="8.90903796069324">
        <ele>238.80000000000001</ele>
        <time>2017-05-05T14:09:30Z</time>
      </trkpt>
      <trkpt lat="49.136796025559306" lon="8.90909998677671">
        <ele>239</ele>
        <time>2017-05-05T14:09:31Z</time>
      </trkpt>
      <trkpt lat="49.136878000572324" lon="8.90929302200675">
        <ele>239.40000000000001</ele>
        <time>2017-05-05T14:09:34Z</time>
      </trkpt>
      <trkpt lat="49.1369120310992" lon="8.90935798175633">
        <ele>239.40000000000001</ele>
        <time>2017-05-05T14:09:35Z</time>
      </trkpt>
      <trkpt lat="49.136985037475824" lon="8.909456972032785">
        <ele>239.40000000000001</ele>
        <time>2017-05-05T14:09:37Z</time>
      </trkpt>
      <trkpt lat="49.137047985568643" lon="8.909541964530945">
        <ele>239.59999999999999</ele>
        <time>2017-05-05T14:09:39Z</time>
      </trkpt>
      <trkpt lat="49.137142030522227" lon="8.909783028066158">
        <ele>240</ele>
        <time>2017-05-05T14:09:43Z</time>
      </trkpt>
      <trkpt lat="49.137209001928568" lon="8.910014033317566">
        <ele>240.59999999999999</ele>
        <time>2017-05-05T14:09:46Z</time>
      </trkpt>
      <trkpt lat="49.137230040505528" lon="8.910169014707208">
        <ele>240.80000000000001</ele>
        <time>2017-05-05T14:09:48Z</time>
      </trkpt>
      <trkpt lat="49.137257030233741" lon="8.910327013581991">
        <ele>241</ele>
        <time>2017-05-05T14:09:50Z</time>
      </trkpt>
      <trkpt lat="49.137275973334908" lon="8.910405971109867">
        <ele>241</ele>
        <time>2017-05-05T14:09:51Z</time>
      </trkpt>
      <trkpt lat="49.137307992205024" lon="8.910663966089487">
        <ele>240.40000000000001</ele>
        <time>2017-05-05T14:09:54Z</time>
      </trkpt>
      <trkpt lat="49.137324001640081" lon="8.910745019093156">
        <ele>240.40000000000001</ele>
        <time>2017-05-05T14:09:55Z</time>
      </trkpt>
      <trkpt lat="49.137333976104856" lon="8.910833029076457">
        <ele>240.19999999999999</ele>
        <time>2017-05-05T14:09:56Z</time>
      </trkpt>
      <trkpt lat="49.137351997196674" lon="8.911007037386298">
        <ele>240</ele>
        <time>2017-05-05T14:09:58Z</time>
      </trkpt>
      <trkpt lat="49.137386027723551" lon="8.911178028210998">
        <ele>239.59999999999999</ele>
        <time>2017-05-05T14:10:00Z</time>
      </trkpt>
      <trkpt lat="49.137402037158608" lon="8.911264026537538">
        <ele>239.19999999999999</ele>
        <time>2017-05-05T14:10:01Z</time>
      </trkpt>
      <trkpt lat="49.13742802105844" lon="8.911445997655392">
        <ele>239</ele>
        <time>2017-05-05T14:10:03Z</time>
      </trkpt>
      <trkpt lat="49.137458028271794" lon="8.911634003743529">
        <ele>238.40000000000001</ele>
        <time>2017-05-05T14:10:05Z</time>
      </trkpt>
      <trkpt lat="49.137465991079807" lon="8.911726959049702">
        <ele>238</ele>
        <time>2017-05-05T14:10:06Z</time>
      </trkpt>
      <trkpt lat="49.137466996908188" lon="8.911811029538512">
        <ele>237.59999999999999</ele>
        <time>2017-05-05T14:10:07Z</time>
      </trkpt>
      <trkpt lat="49.137486023828387" lon="8.911885041743517">
        <ele>237.19999999999999</ele>
        <time>2017-05-05T14:10:08Z</time>
      </trkpt>
      <trkpt lat="49.137498009949923" lon="8.911960981786251">
        <ele>237</ele>
        <time>2017-05-05T14:10:09Z</time>
      </trkpt>
      <trkpt lat="49.137604963034391" lon="8.912137001752853">
        <ele>236.59999999999999</ele>
        <time>2017-05-05T14:10:12Z</time>
      </trkpt>
      <trkpt lat="49.137777965515852" lon="8.912242026999593">
        <ele>236.19999999999999</ele>
        <time>2017-05-05T14:10:15Z</time>
      </trkpt>
      <trkpt lat="49.13796597160399" lon="8.912361972033978">
        <ele>236</ele>
        <time>2017-05-05T14:10:19Z</time>
      </trkpt>
      <trkpt lat="49.138070996850729" lon="8.912361972033978">
        <ele>235.59999999999999</ele>
        <time>2017-05-05T14:10:21Z</time>
      </trkpt>
      <trkpt lat="49.13813503459096" lon="8.912444030866027">
        <ele>235.19999999999999</ele>
        <time>2017-05-05T14:10:23Z</time>
      </trkpt>
      <trkpt lat="49.138152971863747" lon="8.912608986720443">
        <ele>234.40000000000001</ele>
        <time>2017-05-05T14:10:25Z</time>
      </trkpt>
      <trkpt lat="49.138161018490791" lon="8.912699008360505">
        <ele>234.19999999999999</ele>
        <time>2017-05-05T14:10:26Z</time>
      </trkpt>
      <trkpt lat="49.138170992955565" lon="8.912776038050652">
        <ele>233.80000000000001</ele>
        <time>2017-05-05T14:10:27Z</time>
      </trkpt>
      <trkpt lat="49.138165041804314" lon="8.912844015285373">
        <ele>233.80000000000001</ele>
        <time>2017-05-05T14:10:28Z</time>
      </trkpt>
      <trkpt lat="49.138136962428689" lon="8.912969995290041">
        <ele>233.40000000000001</ele>
        <time>2017-05-05T14:10:30Z</time>
      </trkpt>
      <trkpt lat="49.138107039034367" lon="8.913092035800219">
        <ele>233.19999999999999</ele>
        <time>2017-05-05T14:10:32Z</time>
      </trkpt>
      <trkpt lat="49.138117013499141" lon="8.913223966956139">
        <ele>233.19999999999999</ele>
        <time>2017-05-05T14:10:34Z</time>
      </trkpt>
      <trkpt lat="49.138199994340539" lon="8.913323963060975">
        <ele>233.19999999999999</ele>
        <time>2017-05-05T14:10:36Z</time>
      </trkpt>
      <trkpt lat="49.138314994052052" lon="8.913374003022909">
        <ele>233.19999999999999</ele>
        <time>2017-05-05T14:10:38Z</time>
      </trkpt>
      <trkpt lat="49.13843602873385" lon="8.913415996357799">
        <ele>233</ele>
        <time>2017-05-05T14:10:40Z</time>
      </trkpt>
      <trkpt lat="49.138499982655048" lon="8.913423037156463">
        <ele>233</ele>
        <time>2017-05-05T14:10:41Z</time>
      </trkpt>
      <trkpt lat="49.138669967651367" lon="8.913352964445949">
        <ele>233</ele>
        <time>2017-05-05T14:10:44Z</time>
      </trkpt>
      <trkpt lat="49.138793013989925" lon="8.913158001378179">
        <ele>233.19999999999999</ele>
        <time>2017-05-05T14:10:47Z</time>
      </trkpt>
      <trkpt lat="49.138868032023311" lon="8.912891959771514">
        <ele>233.19999999999999</ele>
        <time>2017-05-05T14:10:50Z</time>
      </trkpt>
      <trkpt lat="49.138915976509452" lon="8.912698002532125">
        <ele>233.40000000000001</ele>
        <time>2017-05-05T14:10:52Z</time>
      </trkpt>
      <trkpt lat="49.139013038948178" lon="8.91230002976954">
        <ele>233.40000000000001</ele>
        <time>2017-05-05T14:10:56Z</time>
      </trkpt>
      <trkpt lat="49.139101970940828" lon="8.91204496845603">
        <ele>233.59999999999999</ele>
        <time>2017-05-05T14:10:59Z</time>
      </trkpt>
      <trkpt lat="49.139274973422289" lon="8.911640038713813">
        <ele>233.80000000000001</ele>
        <time>2017-05-05T14:11:04Z</time>
      </trkpt>
      <trkpt lat="49.139314033091068" lon="8.911558985710144">
        <ele>233.80000000000001</ele>
        <time>2017-05-05T14:11:05Z</time>
      </trkpt>
      <trkpt lat="49.139475971460342" lon="8.911406015977264">
        <ele>233.80000000000001</ele>
        <time>2017-05-05T14:11:08Z</time>
      </trkpt>
      <trkpt lat="49.139648973941803" lon="8.91142001375556">
        <ele>233.80000000000001</ele>
        <time>2017-05-05T14:11:11Z</time>
      </trkpt>
      <trkpt lat="49.139763973653316" lon="8.911625035107136">
        <ele>233.80000000000001</ele>
        <time>2017-05-05T14:11:14Z</time>
      </trkpt>
      <trkpt lat="49.139817031100392" lon="8.911905996501446">
        <ele>234</ele>
        <time>2017-05-05T14:11:17Z</time>
      </trkpt>
      <trkpt lat="49.139830023050308" lon="8.912002975121141">
        <ele>234</ele>
        <time>2017-05-05T14:11:18Z</time>
      </trkpt>
      <trkpt lat="49.139858018606901" lon="8.91260202974081">
        <ele>234.19999999999999</ele>
        <time>2017-05-05T14:11:24Z</time>
      </trkpt>
      <trkpt lat="49.139885008335114" lon="8.913248023018241">
        <ele>233.59999999999999</ele>
        <time>2017-05-05T14:11:30Z</time>
      </trkpt>
      <trkpt lat="49.139893976971507" lon="8.913476010784507">
        <ele>233.40000000000001</ele>
        <time>2017-05-05T14:11:32Z</time>
      </trkpt>
      <trkpt lat="49.139915015548468" lon="8.914042040705681">
        <ele>233</ele>
        <time>2017-05-05T14:11:37Z</time>
      </trkpt>
      <trkpt lat="49.1399219725281" lon="8.914266005158424">
        <ele>233</ele>
        <time>2017-05-05T14:11:39Z</time>
      </trkpt>
      <trkpt lat="49.139948962256312" lon="8.915032027289271">
        <ele>232.80000000000001</ele>
        <time>2017-05-05T14:11:46Z</time>
      </trkpt>
      <trkpt lat="49.140030015259981" lon="8.9157800283283">
        <ele>232.40000000000001</ele>
        <time>2017-05-05T14:11:53Z</time>
      </trkpt>
      <trkpt lat="49.140123976394534" lon="8.916387967765331">
        <ele>232.59999999999999</ele>
        <time>2017-05-05T14:11:59Z</time>
      </trkpt>
      <trkpt lat="49.140239981934428" lon="8.917079977691174">
        <ele>233</ele>
        <time>2017-05-05T14:12:06Z</time>
      </trkpt>
      <trkpt lat="49.140258003026247" lon="8.9171770401299">
        <ele>233</ele>
        <time>2017-05-05T14:12:07Z</time>
      </trkpt>
      <trkpt lat="49.140321034938097" lon="8.917656987905502">
        <ele>233.19999999999999</ele>
        <time>2017-05-05T14:12:12Z</time>
      </trkpt>
      <trkpt lat="49.140330003574491" lon="8.917757989838719">
        <ele>233.19999999999999</ele>
        <time>2017-05-05T14:12:13Z</time>
      </trkpt>
      <trkpt lat="49.140379037708044" lon="8.918365007266402">
        <ele>233.40000000000001</ele>
        <time>2017-05-05T14:12:19Z</time>
      </trkpt>
      <trkpt lat="49.140434022992849" lon="8.919077971950173">
        <ele>233.19999999999999</ele>
        <time>2017-05-05T14:12:26Z</time>
      </trkpt>
      <trkpt lat="49.140506023541093" lon="8.919786997139454">
        <ele>232.59999999999999</ele>
        <time>2017-05-05T14:12:33Z</time>
      </trkpt>
      <trkpt lat="49.140539970248938" lon="8.920162003487349">
        <ele>232.59999999999999</ele>
        <time>2017-05-05T14:12:37Z</time>
      </trkpt>
      <trkpt lat="49.140567965805531" lon="8.920361995697022">
        <ele>232.40000000000001</ele>
        <time>2017-05-05T14:12:39Z</time>
      </trkpt>
      <trkpt lat="49.140642983838916" lon="8.920969013124704">
        <ele>232.19999999999999</ele>
        <time>2017-05-05T14:12:45Z</time>
      </trkpt>
      <trkpt lat="49.140719007700682" lon="8.921571001410484">
        <ele>232.19999999999999</ele>
        <time>2017-05-05T14:12:51Z</time>
      </trkpt>
      <trkpt lat="49.140826966613531" lon="8.922371976077557">
        <ele>232.19999999999999</ele>
        <time>2017-05-05T14:12:59Z</time>
      </trkpt>
      <trkpt lat="49.140984965488315" lon="8.923174040392041">
        <ele>231.80000000000001</ele>
        <time>2017-05-05T14:13:07Z</time>
      </trkpt>
      <trkpt lat="49.141137013211846" lon="8.923981972038746">
        <ele>232.40000000000001</ele>
        <time>2017-05-05T14:13:15Z</time>
      </trkpt>
      <trkpt lat="49.141291994601488" lon="8.924284977838397">
        <ele>232.59999999999999</ele>
        <time>2017-05-05T14:13:19Z</time>
      </trkpt>
      <trkpt lat="49.14157303981483" lon="8.924813037738204">
        <ele>232.19999999999999</ele>
        <time>2017-05-05T14:13:26Z</time>
      </trkpt>
      <trkpt lat="49.141964977607131" lon="8.925379989668727">
        <ele>232</ele>
        <time>2017-05-05T14:13:34Z</time>
      </trkpt>
      <trkpt lat="49.142406033352017" lon="8.925959011539817">
        <ele>232.40000000000001</ele>
        <time>2017-05-05T14:13:43Z</time>
      </trkpt>
      <trkpt lat="49.1424569953233" lon="8.926017014309764">
        <ele>232.40000000000001</ele>
        <time>2017-05-05T14:13:44Z</time>
      </trkpt>
      <trkpt lat="49.142823033034801" lon="8.926425967365503">
        <ele>232.40000000000001</ele>
        <time>2017-05-05T14:13:51Z</time>
      </trkpt>
      <trkpt lat="49.143301974982023" lon="8.926930977031589">
        <ele>232.80000000000001</ele>
        <time>2017-05-05T14:14:00Z</time>
      </trkpt>
      <trkpt lat="49.143803967162967" lon="8.927385024726391">
        <ele>232.59999999999999</ele>
        <time>2017-05-05T14:14:09Z</time>
      </trkpt>
      <trkpt lat="49.144317023456097" lon="8.927796995267272">
        <ele>232.80000000000001</ele>
        <time>2017-05-05T14:14:18Z</time>
      </trkpt>
      <trkpt lat="49.144376032054424" lon="8.927842006087303">
        <ele>232.80000000000001</ele>
        <time>2017-05-05T14:14:19Z</time>
      </trkpt>
      <trkpt lat="49.144903002306819" lon="8.928253976628184">
        <ele>232.59999999999999</ele>
        <time>2017-05-05T14:14:28Z</time>
      </trkpt>
      <trkpt lat="49.14542100392282" lon="8.928643986582756">
        <ele>232.59999999999999</ele>
        <time>2017-05-05T14:14:37Z</time>
      </trkpt>
      <trkpt lat="49.145481018349528" lon="8.928686985746026">
        <ele>232.59999999999999</ele>
        <time>2017-05-05T14:14:38Z</time>
      </trkpt>
      <trkpt lat="49.146008994430304" lon="8.929105997085571">
        <ele>232.80000000000001</ele>
        <time>2017-05-05T14:14:47Z</time>
      </trkpt>
      <trkpt lat="49.146126005798578" lon="8.929199036210775">
        <ele>232.59999999999999</ele>
        <time>2017-05-05T14:14:49Z</time>
      </trkpt>
      <trkpt lat="49.146578963845968" lon="8.929588962346315">
        <ele>232</ele>
        <time>2017-05-05T14:14:57Z</time>
      </trkpt>
      <trkpt lat="49.146626992151141" lon="8.92965903505683">
        <ele>232.19999999999999</ele>
        <time>2017-05-05T14:14:58Z</time>
      </trkpt>
      <trkpt lat="49.147036029025912" lon="8.930318020284176">
        <ele>231.59999999999999</ele>
        <time>2017-05-05T14:15:07Z</time>
      </trkpt>
      <trkpt lat="49.147431990131736" lon="8.930969964712858">
        <ele>232</ele>
        <time>2017-05-05T14:15:16Z</time>
      </trkpt>
      <trkpt lat="49.147522011771798" lon="8.931118994951248">
        <ele>232</ele>
        <time>2017-05-05T14:15:18Z</time>
      </trkpt>
      <trkpt lat="49.147928031161427" lon="8.93176699988544">
        <ele>232.40000000000001</ele>
        <time>2017-05-05T14:15:27Z</time>
      </trkpt>
      <trkpt lat="49.147971030324697" lon="8.931837994605303">
        <ele>232.40000000000001</ele>
        <time>2017-05-05T14:15:28Z</time>
      </trkpt>
      <trkpt lat="49.148372020572424" lon="8.932492034509778">
        <ele>232</ele>
        <time>2017-05-05T14:15:37Z</time>
      </trkpt>
      <trkpt lat="49.148418959230185" lon="8.932565040886402">
        <ele>231.80000000000001</ele>
        <time>2017-05-05T14:15:38Z</time>
      </trkpt>
      <trkpt lat="49.148653987795115" lon="8.932924959808588">
        <ele>231.40000000000001</ele>
        <time>2017-05-05T14:15:43Z</time>
      </trkpt>
      <trkpt lat="49.14883797056973" lon="8.933217991143465">
        <ele>231.40000000000001</ele>
        <time>2017-05-05T14:15:47Z</time>
      </trkpt>
      <trkpt lat="49.149239966645837" lon="8.933861972764134">
        <ele>231.59999999999999</ele>
        <time>2017-05-05T14:15:56Z</time>
      </trkpt>
      <trkpt lat="49.149421015754342" lon="8.934143017977476">
        <ele>231.59999999999999</ele>
        <time>2017-05-05T14:16:00Z</time>
      </trkpt>
      <trkpt lat="49.149740030989051" lon="8.934501009061933">
        <ele>231.59999999999999</ele>
        <time>2017-05-05T14:16:06Z</time>
      </trkpt>
      <trkpt lat="49.150202041491866" lon="8.934913985431194">
        <ele>231.59999999999999</ele>
        <time>2017-05-05T14:16:14Z</time>
      </trkpt>
      <trkpt lat="49.150587022304535" lon="8.935059998184443">
        <ele>231.80000000000001</ele>
        <time>2017-05-05T14:16:20Z</time>
      </trkpt>
      <trkpt lat="49.150905031710863" lon="8.93516200594604">
        <ele>232.40000000000001</ele>
        <time>2017-05-05T14:16:25Z</time>
      </trkpt>
      <trkpt lat="49.151308033615351" lon="8.935297038406134">
        <ele>232.80000000000001</ele>
        <time>2017-05-05T14:16:31Z</time>
      </trkpt>
      <trkpt lat="49.151710029691458" lon="8.935466017574072">
        <ele>233</ele>
        <time>2017-05-05T14:16:37Z</time>
      </trkpt>
      <trkpt lat="49.151766020804644" lon="8.93552795983851">
        <ele>232.80000000000001</ele>
        <time>2017-05-05T14:16:38Z</time>
      </trkpt>
      <trkpt lat="49.151944974437356" lon="8.935852004215121">
        <ele>232.59999999999999</ele>
        <time>2017-05-05T14:16:42Z</time>
      </trkpt>
      <trkpt lat="49.152330039069057" lon="8.936561029404402">
        <ele>232.59999999999999</ele>
        <time>2017-05-05T14:16:51Z</time>
      </trkpt>
      <trkpt lat="49.152411008253694" lon="8.936717016622424">
        <ele>232.59999999999999</ele>
        <time>2017-05-05T14:16:53Z</time>
      </trkpt>
      <trkpt lat="49.152476973831654" lon="8.936893036589027">
        <ele>232.59999999999999</ele>
        <time>2017-05-05T14:16:55Z</time>
      </trkpt>
      <trkpt lat="49.152528019621968" lon="8.937095040455461">
        <ele>232.40000000000001</ele>
        <time>2017-05-05T14:16:57Z</time>
      </trkpt>
      <trkpt lat="49.152577975764871" lon="8.937301989644766">
        <ele>232</ele>
        <time>2017-05-05T14:16:59Z</time>
      </trkpt>
      <trkpt lat="49.152651987969875" lon="8.937495024874806">
        <ele>231.40000000000001</ele>
        <time>2017-05-05T14:17:01Z</time>
      </trkpt>
      <trkpt lat="49.152702027931809" lon="8.937575994059444">
        <ele>231.19999999999999</ele>
        <time>2017-05-05T14:17:02Z</time>
      </trkpt>
      <trkpt lat="49.152942001819611" lon="8.937799036502838">
        <ele>231</ele>
        <time>2017-05-05T14:17:06Z</time>
      </trkpt>
      <trkpt lat="49.153452962636948" lon="8.93814898096025">
        <ele>231.19999999999999</ele>
        <time>2017-05-05T14:17:14Z</time>
      </trkpt>
      <trkpt lat="49.153927965089679" lon="8.938397001475096">
        <ele>231.19999999999999</ele>
        <time>2017-05-05T14:17:21Z</time>
      </trkpt>
      <trkpt lat="49.15444303303957" lon="8.938657008111477">
        <ele>231.40000000000001</ele>
        <time>2017-05-05T14:17:29Z</time>
      </trkpt>
      <trkpt lat="49.15450899861753" lon="8.938672011718154">
        <ele>231.40000000000001</ele>
        <time>2017-05-05T14:17:30Z</time>
      </trkpt>
      <trkpt lat="49.154834970831871" lon="8.938676035031676">
        <ele>231.80000000000001</ele>
        <time>2017-05-05T14:17:35Z</time>
      </trkpt>
      <trkpt lat="49.155248031020164" lon="8.938722973689437">
        <ele>232</ele>
        <time>2017-05-05T14:17:41Z</time>
      </trkpt>
      <trkpt lat="49.155808025971055" lon="8.93870797008276">
        <ele>231.59999999999999</ele>
        <time>2017-05-05T14:17:49Z</time>
      </trkpt>
      <trkpt lat="49.156302977353334" lon="8.938572015613318">
        <ele>231.40000000000001</ele>
        <time>2017-05-05T14:17:56Z</time>
      </trkpt>
      <trkpt lat="49.156563989818096" lon="8.938372023403645">
        <ele>231.40000000000001</ele>
        <time>2017-05-05T14:18:00Z</time>
      </trkpt>
      <trkpt lat="49.156694998964667" lon="8.938114028424025">
        <ele>231</ele>
        <time>2017-05-05T14:18:03Z</time>
      </trkpt>
      <trkpt lat="49.156759958714247" lon="8.937923004850745">
        <ele>230.80000000000001</ele>
        <time>2017-05-05T14:18:05Z</time>
      </trkpt>
      <trkpt lat="49.156885016709566" lon="8.937554033473134">
        <ele>231</ele>
        <time>2017-05-05T14:18:09Z</time>
      </trkpt>
      <trkpt lat="49.157002028077841" lon="8.937284974381328">
        <ele>231</ele>
        <time>2017-05-05T14:18:12Z</time>
      </trkpt>
      <trkpt lat="49.157051984220743" lon="8.937210962176323">
        <ele>231</ele>
        <time>2017-05-05T14:18:13Z</time>
      </trkpt>
      <trkpt lat="49.15734501555562" lon="8.936885995790362">
        <ele>230.80000000000001</ele>
        <time>2017-05-05T14:18:18Z</time>
      </trkpt>
      <trkpt lat="49.157691020518541" lon="8.936521969735622">
        <ele>231.19999999999999</ele>
        <time>2017-05-05T14:18:24Z</time>
      </trkpt>
      <trkpt lat="49.157746005803347" lon="8.936462039127946">
        <ele>231.19999999999999</ele>
        <time>2017-05-05T14:18:25Z</time>
      </trkpt>
      <trkpt lat="49.158041970804334" lon="8.93621301278472">
        <ele>232</ele>
        <time>2017-05-05T14:18:30Z</time>
      </trkpt>
      <trkpt lat="49.158170968294144" lon="8.936139000579715">
        <ele>232.19999999999999</ele>
        <time>2017-05-05T14:18:32Z</time>
      </trkpt>
      <trkpt lat="49.158498030155897" lon="8.935986030846834">
        <ele>232.40000000000001</ele>
        <time>2017-05-05T14:18:37Z</time>
      </trkpt>
      <trkpt lat="49.158907989040017" lon="8.935911012813449">
        <ele>232.40000000000001</ele>
        <time>2017-05-05T14:18:43Z</time>
      </trkpt>
      <trkpt lat="49.159487010911107" lon="8.935897015035152">
        <ele>232.59999999999999</ele>
        <time>2017-05-05T14:18:51Z</time>
      </trkpt>
      <trkpt lat="49.159778030589223" lon="8.935901960358024">
        <ele>231.80000000000001</ele>
        <time>2017-05-05T14:18:55Z</time>
      </trkpt>
      <trkpt lat="49.159914990887046" lon="8.935958035290241">
        <ele>232</ele>
        <time>2017-05-05T14:18:57Z</time>
      </trkpt>
      <trkpt lat="49.160108026117086" lon="8.936116034165025">
        <ele>232.40000000000001</ele>
        <time>2017-05-05T14:19:00Z</time>
      </trkpt>
      <trkpt lat="49.160225037485361" lon="8.93623698502779">
        <ele>232.59999999999999</ele>
        <time>2017-05-05T14:19:02Z</time>
      </trkpt>
      <trkpt lat="49.160682018846273" lon="8.936731014400721">
        <ele>232.80000000000001</ele>
        <time>2017-05-05T14:19:10Z</time>
      </trkpt>
      <trkpt lat="49.161030035465956" lon="8.937092022970319">
        <ele>232.19999999999999</ele>
        <time>2017-05-05T14:19:16Z</time>
      </trkpt>
      <trkpt lat="49.161416022107005" lon="8.937415983527899">
        <ele>231.59999999999999</ele>
        <time>2017-05-05T14:19:22Z</time>
      </trkpt>
      <trkpt lat="49.16177099570632" lon="8.937607007101178">
        <ele>231</ele>
        <time>2017-05-05T14:19:27Z</time>
      </trkpt>
      <trkpt lat="49.16183796711266" lon="8.937640031799674">
        <ele>231</ele>
        <time>2017-05-05T14:19:28Z</time>
      </trkpt>
      <trkpt lat="49.162379018962383" lon="8.937896015122533">
        <ele>231.59999999999999</ele>
        <time>2017-05-05T14:19:36Z</time>
      </trkpt>
      <trkpt lat="49.162580017000437" lon="8.937981007620692">
        <ele>231.40000000000001</ele>
        <time>2017-05-05T14:19:39Z</time>
      </trkpt>
      <trkpt lat="49.16271697729826" lon="8.938003974035382">
        <ele>231.59999999999999</ele>
        <time>2017-05-05T14:19:41Z</time>
      </trkpt>
      <trkpt lat="49.1629290394485" lon="8.938007997348905">
        <ele>231.59999999999999</ele>
        <time>2017-05-05T14:19:44Z</time>
      </trkpt>
      <trkpt lat="49.163062982261181" lon="8.937981007620692">
        <ele>231.80000000000001</ele>
        <time>2017-05-05T14:19:46Z</time>
      </trkpt>
      <trkpt lat="49.163465984165668" lon="8.937819991260767">
        <ele>231.80000000000001</ele>
        <time>2017-05-05T14:19:52Z</time>
      </trkpt>
      <trkpt lat="49.1639409866184" lon="8.937568031251431">
        <ele>231.40000000000001</ele>
        <time>2017-05-05T14:19:59Z</time>
      </trkpt>
      <trkpt lat="49.164213985204697" lon="8.93758999183774">
        <ele>231.19999999999999</ele>
        <time>2017-05-05T14:20:03Z</time>
      </trkpt>
      <trkpt lat="49.164281040430069" lon="8.937621004879475">
        <ele>231.40000000000001</ele>
        <time>2017-05-05T14:20:04Z</time>
      </trkpt>
      <trkpt lat="49.164410037919879" lon="8.937676995992661">
        <ele>231.40000000000001</ele>
        <time>2017-05-05T14:20:06Z</time>
      </trkpt>
      <trkpt lat="49.164544986560941" lon="8.93771898932755">
        <ele>231.40000000000001</ele>
        <time>2017-05-05T14:20:08Z</time>
      </trkpt>
      <trkpt lat="49.164612041786313" lon="8.937731981277466">
        <ele>231.40000000000001</ele>
        <time>2017-05-05T14:20:09Z</time>
      </trkpt>
      <trkpt lat="49.164874982088804" lon="8.937704991549254">
        <ele>231.80000000000001</ele>
        <time>2017-05-05T14:20:13Z</time>
      </trkpt>
      <trkpt lat="49.165178993716836" lon="8.937633996829391">
        <ele>232</ele>
        <time>2017-05-05T14:20:18Z</time>
      </trkpt>
      <trkpt lat="49.165240013971925" lon="8.93761002458632">
        <ele>232</ele>
        <time>2017-05-05T14:20:19Z</time>
      </trkpt>
      <trkpt lat="49.165503960102797" lon="8.937488989904523">
        <ele>232.40000000000001</ele>
        <time>2017-05-05T14:20:23Z</time>
      </trkpt>
      <trkpt lat="49.165846025571227" lon="8.937367033213377">
        <ele>232.80000000000001</ele>
        <time>2017-05-05T14:20:28Z</time>
      </trkpt>
      <trkpt lat="49.166249027475715" lon="8.93722303211689">
        <ele>233</ele>
        <time>2017-05-05T14:20:34Z</time>
      </trkpt>
      <trkpt lat="49.166591009125113" lon="8.937083976343274">
        <ele>232.40000000000001</ele>
        <time>2017-05-05T14:20:39Z</time>
      </trkpt>
      <trkpt lat="49.166730986908078" lon="8.93700803630054">
        <ele>232</ele>
        <time>2017-05-05T14:20:41Z</time>
      </trkpt>
      <trkpt lat="49.167062994092703" lon="8.936692960560322">
        <ele>231.40000000000001</ele>
        <time>2017-05-05T14:20:46Z</time>
      </trkpt>
      <trkpt lat="49.167381003499031" lon="8.936178982257843">
        <ele>231</ele>
        <time>2017-05-05T14:20:52Z</time>
      </trkpt>
      <trkpt lat="49.167431965470314" lon="8.936092983931303">
        <ele>231</ele>
        <time>2017-05-05T14:20:53Z</time>
      </trkpt>
      <trkpt lat="49.167769001796842" lon="8.9355250261724">
        <ele>231.19999999999999</ele>
        <time>2017-05-05T14:21:00Z</time>
      </trkpt>
      <trkpt lat="49.167947033420205" lon="8.93550499342382">
        <ele>231.40000000000001</ele>
        <time>2017-05-05T14:21:03Z</time>
      </trkpt>
      <trkpt lat="49.168162029236555" lon="8.935637008398771">
        <ele>230.19999999999999</ele>
        <time>2017-05-05T14:21:07Z</time>
      </trkpt>
      <trkpt lat="49.168251967057586" lon="8.935579005628824">
        <ele>229.80000000000001</ele>
        <time>2017-05-05T14:21:09Z</time>
      </trkpt>
      <trkpt lat="49.168294966220856" lon="8.93554899841547">
        <ele>229.59999999999999</ele>
        <time>2017-05-05T14:21:10Z</time>
      </trkpt>
      <trkpt lat="49.168452965095639" lon="8.93559099175036">
        <ele>229</ele>
        <time>2017-05-05T14:21:13Z</time>
      </trkpt>
      <trkpt lat="49.168529994785786" lon="8.935715965926647">
        <ele>229</ele>
        <time>2017-05-05T14:21:15Z</time>
      </trkpt>
      <trkpt lat="49.168566036969423" lon="8.935777992010117">
        <ele>229.19999999999999</ele>
        <time>2017-05-05T14:21:16Z</time>
      </trkpt>
      <trkpt lat="49.168601995334029" lon="8.935845969244838">
        <ele>229.19999999999999</ele>
        <time>2017-05-05T14:21:17Z</time>
      </trkpt>
      <trkpt lat="49.168696962296963" lon="8.936094995588064">
        <ele>229.80000000000001</ele>
        <time>2017-05-05T14:21:20Z</time>
      </trkpt>
      <trkpt lat="49.168816991150379" lon="8.936456004157662">
        <ele>230</ele>
        <time>2017-05-05T14:21:24Z</time>
      </trkpt>
      <trkpt lat="49.168954035267234" lon="8.936805026605725">
        <ele>230.59999999999999</ele>
        <time>2017-05-05T14:21:28Z</time>
      </trkpt>
      <trkpt lat="49.169132988899946" lon="8.937249016016722">
        <ele>230.59999999999999</ele>
        <time>2017-05-05T14:21:33Z</time>
      </trkpt>
      <trkpt lat="49.169201971963048" lon="8.937414977699518">
        <ele>230.19999999999999</ele>
        <time>2017-05-05T14:21:35Z</time>
      </trkpt>
      <trkpt lat="49.169347984716296" lon="8.937723012641072">
        <ele>229.80000000000001</ele>
        <time>2017-05-05T14:21:39Z</time>
      </trkpt>
      <trkpt lat="49.169446974992752" lon="8.937799958512187">
        <ele>229.80000000000001</ele>
        <time>2017-05-05T14:21:41Z</time>
      </trkpt>
      <trkpt lat="49.16961302049458" lon="8.937699040398002">
        <ele>230</ele>
        <time>2017-05-05T14:21:44Z</time>
      </trkpt>
      <trkpt lat="49.169902028515935" lon="8.937453031539917">
        <ele>229.59999999999999</ele>
        <time>2017-05-05T14:21:49Z</time>
      </trkpt>
      <trkpt lat="49.169968999922276" lon="8.937424030154944">
        <ele>229.59999999999999</ele>
        <time>2017-05-05T14:21:50Z</time>
      </trkpt>
      <trkpt lat="49.170249039307237" lon="8.937383964657784">
        <ele>229.40000000000001</ele>
        <time>2017-05-05T14:21:54Z</time>
      </trkpt>
      <trkpt lat="49.170317016541958" lon="8.937397040426731">
        <ele>229.40000000000001</ele>
        <time>2017-05-05T14:21:55Z</time>
      </trkpt>
      <trkpt lat="49.170447019860148" lon="8.937442973256111">
        <ele>229.59999999999999</ele>
        <time>2017-05-05T14:21:57Z</time>
      </trkpt>
      <trkpt lat="49.170565959066153" lon="8.937535006552935">
        <ele>229.59999999999999</ele>
        <time>2017-05-05T14:21:59Z</time>
      </trkpt>
      <trkpt lat="49.17077399790287" lon="8.937725024297833">
        <ele>230</ele>
        <time>2017-05-05T14:22:03Z</time>
      </trkpt>
      <trkpt lat="49.170829989016056" lon="8.937736004590988">
        <ele>230.19999999999999</ele>
        <time>2017-05-05T14:22:04Z</time>
      </trkpt>
      <trkpt lat="49.170997040346265" lon="8.937629973515868">
        <ele>230.59999999999999</ele>
        <time>2017-05-05T14:22:07Z</time>
      </trkpt>
      <trkpt lat="49.171430971473455" lon="8.937319004908204">
        <ele>229.80000000000001</ele>
        <time>2017-05-05T14:22:14Z</time>
      </trkpt>
      <trkpt lat="49.171855011954904" lon="8.936969982460141">
        <ele>229.80000000000001</ele>
        <time>2017-05-05T14:22:21Z</time>
      </trkpt>
      <trkpt lat="49.172142008319497" lon="8.936697989702225">
        <ele>230</ele>
        <time>2017-05-05T14:22:26Z</time>
      </trkpt>
      <trkpt lat="49.172476027160883" lon="8.936331029981375">
        <ele>230.19999999999999</ele>
        <time>2017-05-05T14:22:32Z</time>
      </trkpt>
      <trkpt lat="49.172766041010618" lon="8.936044033616781">
        <ele>230.19999999999999</ele>
        <time>2017-05-05T14:22:37Z</time>
      </trkpt>
      <trkpt lat="49.172822032123804" lon="8.935986030846834">
        <ele>230.40000000000001</ele>
        <time>2017-05-05T14:22:38Z</time>
      </trkpt>
      <trkpt lat="49.173177005723119" lon="8.935619993135333">
        <ele>229.80000000000001</ele>
        <time>2017-05-05T14:22:44Z</time>
      </trkpt>
      <trkpt lat="49.173537008464336" lon="8.935308018699288">
        <ele>229.40000000000001</ele>
        <time>2017-05-05T14:22:50Z</time>
      </trkpt>
      <trkpt lat="49.17386800982058" lon="8.935048012062907">
        <ele>229.59999999999999</ele>
        <time>2017-05-05T14:22:55Z</time>
      </trkpt>
      <trkpt lat="49.174260031431913" lon="8.934794962406158">
        <ele>229.59999999999999</ele>
        <time>2017-05-05T14:23:01Z</time>
      </trkpt>
      <trkpt lat="49.174588015303016" lon="8.934676023200154">
        <ele>230</ele>
        <time>2017-05-05T14:23:06Z</time>
      </trkpt>
      <trkpt lat="49.174788007512689" lon="8.934649033471942">
        <ele>230.19999999999999</ele>
        <time>2017-05-05T14:23:09Z</time>
      </trkpt>
      <trkpt lat="49.174918010830879" lon="8.934658002108336">
        <ele>230.40000000000001</ele>
        <time>2017-05-05T14:23:11Z</time>
      </trkpt>
      <trkpt lat="49.175255969166756" lon="8.934769984334707">
        <ele>230.19999999999999</ele>
        <time>2017-05-05T14:23:16Z</time>
      </trkpt>
      <trkpt lat="49.175575990229845" lon="8.935023033991456">
        <ele>230.19999999999999</ele>
        <time>2017-05-05T14:23:21Z</time>
      </trkpt>
      <trkpt lat="49.175810012966394" lon="8.935254039242864">
        <ele>229.80000000000001</ele>
        <time>2017-05-05T14:23:25Z</time>
      </trkpt>
      <trkpt lat="49.175923001021147" lon="8.935387982055545">
        <ele>229.40000000000001</ele>
        <time>2017-05-05T14:23:27Z</time>
      </trkpt>
      <trkpt lat="49.176241010427475" lon="8.935819985345006">
        <ele>229</ele>
        <time>2017-05-05T14:23:33Z</time>
      </trkpt>
      <trkpt lat="49.17651099152863" lon="8.936188034713268">
        <ele>229</ele>
        <time>2017-05-05T14:23:38Z</time>
      </trkpt>
      <trkpt lat="49.176619034260511" lon="8.936331029981375">
        <ele>229.19999999999999</ele>
        <time>2017-05-05T14:23:40Z</time>
      </trkpt>
      <trkpt lat="49.176844004541636" lon="8.936592964455485">
        <ele>229.40000000000001</ele>
        <time>2017-05-05T14:23:44Z</time>
      </trkpt>
      <trkpt lat="49.176907958462834" lon="8.936654990538955">
        <ele>229.40000000000001</ele>
        <time>2017-05-05T14:23:45Z</time>
      </trkpt>
      <trkpt lat="49.177074003964663" lon="8.936851965263486">
        <ele>229.40000000000001</ele>
        <time>2017-05-05T14:23:48Z</time>
      </trkpt>
      <trkpt lat="49.177469965070486" lon="8.937306012958288">
        <ele>230</ele>
        <time>2017-05-05T14:23:55Z</time>
      </trkpt>
      <trkpt lat="49.177861986681819" lon="8.937753019854426">
        <ele>229.80000000000001</ele>
        <time>2017-05-05T14:24:02Z</time>
      </trkpt>
      <trkpt lat="49.178165998309851" lon="8.938116040080786">
        <ele>230.19999999999999</ele>
        <time>2017-05-05T14:24:08Z</time>
      </trkpt>
      <trkpt lat="49.178255014121532" lon="8.938218969851732">
        <ele>230.80000000000001</ele>
        <time>2017-05-05T14:24:10Z</time>
      </trkpt>
      <trkpt lat="49.178352998569608" lon="8.938295999541879">
        <ele>231.19999999999999</ele>
        <time>2017-05-05T14:24:12Z</time>
      </trkpt>
      <trkpt lat="49.178408989682794" lon="8.938313014805317">
        <ele>231.19999999999999</ele>
        <time>2017-05-05T14:24:13Z</time>
      </trkpt>
      <trkpt lat="49.178585009649396" lon="8.938250988721848">
        <ele>230.80000000000001</ele>
        <time>2017-05-05T14:24:16Z</time>
      </trkpt>
      <trkpt lat="49.178806962445378" lon="8.938186028972268">
        <ele>229.19999999999999</ele>
        <time>2017-05-05T14:24:19Z</time>
      </trkpt>
      <trkpt lat="49.178886003792286" lon="8.938180999830365">
        <ele>229.19999999999999</ele>
        <time>2017-05-05T14:24:20Z</time>
      </trkpt>
      <trkpt lat="49.179328987374902" lon="8.938187034800649">
        <ele>228.80000000000001</ele>
        <time>2017-05-05T14:24:26Z</time>
      </trkpt>
      <trkpt lat="49.179476005956531" lon="8.938233973458409">
        <ele>228.40000000000001</ele>
        <time>2017-05-05T14:24:28Z</time>
      </trkpt>
      <trkpt lat="49.179759984835982" lon="8.93834101036191">
        <ele>228</ele>
        <time>2017-05-05T14:24:32Z</time>
      </trkpt>
      <trkpt lat="49.180090986192226" lon="8.938423991203308">
        <ele>227.59999999999999</ele>
        <time>2017-05-05T14:24:37Z</time>
      </trkpt>
      <trkpt lat="49.180357027798891" lon="8.938450980931521">
        <ele>227.40000000000001</ele>
        <time>2017-05-05T14:24:41Z</time>
      </trkpt>
      <trkpt lat="49.180426010861993" lon="8.938451986759901">
        <ele>227.40000000000001</ele>
        <time>2017-05-05T14:24:42Z</time>
      </trkpt>
      <trkpt lat="49.180637989193201" lon="8.938435977324843">
        <ele>227.40000000000001</ele>
        <time>2017-05-05T14:24:45Z</time>
      </trkpt>
      <trkpt lat="49.18076497502625" lon="8.938344027847052">
        <ele>227.40000000000001</ele>
        <time>2017-05-05T14:24:47Z</time>
      </trkpt>
      <trkpt lat="49.180992962792516" lon="8.938172031193972">
        <ele>227.40000000000001</ele>
        <time>2017-05-05T14:24:51Z</time>
      </trkpt>
      <trkpt lat="49.181123971939087" lon="8.938205977901816">
        <ele>227.40000000000001</ele>
        <time>2017-05-05T14:24:53Z</time>
      </trkpt>
      <trkpt lat="49.181251963600516" lon="8.938244031742215">
        <ele>227.40000000000001</ele>
        <time>2017-05-05T14:24:55Z</time>
      </trkpt>
      <trkpt lat="49.181577013805509" lon="8.938313014805317">
        <ele>227</ele>
        <time>2017-05-05T14:25:00Z</time>
      </trkpt>
      <trkpt lat="49.181635016575456" lon="8.938292982056737">
        <ele>227</ele>
        <time>2017-05-05T14:25:01Z</time>
      </trkpt>
      <trkpt lat="49.181705005466938" lon="8.938164990395308">
        <ele>226.80000000000001</ele>
        <time>2017-05-05T14:25:03Z</time>
      </trkpt>
      <trkpt lat="49.18173199519515" lon="8.938079997897148">
        <ele>226.80000000000001</ele>
        <time>2017-05-05T14:25:04Z</time>
      </trkpt>
      <trkpt lat="49.18183802627027" lon="8.937733992934227">
        <ele>226.80000000000001</ele>
        <time>2017-05-05T14:25:08Z</time>
      </trkpt>
      <trkpt lat="49.181996025145054" lon="8.937254967167974">
        <ele>226.80000000000001</ele>
        <time>2017-05-05T14:25:13Z</time>
      </trkpt>
      <trkpt lat="49.182026032358408" lon="8.937155976891518">
        <ele>226.80000000000001</ele>
        <time>2017-05-05T14:25:14Z</time>
      </trkpt>
      <trkpt lat="49.182176990434527" lon="8.936663959175348">
        <ele>226.59999999999999</ele>
        <time>2017-05-05T14:25:19Z</time>
      </trkpt>
      <trkpt lat="49.182215966284275" lon="8.936568992212415">
        <ele>226.59999999999999</ele>
        <time>2017-05-05T14:25:20Z</time>
      </trkpt>
      <trkpt lat="49.182260977104306" lon="8.936490034684539">
        <ele>226.59999999999999</ele>
        <time>2017-05-05T14:25:21Z</time>
      </trkpt>
      <trkpt lat="49.182452000677586" lon="8.936388026922941">
        <ele>226.40000000000001</ele>
        <time>2017-05-05T14:25:24Z</time>
      </trkpt>
      <trkpt lat="49.182799011468887" lon="8.936265986412764">
        <ele>226.40000000000001</ele>
        <time>2017-05-05T14:25:29Z</time>
      </trkpt>
      <trkpt lat="49.18287000618875" lon="8.936242014169693">
        <ele>226.40000000000001</ele>
        <time>2017-05-05T14:25:30Z</time>
      </trkpt>
      <trkpt lat="49.183272002264857" lon="8.936048978939652">
        <ele>226.59999999999999</ele>
        <time>2017-05-05T14:25:36Z</time>
      </trkpt>
      <trkpt lat="49.183625970035791" lon="8.935901038348675">
        <ele>227</ele>
        <time>2017-05-05T14:25:41Z</time>
      </trkpt>
      <trkpt lat="49.184064008295536" lon="8.935745973140001">
        <ele>227</ele>
        <time>2017-05-05T14:25:47Z</time>
      </trkpt>
      <trkpt lat="49.184560971334577" lon="8.935576993972063">
        <ele>227</ele>
        <time>2017-05-05T14:25:54Z</time>
      </trkpt>
      <trkpt lat="49.184836987406015" lon="8.93548202700913">
        <ele>227.19999999999999</ele>
        <time>2017-05-05T14:25:58Z</time>
      </trkpt>
      <trkpt lat="49.184972019866109" lon="8.935433998703957">
        <ele>227.40000000000001</ele>
        <time>2017-05-05T14:26:00Z</time>
      </trkpt>
      <trkpt lat="49.185246024280787" lon="8.935339031741023">
        <ele>227.59999999999999</ele>
        <time>2017-05-05T14:26:04Z</time>
      </trkpt>
      <trkpt lat="49.185659000650048" lon="8.935241969302297">
        <ele>227.59999999999999</ele>
        <time>2017-05-05T14:26:10Z</time>
      </trkpt>
      <trkpt lat="49.185783974826336" lon="8.935235012322664">
        <ele>228</ele>
        <time>2017-05-05T14:26:12Z</time>
      </trkpt>
      <trkpt lat="49.185970975086093" lon="8.935177009552717">
        <ele>228.40000000000001</ele>
        <time>2017-05-05T14:26:15Z</time>
      </trkpt>
      <trkpt lat="49.186030989512801" lon="8.935154965147376">
        <ele>228.59999999999999</ele>
        <time>2017-05-05T14:26:16Z</time>
      </trkpt>
      <trkpt lat="49.186461986973882" lon="8.935018004849553">
        <ele>229.40000000000001</ele>
        <time>2017-05-05T14:26:23Z</time>
      </trkpt>
      <trkpt lat="49.18658796697855" lon="8.935051029548049">
        <ele>229.59999999999999</ele>
        <time>2017-05-05T14:26:25Z</time>
      </trkpt>
      <trkpt lat="49.186647981405258" lon="8.935071984305978">
        <ele>229.59999999999999</ele>
        <time>2017-05-05T14:26:26Z</time>
      </trkpt>
      <trkpt lat="49.186750994995236" lon="8.935022028163075">
        <ele>229.80000000000001</ele>
        <time>2017-05-05T14:26:28Z</time>
      </trkpt>
      <trkpt lat="49.186893990263343" lon="8.934874003753066">
        <ele>229.80000000000001</ele>
        <time>2017-05-05T14:26:31Z</time>
      </trkpt>
      <trkpt lat="49.18695299886167" lon="8.934854976832867">
        <ele>229.80000000000001</ele>
        <time>2017-05-05T14:26:32Z</time>
      </trkpt>
      <trkpt lat="49.18727695941925" lon="8.934752969071269">
        <ele>229.80000000000001</ele>
        <time>2017-05-05T14:26:37Z</time>
      </trkpt>
      <trkpt lat="49.187620030716062" lon="8.934693960472941">
        <ele>229.59999999999999</ele>
        <time>2017-05-05T14:26:42Z</time>
      </trkpt>
      <trkpt lat="49.18781298212707" lon="8.93466898240149">
        <ele>229.19999999999999</ele>
        <time>2017-05-05T14:26:45Z</time>
      </trkpt>
      <trkpt lat="49.187993025407195" lon="8.93462598323822">
        <ele>228.80000000000001</ele>
        <time>2017-05-05T14:26:48Z</time>
      </trkpt>
      <trkpt lat="49.18813400901854" lon="8.934606034308672">
        <ele>228.40000000000001</ele>
        <time>2017-05-05T14:26:51Z</time>
      </trkpt>
      <trkpt lat="49.188166027888656" lon="8.934584995731711">
        <ele>228.40000000000001</ele>
        <time>2017-05-05T14:26:52Z</time>
      </trkpt>
      <trkpt lat="49.18819603510201" lon="8.934540990740061">
        <ele>228</ele>
        <time>2017-05-05T14:26:54Z</time>
      </trkpt>
      <trkpt lat="49.188211960718036" lon="8.934507966041565">
        <ele>227.80000000000001</ele>
        <time>2017-05-05T14:26:56Z</time>
      </trkpt>
      <trkpt lat="49.188277004286647" lon="8.934425991028547">
        <ele>227.59999999999999</ele>
        <time>2017-05-05T14:27:01Z</time>
      </trkpt>
      <trkpt lat="49.188299970701337" lon="8.93438802100718">
        <ele>227.59999999999999</ele>
        <time>2017-05-05T14:27:02Z</time>
      </trkpt>
      <trkpt lat="49.188322015106678" lon="8.934332029893994">
        <ele>227.40000000000001</ele>
        <time>2017-05-05T14:27:03Z</time>
      </trkpt>
      <trkpt lat="49.188343975692987" lon="8.934262041002512">
        <ele>227.40000000000001</ele>
        <time>2017-05-05T14:27:04Z</time>
      </trkpt>
      <trkpt lat="49.188445983454585" lon="8.933950988575816">
        <ele>227.40000000000001</ele>
        <time>2017-05-05T14:27:08Z</time>
      </trkpt>
      <trkpt lat="49.188467022031546" lon="8.933867001906037">
        <ele>227.40000000000001</ele>
        <time>2017-05-05T14:27:09Z</time>
      </trkpt>
      <trkpt lat="49.188479008153081" lon="8.933777986094356">
        <ele>227.40000000000001</ele>
        <time>2017-05-05T14:27:10Z</time>
      </trkpt>
      <trkpt lat="49.188530975952744" lon="8.933408008888364">
        <ele>227.59999999999999</ele>
        <time>2017-05-05T14:27:14Z</time>
      </trkpt>
      <trkpt lat="49.188552014529705" lon="8.933214973658323">
        <ele>228</ele>
        <time>2017-05-05T14:27:16Z</time>
      </trkpt>
      <trkpt lat="49.188581015914679" lon="8.93301498144865">
        <ele>228</ele>
        <time>2017-05-05T14:27:18Z</time>
      </trkpt>
      <trkpt lat="49.1886489931494" lon="8.932406958192587">
        <ele>227.80000000000001</ele>
        <time>2017-05-05T14:27:24Z</time>
      </trkpt>
      <trkpt lat="49.188728034496307" lon="8.932272009551525">
        <ele>227.80000000000001</ele>
        <time>2017-05-05T14:27:26Z</time>
      </trkpt>
      <trkpt lat="49.188840016722679" lon="8.93221702426672">
        <ele>227.80000000000001</ele>
        <time>2017-05-05T14:27:28Z</time>
      </trkpt>
      <trkpt lat="49.1889079939574" lon="8.932202020660043">
        <ele>227.59999999999999</ele>
        <time>2017-05-05T14:27:29Z</time>
      </trkpt>
      <trkpt lat="49.188975971192122" lon="8.93219699151814">
        <ele>227.59999999999999</ele>
        <time>2017-05-05T14:27:30Z</time>
      </trkpt>
      <trkpt lat="49.18931501917541" lon="8.932206965982914">
        <ele>227.59999999999999</ele>
        <time>2017-05-05T14:27:35Z</time>
      </trkpt>
      <trkpt lat="49.18938098475337" lon="8.9322180300951">
        <ele>227.80000000000001</ele>
        <time>2017-05-05T14:27:36Z</time>
      </trkpt>
      <trkpt lat="49.189500007778406" lon="8.932263040915132">
        <ele>228</ele>
        <time>2017-05-05T14:27:38Z</time>
      </trkpt>
      <trkpt lat="49.189601009711623" lon="8.932339986786246">
        <ele>228</ele>
        <time>2017-05-05T14:27:40Z</time>
      </trkpt>
      <trkpt lat="49.189789015799761" lon="8.932551965117455">
        <ele>228</ele>
        <time>2017-05-05T14:27:44Z</time>
      </trkpt>
      <trkpt lat="49.189836960285902" lon="8.932603010907769">
        <ele>228</ele>
        <time>2017-05-05T14:27:45Z</time>
      </trkpt>
      <trkpt lat="49.190056985244155" lon="8.932804008945823">
        <ele>228</ele>
        <time>2017-05-05T14:27:49Z</time>
      </trkpt>
      <trkpt lat="49.190423022955656" lon="8.933087987825275">
        <ele>227</ele>
        <time>2017-05-05T14:27:55Z</time>
      </trkpt>
      <trkpt lat="49.190756035968661" lon="8.933245986700058">
        <ele>226.80000000000001</ele>
        <time>2017-05-05T14:28:00Z</time>
      </trkpt>
      <trkpt lat="49.190896013751626" lon="8.933295020833612">
        <ele>227</ele>
        <time>2017-05-05T14:28:02Z</time>
      </trkpt>
      <trkpt lat="49.191024005413055" lon="8.933310024440289">
        <ele>227</ele>
        <time>2017-05-05T14:28:04Z</time>
      </trkpt>
      <trkpt lat="49.191333968192339" lon="8.933285968378186">
        <ele>227.19999999999999</ele>
        <time>2017-05-05T14:28:09Z</time>
      </trkpt>
      <trkpt lat="49.191597998142242" lon="8.933208016678691">
        <ele>227.19999999999999</ele>
        <time>2017-05-05T14:28:14Z</time>
      </trkpt>
      <trkpt lat="49.191811988130212" lon="8.933184966444969">
        <ele>227.19999999999999</ele>
        <time>2017-05-05T14:28:18Z</time>
      </trkpt>
      <trkpt lat="49.191936040297151" lon="8.933193013072014">
        <ele>227.19999999999999</ele>
        <time>2017-05-05T14:28:20Z</time>
      </trkpt>
      <trkpt lat="49.19200100004673" lon="8.933227965608239">
        <ele>227.40000000000001</ele>
        <time>2017-05-05T14:28:21Z</time>
      </trkpt>
      <trkpt lat="49.192167967557907" lon="8.933365009725094">
        <ele>227.80000000000001</ele>
        <time>2017-05-05T14:28:24Z</time>
      </trkpt>
      <trkpt lat="49.192275004461408" lon="8.933434998616576">
        <ele>227.80000000000001</ele>
        <time>2017-05-05T14:28:26Z</time>
      </trkpt>
      <trkpt lat="49.192333007231355" lon="8.933454025536776">
        <ele>227.80000000000001</ele>
        <time>2017-05-05T14:28:27Z</time>
      </trkpt>
      <trkpt lat="49.192543979734182" lon="8.93350699916482">
        <ele>227.59999999999999</ele>
        <time>2017-05-05T14:28:31Z</time>
      </trkpt>
      <trkpt lat="49.192810021340847" lon="8.933519991114736">
        <ele>227</ele>
        <time>2017-05-05T14:28:36Z</time>
      </trkpt>
      <trkpt lat="49.192973971366882" lon="8.933561984449625">
        <ele>226.19999999999999</ele>
        <time>2017-05-05T14:28:39Z</time>
      </trkpt>
      <trkpt lat="49.193043960258365" lon="8.933583023026586">
        <ele>226</ele>
        <time>2017-05-05T14:28:40Z</time>
      </trkpt>
      <trkpt lat="49.193260967731476" lon="8.93357296474278">
        <ele>225</ele>
        <time>2017-05-05T14:28:43Z</time>
      </trkpt>
      <trkpt lat="49.193339003250003" lon="8.933567013591528">
        <ele>224.59999999999999</ele>
        <time>2017-05-05T14:28:44Z</time>
      </trkpt>
      <trkpt lat="49.193649971857667" lon="8.93357003107667">
        <ele>224.40000000000001</ele>
        <time>2017-05-05T14:28:48Z</time>
      </trkpt>
      <trkpt lat="49.193786010146141" lon="8.933583023026586">
        <ele>224.19999999999999</ele>
        <time>2017-05-05T14:28:50Z</time>
      </trkpt>
      <trkpt lat="49.193855999037623" lon="8.93357103690505">
        <ele>224.19999999999999</ele>
        <time>2017-05-05T14:28:51Z</time>
      </trkpt>
      <trkpt lat="49.194136960431933" lon="8.93348797224462">
        <ele>224.80000000000001</ele>
        <time>2017-05-05T14:28:55Z</time>
      </trkpt>
      <trkpt lat="49.194197980687022" lon="8.933439021930099">
        <ele>224.80000000000001</ele>
        <time>2017-05-05T14:28:56Z</time>
      </trkpt>
      <trkpt lat="49.194360002875328" lon="8.933258978649974">
        <ele>225.19999999999999</ele>
        <time>2017-05-05T14:28:59Z</time>
      </trkpt>
      <trkpt lat="49.194468967616558" lon="8.933134004473686">
        <ele>225.40000000000001</ele>
        <time>2017-05-05T14:29:01Z</time>
      </trkpt>
      <trkpt lat="49.1945790220052" lon="8.933015987277031">
        <ele>225.59999999999999</ele>
        <time>2017-05-05T14:29:03Z</time>
      </trkpt>
      <trkpt lat="49.194710031151772" lon="8.932951027527452">
        <ele>225.80000000000001</ele>
        <time>2017-05-05T14:29:05Z</time>
      </trkpt>
      <trkpt lat="49.194840034469962" lon="8.932940969243646">
        <ele>225.80000000000001</ele>
        <time>2017-05-05T14:29:07Z</time>
      </trkpt>
      <trkpt lat="49.194970037788153" lon="8.932938035577536">
        <ele>225.59999999999999</ele>
        <time>2017-05-05T14:29:09Z</time>
      </trkpt>
      <trkpt lat="49.195233983919024" lon="8.932939963415265">
        <ele>225.80000000000001</ele>
        <time>2017-05-05T14:29:13Z</time>
      </trkpt>
      <trkpt lat="49.195358036085963" lon="8.932953039184213">
        <ele>226.19999999999999</ele>
        <time>2017-05-05T14:29:15Z</time>
      </trkpt>
      <trkpt lat="49.195732958614826" lon="8.932937029749155">
        <ele>226.40000000000001</ele>
        <time>2017-05-05T14:29:21Z</time>
      </trkpt>
      <trkpt lat="49.196074018254876" lon="8.932877015322447">
        <ele>225.40000000000001</ele>
        <time>2017-05-05T14:29:26Z</time>
      </trkpt>
      <trkpt lat="49.196415999904275" lon="8.932953961193562">
        <ele>225.19999999999999</ele>
        <time>2017-05-05T14:29:31Z</time>
      </trkpt>
      <trkpt lat="49.196805004030466" lon="8.933241963386536">
        <ele>224.80000000000001</ele>
        <time>2017-05-05T14:29:37Z</time>
      </trkpt>
      <trkpt lat="49.197035003453493" lon="8.933485960587859">
        <ele>224.40000000000001</ele>
        <time>2017-05-05T14:29:41Z</time>
      </trkpt>
      <trkpt lat="49.197101974859834" lon="8.933534994721413">
        <ele>224.19999999999999</ele>
        <time>2017-05-05T14:29:42Z</time>
      </trkpt>
      <trkpt lat="49.197171041741967" lon="8.933580005541444">
        <ele>224.19999999999999</ele>
        <time>2017-05-05T14:29:43Z</time>
      </trkpt>
      <trkpt lat="49.197240024805069" lon="8.933615041896701">
        <ele>224.19999999999999</ele>
        <time>2017-05-05T14:29:44Z</time>
      </trkpt>
      <trkpt lat="49.197515035048127" lon="8.933719983324409">
        <ele>224.19999999999999</ele>
        <time>2017-05-05T14:29:48Z</time>
      </trkpt>
      <trkpt lat="49.197855005040765" lon="8.933813022449613">
        <ele>224.19999999999999</ele>
        <time>2017-05-05T14:29:53Z</time>
      </trkpt>
      <trkpt lat="49.198399996384978" lon="8.933908995240927">
        <ele>224.19999999999999</ele>
        <time>2017-05-05T14:30:01Z</time>
      </trkpt>
      <trkpt lat="49.19881297275424" lon="8.933945037424564">
        <ele>224</ele>
        <time>2017-05-05T14:30:07Z</time>
      </trkpt>
      <trkpt lat="49.199166018515825" lon="8.933964986354113">
        <ele>223.59999999999999</ele>
        <time>2017-05-05T14:30:12Z</time>
      </trkpt>
      <trkpt lat="49.199615959078074" lon="8.933977978304029">
        <ele>223.40000000000001</ele>
        <time>2017-05-05T14:30:19Z</time>
      </trkpt>
      <trkpt lat="49.199673961848021" lon="8.933983007445931">
        <ele>223.40000000000001</ele>
        <time>2017-05-05T14:30:20Z</time>
      </trkpt>
      <trkpt lat="49.199911002069712" lon="8.93400002270937">
        <ele>223.59999999999999</ele>
        <time>2017-05-05T14:30:24Z</time>
      </trkpt>
      <trkpt lat="49.200283996760845" lon="8.934011003002524">
        <ele>223.59999999999999</ele>
        <time>2017-05-05T14:30:30Z</time>
      </trkpt>
      <trkpt lat="49.20059697702527" lon="8.933962974697352">
        <ele>223.40000000000001</ele>
        <time>2017-05-05T14:30:35Z</time>
      </trkpt>
      <trkpt lat="49.201040966436267" lon="8.933884017169476">
        <ele>223.59999999999999</ele>
        <time>2017-05-05T14:30:42Z</time>
      </trkpt>
      <trkpt lat="49.201362999156117" lon="8.933773962780833">
        <ele>223.19999999999999</ele>
        <time>2017-05-05T14:30:47Z</time>
      </trkpt>
      <trkpt lat="49.201419996097684" lon="8.933734986931086">
        <ele>223.19999999999999</ele>
        <time>2017-05-05T14:30:48Z</time>
      </trkpt>
      <trkpt lat="49.201688971370459" lon="8.93346400000155">
        <ele>223</ele>
        <time>2017-05-05T14:30:53Z</time>
      </trkpt>
      <trkpt lat="49.201742028817534" lon="8.9334009680897">
        <ele>223</ele>
        <time>2017-05-05T14:30:54Z</time>
      </trkpt>
      <trkpt lat="49.202027013525367" lon="8.933019004762173">
        <ele>223.19999999999999</ele>
        <time>2017-05-05T14:31:00Z</time>
      </trkpt>
      <trkpt lat="49.202402019873261" lon="8.932496979832649">
        <ele>223</ele>
        <time>2017-05-05T14:31:08Z</time>
      </trkpt>
      <trkpt lat="49.202718017622828" lon="8.932129014283419">
        <ele>222.80000000000001</ele>
        <time>2017-05-05T14:31:14Z</time>
      </trkpt>
      <trkpt lat="49.203050024807453" lon="8.931788960471749">
        <ele>222.80000000000001</ele>
        <time>2017-05-05T14:31:20Z</time>
      </trkpt>
      <trkpt lat="49.203441962599754" lon="8.931410014629364">
        <ele>222.40000000000001</ele>
        <time>2017-05-05T14:31:27Z</time>
      </trkpt>
      <trkpt lat="49.203886035829782" lon="8.930973988026381">
        <ele>222.40000000000001</ele>
        <time>2017-05-05T14:31:35Z</time>
      </trkpt>
      <trkpt lat="49.204090973362327" lon="8.930793022736907">
        <ele>221.59999999999999</ele>
        <time>2017-05-05T14:31:39Z</time>
      </trkpt>
      <trkpt lat="49.204179989174008" lon="8.930701995268464">
        <ele>221</ele>
        <time>2017-05-05T14:31:41Z</time>
      </trkpt>
      <trkpt lat="49.20424796640873" lon="8.930607028305531">
        <ele>220.80000000000001</ele>
        <time>2017-05-05T14:31:43Z</time>
      </trkpt>
      <trkpt lat="49.204283002763987" lon="8.930482976138592">
        <ele>220.59999999999999</ele>
        <time>2017-05-05T14:31:45Z</time>
      </trkpt>
      <trkpt lat="49.204261964187026" lon="8.930338975042105">
        <ele>220.40000000000001</ele>
        <time>2017-05-05T14:31:47Z</time>
      </trkpt>
      <trkpt lat="49.204231034964323" lon="8.930188016965985">
        <ele>220.40000000000001</ele>
        <time>2017-05-05T14:31:49Z</time>
      </trkpt>
      <trkpt lat="49.204184012487531" lon="8.929936978965998">
        <ele>220.40000000000001</ele>
        <time>2017-05-05T14:31:52Z</time>
      </trkpt>
      <trkpt lat="49.204130033031106" lon="8.9296830072999">
        <ele>220.40000000000001</ele>
        <time>2017-05-05T14:31:55Z</time>
      </trkpt>
      <trkpt lat="49.204071024432778" lon="8.929348988458514">
        <ele>220.59999999999999</ele>
        <time>2017-05-05T14:31:59Z</time>
      </trkpt>
      <trkpt lat="49.204102037474513" lon="8.92921001650393">
        <ele>221</ele>
        <time>2017-05-05T14:32:01Z</time>
      </trkpt>
      <trkpt lat="49.204236986115575" lon="8.929118989035487">
        <ele>221</ele>
        <time>2017-05-05T14:32:04Z</time>
      </trkpt>
      <trkpt lat="49.204361038282514" lon="8.92910398542881">
        <ele>220.59999999999999</ele>
        <time>2017-05-05T14:32:06Z</time>
      </trkpt>
      <trkpt lat="49.204479977488518" lon="8.929099040105939">
        <ele>220.40000000000001</ele>
        <time>2017-05-05T14:32:08Z</time>
      </trkpt>
      <trkpt lat="49.204793963581324" lon="8.929105997085571">
        <ele>220</ele>
        <time>2017-05-05T14:32:13Z</time>
      </trkpt>
      <trkpt lat="49.205148015171289" lon="8.929097028449178">
        <ele>220</ele>
        <time>2017-05-05T14:32:18Z</time>
      </trkpt>
      <trkpt lat="49.205218004062772" lon="8.929098034277558">
        <ele>220.19999999999999</ele>
        <time>2017-05-05T14:32:19Z</time>
      </trkpt>
      <trkpt lat="49.205656964331865" lon="8.929052017629147">
        <ele>220.40000000000001</ele>
        <time>2017-05-05T14:32:25Z</time>
      </trkpt>
      <trkpt lat="49.205943960696459" lon="8.928988985717297">
        <ele>220.40000000000001</ele>
        <time>2017-05-05T14:32:29Z</time>
      </trkpt>
      <trkpt lat="49.206303963437676" lon="8.928829981014133">
        <ele>220.59999999999999</ele>
        <time>2017-05-05T14:32:34Z</time>
      </trkpt>
      <trkpt lat="49.206364983692765" lon="8.928782036527991">
        <ele>220.40000000000001</ele>
        <time>2017-05-05T14:32:35Z</time>
      </trkpt>
      <trkpt lat="49.206528011709452" lon="8.928580032661557">
        <ele>220.40000000000001</ele>
        <time>2017-05-05T14:32:38Z</time>
      </trkpt>
      <trkpt lat="49.206687016412616" lon="8.928365036845207">
        <ele>220.40000000000001</ele>
        <time>2017-05-05T14:32:41Z</time>
      </trkpt>
      <trkpt lat="49.206806961447001" lon="8.928226986899972">
        <ele>220.40000000000001</ele>
        <time>2017-05-05T14:32:43Z</time>
      </trkpt>
      <trkpt lat="49.206981975585222" lon="8.928035963326693">
        <ele>220.40000000000001</ele>
        <time>2017-05-05T14:32:46Z</time>
      </trkpt>
      <trkpt lat="49.20704098418355" lon="8.927975026890636">
        <ele>220.40000000000001</ele>
        <time>2017-05-05T14:32:47Z</time>
      </trkpt>
      <trkpt lat="49.207353964447975" lon="8.927702028304339">
        <ele>220</ele>
        <time>2017-05-05T14:32:52Z</time>
      </trkpt>
      <trkpt lat="49.207658981904387" lon="8.927410002797842">
        <ele>220</ele>
        <time>2017-05-05T14:32:57Z</time>
      </trkpt>
      <trkpt lat="49.208001969382167" lon="8.927058968693018">
        <ele>220</ele>
        <time>2017-05-05T14:33:03Z</time>
      </trkpt>
      <trkpt lat="49.208344034850597" lon="8.926743976771832">
        <ele>219.80000000000001</ele>
        <time>2017-05-05T14:33:09Z</time>
      </trkpt>
      <trkpt lat="49.208573028445244" lon="8.926499979570508">
        <ele>219.80000000000001</ele>
        <time>2017-05-05T14:33:13Z</time>
      </trkpt>
      <trkpt lat="49.208626002073288" lon="8.926435019820929">
        <ele>219.59999999999999</ele>
        <time>2017-05-05T14:33:14Z</time>
      </trkpt>
      <trkpt lat="49.20891098678112" lon="8.926134025678039">
        <ele>220</ele>
        <time>2017-05-05T14:33:19Z</time>
      </trkpt>
      <trkpt lat="49.20916898176074" lon="8.925799001008272">
        <ele>220.19999999999999</ele>
        <time>2017-05-05T14:33:24Z</time>
      </trkpt>
      <trkpt lat="49.209427982568741" lon="8.925444027408958">
        <ele>220</ele>
        <time>2017-05-05T14:33:29Z</time>
      </trkpt>
      <trkpt lat="49.209659993648529" lon="8.925107996910811">
        <ele>219.40000000000001</ele>
        <time>2017-05-05T14:33:34Z</time>
      </trkpt>
      <trkpt lat="49.209802988916636" lon="8.924939017742872">
        <ele>219.40000000000001</ele>
        <time>2017-05-05T14:33:37Z</time>
      </trkpt>
      <trkpt lat="49.209903990849853" lon="8.924824018031359">
        <ele>219.59999999999999</ele>
        <time>2017-05-05T14:33:39Z</time>
      </trkpt>
      <trkpt lat="49.209993006661534" lon="8.924708012491465">
        <ele>219.59999999999999</ele>
        <time>2017-05-05T14:33:41Z</time>
      </trkpt>
      <trkpt lat="49.210098031908274" lon="8.924497039988637">
        <ele>220</ele>
        <time>2017-05-05T14:33:44Z</time>
      </trkpt>
      <trkpt lat="49.210229963064194" lon="8.924271985888481">
        <ele>220</ele>
        <time>2017-05-05T14:33:47Z</time>
      </trkpt>
      <trkpt lat="49.210304981097579" lon="8.924125973135233">
        <ele>220</ele>
        <time>2017-05-05T14:33:49Z</time>
      </trkpt>
      <trkpt lat="49.210353009402752" lon="8.923979038372636">
        <ele>220.19999999999999</ele>
        <time>2017-05-05T14:33:51Z</time>
      </trkpt>
      <trkpt lat="49.21041302382946" lon="8.923829002305865">
        <ele>220.40000000000001</ele>
        <time>2017-05-05T14:33:53Z</time>
      </trkpt>
      <trkpt lat="49.210467003285885" lon="8.923759013414383">
        <ele>220.59999999999999</ele>
        <time>2017-05-05T14:33:54Z</time>
      </trkpt>
      <trkpt lat="49.210574962198734" lon="8.923622975125909">
        <ele>220.59999999999999</ele>
        <time>2017-05-05T14:33:56Z</time>
      </trkpt>
      <trkpt lat="49.210742013528943" lon="8.92336699180305">
        <ele>220.59999999999999</ele>
        <time>2017-05-05T14:34:00Z</time>
      </trkpt>
      <trkpt lat="49.21099497936666" lon="8.923145039007068">
        <ele>220.40000000000001</ele>
        <time>2017-05-05T14:34:04Z</time>
      </trkpt>
      <trkpt lat="49.211109979078174" lon="8.923030039295554">
        <ele>220.40000000000001</ele>
        <time>2017-05-05T14:34:06Z</time>
      </trkpt>
      <trkpt lat="49.211235037073493" lon="8.922948986291885">
        <ele>220.40000000000001</ele>
        <time>2017-05-05T14:34:08Z</time>
      </trkpt>
      <trkpt lat="49.211569977924228" lon="8.922766009345651">
        <ele>220.40000000000001</ele>
        <time>2017-05-05T14:34:13Z</time>
      </trkpt>
      <trkpt lat="49.211763013154268" lon="8.922654027119279">
        <ele>220.59999999999999</ele>
        <time>2017-05-05T14:34:16Z</time>
      </trkpt>
      <trkpt lat="49.211816992610693" lon="8.922627037391067">
        <ele>220.80000000000001</ele>
        <time>2017-05-05T14:34:17Z</time>
      </trkpt>
      <trkpt lat="49.212047997862101" lon="8.922470966354013">
        <ele>221</ele>
        <time>2017-05-05T14:34:21Z</time>
      </trkpt>
      <trkpt lat="49.212360978126526" lon="8.922263011336327">
        <ele>221.19999999999999</ele>
        <time>2017-05-05T14:34:26Z</time>
      </trkpt>
      <trkpt lat="49.212468015030026" lon="8.922172989696264">
        <ele>221.19999999999999</ele>
        <time>2017-05-05T14:34:28Z</time>
      </trkpt>
      <trkpt lat="49.212579997256398" lon="8.922081040218473">
        <ele>221.19999999999999</ele>
        <time>2017-05-05T14:34:30Z</time>
      </trkpt>
      <trkpt lat="49.212630959227681" lon="8.922023959457874">
        <ele>221.19999999999999</ele>
        <time>2017-05-05T14:34:31Z</time>
      </trkpt>
      <trkpt lat="49.212782001122832" lon="8.921838970854878">
        <ele>221.19999999999999</ele>
        <time>2017-05-05T14:34:34Z</time>
      </trkpt>
      <trkpt lat="49.212909992784262" lon="8.921674015000463">
        <ele>220.80000000000001</ele>
        <time>2017-05-05T14:34:37Z</time>
      </trkpt>
      <trkpt lat="49.212955003604293" lon="8.921632021665573">
        <ele>220.59999999999999</ele>
        <time>2017-05-05T14:34:38Z</time>
      </trkpt>
      <trkpt lat="49.213059023022652" lon="8.921635961160064">
        <ele>220.40000000000001</ele>
        <time>2017-05-05T14:34:40Z</time>
      </trkpt>
      <trkpt lat="49.213163964450359" lon="8.921655993908644">
        <ele>220.19999999999999</ele>
        <time>2017-05-05T14:34:42Z</time>
      </trkpt>
      <trkpt lat="49.21320604160428" lon="8.921627998352051">
        <ele>220</ele>
        <time>2017-05-05T14:34:43Z</time>
      </trkpt>
      <trkpt lat="49.213286004960537" lon="8.921546023339033">
        <ele>219.80000000000001</ele>
        <time>2017-05-05T14:34:45Z</time>
      </trkpt>
      <trkpt lat="49.213329004123807" lon="8.92149799503386">
        <ele>219.80000000000001</ele>
        <time>2017-05-05T14:34:46Z</time>
      </trkpt>
      <trkpt lat="49.213426988571882" lon="8.921390036121011">
        <ele>219.59999999999999</ele>
        <time>2017-05-05T14:34:48Z</time>
      </trkpt>
      <trkpt lat="49.2136350274086" lon="8.921158025041223">
        <ele>219.40000000000001</ele>
        <time>2017-05-05T14:34:52Z</time>
      </trkpt>
      <trkpt lat="49.213738963007927" lon="8.921041013672948">
        <ele>219.19999999999999</ele>
        <time>2017-05-05T14:34:54Z</time>
      </trkpt>
      <trkpt lat="49.214046997949481" lon="8.920628959313035">
        <ele>219.19999999999999</ele>
        <time>2017-05-05T14:35:00Z</time>
      </trkpt>
      <trkpt lat="49.214337011799216" lon="8.920189999043942">
        <ele>218.80000000000001</ele>
        <time>2017-05-05T14:35:06Z</time>
      </trkpt>
      <trkpt lat="49.214662984013557" lon="8.919697981327772">
        <ele>218.80000000000001</ele>
        <time>2017-05-05T14:35:13Z</time>
      </trkpt>
      <trkpt lat="49.214807990938425" lon="8.919503018260002">
        <ele>218.40000000000001</ele>
        <time>2017-05-05T14:35:16Z</time>
      </trkpt>
      <trkpt lat="49.214917039498687" lon="8.919389024376869">
        <ele>218.19999999999999</ele>
        <time>2017-05-05T14:35:18Z</time>
      </trkpt>
      <trkpt lat="49.215110996738076" lon="8.919149972498417">
        <ele>218.59999999999999</ele>
        <time>2017-05-05T14:35:22Z</time>
      </trkpt>
      <trkpt lat="49.215158019214869" lon="8.918989039957523">
        <ele>218.59999999999999</ele>
        <time>2017-05-05T14:35:24Z</time>
      </trkpt>
      <trkpt lat="49.215276036411524" lon="8.918788963928819">
        <ele>218.19999999999999</ele>
        <time>2017-05-05T14:35:27Z</time>
      </trkpt>
      <trkpt lat="49.215420037508011" lon="8.918610010296106">
        <ele>218</ele>
        <time>2017-05-05T14:35:30Z</time>
      </trkpt>
      <trkpt lat="49.215472005307674" lon="8.918547984212637">
        <ele>218.19999999999999</ele>
        <time>2017-05-05T14:35:31Z</time>
      </trkpt>
      <trkpt lat="49.215767970308661" lon="8.918238021433353">
        <ele>217.80000000000001</ele>
        <time>2017-05-05T14:35:37Z</time>
      </trkpt>
      <trkpt lat="49.216093020513654" lon="8.917944990098476">
        <ele>218</ele>
        <time>2017-05-05T14:35:43Z</time>
      </trkpt>
      <trkpt lat="49.21629804186523" lon="8.917766036465764">
        <ele>217.59999999999999</ele>
        <time>2017-05-05T14:35:47Z</time>
      </trkpt>
      <trkpt lat="49.216354032978415" lon="8.917726976796985">
        <ele>217.59999999999999</ele>
        <time>2017-05-05T14:35:48Z</time>
      </trkpt>
      <trkpt lat="49.216507002711296" lon="8.917622035369277">
        <ele>217.59999999999999</ele>
        <time>2017-05-05T14:35:51Z</time>
      </trkpt>
      <trkpt lat="49.216566011309624" lon="8.917606025934219">
        <ele>217.40000000000001</ele>
        <time>2017-05-05T14:35:52Z</time>
      </trkpt>
      <trkpt lat="49.216596018522978" lon="8.917608959600329">
        <ele>217.40000000000001</ele>
        <time>2017-05-05T14:35:53Z</time>
      </trkpt>
      <trkpt lat="49.216683022677898" lon="8.917766036465764">
        <ele>217.59999999999999</ele>
        <time>2017-05-05T14:35:56Z</time>
      </trkpt>
      <trkpt lat="49.216715041548014" lon="8.91784499399364">
        <ele>217.59999999999999</ele>
        <time>2017-05-05T14:35:57Z</time>
      </trkpt>
      <trkpt lat="49.216821994632483" lon="8.918163003399968">
        <ele>217.80000000000001</ele>
        <time>2017-05-05T14:36:01Z</time>
      </trkpt>
      <trkpt lat="49.216873962432146" lon="8.918325025588274">
        <ele>218</ele>
        <time>2017-05-05T14:36:03Z</time>
      </trkpt>
      <trkpt lat="49.216930959373713" lon="8.918486963957548">
        <ele>218</ele>
        <time>2017-05-05T14:36:05Z</time>
      </trkpt>
      <trkpt lat="49.216980999335647" lon="8.918660972267389">
        <ele>218.19999999999999</ele>
        <time>2017-05-05T14:36:07Z</time>
      </trkpt>
      <trkpt lat="49.217091975733638" lon="8.918975964188576">
        <ele>218.59999999999999</ele>
        <time>2017-05-05T14:36:11Z</time>
      </trkpt>
      <trkpt lat="49.217120977118611" lon="8.919011000543833">
        <ele>218.59999999999999</ele>
        <time>2017-05-05T14:36:12Z</time>
      </trkpt>
      <trkpt lat="49.2171819973737" lon="8.918956015259028">
        <ele>218.80000000000001</ele>
        <time>2017-05-05T14:36:14Z</time>
      </trkpt>
      <trkpt lat="49.21731099486351" lon="8.918856019154191">
        <ele>218.59999999999999</ele>
        <time>2017-05-05T14:36:17Z</time>
      </trkpt>
      <trkpt lat="49.217362040653825" lon="8.918817965313792">
        <ele>218.40000000000001</ele>
        <time>2017-05-05T14:36:18Z</time>
      </trkpt>
      <trkpt lat="49.217668985947967" lon="8.918530968949199">
        <ele>217.80000000000001</ele>
        <time>2017-05-05T14:36:24Z</time>
      </trkpt>
      <trkpt lat="49.217932010069489" lon="8.918243972584605">
        <ele>218.19999999999999</ele>
        <time>2017-05-05T14:36:29Z</time>
      </trkpt>
      <trkpt lat="49.217989007011056" lon="8.918189993128181">
        <ele>218</ele>
        <time>2017-05-05T14:36:30Z</time>
      </trkpt>
      <trkpt lat="49.218223029747605" lon="8.918005004525185">
        <ele>217.40000000000001</ele>
        <time>2017-05-05T14:36:34Z</time>
      </trkpt>
      <trkpt lat="49.218639023602009" lon="8.917741980403662">
        <ele>217.40000000000001</ele>
        <time>2017-05-05T14:36:41Z</time>
      </trkpt>
      <trkpt lat="49.218927025794983" lon="8.917557997629046">
        <ele>216.80000000000001</ele>
        <time>2017-05-05T14:36:46Z</time>
      </trkpt>
      <trkpt lat="49.218987040221691" lon="8.917520027607679">
        <ele>216.80000000000001</ele>
        <time>2017-05-05T14:36:47Z</time>
      </trkpt>
      <trkpt lat="49.219163982197642" lon="8.917416008189321">
        <ele>216.59999999999999</ele>
        <time>2017-05-05T14:36:50Z</time>
      </trkpt>
      <trkpt lat="49.219280993565917" lon="8.917337972670794">
        <ele>216.59999999999999</ele>
        <time>2017-05-05T14:36:52Z</time>
      </trkpt>
      <trkpt lat="49.219558015465736" lon="8.917146027088165">
        <ele>216.59999999999999</ele>
        <time>2017-05-05T14:36:57Z</time>
      </trkpt>
      <trkpt lat="49.219706039875746" lon="8.917038990184665">
        <ele>216.19999999999999</ele>
        <time>2017-05-05T14:37:00Z</time>
      </trkpt>
      <trkpt lat="49.219723977148533" lon="8.916984004899859">
        <ele>216.19999999999999</ele>
        <time>2017-05-05T14:37:01Z</time>
      </trkpt>
      <trkpt lat="49.219696987420321" lon="8.916794992983341">
        <ele>216</ele>
        <time>2017-05-05T14:37:04Z</time>
      </trkpt>
      <trkpt lat="49.219677038490772" lon="8.916723998263478">
        <ele>216</ele>
        <time>2017-05-05T14:37:05Z</time>
      </trkpt>
      <trkpt lat="49.219600008800626" lon="8.916415963321924">
        <ele>216.40000000000001</ele>
        <time>2017-05-05T14:37:09Z</time>
      </trkpt>
      <trkpt lat="49.219581987708807" lon="8.916335999965668">
        <ele>216.40000000000001</ele>
        <time>2017-05-05T14:37:10Z</time>
      </trkpt>
      <trkpt lat="49.219433041289449" lon="8.915710961446166">
        <ele>217</ele>
        <time>2017-05-05T14:37:18Z</time>
      </trkpt>
      <trkpt lat="49.219350982457399" lon="8.915350958704948">
        <ele>217.59999999999999</ele>
        <time>2017-05-05T14:37:24Z</time>
      </trkpt>
      <trkpt lat="49.219359029084444" lon="8.915219027549028">
        <ele>217.80000000000001</ele>
        <time>2017-05-05T14:37:26Z</time>
      </trkpt>
      <trkpt lat="49.219383001327515" lon="8.915162030607462">
        <ele>218</ele>
        <time>2017-05-05T14:37:27Z</time>
      </trkpt>
      <trkpt lat="49.219513004645705" lon="8.915074020624161">
        <ele>218.19999999999999</ele>
        <time>2017-05-05T14:37:30Z</time>
      </trkpt>
      <trkpt lat="49.219560027122498" lon="8.9150529820472">
        <ele>218.19999999999999</ele>
        <time>2017-05-05T14:37:31Z</time>
      </trkpt>
      <trkpt lat="49.219815004616976" lon="8.91494401730597">
        <ele>218.19999999999999</ele>
        <time>2017-05-05T14:37:36Z</time>
      </trkpt>
      <trkpt lat="49.220076017081738" lon="8.914853995665908">
        <ele>218.19999999999999</ele>
        <time>2017-05-05T14:37:41Z</time>
      </trkpt>
      <trkpt lat="49.220127984881401" lon="8.914826000109315">
        <ele>218</ele>
        <time>2017-05-05T14:37:42Z</time>
      </trkpt>
      <trkpt lat="49.220305010676384" lon="8.914762968197465">
        <ele>217.80000000000001</ele>
        <time>2017-05-05T14:37:45Z</time>
      </trkpt>
      <trkpt lat="49.220614973455667" lon="8.914698008447886">
        <ele>217.19999999999999</ele>
        <time>2017-05-05T14:37:50Z</time>
      </trkpt>
      <trkpt lat="49.220779007300735" lon="8.914666995406151">
        <ele>217.19999999999999</ele>
        <time>2017-05-05T14:37:53Z</time>
      </trkpt>
      <trkpt lat="49.220828041434288" lon="8.914646040648222">
        <ele>217.19999999999999</ele>
        <time>2017-05-05T14:37:54Z</time>
      </trkpt>
      <trkpt lat="49.220884032547474" lon="8.91464302316308">
        <ele>217.19999999999999</ele>
        <time>2017-05-05T14:37:55Z</time>
      </trkpt>
      <trkpt lat="49.221015041694045" lon="8.914588959887624">
        <ele>217</ele>
        <time>2017-05-05T14:37:57Z</time>
      </trkpt>
      <trkpt lat="49.221145967021585" lon="8.914512014016509">
        <ele>217</ele>
        <time>2017-05-05T14:37:59Z</time>
      </trkpt>
      <trkpt lat="49.221326010301709" lon="8.914377987384796">
        <ele>216.80000000000001</ele>
        <time>2017-05-05T14:38:02Z</time>
      </trkpt>
      <trkpt lat="49.221662962809205" lon="8.914070958271623">
        <ele>216.80000000000001</ele>
        <time>2017-05-05T14:38:08Z</time>
      </trkpt>
      <trkpt lat="49.221912994980812" lon="8.913783961907029">
        <ele>217.19999999999999</ele>
        <time>2017-05-05T14:38:13Z</time>
      </trkpt>
      <trkpt lat="49.22201500274241" lon="8.91367700882256">
        <ele>217.19999999999999</ele>
        <time>2017-05-05T14:38:15Z</time>
      </trkpt>
      <trkpt lat="49.222122961655259" lon="8.913601990789175">
        <ele>217.40000000000001</ele>
        <time>2017-05-05T14:38:17Z</time>
      </trkpt>
      <trkpt lat="49.222179958596826" lon="8.913583969697356">
        <ele>217.40000000000001</ele>
        <time>2017-05-05T14:38:18Z</time>
      </trkpt>
      <trkpt lat="49.222280960530043" lon="8.91357097774744">
        <ele>217.40000000000001</ele>
        <time>2017-05-05T14:38:20Z</time>
      </trkpt>
      <trkpt lat="49.222385985776782" lon="8.91357097774744">
        <ele>217.19999999999999</ele>
        <time>2017-05-05T14:38:22Z</time>
      </trkpt>
      <trkpt lat="49.222708018496633" lon="8.913572989404202">
        <ele>217.19999999999999</ele>
        <time>2017-05-05T14:38:27Z</time>
      </trkpt>
      <trkpt lat="49.223039019852877" lon="8.913609031587839">
        <ele>217.40000000000001</ele>
        <time>2017-05-05T14:38:32Z</time>
      </trkpt>
      <trkpt lat="49.223514022305608" lon="8.913690000772476">
        <ele>217.80000000000001</ele>
        <time>2017-05-05T14:38:39Z</time>
      </trkpt>
      <trkpt lat="49.223897997289896" lon="8.913786979392171">
        <ele>218</ele>
        <time>2017-05-05T14:38:45Z</time>
      </trkpt>
      <trkpt lat="49.22414199449122" lon="8.913802988827229">
        <ele>218.19999999999999</ele>
        <time>2017-05-05T14:38:49Z</time>
      </trkpt>
      <trkpt lat="49.224255988374352" lon="8.913824027404189">
        <ele>218.40000000000001</ele>
        <time>2017-05-05T14:38:51Z</time>
      </trkpt>
      <trkpt lat="49.224496968090534" lon="8.913829978555441">
        <ele>218.19999999999999</ele>
        <time>2017-05-05T14:38:55Z</time>
      </trkpt>
      <trkpt lat="49.224555976688862" lon="8.91384799964726">
        <ele>218</ele>
        <time>2017-05-05T14:38:56Z</time>
      </trkpt>
      <trkpt lat="49.224780024960637" lon="8.913958976045251">
        <ele>218.40000000000001</ele>
        <time>2017-05-05T14:39:00Z</time>
      </trkpt>
      <trkpt lat="49.225078001618385" lon="8.914174977689982">
        <ele>219.19999999999999</ele>
        <time>2017-05-05T14:39:06Z</time>
      </trkpt>
      <trkpt lat="49.225335996598005" lon="8.914412017911673">
        <ele>219</ele>
        <time>2017-05-05T14:39:11Z</time>
      </trkpt>
      <trkpt lat="49.22538997605443" lon="8.914457028731704">
        <ele>219</ele>
        <time>2017-05-05T14:39:12Z</time>
      </trkpt>
      <trkpt lat="49.225626010447741" lon="8.914705971255899">
        <ele>219.19999999999999</ele>
        <time>2017-05-05T14:39:17Z</time>
      </trkpt>
      <trkpt lat="49.225709997117519" lon="8.914914010092616">
        <ele>218.80000000000001</ele>
        <time>2017-05-05T14:39:20Z</time>
      </trkpt>
      <trkpt lat="49.225722989067435" lon="8.914996990934014">
        <ele>218.59999999999999</ele>
        <time>2017-05-05T14:39:21Z</time>
      </trkpt>
      <trkpt lat="49.225706979632378" lon="8.915166975930333">
        <ele>217.40000000000001</ele>
        <time>2017-05-05T14:39:23Z</time>
      </trkpt>
      <trkpt lat="49.225669009611011" lon="8.915264960378408">
        <ele>217</ele>
        <time>2017-05-05T14:39:24Z</time>
      </trkpt>
      <trkpt lat="49.225631039589643" lon="8.915370991453528">
        <ele>216.19999999999999</ele>
        <time>2017-05-05T14:39:25Z</time>
      </trkpt>
      <trkpt lat="49.225602960214019" lon="8.915732000023127">
        <ele>215.40000000000001</ele>
        <time>2017-05-05T14:39:28Z</time>
      </trkpt>
      <trkpt lat="49.225613018497825" lon="8.915956970304251">
        <ele>215.19999999999999</ele>
        <time>2017-05-05T14:39:30Z</time>
      </trkpt>
      <trkpt lat="49.225619975477457" lon="8.916066018864512">
        <ele>215.40000000000001</ele>
        <time>2017-05-05T14:39:31Z</time>
      </trkpt>
      <trkpt lat="49.225645959377289" lon="8.916281014680862">
        <ele>215.40000000000001</ele>
        <time>2017-05-05T14:39:33Z</time>
      </trkpt>
      <trkpt lat="49.225683007389307" lon="8.916595000773668">
        <ele>215.40000000000001</ele>
        <time>2017-05-05T14:39:36Z</time>
      </trkpt>
      <trkpt lat="49.225732041522861" lon="8.9167919754982">
        <ele>215.19999999999999</ele>
        <time>2017-05-05T14:39:38Z</time>
      </trkpt>
      <trkpt lat="49.225761964917183" lon="8.916883002966642">
        <ele>215.19999999999999</ele>
        <time>2017-05-05T14:39:39Z</time>
      </trkpt>
      <trkpt lat="49.225888028740883" lon="8.917119959369302">
        <ele>215</ele>
        <time>2017-05-05T14:39:42Z</time>
      </trkpt>
      <trkpt lat="49.225932033732533" lon="8.917191959917545">
        <ele>214.80000000000001</ele>
        <time>2017-05-05T14:39:43Z</time>
      </trkpt>
      <trkpt lat="49.226237973198295" lon="8.917570989578962">
        <ele>214.80000000000001</ele>
        <time>2017-05-05T14:39:49Z</time>
      </trkpt>
      <trkpt lat="49.226294970139861" lon="8.917616000398994">
        <ele>214.80000000000001</ele>
        <time>2017-05-05T14:39:50Z</time>
      </trkpt>
      <trkpt lat="49.226475013419986" lon="8.917703004553914">
        <ele>214.59999999999999</ele>
        <time>2017-05-05T14:39:53Z</time>
      </trkpt>
      <trkpt lat="49.226601999253035" lon="8.917723959311843">
        <ele>214.59999999999999</ele>
        <time>2017-05-05T14:39:55Z</time>
      </trkpt>
      <trkpt lat="49.226857982575893" lon="8.917722031474114">
        <ele>214.59999999999999</ele>
        <time>2017-05-05T14:39:59Z</time>
      </trkpt>
      <trkpt lat="49.227165011689067" lon="8.917670985683799">
        <ele>214.59999999999999</ele>
        <time>2017-05-05T14:40:04Z</time>
      </trkpt>
      <trkpt lat="49.227214967831969" lon="8.917628992348909">
        <ele>214.59999999999999</ele>
        <time>2017-05-05T14:40:05Z</time>
      </trkpt>
      <trkpt lat="49.227359974756837" lon="8.91756403259933">
        <ele>215</ele>
        <time>2017-05-05T14:40:08Z</time>
      </trkpt>
      <trkpt lat="49.227403979748487" lon="8.917545005679131">
        <ele>215</ele>
        <time>2017-05-05T14:40:09Z</time>
      </trkpt>
      <trkpt lat="49.22745200805366" lon="8.917520027607679">
        <ele>215.19999999999999</ele>
        <time>2017-05-05T14:40:10Z</time>
      </trkpt>
      <trkpt lat="49.227590980008245" lon="8.917345013469458">
        <ele>215.40000000000001</ele>
        <time>2017-05-05T14:40:13Z</time>
      </trkpt>
      <trkpt lat="49.22766700387001" lon="8.917191037908196">
        <ele>215.40000000000001</ele>
        <time>2017-05-05T14:40:15Z</time>
      </trkpt>
      <trkpt lat="49.227793989703059" lon="8.916950980201364">
        <ele>215.19999999999999</ele>
        <time>2017-05-05T14:40:18Z</time>
      </trkpt>
      <trkpt lat="49.227983001619577" lon="8.916632970795035">
        <ele>214.19999999999999</ele>
        <time>2017-05-05T14:40:22Z</time>
      </trkpt>
      <trkpt lat="49.22803102992475" lon="8.916549989953637">
        <ele>214</ele>
        <time>2017-05-05T14:40:23Z</time>
      </trkpt>
      <trkpt lat="49.228298999369144" lon="8.91606098972261">
        <ele>213.80000000000001</ele>
        <time>2017-05-05T14:40:29Z</time>
      </trkpt>
      <trkpt lat="49.228455992415547" lon="8.915700986981392">
        <ele>213.80000000000001</ele>
        <time>2017-05-05T14:40:33Z</time>
      </trkpt>
      <trkpt lat="49.228476025164127" lon="8.915599985048175">
        <ele>213.80000000000001</ele>
        <time>2017-05-05T14:40:34Z</time>
      </trkpt>
      <trkpt lat="49.228496979922056" lon="8.915394963696599">
        <ele>213.59999999999999</ele>
        <time>2017-05-05T14:40:36Z</time>
      </trkpt>
      <trkpt lat="49.228502009063959" lon="8.915192037820816">
        <ele>213.59999999999999</ele>
        <time>2017-05-05T14:40:38Z</time>
      </trkpt>
      <trkpt lat="49.228507038205862" lon="8.914487035945058">
        <ele>214</ele>
        <time>2017-05-05T14:40:45Z</time>
      </trkpt>
      <trkpt lat="49.228495974093676" lon="8.913938021287322">
        <ele>214.19999999999999</ele>
        <time>2017-05-05T14:40:51Z</time>
      </trkpt>
      <trkpt lat="49.228499997407198" lon="8.913840036839247">
        <ele>214.19999999999999</ele>
        <time>2017-05-05T14:40:52Z</time>
      </trkpt>
      <trkpt lat="49.228566968813539" lon="8.913571983575821">
        <ele>214.19999999999999</ele>
        <time>2017-05-05T14:40:55Z</time>
      </trkpt>
      <trkpt lat="49.228724967688322" lon="8.913393029943109">
        <ele>214</ele>
        <time>2017-05-05T14:40:58Z</time>
      </trkpt>
      <trkpt lat="49.228962007910013" lon="8.913179039955139">
        <ele>213.80000000000001</ele>
        <time>2017-05-05T14:41:02Z</time>
      </trkpt>
      <trkpt lat="49.22914900816977" lon="8.913049036636949">
        <ele>213.40000000000001</ele>
        <time>2017-05-05T14:41:05Z</time>
      </trkpt>
      <trkpt lat="49.229263002052903" lon="8.912955997511745">
        <ele>213.19999999999999</ele>
        <time>2017-05-05T14:41:07Z</time>
      </trkpt>
      <trkpt lat="49.229308012872934" lon="8.912894977256656">
        <ele>213</ele>
        <time>2017-05-05T14:41:08Z</time>
      </trkpt>
      <trkpt lat="49.22934103757143" lon="8.912819037213922">
        <ele>213</ele>
        <time>2017-05-05T14:41:09Z</time>
      </trkpt>
      <trkpt lat="49.229389987885952" lon="8.912564981728792">
        <ele>212.80000000000001</ele>
        <time>2017-05-05T14:41:12Z</time>
      </trkpt>
      <trkpt lat="49.229400968179107" lon="8.912476971745491">
        <ele>212.80000000000001</ele>
        <time>2017-05-05T14:41:13Z</time>
      </trkpt>
      <trkpt lat="49.22947296872735" lon="8.912121998146176">
        <ele>213.59999999999999</ele>
        <time>2017-05-05T14:41:17Z</time>
      </trkpt>
      <trkpt lat="49.22951496206224" lon="8.911954024806619">
        <ele>213.59999999999999</ele>
        <time>2017-05-05T14:41:19Z</time>
      </trkpt>
      <trkpt lat="49.229543041437864" lon="8.911879006773233">
        <ele>213.80000000000001</ele>
        <time>2017-05-05T14:41:20Z</time>
      </trkpt>
      <trkpt lat="49.229624010622501" lon="8.911665016785264">
        <ele>214</ele>
        <time>2017-05-05T14:41:23Z</time>
      </trkpt>
      <trkpt lat="49.229623004794121" lon="8.91159201040864">
        <ele>214</ele>
        <time>2017-05-05T14:41:24Z</time>
      </trkpt>
      <trkpt lat="49.229606995359063" lon="8.911525961011648">
        <ele>213.80000000000001</ele>
        <time>2017-05-05T14:41:25Z</time>
      </trkpt>
      <trkpt lat="49.229447990655899" lon="8.911215998232365">
        <ele>213.59999999999999</ele>
        <time>2017-05-05T14:41:30Z</time>
      </trkpt>
      <trkpt lat="49.229412032291293" lon="8.911153972148895">
        <ele>213.59999999999999</ele>
        <time>2017-05-05T14:41:31Z</time>
      </trkpt>
      <trkpt lat="49.229306001216173" lon="8.910972001031041">
        <ele>213.59999999999999</ele>
        <time>2017-05-05T14:41:34Z</time>
      </trkpt>
      <trkpt lat="49.229226959869266" lon="8.910846021026373">
        <ele>213.59999999999999</ele>
        <time>2017-05-05T14:41:36Z</time>
      </trkpt>
      <trkpt lat="49.228973994031549" lon="8.910471014678478">
        <ele>213.80000000000001</ele>
        <time>2017-05-05T14:41:42Z</time>
      </trkpt>
      <trkpt lat="49.228944992646575" lon="8.910312009975314">
        <ele>214.19999999999999</ele>
        <time>2017-05-05T14:41:44Z</time>
      </trkpt>
      <trkpt lat="49.228961002081633" lon="8.910232968628407">
        <ele>214.40000000000001</ele>
        <time>2017-05-05T14:41:45Z</time>
      </trkpt>
      <trkpt lat="49.229076001793146" lon="8.910039011389017">
        <ele>214.59999999999999</ele>
        <time>2017-05-05T14:41:48Z</time>
      </trkpt>
      <trkpt lat="49.229113971814513" lon="8.909970028325915">
        <ele>214.59999999999999</ele>
        <time>2017-05-05T14:41:49Z</time>
      </trkpt>
      <trkpt lat="49.229404991492629" lon="8.909485973417759">
        <ele>214.59999999999999</ele>
        <time>2017-05-05T14:41:56Z</time>
      </trkpt>
      <trkpt lat="49.22951496206224" lon="8.909269971773028">
        <ele>214.59999999999999</ele>
        <time>2017-05-05T14:41:59Z</time>
      </trkpt>
      <trkpt lat="49.229553015902638" lon="8.909101998433471">
        <ele>214.40000000000001</ele>
        <time>2017-05-05T14:42:01Z</time>
      </trkpt>
      <trkpt lat="49.229524014517665" lon="8.908840985968709">
        <ele>214.40000000000001</ele>
        <time>2017-05-05T14:42:04Z</time>
      </trkpt>
      <trkpt lat="49.229497024789453" lon="8.908581985160708">
        <ele>214.80000000000001</ele>
        <time>2017-05-05T14:42:07Z</time>
      </trkpt>
      <trkpt lat="49.229533988982439" lon="8.908421974629164">
        <ele>215</ele>
        <time>2017-05-05T14:42:09Z</time>
      </trkpt>
      <trkpt lat="49.22959903255105" lon="8.908287025988102">
        <ele>215.19999999999999</ele>
        <time>2017-05-05T14:42:11Z</time>
      </trkpt>
      <trkpt lat="49.229717971757054" lon="8.908102959394455">
        <ele>215.19999999999999</ele>
        <time>2017-05-05T14:42:14Z</time>
      </trkpt>
      <trkpt lat="49.229811010882258" lon="8.908002963289619">
        <ele>215.19999999999999</ele>
        <time>2017-05-05T14:42:16Z</time>
      </trkpt>
      <trkpt lat="49.229932967573404" lon="8.907987959682941">
        <ele>215.19999999999999</ele>
        <time>2017-05-05T14:42:18Z</time>
      </trkpt>
      <trkpt lat="49.230184005573392" lon="8.908065995201469">
        <ele>215</ele>
        <time>2017-05-05T14:42:22Z</time>
      </trkpt>
      <trkpt lat="49.230247037485242" lon="8.908053003251553">
        <ele>214.80000000000001</ele>
        <time>2017-05-05T14:42:23Z</time>
      </trkpt>
      <trkpt lat="49.230359019711614" lon="8.90796197578311">
        <ele>214.19999999999999</ele>
        <time>2017-05-05T14:42:25Z</time>
      </trkpt>
      <trkpt lat="49.230405036360025" lon="8.907898021861911">
        <ele>214.19999999999999</ele>
        <time>2017-05-05T14:42:26Z</time>
      </trkpt>
      <trkpt lat="49.230449041351676" lon="8.907834989950061">
        <ele>214.19999999999999</ele>
        <time>2017-05-05T14:42:27Z</time>
      </trkpt>
      <trkpt lat="49.230680968612432" lon="8.907517986372113">
        <ele>214.19999999999999</ele>
        <time>2017-05-05T14:42:32Z</time>
      </trkpt>
      <trkpt lat="49.230900993570685" lon="8.907306008040905">
        <ele>214.19999999999999</ele>
        <time>2017-05-05T14:42:36Z</time>
      </trkpt>
      <trkpt lat="49.230963019654155" lon="8.90727499499917">
        <ele>214.19999999999999</ele>
        <time>2017-05-05T14:42:37Z</time>
      </trkpt>
      <trkpt lat="49.231153959408402" lon="8.907221015542746">
        <ele>214.19999999999999</ele>
        <time>2017-05-05T14:42:40Z</time>
      </trkpt>
      <trkpt lat="49.231349006295204" lon="8.907174998894334">
        <ele>214.19999999999999</ele>
        <time>2017-05-05T14:42:43Z</time>
      </trkpt>
      <trkpt lat="49.231772962957621" lon="8.907084977254272">
        <ele>214.40000000000001</ele>
        <time>2017-05-05T14:42:50Z</time>
      </trkpt>
      <trkpt lat="49.232090972363949" lon="8.907029991969466">
        <ele>214.40000000000001</ele>
        <time>2017-05-05T14:42:55Z</time>
      </trkpt>
      <trkpt lat="49.232391966506839" lon="8.90699596144259">
        <ele>214.19999999999999</ele>
        <time>2017-05-05T14:43:00Z</time>
      </trkpt>
      <trkpt lat="49.232453992590308" lon="8.906998978927732">
        <ele>214.19999999999999</ele>
        <time>2017-05-05T14:43:01Z</time>
      </trkpt>
      <trkpt lat="49.232634035870433" lon="8.907024962827563">
        <ele>214</ele>
        <time>2017-05-05T14:43:04Z</time>
      </trkpt>
      <trkpt lat="49.232753980904818" lon="8.907061005011201">
        <ele>213.80000000000001</ele>
        <time>2017-05-05T14:43:06Z</time>
      </trkpt>
      <trkpt lat="49.233192019164562" lon="8.907153038308024">
        <ele>213.59999999999999</ele>
        <time>2017-05-05T14:43:13Z</time>
      </trkpt>
      <trkpt lat="49.233253961429" lon="8.907140968367457">
        <ele>213.59999999999999</ele>
        <time>2017-05-05T14:43:14Z</time>
      </trkpt>
      <trkpt lat="49.23333995975554" lon="8.907019011676312">
        <ele>213.40000000000001</ele>
        <time>2017-05-05T14:43:17Z</time>
      </trkpt>
      <trkpt lat="49.233334008604288" lon="8.906933013349772">
        <ele>213.59999999999999</ele>
        <time>2017-05-05T14:43:19Z</time>
      </trkpt>
      <trkpt lat="49.233331996947527" lon="8.906809967011213">
        <ele>213.80000000000001</ele>
        <time>2017-05-05T14:43:22Z</time>
      </trkpt>
      <trkpt lat="49.23333803191781" lon="8.906753975898027">
        <ele>213.80000000000001</ele>
        <time>2017-05-05T14:43:23Z</time>
      </trkpt>
      <trkpt lat="49.233349012210965" lon="8.906635958701372">
        <ele>214</ele>
        <time>2017-05-05T14:43:25Z</time>
      </trkpt>
      <trkpt lat="49.233353035524487" lon="8.906509978696704">
        <ele>214</ele>
        <time>2017-05-05T14:43:27Z</time>
      </trkpt>
      <trkpt lat="49.233371978625655" lon="8.906280985102058">
        <ele>215.40000000000001</ele>
        <time>2017-05-05T14:43:31Z</time>
      </trkpt>
      <trkpt lat="49.233376001939178" lon="8.906224993988872">
        <ele>215.59999999999999</ele>
        <time>2017-05-05T14:43:32Z</time>
      </trkpt>
      <trkpt lat="49.233396034687757" lon="8.906069006770849">
        <ele>216.80000000000001</ele>
        <time>2017-05-05T14:43:35Z</time>
      </trkpt>
      <trkpt lat="49.233408020809293" lon="8.90592098236084">
        <ele>218.19999999999999</ele>
        <time>2017-05-05T14:43:38Z</time>
      </trkpt>
      <trkpt lat="49.233425036072731" lon="8.905826015397906">
        <ele>218.80000000000001</ele>
        <time>2017-05-05T14:43:40Z</time>
      </trkpt>
      <trkpt lat="49.233428975567222" lon="8.905777987092733">
        <ele>219.40000000000001</ele>
        <time>2017-05-05T14:43:41Z</time>
      </trkpt>
      <trkpt lat="49.233441967517138" lon="8.905635997653008">
        <ele>220.59999999999999</ele>
        <time>2017-05-05T14:43:44Z</time>
      </trkpt>
      <trkpt lat="49.233441967517138" lon="8.905589981004596">
        <ele>221</ele>
        <time>2017-05-05T14:43:45Z</time>
      </trkpt>
      <trkpt lat="49.233451019972563" lon="8.905499037355185">
        <ele>221.59999999999999</ele>
        <time>2017-05-05T14:43:47Z</time>
      </trkpt>
      <trkpt lat="49.233459988608956" lon="8.905456038191915">
        <ele>221.80000000000001</ele>
        <time>2017-05-05T14:43:48Z</time>
      </trkpt>
      <trkpt lat="49.233475998044014" lon="8.905319999903441">
        <ele>222.80000000000001</ele>
        <time>2017-05-05T14:43:51Z</time>
      </trkpt>
      <trkpt lat="49.233479015529156" lon="8.905274989083409">
        <ele>223.19999999999999</ele>
        <time>2017-05-05T14:43:52Z</time>
      </trkpt>
      <trkpt lat="49.233497958630323" lon="8.905138028785586">
        <ele>224.40000000000001</ele>
        <time>2017-05-05T14:43:55Z</time>
      </trkpt>
      <trkpt lat="49.233511034399271" lon="8.905002996325493">
        <ele>225.40000000000001</ele>
        <time>2017-05-05T14:43:58Z</time>
      </trkpt>
      <trkpt lat="49.233514973893762" lon="8.904956979677081">
        <ele>225.59999999999999</ele>
        <time>2017-05-05T14:43:59Z</time>
      </trkpt>
      <trkpt lat="49.233542969450355" lon="8.904807027429342">
        <ele>226.80000000000001</ele>
        <time>2017-05-05T14:44:02Z</time>
      </trkpt>
      <trkpt lat="49.233569959178567" lon="8.904662020504475">
        <ele>227.59999999999999</ele>
        <time>2017-05-05T14:44:05Z</time>
      </trkpt>
      <trkpt lat="49.233581023290753" lon="8.904612986370921">
        <ele>227.80000000000001</ele>
        <time>2017-05-05T14:44:06Z</time>
      </trkpt>
      <trkpt lat="49.233611030504107" lon="8.904472002759576">
        <ele>228.80000000000001</ele>
        <time>2017-05-05T14:44:09Z</time>
      </trkpt>
      <trkpt lat="49.233657969161868" lon="8.904286008328199">
        <ele>229.80000000000001</ele>
        <time>2017-05-05T14:44:13Z</time>
      </trkpt>
      <trkpt lat="49.233668027445674" lon="8.904238985851407">
        <ele>230</ele>
        <time>2017-05-05T14:44:14Z</time>
      </trkpt>
      <trkpt lat="49.233715971931815" lon="8.903998006135225">
        <ele>231.19999999999999</ele>
        <time>2017-05-05T14:44:19Z</time>
      </trkpt>
      <trkpt lat="49.233727036044002" lon="8.903946960344911">
        <ele>231.40000000000001</ele>
        <time>2017-05-05T14:44:20Z</time>
      </trkpt>
      <trkpt lat="49.233809011057019" lon="8.903656024485827">
        <ele>231.80000000000001</ele>
        <time>2017-05-05T14:44:26Z</time>
      </trkpt>
      <trkpt lat="49.233908001333475" lon="8.903414960950613">
        <ele>231.40000000000001</ele>
        <time>2017-05-05T14:44:31Z</time>
      </trkpt>
      <trkpt lat="49.233943037688732" lon="8.903315970674157">
        <ele>231.19999999999999</ele>
        <time>2017-05-05T14:44:33Z</time>
      </trkpt>
      <trkpt lat="49.233963992446661" lon="8.903265008702874">
        <ele>231.19999999999999</ele>
        <time>2017-05-05T14:44:34Z</time>
      </trkpt>
      <trkpt lat="49.234028030186892" lon="8.903155960142613">
        <ele>231</ele>
        <time>2017-05-05T14:44:36Z</time>
      </trkpt>
      <trkpt lat="49.234117968007922" lon="8.903030985966325">
        <ele>230.19999999999999</ele>
        <time>2017-05-05T14:44:38Z</time>
      </trkpt>
      <trkpt lat="49.234171025454998" lon="8.902963008731604">
        <ele>229.80000000000001</ele>
        <time>2017-05-05T14:44:39Z</time>
      </trkpt>
      <trkpt lat="49.234288036823273" lon="8.902821019291878">
        <ele>228.40000000000001</ele>
        <time>2017-05-05T14:44:41Z</time>
      </trkpt>
      <trkpt lat="49.234357019886374" lon="8.902751030400395">
        <ele>227.40000000000001</ele>
        <time>2017-05-05T14:44:42Z</time>
      </trkpt>
      <trkpt lat="49.23443597741425" lon="8.902685986831784">
        <ele>226.40000000000001</ele>
        <time>2017-05-05T14:44:43Z</time>
      </trkpt>
      <trkpt lat="49.2345180362463" lon="8.902623960748315">
        <ele>225</ele>
        <time>2017-05-05T14:44:44Z</time>
      </trkpt>
      <trkpt lat="49.234611997380853" lon="8.902570987120271">
        <ele>224</ele>
        <time>2017-05-05T14:44:45Z</time>
      </trkpt>
      <trkpt lat="49.234709981828928" lon="8.902522958815098">
        <ele>223</ele>
        <time>2017-05-05T14:44:46Z</time>
      </trkpt>
      <trkpt lat="49.234820958226919" lon="8.902480965480208">
        <ele>222.19999999999999</ele>
        <time>2017-05-05T14:44:47Z</time>
      </trkpt>
      <trkpt lat="49.234935035929084" lon="8.902447018772364">
        <ele>221.40000000000001</ele>
        <time>2017-05-05T14:44:48Z</time>
      </trkpt>
      <trkpt lat="49.235042994841933" lon="8.902423968538642">
        <ele>221</ele>
        <time>2017-05-05T14:44:49Z</time>
      </trkpt>
      <trkpt lat="49.235146008431911" lon="8.902421034872532">
        <ele>220.40000000000001</ele>
        <time>2017-05-05T14:44:50Z</time>
      </trkpt>
      <trkpt lat="49.235256984829903" lon="8.902424974367023">
        <ele>220</ele>
        <time>2017-05-05T14:44:51Z</time>
      </trkpt>
      <trkpt lat="49.235352035611868" lon="8.90244098380208">
        <ele>219.19999999999999</ele>
        <time>2017-05-05T14:44:52Z</time>
      </trkpt>
      <trkpt lat="49.235439039766788" lon="8.902459004893899">
        <ele>218.80000000000001</ele>
        <time>2017-05-05T14:44:53Z</time>
      </trkpt>
      <trkpt lat="49.23570198006928" lon="8.902518013492227">
        <ele>217.80000000000001</ele>
        <time>2017-05-05T14:44:56Z</time>
      </trkpt>
      <trkpt lat="49.235775992274284" lon="8.902541985735297">
        <ele>217.59999999999999</ele>
        <time>2017-05-05T14:44:57Z</time>
      </trkpt>
      <trkpt lat="49.235843969509006" lon="8.902556989341974">
        <ele>217.19999999999999</ele>
        <time>2017-05-05T14:44:58Z</time>
      </trkpt>
      <trkpt lat="49.235952012240887" lon="8.90256998129189">
        <ele>217.19999999999999</ele>
        <time>2017-05-05T14:45:00Z</time>
      </trkpt>
      <trkpt lat="49.23604303970933" lon="8.902543997392058">
        <ele>217.19999999999999</ele>
        <time>2017-05-05T14:45:03Z</time>
      </trkpt>
      <trkpt lat="49.236068017780781" lon="8.902348028495908">
        <ele>217</ele>
        <time>2017-05-05T14:45:06Z</time>
      </trkpt>
      <trkpt lat="49.236076986417174" lon="8.902094978839159">
        <ele>217.19999999999999</ele>
        <time>2017-05-05T14:45:09Z</time>
      </trkpt>
      <trkpt lat="49.236097019165754" lon="8.901922982186079">
        <ele>217.19999999999999</ele>
        <time>2017-05-05T14:45:11Z</time>
      </trkpt>
      <trkpt lat="49.23613197170198" lon="8.90175299718976">
        <ele>217</ele>
        <time>2017-05-05T14:45:13Z</time>
      </trkpt>
      <trkpt lat="49.236158039420843" lon="8.901671022176743">
        <ele>217</ele>
        <time>2017-05-05T14:45:14Z</time>
      </trkpt>
      <trkpt lat="49.236221993342042" lon="8.901527021080256">
        <ele>217.19999999999999</ele>
        <time>2017-05-05T14:45:16Z</time>
      </trkpt>
      <trkpt lat="49.236320983618498" lon="8.901329962536693">
        <ele>217.59999999999999</ele>
        <time>2017-05-05T14:45:19Z</time>
      </trkpt>
      <trkpt lat="49.23634403385222" lon="8.901263996958733">
        <ele>217.80000000000001</ele>
        <time>2017-05-05T14:45:20Z</time>
      </trkpt>
      <trkpt lat="49.236404970288277" lon="8.901152014732361">
        <ele>218</ele>
        <time>2017-05-05T14:45:22Z</time>
      </trkpt>
      <trkpt lat="49.236499015241861" lon="8.900995021685958">
        <ele>218.59999999999999</ele>
        <time>2017-05-05T14:45:25Z</time>
      </trkpt>
      <trkpt lat="49.23656196333468" lon="8.900896031409502">
        <ele>218.80000000000001</ele>
        <time>2017-05-05T14:45:27Z</time>
      </trkpt>
      <trkpt lat="49.236590964719653" lon="8.90084900893271">
        <ele>219</ele>
        <time>2017-05-05T14:45:28Z</time>
      </trkpt>
      <trkpt lat="49.236676963046193" lon="8.900702996179462">
        <ele>220</ele>
        <time>2017-05-05T14:45:31Z</time>
      </trkpt>
      <trkpt lat="49.236707976087928" lon="8.90065798535943">
        <ele>220.40000000000001</ele>
        <time>2017-05-05T14:45:32Z</time>
      </trkpt>
      <trkpt lat="49.236764973029494" lon="8.900572992861271">
        <ele>220.80000000000001</ele>
        <time>2017-05-05T14:45:34Z</time>
      </trkpt>
      <trkpt lat="49.236849965527654" lon="8.900440977886319">
        <ele>221.40000000000001</ele>
        <time>2017-05-05T14:45:37Z</time>
      </trkpt>
      <trkpt lat="49.236877961084247" lon="8.90039999037981">
        <ele>221.59999999999999</ele>
        <time>2017-05-05T14:45:38Z</time>
      </trkpt>
      <trkpt lat="49.236929006874561" lon="8.900317009538412">
        <ele>222.19999999999999</ele>
        <time>2017-05-05T14:45:40Z</time>
      </trkpt>
      <trkpt lat="49.237139979377389" lon="8.899996988475323">
        <ele>222.40000000000001</ele>
        <time>2017-05-05T14:45:47Z</time>
      </trkpt>
      <trkpt lat="49.237238969653845" lon="8.899832032620907">
        <ele>222.19999999999999</ele>
        <time>2017-05-05T14:45:50Z</time>
      </trkpt>
      <trkpt lat="49.237340977415442" lon="8.899635979905725">
        <ele>221.59999999999999</ele>
        <time>2017-05-05T14:45:53Z</time>
      </trkpt>
      <trkpt lat="49.237456982955337" lon="8.899417966604233">
        <ele>220.80000000000001</ele>
        <time>2017-05-05T14:45:56Z</time>
      </trkpt>
      <trkpt lat="49.237497970461845" lon="8.899341020733118">
        <ele>220.40000000000001</ele>
        <time>2017-05-05T14:45:57Z</time>
      </trkpt>
      <trkpt lat="49.237595032900572" lon="8.899186039343476">
        <ele>219.80000000000001</ele>
        <time>2017-05-05T14:45:59Z</time>
      </trkpt>
      <trkpt lat="49.237643983215094" lon="8.899104986339808">
        <ele>219.40000000000001</ele>
        <time>2017-05-05T14:46:00Z</time>
      </trkpt>
      <trkpt lat="49.237745990976691" lon="8.898941036313772">
        <ele>218.59999999999999</ele>
        <time>2017-05-05T14:46:02Z</time>
      </trkpt>
      <trkpt lat="49.237846992909908" lon="8.898774990811944">
        <ele>218</ele>
        <time>2017-05-05T14:46:04Z</time>
      </trkpt>
      <trkpt lat="49.237935002893209" lon="8.898597965016961">
        <ele>217.40000000000001</ele>
        <time>2017-05-05T14:46:06Z</time>
      </trkpt>
      <trkpt lat="49.237969033420086" lon="8.898506015539169">
        <ele>217</ele>
        <time>2017-05-05T14:46:07Z</time>
      </trkpt>
      <trkpt lat="49.237984959036112" lon="8.898410964757204">
        <ele>216.59999999999999</ele>
        <time>2017-05-05T14:46:08Z</time>
      </trkpt>
      <trkpt lat="49.237998034805059" lon="8.898325972259045">
        <ele>216.40000000000001</ele>
        <time>2017-05-05T14:46:09Z</time>
      </trkpt>
      <trkpt lat="49.238039022311568" lon="8.898208038881421">
        <ele>215.59999999999999</ele>
        <time>2017-05-05T14:46:11Z</time>
      </trkpt>
      <trkpt lat="49.238058971241117" lon="8.898181971162558">
        <ele>215</ele>
        <time>2017-05-05T14:46:12Z</time>
      </trkpt>
      <trkpt lat="49.23810800537467" lon="8.898162022233009">
        <ele>214.19999999999999</ele>
        <time>2017-05-05T14:46:14Z</time>
      </trkpt>
      <trkpt lat="49.238140024244785" lon="8.898146012797952">
        <ele>214</ele>
        <time>2017-05-05T14:46:15Z</time>
      </trkpt>
      <trkpt lat="49.238170031458139" lon="8.898121034726501">
        <ele>213.59999999999999</ele>
        <time>2017-05-05T14:46:16Z</time>
      </trkpt>
      <trkpt lat="49.238203978165984" lon="8.898087004199624">
        <ele>213.19999999999999</ele>
        <time>2017-05-05T14:46:17Z</time>
      </trkpt>
      <trkpt lat="49.238288970664144" lon="8.897937973961234">
        <ele>212.59999999999999</ele>
        <time>2017-05-05T14:46:20Z</time>
      </trkpt>
      <trkpt lat="49.238334987312555" lon="8.897869996726513">
        <ele>212.19999999999999</ele>
        <time>2017-05-05T14:46:23Z</time>
      </trkpt>
      <trkpt lat="49.238338004797697" lon="8.897865973412991">
        <ele>212.40000000000001</ele>
        <time>2017-05-05T14:46:25Z</time>
      </trkpt>
      <trkpt lat="49.2383430339396" lon="8.897863039746881">
        <ele>212.40000000000001</ele>
        <time>2017-05-05T14:46:28Z</time>
      </trkpt>
    </trkseg>
  </trk>

</gpx>
